<?xml version="1.0" encoding="UTF-8" standalone="no" ?>
<gpx xmlns="http://www.topografix.com/GPX/1/1" xmlns:xsi="http://www.w3.org/2001/XMLSchema-instance" xsi:schemaLocation="http://www.topografix.com/GPX/1/1 http://www.topografix.com/GPX/1/1/gpx.xsd" version="1.1" creator="VisuGPX - https://www.visugpx.com">
  <metadata>
    <name>Boucle La Combe (84 - Lioux)</name>
    <desc><![CDATA[14/09/2019 - Boucle La Combe (Lioux)
Parcours à 4 personnes, sans se presser.]]></desc>
  </metadata>
  <trk>
    <name><![CDATA[Boucle La Combe (84 - Lioux)_1]]></name>
    <trkseg>
      <trkpt lat="43.94533" lon="5.29463">
        <ele>257.5</ele>
        <time>2019-09-14T09:23:34Z</time>
      </trkpt>
      <trkpt lat="43.94535" lon="5.29464">
        <ele>263.5</ele>
        <time>2019-09-14T09:23:40Z</time>
      </trkpt>
      <trkpt lat="43.94536" lon="5.29464">
        <ele>263.5</ele>
        <time>2019-09-14T09:23:46Z</time>
      </trkpt>
      <trkpt lat="43.94536" lon="5.29464">
        <ele>263.5</ele>
        <time>2019-09-14T09:23:53Z</time>
      </trkpt>
      <trkpt lat="43.94538" lon="5.29467">
        <ele>271.5</ele>
        <time>2019-09-14T09:23:58Z</time>
      </trkpt>
      <trkpt lat="43.94543" lon="5.29471">
        <ele>283.5</ele>
        <time>2019-09-14T09:24:04Z</time>
      </trkpt>
      <trkpt lat="43.94543" lon="5.29471">
        <ele>282.5</ele>
        <time>2019-09-14T09:24:10Z</time>
      </trkpt>
      <trkpt lat="43.94543" lon="5.29471">
        <ele>283.5</ele>
        <time>2019-09-14T09:24:15Z</time>
      </trkpt>
      <trkpt lat="43.94543" lon="5.29471">
        <ele>283.5</ele>
        <time>2019-09-14T09:24:21Z</time>
      </trkpt>
      <trkpt lat="43.94544" lon="5.29471">
        <ele>284.5</ele>
        <time>2019-09-14T09:24:27Z</time>
      </trkpt>
      <trkpt lat="43.94543" lon="5.29468">
        <ele>278.5</ele>
        <time>2019-09-14T09:24:32Z</time>
      </trkpt>
      <trkpt lat="43.94543" lon="5.29466">
        <ele>276.5</ele>
        <time>2019-09-14T09:24:38Z</time>
      </trkpt>
      <trkpt lat="43.94543" lon="5.29466">
        <ele>275.5</ele>
        <time>2019-09-14T09:24:44Z</time>
      </trkpt>
      <trkpt lat="43.94543" lon="5.29465">
        <ele>273.5</ele>
        <time>2019-09-14T09:24:50Z</time>
      </trkpt>
      <trkpt lat="43.94542" lon="5.29465">
        <ele>272.5</ele>
        <time>2019-09-14T09:24:55Z</time>
      </trkpt>
      <trkpt lat="43.94542" lon="5.29464">
        <ele>271.5</ele>
        <time>2019-09-14T09:25:00Z</time>
      </trkpt>
      <trkpt lat="43.94542" lon="5.29464">
        <ele>270.5</ele>
        <time>2019-09-14T09:25:06Z</time>
      </trkpt>
      <trkpt lat="43.94542" lon="5.29464">
        <ele>270.5</ele>
        <time>2019-09-14T09:25:12Z</time>
      </trkpt>
      <trkpt lat="43.94543" lon="5.29463">
        <ele>270.5</ele>
        <time>2019-09-14T09:25:17Z</time>
      </trkpt>
      <trkpt lat="43.94542" lon="5.29464">
        <ele>272.5</ele>
        <time>2019-09-14T09:25:23Z</time>
      </trkpt>
      <trkpt lat="43.94541" lon="5.29465">
        <ele>273.5</ele>
        <time>2019-09-14T09:25:29Z</time>
      </trkpt>
      <trkpt lat="43.94541" lon="5.29465">
        <ele>273.5</ele>
        <time>2019-09-14T09:25:35Z</time>
      </trkpt>
      <trkpt lat="43.94541" lon="5.29465">
        <ele>273.5</ele>
        <time>2019-09-14T09:25:40Z</time>
      </trkpt>
      <trkpt lat="43.94541" lon="5.29465">
        <ele>273.5</ele>
        <time>2019-09-14T09:25:46Z</time>
      </trkpt>
      <trkpt lat="43.94541" lon="5.29466">
        <ele>274.5</ele>
        <time>2019-09-14T09:25:52Z</time>
      </trkpt>
      <trkpt lat="43.94541" lon="5.29466">
        <ele>275.5</ele>
        <time>2019-09-14T09:25:57Z</time>
      </trkpt>
      <trkpt lat="43.94541" lon="5.29465">
        <ele>274.5</ele>
        <time>2019-09-14T09:26:03Z</time>
      </trkpt>
      <trkpt lat="43.9454" lon="5.29464">
        <ele>272.5</ele>
        <time>2019-09-14T09:26:09Z</time>
      </trkpt>
      <trkpt lat="43.9454" lon="5.29464">
        <ele>272.5</ele>
        <time>2019-09-14T09:26:14Z</time>
      </trkpt>
      <trkpt lat="43.9454" lon="5.29464">
        <ele>272.5</ele>
        <time>2019-09-14T09:26:20Z</time>
      </trkpt>
      <trkpt lat="43.9454" lon="5.29464">
        <ele>272.5</ele>
        <time>2019-09-14T09:26:26Z</time>
      </trkpt>
      <trkpt lat="43.9454" lon="5.29464">
        <ele>272.5</ele>
        <time>2019-09-14T09:26:32Z</time>
      </trkpt>
      <trkpt lat="43.9454" lon="5.29465">
        <ele>273.5</ele>
        <time>2019-09-14T09:26:37Z</time>
      </trkpt>
      <trkpt lat="43.9454" lon="5.29464">
        <ele>272.5</ele>
        <time>2019-09-14T09:26:43Z</time>
      </trkpt>
      <trkpt lat="43.9454" lon="5.29464">
        <ele>272.5</ele>
        <time>2019-09-14T09:26:49Z</time>
      </trkpt>
      <trkpt lat="43.9454" lon="5.29464">
        <ele>272.5</ele>
        <time>2019-09-14T09:26:55Z</time>
      </trkpt>
      <trkpt lat="43.9454" lon="5.29464">
        <ele>272.5</ele>
        <time>2019-09-14T09:27:00Z</time>
      </trkpt>
      <trkpt lat="43.9454" lon="5.29464">
        <ele>272.5</ele>
        <time>2019-09-14T09:27:06Z</time>
      </trkpt>
      <trkpt lat="43.9454" lon="5.29464">
        <ele>272.5</ele>
        <time>2019-09-14T09:27:12Z</time>
      </trkpt>
      <trkpt lat="43.9454" lon="5.29464">
        <ele>272.5</ele>
        <time>2019-09-14T09:27:18Z</time>
      </trkpt>
      <trkpt lat="43.9454" lon="5.29464">
        <ele>272.5</ele>
        <time>2019-09-14T09:27:23Z</time>
      </trkpt>
      <trkpt lat="43.9454" lon="5.29464">
        <ele>272.5</ele>
        <time>2019-09-14T09:27:29Z</time>
      </trkpt>
      <trkpt lat="43.9454" lon="5.29464">
        <ele>272.5</ele>
        <time>2019-09-14T09:27:35Z</time>
      </trkpt>
      <trkpt lat="43.9454" lon="5.29464">
        <ele>272.5</ele>
        <time>2019-09-14T09:27:40Z</time>
      </trkpt>
      <trkpt lat="43.9454" lon="5.29464">
        <ele>272.5</ele>
        <time>2019-09-14T09:27:46Z</time>
      </trkpt>
      <trkpt lat="43.9454" lon="5.29464">
        <ele>272.5</ele>
        <time>2019-09-14T09:27:52Z</time>
      </trkpt>
      <trkpt lat="43.9454" lon="5.29464">
        <ele>272.5</ele>
        <time>2019-09-14T09:27:58Z</time>
      </trkpt>
      <trkpt lat="43.9454" lon="5.29464">
        <ele>272.5</ele>
        <time>2019-09-14T09:28:04Z</time>
      </trkpt>
      <trkpt lat="43.9454" lon="5.29464">
        <ele>272.5</ele>
        <time>2019-09-14T09:28:10Z</time>
      </trkpt>
      <trkpt lat="43.9454" lon="5.29464">
        <ele>272.5</ele>
        <time>2019-09-14T09:28:16Z</time>
      </trkpt>
      <trkpt lat="43.9454" lon="5.29464">
        <ele>272.5</ele>
        <time>2019-09-14T09:28:21Z</time>
      </trkpt>
      <trkpt lat="43.9454" lon="5.29464">
        <ele>272.5</ele>
        <time>2019-09-14T09:28:27Z</time>
      </trkpt>
      <trkpt lat="43.9454" lon="5.29464">
        <ele>272.5</ele>
        <time>2019-09-14T09:28:32Z</time>
      </trkpt>
      <trkpt lat="43.9454" lon="5.29464">
        <ele>272.5</ele>
        <time>2019-09-14T09:28:38Z</time>
      </trkpt>
      <trkpt lat="43.9454" lon="5.29464">
        <ele>272.5</ele>
        <time>2019-09-14T09:28:44Z</time>
      </trkpt>
      <trkpt lat="43.9454" lon="5.29464">
        <ele>272.5</ele>
        <time>2019-09-14T09:28:49Z</time>
      </trkpt>
      <trkpt lat="43.9454" lon="5.29464">
        <ele>272.5</ele>
        <time>2019-09-14T09:28:56Z</time>
      </trkpt>
      <trkpt lat="43.9454" lon="5.29464">
        <ele>272.5</ele>
        <time>2019-09-14T09:29:01Z</time>
      </trkpt>
      <trkpt lat="43.9454" lon="5.29464">
        <ele>272.5</ele>
        <time>2019-09-14T09:29:06Z</time>
      </trkpt>
      <trkpt lat="43.9454" lon="5.29464">
        <ele>272.5</ele>
        <time>2019-09-14T09:29:11Z</time>
      </trkpt>
      <trkpt lat="43.9454" lon="5.29464">
        <ele>272.5</ele>
        <time>2019-09-14T09:29:17Z</time>
      </trkpt>
      <trkpt lat="43.9454" lon="5.29464">
        <ele>272.5</ele>
        <time>2019-09-14T09:29:23Z</time>
      </trkpt>
      <trkpt lat="43.9454" lon="5.29464">
        <ele>272.5</ele>
        <time>2019-09-14T09:29:29Z</time>
      </trkpt>
      <trkpt lat="43.9454" lon="5.29464">
        <ele>272.5</ele>
        <time>2019-09-14T09:29:34Z</time>
      </trkpt>
      <trkpt lat="43.9454" lon="5.29464">
        <ele>272.5</ele>
        <time>2019-09-14T09:29:39Z</time>
      </trkpt>
      <trkpt lat="43.9454" lon="5.29464">
        <ele>272.5</ele>
        <time>2019-09-14T09:29:45Z</time>
      </trkpt>
      <trkpt lat="43.9454" lon="5.29464">
        <ele>272.5</ele>
        <time>2019-09-14T09:29:50Z</time>
      </trkpt>
      <trkpt lat="43.9454" lon="5.29464">
        <ele>272.5</ele>
        <time>2019-09-14T09:29:55Z</time>
      </trkpt>
      <trkpt lat="43.9454" lon="5.29464">
        <ele>272.5</ele>
        <time>2019-09-14T09:30:00Z</time>
      </trkpt>
      <trkpt lat="43.9454" lon="5.29464">
        <ele>272.5</ele>
        <time>2019-09-14T09:30:06Z</time>
      </trkpt>
      <trkpt lat="43.9454" lon="5.29464">
        <ele>272.5</ele>
        <time>2019-09-14T09:30:12Z</time>
      </trkpt>
      <trkpt lat="43.9454" lon="5.29464">
        <ele>272.5</ele>
        <time>2019-09-14T09:30:18Z</time>
      </trkpt>
      <trkpt lat="43.9454" lon="5.29464">
        <ele>272.5</ele>
        <time>2019-09-14T09:30:24Z</time>
      </trkpt>
      <trkpt lat="43.9454" lon="5.29464">
        <ele>272.5</ele>
        <time>2019-09-14T09:30:29Z</time>
      </trkpt>
      <trkpt lat="43.9454" lon="5.29464">
        <ele>272.5</ele>
        <time>2019-09-14T09:30:35Z</time>
      </trkpt>
      <trkpt lat="43.9454" lon="5.29464">
        <ele>272.5</ele>
        <time>2019-09-14T09:30:40Z</time>
      </trkpt>
      <trkpt lat="43.9454" lon="5.29464">
        <ele>272.5</ele>
        <time>2019-09-14T09:30:46Z</time>
      </trkpt>
      <trkpt lat="43.9454" lon="5.29464">
        <ele>272.5</ele>
        <time>2019-09-14T09:30:52Z</time>
      </trkpt>
      <trkpt lat="43.9454" lon="5.29464">
        <ele>272.5</ele>
        <time>2019-09-14T09:30:58Z</time>
      </trkpt>
      <trkpt lat="43.9454" lon="5.29464">
        <ele>272.5</ele>
        <time>2019-09-14T09:31:04Z</time>
      </trkpt>
      <trkpt lat="43.9454" lon="5.29464">
        <ele>272.5</ele>
        <time>2019-09-14T09:31:09Z</time>
      </trkpt>
      <trkpt lat="43.9454" lon="5.29464">
        <ele>272.5</ele>
        <time>2019-09-14T09:31:15Z</time>
      </trkpt>
      <trkpt lat="43.9454" lon="5.29464">
        <ele>272.5</ele>
        <time>2019-09-14T09:31:20Z</time>
      </trkpt>
      <trkpt lat="43.9454" lon="5.29464">
        <ele>272.5</ele>
        <time>2019-09-14T09:31:25Z</time>
      </trkpt>
      <trkpt lat="43.9454" lon="5.29464">
        <ele>272.5</ele>
        <time>2019-09-14T09:31:30Z</time>
      </trkpt>
      <trkpt lat="43.9454" lon="5.29464">
        <ele>272.5</ele>
        <time>2019-09-14T09:31:36Z</time>
      </trkpt>
      <trkpt lat="43.9454" lon="5.29464">
        <ele>272.5</ele>
        <time>2019-09-14T09:31:41Z</time>
      </trkpt>
      <trkpt lat="43.9454" lon="5.29464">
        <ele>272.5</ele>
        <time>2019-09-14T09:31:47Z</time>
      </trkpt>
      <trkpt lat="43.9454" lon="5.29464">
        <ele>272.5</ele>
        <time>2019-09-14T09:31:52Z</time>
      </trkpt>
      <trkpt lat="43.9454" lon="5.29464">
        <ele>272.5</ele>
        <time>2019-09-14T09:31:57Z</time>
      </trkpt>
      <trkpt lat="43.9454" lon="5.29464">
        <ele>272.5</ele>
        <time>2019-09-14T09:32:03Z</time>
      </trkpt>
      <trkpt lat="43.9454" lon="5.29464">
        <ele>272.5</ele>
        <time>2019-09-14T09:32:08Z</time>
      </trkpt>
      <trkpt lat="43.9454" lon="5.29464">
        <ele>272.5</ele>
        <time>2019-09-14T09:32:13Z</time>
      </trkpt>
      <trkpt lat="43.9454" lon="5.29464">
        <ele>272.5</ele>
        <time>2019-09-14T09:32:19Z</time>
      </trkpt>
      <trkpt lat="43.9454" lon="5.29464">
        <ele>272.5</ele>
        <time>2019-09-14T09:32:26Z</time>
      </trkpt>
      <trkpt lat="43.9454" lon="5.29464">
        <ele>272.5</ele>
        <time>2019-09-14T09:32:32Z</time>
      </trkpt>
      <trkpt lat="43.9454" lon="5.29464">
        <ele>272.5</ele>
        <time>2019-09-14T09:32:37Z</time>
      </trkpt>
      <trkpt lat="43.9454" lon="5.29464">
        <ele>272.5</ele>
        <time>2019-09-14T09:32:42Z</time>
      </trkpt>
      <trkpt lat="43.9454" lon="5.29464">
        <ele>272.5</ele>
        <time>2019-09-14T09:32:48Z</time>
      </trkpt>
      <trkpt lat="43.9454" lon="5.29464">
        <ele>272.5</ele>
        <time>2019-09-14T09:32:54Z</time>
      </trkpt>
      <trkpt lat="43.9454" lon="5.29464">
        <ele>272.5</ele>
        <time>2019-09-14T09:32:59Z</time>
      </trkpt>
      <trkpt lat="43.9454" lon="5.29464">
        <ele>272.5</ele>
        <time>2019-09-14T09:33:04Z</time>
      </trkpt>
      <trkpt lat="43.9454" lon="5.29464">
        <ele>272.5</ele>
        <time>2019-09-14T09:33:10Z</time>
      </trkpt>
      <trkpt lat="43.9454" lon="5.29464">
        <ele>272.5</ele>
        <time>2019-09-14T09:33:15Z</time>
      </trkpt>
      <trkpt lat="43.9454" lon="5.29464">
        <ele>272.5</ele>
        <time>2019-09-14T09:33:20Z</time>
      </trkpt>
      <trkpt lat="43.9454" lon="5.29464">
        <ele>272.5</ele>
        <time>2019-09-14T09:33:26Z</time>
      </trkpt>
      <trkpt lat="43.9454" lon="5.29464">
        <ele>272.5</ele>
        <time>2019-09-14T09:33:31Z</time>
      </trkpt>
      <trkpt lat="43.9454" lon="5.29464">
        <ele>272.5</ele>
        <time>2019-09-14T09:33:37Z</time>
      </trkpt>
      <trkpt lat="43.9454" lon="5.29464">
        <ele>272.5</ele>
        <time>2019-09-14T09:33:43Z</time>
      </trkpt>
      <trkpt lat="43.9454" lon="5.29464">
        <ele>272.5</ele>
        <time>2019-09-14T09:33:48Z</time>
      </trkpt>
      <trkpt lat="43.9454" lon="5.29464">
        <ele>272.5</ele>
        <time>2019-09-14T09:33:54Z</time>
      </trkpt>
      <trkpt lat="43.9454" lon="5.29464">
        <ele>272.5</ele>
        <time>2019-09-14T09:33:59Z</time>
      </trkpt>
      <trkpt lat="43.9454" lon="5.29464">
        <ele>272.5</ele>
        <time>2019-09-14T09:34:05Z</time>
      </trkpt>
      <trkpt lat="43.9454" lon="5.29464">
        <ele>272.5</ele>
        <time>2019-09-14T09:34:11Z</time>
      </trkpt>
      <trkpt lat="43.9454" lon="5.29464">
        <ele>272.5</ele>
        <time>2019-09-14T09:34:16Z</time>
      </trkpt>
      <trkpt lat="43.9454" lon="5.29464">
        <ele>272.5</ele>
        <time>2019-09-14T09:34:22Z</time>
      </trkpt>
      <trkpt lat="43.9454" lon="5.29464">
        <ele>272.5</ele>
        <time>2019-09-14T09:34:27Z</time>
      </trkpt>
      <trkpt lat="43.9454" lon="5.29464">
        <ele>272.5</ele>
        <time>2019-09-14T09:34:33Z</time>
      </trkpt>
      <trkpt lat="43.9454" lon="5.29464">
        <ele>272.5</ele>
        <time>2019-09-14T09:34:39Z</time>
      </trkpt>
      <trkpt lat="43.9454" lon="5.29464">
        <ele>272.5</ele>
        <time>2019-09-14T09:34:44Z</time>
      </trkpt>
      <trkpt lat="43.9454" lon="5.29464">
        <ele>272.5</ele>
        <time>2019-09-14T09:34:50Z</time>
      </trkpt>
      <trkpt lat="43.9454" lon="5.29464">
        <ele>272.5</ele>
        <time>2019-09-14T09:34:55Z</time>
      </trkpt>
      <trkpt lat="43.9454" lon="5.29464">
        <ele>272.5</ele>
        <time>2019-09-14T09:35:00Z</time>
      </trkpt>
      <trkpt lat="43.9454" lon="5.29464">
        <ele>272.5</ele>
        <time>2019-09-14T09:35:06Z</time>
      </trkpt>
      <trkpt lat="43.9454" lon="5.29464">
        <ele>272.5</ele>
        <time>2019-09-14T09:35:12Z</time>
      </trkpt>
      <trkpt lat="43.9454" lon="5.29464">
        <ele>272.5</ele>
        <time>2019-09-14T09:35:18Z</time>
      </trkpt>
      <trkpt lat="43.9454" lon="5.29464">
        <ele>272.5</ele>
        <time>2019-09-14T09:35:24Z</time>
      </trkpt>
      <trkpt lat="43.9454" lon="5.29464">
        <ele>272.5</ele>
        <time>2019-09-14T09:35:29Z</time>
      </trkpt>
      <trkpt lat="43.94541" lon="5.29464">
        <ele>272.5</ele>
        <time>2019-09-14T09:35:35Z</time>
      </trkpt>
      <trkpt lat="43.94541" lon="5.29464">
        <ele>272.5</ele>
        <time>2019-09-14T09:35:42Z</time>
      </trkpt>
      <trkpt lat="43.94541" lon="5.29464">
        <ele>272.5</ele>
        <time>2019-09-14T09:35:48Z</time>
      </trkpt>
      <trkpt lat="43.94541" lon="5.29464">
        <ele>272.5</ele>
        <time>2019-09-14T09:35:53Z</time>
      </trkpt>
      <trkpt lat="43.94541" lon="5.29464">
        <ele>272.5</ele>
        <time>2019-09-14T09:35:58Z</time>
      </trkpt>
      <trkpt lat="43.94541" lon="5.29464">
        <ele>272.5</ele>
        <time>2019-09-14T09:36:03Z</time>
      </trkpt>
      <trkpt lat="43.94541" lon="5.29464">
        <ele>272.5</ele>
        <time>2019-09-14T09:36:09Z</time>
      </trkpt>
      <trkpt lat="43.94541" lon="5.29464">
        <ele>272.5</ele>
        <time>2019-09-14T09:36:15Z</time>
      </trkpt>
      <trkpt lat="43.94541" lon="5.29464">
        <ele>272.5</ele>
        <time>2019-09-14T09:36:20Z</time>
      </trkpt>
      <trkpt lat="43.9454" lon="5.29464">
        <ele>271.5</ele>
        <time>2019-09-14T09:36:26Z</time>
      </trkpt>
      <trkpt lat="43.9454" lon="5.29464">
        <ele>271.5</ele>
        <time>2019-09-14T09:36:32Z</time>
      </trkpt>
      <trkpt lat="43.9454" lon="5.29464">
        <ele>272.5</ele>
        <time>2019-09-14T09:36:38Z</time>
      </trkpt>
      <trkpt lat="43.94541" lon="5.29464">
        <ele>272.5</ele>
        <time>2019-09-14T09:36:44Z</time>
      </trkpt>
      <trkpt lat="43.94541" lon="5.29464">
        <ele>272.5</ele>
        <time>2019-09-14T09:36:49Z</time>
      </trkpt>
      <trkpt lat="43.94541" lon="5.29464">
        <ele>272.5</ele>
        <time>2019-09-14T09:36:54Z</time>
      </trkpt>
      <trkpt lat="43.94541" lon="5.29464">
        <ele>272.5</ele>
        <time>2019-09-14T09:37:00Z</time>
      </trkpt>
      <trkpt lat="43.94541" lon="5.29464">
        <ele>272.5</ele>
        <time>2019-09-14T09:37:06Z</time>
      </trkpt>
      <trkpt lat="43.94541" lon="5.29464">
        <ele>272.5</ele>
        <time>2019-09-14T09:37:12Z</time>
      </trkpt>
      <trkpt lat="43.94541" lon="5.29464">
        <ele>272.5</ele>
        <time>2019-09-14T09:37:17Z</time>
      </trkpt>
      <trkpt lat="43.94541" lon="5.29464">
        <ele>272.5</ele>
        <time>2019-09-14T09:37:23Z</time>
      </trkpt>
      <trkpt lat="43.94541" lon="5.29464">
        <ele>272.5</ele>
        <time>2019-09-14T09:37:28Z</time>
      </trkpt>
      <trkpt lat="43.9454" lon="5.29464">
        <ele>272.5</ele>
        <time>2019-09-14T09:37:34Z</time>
      </trkpt>
      <trkpt lat="43.9454" lon="5.29464">
        <ele>272.5</ele>
        <time>2019-09-14T09:37:39Z</time>
      </trkpt>
      <trkpt lat="43.9454" lon="5.29464">
        <ele>272.5</ele>
        <time>2019-09-14T09:37:45Z</time>
      </trkpt>
      <trkpt lat="43.9454" lon="5.29464">
        <ele>272.5</ele>
        <time>2019-09-14T09:37:51Z</time>
      </trkpt>
      <trkpt lat="43.9454" lon="5.29464">
        <ele>272.5</ele>
        <time>2019-09-14T09:37:56Z</time>
      </trkpt>
      <trkpt lat="43.9454" lon="5.29464">
        <ele>272.5</ele>
        <time>2019-09-14T09:38:01Z</time>
      </trkpt>
      <trkpt lat="43.9454" lon="5.29464">
        <ele>272.5</ele>
        <time>2019-09-14T09:38:07Z</time>
      </trkpt>
      <trkpt lat="43.9454" lon="5.29464">
        <ele>272.5</ele>
        <time>2019-09-14T09:38:12Z</time>
      </trkpt>
      <trkpt lat="43.9454" lon="5.29464">
        <ele>272.5</ele>
        <time>2019-09-14T09:38:17Z</time>
      </trkpt>
      <trkpt lat="43.9454" lon="5.29464">
        <ele>272.5</ele>
        <time>2019-09-14T09:38:23Z</time>
      </trkpt>
      <trkpt lat="43.9454" lon="5.29464">
        <ele>272.5</ele>
        <time>2019-09-14T09:38:29Z</time>
      </trkpt>
      <trkpt lat="43.9454" lon="5.29464">
        <ele>271.5</ele>
        <time>2019-09-14T09:38:35Z</time>
      </trkpt>
      <trkpt lat="43.9454" lon="5.29464">
        <ele>271.5</ele>
        <time>2019-09-14T09:38:40Z</time>
      </trkpt>
      <trkpt lat="43.94538" lon="5.29463">
        <ele>271.5</ele>
        <time>2019-09-14T09:38:45Z</time>
      </trkpt>
      <trkpt lat="43.94538" lon="5.29447">
        <ele>270.5</ele>
        <time>2019-09-14T09:38:50Z</time>
      </trkpt>
      <trkpt lat="43.94537" lon="5.2943">
        <ele>268.5</ele>
        <time>2019-09-14T09:38:56Z</time>
      </trkpt>
      <trkpt lat="43.94529" lon="5.2942">
        <ele>267.5</ele>
        <time>2019-09-14T09:39:02Z</time>
      </trkpt>
      <trkpt lat="43.94529" lon="5.29412">
        <ele>265.5</ele>
        <time>2019-09-14T09:39:08Z</time>
      </trkpt>
      <trkpt lat="43.94532" lon="5.29399">
        <ele>266.5</ele>
        <time>2019-09-14T09:39:13Z</time>
      </trkpt>
      <trkpt lat="43.94524" lon="5.29385">
        <ele>267.5</ele>
        <time>2019-09-14T09:39:19Z</time>
      </trkpt>
      <trkpt lat="43.94525" lon="5.29379">
        <ele>267.5</ele>
        <time>2019-09-14T09:39:24Z</time>
      </trkpt>
      <trkpt lat="43.94531" lon="5.29371">
        <ele>268.5</ele>
        <time>2019-09-14T09:39:30Z</time>
      </trkpt>
      <trkpt lat="43.94525" lon="5.29361">
        <ele>270.5</ele>
        <time>2019-09-14T09:39:36Z</time>
      </trkpt>
      <trkpt lat="43.9452" lon="5.29354">
        <ele>273.5</ele>
        <time>2019-09-14T09:39:41Z</time>
      </trkpt>
      <trkpt lat="43.9452" lon="5.2934">
        <ele>274.5</ele>
        <time>2019-09-14T09:39:47Z</time>
      </trkpt>
      <trkpt lat="43.94525" lon="5.29333">
        <ele>274.5</ele>
        <time>2019-09-14T09:39:53Z</time>
      </trkpt>
      <trkpt lat="43.94525" lon="5.29327">
        <ele>277.5</ele>
        <time>2019-09-14T09:39:58Z</time>
      </trkpt>
      <trkpt lat="43.94529" lon="5.29319">
        <ele>271.5</ele>
        <time>2019-09-14T09:40:03Z</time>
      </trkpt>
      <trkpt lat="43.94529" lon="5.29309">
        <ele>272.5</ele>
        <time>2019-09-14T09:40:09Z</time>
      </trkpt>
      <trkpt lat="43.94531" lon="5.29305">
        <ele>268.5</ele>
        <time>2019-09-14T09:40:15Z</time>
      </trkpt>
      <trkpt lat="43.9453" lon="5.29298">
        <ele>266.5</ele>
        <time>2019-09-14T09:40:21Z</time>
      </trkpt>
      <trkpt lat="43.94537" lon="5.29292">
        <ele>266.5</ele>
        <time>2019-09-14T09:40:26Z</time>
      </trkpt>
      <trkpt lat="43.94532" lon="5.29288">
        <ele>268.5</ele>
        <time>2019-09-14T09:40:31Z</time>
      </trkpt>
      <trkpt lat="43.9453" lon="5.29282">
        <ele>268.5</ele>
        <time>2019-09-14T09:40:36Z</time>
      </trkpt>
      <trkpt lat="43.94537" lon="5.2928">
        <ele>268.5</ele>
        <time>2019-09-14T09:40:41Z</time>
      </trkpt>
      <trkpt lat="43.94534" lon="5.29278">
        <ele>269.5</ele>
        <time>2019-09-14T09:40:47Z</time>
      </trkpt>
      <trkpt lat="43.94534" lon="5.29278">
        <ele>267.5</ele>
        <time>2019-09-14T09:40:52Z</time>
      </trkpt>
      <trkpt lat="43.94533" lon="5.29278">
        <ele>268.5</ele>
        <time>2019-09-14T09:40:57Z</time>
      </trkpt>
      <trkpt lat="43.94533" lon="5.29278">
        <ele>268.5</ele>
        <time>2019-09-14T09:41:02Z</time>
      </trkpt>
      <trkpt lat="43.94533" lon="5.29278">
        <ele>268.5</ele>
        <time>2019-09-14T09:41:08Z</time>
      </trkpt>
      <trkpt lat="43.94533" lon="5.29277">
        <ele>268.5</ele>
        <time>2019-09-14T09:41:13Z</time>
      </trkpt>
      <trkpt lat="43.94533" lon="5.29277">
        <ele>268.5</ele>
        <time>2019-09-14T09:41:19Z</time>
      </trkpt>
      <trkpt lat="43.94533" lon="5.29277">
        <ele>268.5</ele>
        <time>2019-09-14T09:41:24Z</time>
      </trkpt>
      <trkpt lat="43.94533" lon="5.29277">
        <ele>268.5</ele>
        <time>2019-09-14T09:41:29Z</time>
      </trkpt>
      <trkpt lat="43.94533" lon="5.29277">
        <ele>268.5</ele>
        <time>2019-09-14T09:41:34Z</time>
      </trkpt>
      <trkpt lat="43.94533" lon="5.29277">
        <ele>268.5</ele>
        <time>2019-09-14T09:41:40Z</time>
      </trkpt>
      <trkpt lat="43.94533" lon="5.29277">
        <ele>268.5</ele>
        <time>2019-09-14T09:41:46Z</time>
      </trkpt>
      <trkpt lat="43.94533" lon="5.29277">
        <ele>268.5</ele>
        <time>2019-09-14T09:41:52Z</time>
      </trkpt>
      <trkpt lat="43.94533" lon="5.29277">
        <ele>268.5</ele>
        <time>2019-09-14T09:41:57Z</time>
      </trkpt>
      <trkpt lat="43.94533" lon="5.29277">
        <ele>268.5</ele>
        <time>2019-09-14T09:42:03Z</time>
      </trkpt>
      <trkpt lat="43.94531" lon="5.29273">
        <ele>268.5</ele>
        <time>2019-09-14T09:42:09Z</time>
      </trkpt>
      <trkpt lat="43.94518" lon="5.29256">
        <ele>261.5</ele>
        <time>2019-09-14T09:42:14Z</time>
      </trkpt>
      <trkpt lat="43.94515" lon="5.29245">
        <ele>263.5</ele>
        <time>2019-09-14T09:42:20Z</time>
      </trkpt>
      <trkpt lat="43.94514" lon="5.29235">
        <ele>268.5</ele>
        <time>2019-09-14T09:42:25Z</time>
      </trkpt>
      <trkpt lat="43.94507" lon="5.29217">
        <ele>266.5</ele>
        <time>2019-09-14T09:42:38Z</time>
      </trkpt>
      <trkpt lat="43.94505" lon="5.29204">
        <ele>267.5</ele>
        <time>2019-09-14T09:42:44Z</time>
      </trkpt>
      <trkpt lat="43.94504" lon="5.29198">
        <ele>267.5</ele>
        <time>2019-09-14T09:42:50Z</time>
      </trkpt>
      <trkpt lat="43.94505" lon="5.29191">
        <ele>268.5</ele>
        <time>2019-09-14T09:42:56Z</time>
      </trkpt>
      <trkpt lat="43.945" lon="5.29174">
        <ele>272.5</ele>
        <time>2019-09-14T09:43:07Z</time>
      </trkpt>
      <trkpt lat="43.94498" lon="5.29165">
        <ele>272.5</ele>
        <time>2019-09-14T09:43:13Z</time>
      </trkpt>
      <trkpt lat="43.94497" lon="5.29156">
        <ele>274.5</ele>
        <time>2019-09-14T09:43:19Z</time>
      </trkpt>
      <trkpt lat="43.94497" lon="5.29147">
        <ele>273.5</ele>
        <time>2019-09-14T09:43:24Z</time>
      </trkpt>
      <trkpt lat="43.94497" lon="5.29136">
        <ele>273.5</ele>
        <time>2019-09-14T09:43:30Z</time>
      </trkpt>
      <trkpt lat="43.945" lon="5.29127">
        <ele>269.5</ele>
        <time>2019-09-14T09:43:35Z</time>
      </trkpt>
      <trkpt lat="43.94495" lon="5.29118">
        <ele>267.5</ele>
        <time>2019-09-14T09:43:41Z</time>
      </trkpt>
      <trkpt lat="43.94498" lon="5.29113">
        <ele>269.5</ele>
        <time>2019-09-14T09:43:46Z</time>
      </trkpt>
      <trkpt lat="43.94499" lon="5.29106">
        <ele>269.5</ele>
        <time>2019-09-14T09:43:51Z</time>
      </trkpt>
      <trkpt lat="43.94499" lon="5.29098">
        <ele>268.5</ele>
        <time>2019-09-14T09:43:56Z</time>
      </trkpt>
      <trkpt lat="43.94499" lon="5.29093">
        <ele>266.5</ele>
        <time>2019-09-14T09:44:01Z</time>
      </trkpt>
      <trkpt lat="43.94503" lon="5.29088">
        <ele>262.5</ele>
        <time>2019-09-14T09:44:07Z</time>
      </trkpt>
      <trkpt lat="43.94501" lon="5.29084">
        <ele>263.5</ele>
        <time>2019-09-14T09:44:12Z</time>
      </trkpt>
      <trkpt lat="43.94507" lon="5.29076">
        <ele>263.5</ele>
        <time>2019-09-14T09:44:17Z</time>
      </trkpt>
      <trkpt lat="43.94495" lon="5.29061">
        <ele>263.5</ele>
        <time>2019-09-14T09:44:22Z</time>
      </trkpt>
      <trkpt lat="43.94486" lon="5.29056">
        <ele>264.5</ele>
        <time>2019-09-14T09:44:28Z</time>
      </trkpt>
      <trkpt lat="43.94484" lon="5.29055">
        <ele>264.5</ele>
        <time>2019-09-14T09:44:34Z</time>
      </trkpt>
      <trkpt lat="43.94481" lon="5.2905">
        <ele>266.5</ele>
        <time>2019-09-14T09:44:40Z</time>
      </trkpt>
      <trkpt lat="43.94476" lon="5.29043">
        <ele>268.5</ele>
        <time>2019-09-14T09:44:45Z</time>
      </trkpt>
      <trkpt lat="43.94473" lon="5.2904">
        <ele>270.5</ele>
        <time>2019-09-14T09:44:50Z</time>
      </trkpt>
      <trkpt lat="43.94468" lon="5.29033">
        <ele>273.5</ele>
        <time>2019-09-14T09:44:56Z</time>
      </trkpt>
      <trkpt lat="43.94463" lon="5.29027">
        <ele>277.5</ele>
        <time>2019-09-14T09:45:02Z</time>
      </trkpt>
      <trkpt lat="43.94461" lon="5.29023">
        <ele>275.5</ele>
        <time>2019-09-14T09:45:08Z</time>
      </trkpt>
      <trkpt lat="43.94458" lon="5.29018">
        <ele>273.5</ele>
        <time>2019-09-14T09:45:13Z</time>
      </trkpt>
      <trkpt lat="43.94456" lon="5.29011">
        <ele>274.5</ele>
        <time>2019-09-14T09:45:18Z</time>
      </trkpt>
      <trkpt lat="43.94451" lon="5.29003">
        <ele>271.5</ele>
        <time>2019-09-14T09:45:24Z</time>
      </trkpt>
      <trkpt lat="43.94448" lon="5.28996">
        <ele>271.5</ele>
        <time>2019-09-14T09:45:29Z</time>
      </trkpt>
      <trkpt lat="43.94447" lon="5.28993">
        <ele>269.5</ele>
        <time>2019-09-14T09:45:35Z</time>
      </trkpt>
      <trkpt lat="43.9445" lon="5.28988">
        <ele>268.5</ele>
        <time>2019-09-14T09:45:41Z</time>
      </trkpt>
      <trkpt lat="43.94447" lon="5.28981">
        <ele>265.5</ele>
        <time>2019-09-14T09:45:47Z</time>
      </trkpt>
      <trkpt lat="43.94444" lon="5.28971">
        <ele>263.5</ele>
        <time>2019-09-14T09:45:52Z</time>
      </trkpt>
      <trkpt lat="43.94439" lon="5.28961">
        <ele>264.5</ele>
        <time>2019-09-14T09:45:57Z</time>
      </trkpt>
      <trkpt lat="43.94435" lon="5.28957">
        <ele>266.5</ele>
        <time>2019-09-14T09:46:02Z</time>
      </trkpt>
      <trkpt lat="43.94436" lon="5.28948">
        <ele>265.5</ele>
        <time>2019-09-14T09:46:08Z</time>
      </trkpt>
      <trkpt lat="43.94435" lon="5.2894">
        <ele>264.5</ele>
        <time>2019-09-14T09:46:14Z</time>
      </trkpt>
      <trkpt lat="43.94427" lon="5.28935">
        <ele>261.5</ele>
        <time>2019-09-14T09:46:19Z</time>
      </trkpt>
      <trkpt lat="43.94426" lon="5.28925">
        <ele>260.5</ele>
        <time>2019-09-14T09:46:25Z</time>
      </trkpt>
      <trkpt lat="43.94415" lon="5.28919">
        <ele>261.5</ele>
        <time>2019-09-14T09:46:31Z</time>
      </trkpt>
      <trkpt lat="43.94419" lon="5.28912">
        <ele>261.5</ele>
        <time>2019-09-14T09:46:36Z</time>
      </trkpt>
      <trkpt lat="43.94419" lon="5.28911">
        <ele>260.5</ele>
        <time>2019-09-14T09:46:41Z</time>
      </trkpt>
      <trkpt lat="43.94419" lon="5.2891">
        <ele>259.5</ele>
        <time>2019-09-14T09:46:47Z</time>
      </trkpt>
      <trkpt lat="43.94419" lon="5.2891">
        <ele>259.5</ele>
        <time>2019-09-14T09:46:53Z</time>
      </trkpt>
      <trkpt lat="43.94419" lon="5.2891">
        <ele>259.5</ele>
        <time>2019-09-14T09:46:59Z</time>
      </trkpt>
      <trkpt lat="43.94419" lon="5.2891">
        <ele>259.5</ele>
        <time>2019-09-14T09:47:05Z</time>
      </trkpt>
      <trkpt lat="43.94419" lon="5.2891">
        <ele>259.5</ele>
        <time>2019-09-14T09:47:10Z</time>
      </trkpt>
      <trkpt lat="43.94419" lon="5.2891">
        <ele>259.5</ele>
        <time>2019-09-14T09:47:15Z</time>
      </trkpt>
      <trkpt lat="43.94419" lon="5.2891">
        <ele>259.5</ele>
        <time>2019-09-14T09:47:21Z</time>
      </trkpt>
      <trkpt lat="43.94419" lon="5.2891">
        <ele>259.5</ele>
        <time>2019-09-14T09:47:27Z</time>
      </trkpt>
      <trkpt lat="43.94419" lon="5.2891">
        <ele>259.5</ele>
        <time>2019-09-14T09:47:33Z</time>
      </trkpt>
      <trkpt lat="43.94419" lon="5.2891">
        <ele>259.5</ele>
        <time>2019-09-14T09:47:38Z</time>
      </trkpt>
      <trkpt lat="43.94419" lon="5.2891">
        <ele>259.5</ele>
        <time>2019-09-14T09:47:45Z</time>
      </trkpt>
      <trkpt lat="43.94419" lon="5.2891">
        <ele>259.5</ele>
        <time>2019-09-14T09:47:51Z</time>
      </trkpt>
      <trkpt lat="43.94419" lon="5.2891">
        <ele>259.5</ele>
        <time>2019-09-14T09:47:56Z</time>
      </trkpt>
      <trkpt lat="43.94414" lon="5.28912">
        <ele>257.5</ele>
        <time>2019-09-14T09:48:01Z</time>
      </trkpt>
      <trkpt lat="43.94391" lon="5.28915">
        <ele>262.5</ele>
        <time>2019-09-14T09:48:06Z</time>
      </trkpt>
      <trkpt lat="43.94379" lon="5.28923">
        <ele>264.5</ele>
        <time>2019-09-14T09:48:12Z</time>
      </trkpt>
      <trkpt lat="43.94372" lon="5.28928">
        <ele>263.5</ele>
        <time>2019-09-14T09:48:17Z</time>
      </trkpt>
      <trkpt lat="43.94368" lon="5.28932">
        <ele>265.5</ele>
        <time>2019-09-14T09:48:23Z</time>
      </trkpt>
      <trkpt lat="43.94358" lon="5.28933">
        <ele>271.5</ele>
        <time>2019-09-14T09:48:29Z</time>
      </trkpt>
      <trkpt lat="43.94356" lon="5.28932">
        <ele>272.5</ele>
        <time>2019-09-14T09:48:34Z</time>
      </trkpt>
      <trkpt lat="43.94353" lon="5.28937">
        <ele>273.5</ele>
        <time>2019-09-14T09:48:39Z</time>
      </trkpt>
      <trkpt lat="43.94357" lon="5.28944">
        <ele>273.5</ele>
        <time>2019-09-14T09:48:45Z</time>
      </trkpt>
      <trkpt lat="43.94365" lon="5.28947">
        <ele>271.5</ele>
        <time>2019-09-14T09:48:51Z</time>
      </trkpt>
      <trkpt lat="43.94359" lon="5.28935">
        <ele>270.5</ele>
        <time>2019-09-14T09:48:56Z</time>
      </trkpt>
      <trkpt lat="43.94358" lon="5.28924">
        <ele>279.5</ele>
        <time>2019-09-14T09:49:10Z</time>
      </trkpt>
      <trkpt lat="43.94353" lon="5.28939">
        <ele>267.5</ele>
        <time>2019-09-14T09:49:21Z</time>
      </trkpt>
      <trkpt lat="43.9435" lon="5.28957">
        <ele>274.5</ele>
        <time>2019-09-14T09:49:26Z</time>
      </trkpt>
      <trkpt lat="43.94349" lon="5.28956">
        <ele>270.5</ele>
        <time>2019-09-14T09:49:31Z</time>
      </trkpt>
      <trkpt lat="43.94355" lon="5.28953">
        <ele>269.5</ele>
        <time>2019-09-14T09:49:37Z</time>
      </trkpt>
      <trkpt lat="43.94347" lon="5.28939">
        <ele>261.5</ele>
        <time>2019-09-14T09:49:43Z</time>
      </trkpt>
      <trkpt lat="43.94354" lon="5.28946">
        <ele>265.5</ele>
        <time>2019-09-14T09:49:48Z</time>
      </trkpt>
      <trkpt lat="43.94371" lon="5.28946">
        <ele>267.5</ele>
        <time>2019-09-14T09:49:54Z</time>
      </trkpt>
      <trkpt lat="43.94356" lon="5.28946">
        <ele>268.5</ele>
        <time>2019-09-14T09:50:00Z</time>
      </trkpt>
      <trkpt lat="43.9435" lon="5.28935">
        <ele>271.5</ele>
        <time>2019-09-14T09:50:05Z</time>
      </trkpt>
      <trkpt lat="43.94362" lon="5.28938">
        <ele>258.5</ele>
        <time>2019-09-14T09:50:10Z</time>
      </trkpt>
      <trkpt lat="43.94357" lon="5.28935">
        <ele>262.5</ele>
        <time>2019-09-14T09:50:16Z</time>
      </trkpt>
      <trkpt lat="43.9436" lon="5.28936">
        <ele>259.5</ele>
        <time>2019-09-14T09:50:21Z</time>
      </trkpt>
      <trkpt lat="43.94362" lon="5.28933">
        <ele>257.5</ele>
        <time>2019-09-14T09:50:26Z</time>
      </trkpt>
      <trkpt lat="43.94361" lon="5.28932">
        <ele>259.5</ele>
        <time>2019-09-14T09:50:32Z</time>
      </trkpt>
      <trkpt lat="43.94361" lon="5.28933">
        <ele>260.5</ele>
        <time>2019-09-14T09:50:37Z</time>
      </trkpt>
      <trkpt lat="43.94361" lon="5.28933">
        <ele>260.5</ele>
        <time>2019-09-14T09:50:42Z</time>
      </trkpt>
      <trkpt lat="43.94361" lon="5.28933">
        <ele>260.5</ele>
        <time>2019-09-14T09:50:48Z</time>
      </trkpt>
      <trkpt lat="43.94361" lon="5.28933">
        <ele>260.5</ele>
        <time>2019-09-14T09:50:53Z</time>
      </trkpt>
      <trkpt lat="43.94361" lon="5.28932">
        <ele>261.5</ele>
        <time>2019-09-14T09:50:59Z</time>
      </trkpt>
      <trkpt lat="43.9436" lon="5.28932">
        <ele>261.5</ele>
        <time>2019-09-14T09:51:05Z</time>
      </trkpt>
      <trkpt lat="43.9436" lon="5.28932">
        <ele>262.5</ele>
        <time>2019-09-14T09:51:10Z</time>
      </trkpt>
      <trkpt lat="43.9436" lon="5.28932">
        <ele>262.5</ele>
        <time>2019-09-14T09:51:16Z</time>
      </trkpt>
      <trkpt lat="43.9436" lon="5.28932">
        <ele>261.5</ele>
        <time>2019-09-14T09:51:21Z</time>
      </trkpt>
      <trkpt lat="43.94361" lon="5.28932">
        <ele>261.5</ele>
        <time>2019-09-14T09:51:27Z</time>
      </trkpt>
      <trkpt lat="43.94361" lon="5.28932">
        <ele>261.5</ele>
        <time>2019-09-14T09:51:32Z</time>
      </trkpt>
      <trkpt lat="43.94361" lon="5.28932">
        <ele>261.5</ele>
        <time>2019-09-14T09:51:38Z</time>
      </trkpt>
      <trkpt lat="43.94361" lon="5.28932">
        <ele>260.5</ele>
        <time>2019-09-14T09:51:43Z</time>
      </trkpt>
      <trkpt lat="43.94362" lon="5.2893">
        <ele>260.5</ele>
        <time>2019-09-14T09:51:49Z</time>
      </trkpt>
      <trkpt lat="43.94362" lon="5.28931">
        <ele>260.5</ele>
        <time>2019-09-14T09:51:55Z</time>
      </trkpt>
      <trkpt lat="43.94362" lon="5.28931">
        <ele>260.5</ele>
        <time>2019-09-14T09:52:00Z</time>
      </trkpt>
      <trkpt lat="43.94368" lon="5.28932">
        <ele>259.5</ele>
        <time>2019-09-14T09:52:05Z</time>
      </trkpt>
      <trkpt lat="43.94376" lon="5.28923">
        <ele>257.5</ele>
        <time>2019-09-14T09:52:11Z</time>
      </trkpt>
      <trkpt lat="43.94382" lon="5.28907">
        <ele>260.5</ele>
        <time>2019-09-14T09:52:17Z</time>
      </trkpt>
      <trkpt lat="43.94386" lon="5.28896">
        <ele>263.5</ele>
        <time>2019-09-14T09:52:23Z</time>
      </trkpt>
      <trkpt lat="43.94395" lon="5.28887">
        <ele>259.5</ele>
        <time>2019-09-14T09:52:28Z</time>
      </trkpt>
      <trkpt lat="43.94399" lon="5.28883">
        <ele>258.5</ele>
        <time>2019-09-14T09:52:33Z</time>
      </trkpt>
      <trkpt lat="43.94411" lon="5.28875">
        <ele>258.5</ele>
        <time>2019-09-14T09:52:38Z</time>
      </trkpt>
      <trkpt lat="43.9442" lon="5.28865">
        <ele>257.5</ele>
        <time>2019-09-14T09:52:44Z</time>
      </trkpt>
      <trkpt lat="43.9442" lon="5.2886">
        <ele>258.5</ele>
        <time>2019-09-14T09:52:49Z</time>
      </trkpt>
      <trkpt lat="43.94429" lon="5.28856">
        <ele>257.5</ele>
        <time>2019-09-14T09:52:55Z</time>
      </trkpt>
      <trkpt lat="43.94427" lon="5.28846">
        <ele>260.5</ele>
        <time>2019-09-14T09:53:01Z</time>
      </trkpt>
      <trkpt lat="43.94417" lon="5.28843">
        <ele>256.5</ele>
        <time>2019-09-14T09:53:06Z</time>
      </trkpt>
      <trkpt lat="43.94431" lon="5.28837">
        <ele>256.5</ele>
        <time>2019-09-14T09:53:12Z</time>
      </trkpt>
      <trkpt lat="43.94441" lon="5.28828">
        <ele>256.5</ele>
        <time>2019-09-14T09:53:19Z</time>
      </trkpt>
      <trkpt lat="43.94434" lon="5.28828">
        <ele>256.5</ele>
        <time>2019-09-14T09:53:25Z</time>
      </trkpt>
      <trkpt lat="43.94441" lon="5.28823">
        <ele>254.5</ele>
        <time>2019-09-14T09:53:30Z</time>
      </trkpt>
      <trkpt lat="43.94432" lon="5.28815">
        <ele>257.5</ele>
        <time>2019-09-14T09:53:36Z</time>
      </trkpt>
      <trkpt lat="43.94437" lon="5.2881">
        <ele>257.5</ele>
        <time>2019-09-14T09:53:42Z</time>
      </trkpt>
      <trkpt lat="43.94438" lon="5.28806">
        <ele>255.5</ele>
        <time>2019-09-14T09:53:48Z</time>
      </trkpt>
      <trkpt lat="43.94436" lon="5.28801">
        <ele>260.5</ele>
        <time>2019-09-14T09:53:54Z</time>
      </trkpt>
      <trkpt lat="43.94438" lon="5.28796">
        <ele>257.5</ele>
        <time>2019-09-14T09:53:59Z</time>
      </trkpt>
      <trkpt lat="43.94444" lon="5.28793">
        <ele>256.5</ele>
        <time>2019-09-14T09:54:04Z</time>
      </trkpt>
      <trkpt lat="43.94438" lon="5.28788">
        <ele>255.5</ele>
        <time>2019-09-14T09:54:09Z</time>
      </trkpt>
      <trkpt lat="43.94429" lon="5.28774">
        <ele>253.5</ele>
        <time>2019-09-14T09:54:15Z</time>
      </trkpt>
      <trkpt lat="43.94431" lon="5.28767">
        <ele>258.5</ele>
        <time>2019-09-14T09:54:21Z</time>
      </trkpt>
      <trkpt lat="43.94429" lon="5.28761">
        <ele>258.5</ele>
        <time>2019-09-14T09:54:26Z</time>
      </trkpt>
      <trkpt lat="43.9443" lon="5.2876">
        <ele>259.5</ele>
        <time>2019-09-14T09:54:31Z</time>
      </trkpt>
      <trkpt lat="43.94432" lon="5.28761">
        <ele>261.5</ele>
        <time>2019-09-14T09:54:37Z</time>
      </trkpt>
      <trkpt lat="43.94432" lon="5.28761">
        <ele>262.5</ele>
        <time>2019-09-14T09:54:42Z</time>
      </trkpt>
      <trkpt lat="43.94432" lon="5.28762">
        <ele>262.5</ele>
        <time>2019-09-14T09:54:48Z</time>
      </trkpt>
      <trkpt lat="43.94432" lon="5.28761">
        <ele>262.5</ele>
        <time>2019-09-14T09:54:53Z</time>
      </trkpt>
      <trkpt lat="43.94432" lon="5.28761">
        <ele>262.5</ele>
        <time>2019-09-14T09:54:59Z</time>
      </trkpt>
      <trkpt lat="43.94432" lon="5.28761">
        <ele>262.5</ele>
        <time>2019-09-14T09:55:05Z</time>
      </trkpt>
      <trkpt lat="43.94432" lon="5.28761">
        <ele>262.5</ele>
        <time>2019-09-14T09:55:11Z</time>
      </trkpt>
      <trkpt lat="43.94432" lon="5.28761">
        <ele>262.5</ele>
        <time>2019-09-14T09:55:16Z</time>
      </trkpt>
      <trkpt lat="43.94432" lon="5.28761">
        <ele>262.5</ele>
        <time>2019-09-14T09:55:22Z</time>
      </trkpt>
      <trkpt lat="43.9443" lon="5.28752">
        <ele>263.5</ele>
        <time>2019-09-14T09:55:27Z</time>
      </trkpt>
      <trkpt lat="43.94426" lon="5.2874">
        <ele>261.5</ele>
        <time>2019-09-14T09:55:33Z</time>
      </trkpt>
      <trkpt lat="43.94425" lon="5.28728">
        <ele>264.5</ele>
        <time>2019-09-14T09:55:38Z</time>
      </trkpt>
      <trkpt lat="43.9442" lon="5.28715">
        <ele>264.5</ele>
        <time>2019-09-14T09:55:44Z</time>
      </trkpt>
      <trkpt lat="43.94422" lon="5.28704">
        <ele>262.5</ele>
        <time>2019-09-14T09:55:50Z</time>
      </trkpt>
      <trkpt lat="43.94424" lon="5.28693">
        <ele>261.5</ele>
        <time>2019-09-14T09:55:56Z</time>
      </trkpt>
      <trkpt lat="43.94419" lon="5.28682">
        <ele>260.5</ele>
        <time>2019-09-14T09:56:01Z</time>
      </trkpt>
      <trkpt lat="43.94414" lon="5.28668">
        <ele>259.5</ele>
        <time>2019-09-14T09:56:07Z</time>
      </trkpt>
      <trkpt lat="43.94413" lon="5.28657">
        <ele>263.5</ele>
        <time>2019-09-14T09:56:13Z</time>
      </trkpt>
      <trkpt lat="43.94415" lon="5.2865">
        <ele>261.5</ele>
        <time>2019-09-14T09:56:19Z</time>
      </trkpt>
      <trkpt lat="43.94422" lon="5.2864">
        <ele>260.5</ele>
        <time>2019-09-14T09:56:31Z</time>
      </trkpt>
      <trkpt lat="43.94425" lon="5.2862">
        <ele>264.5</ele>
        <time>2019-09-14T09:56:37Z</time>
      </trkpt>
      <trkpt lat="43.94423" lon="5.28613">
        <ele>263.5</ele>
        <time>2019-09-14T09:56:42Z</time>
      </trkpt>
      <trkpt lat="43.94425" lon="5.28605">
        <ele>264.5</ele>
        <time>2019-09-14T09:56:48Z</time>
      </trkpt>
      <trkpt lat="43.94426" lon="5.28598">
        <ele>264.5</ele>
        <time>2019-09-14T09:56:54Z</time>
      </trkpt>
      <trkpt lat="43.94425" lon="5.28592">
        <ele>266.5</ele>
        <time>2019-09-14T09:56:59Z</time>
      </trkpt>
      <trkpt lat="43.94424" lon="5.28584">
        <ele>268.5</ele>
        <time>2019-09-14T09:57:04Z</time>
      </trkpt>
      <trkpt lat="43.94424" lon="5.28578">
        <ele>272.5</ele>
        <time>2019-09-14T09:57:09Z</time>
      </trkpt>
      <trkpt lat="43.94427" lon="5.28572">
        <ele>272.5</ele>
        <time>2019-09-14T09:57:14Z</time>
      </trkpt>
      <trkpt lat="43.94432" lon="5.28564">
        <ele>271.5</ele>
        <time>2019-09-14T09:57:20Z</time>
      </trkpt>
      <trkpt lat="43.94438" lon="5.28554">
        <ele>271.5</ele>
        <time>2019-09-14T09:57:26Z</time>
      </trkpt>
      <trkpt lat="43.94436" lon="5.28545">
        <ele>275.5</ele>
        <time>2019-09-14T09:57:32Z</time>
      </trkpt>
      <trkpt lat="43.9444" lon="5.28538">
        <ele>273.5</ele>
        <time>2019-09-14T09:57:38Z</time>
      </trkpt>
      <trkpt lat="43.94444" lon="5.28531">
        <ele>272.5</ele>
        <time>2019-09-14T09:57:43Z</time>
      </trkpt>
      <trkpt lat="43.94449" lon="5.28531">
        <ele>272.5</ele>
        <time>2019-09-14T09:57:48Z</time>
      </trkpt>
      <trkpt lat="43.94452" lon="5.28524">
        <ele>271.5</ele>
        <time>2019-09-14T09:57:54Z</time>
      </trkpt>
      <trkpt lat="43.94456" lon="5.2852">
        <ele>273.5</ele>
        <time>2019-09-14T09:58:00Z</time>
      </trkpt>
      <trkpt lat="43.94458" lon="5.28512">
        <ele>268.5</ele>
        <time>2019-09-14T09:58:06Z</time>
      </trkpt>
      <trkpt lat="43.94464" lon="5.28509">
        <ele>269.5</ele>
        <time>2019-09-14T09:58:11Z</time>
      </trkpt>
      <trkpt lat="43.94464" lon="5.285">
        <ele>270.5</ele>
        <time>2019-09-14T09:58:16Z</time>
      </trkpt>
      <trkpt lat="43.94466" lon="5.28495">
        <ele>269.5</ele>
        <time>2019-09-14T09:58:22Z</time>
      </trkpt>
      <trkpt lat="43.94465" lon="5.28483">
        <ele>270.5</ele>
        <time>2019-09-14T09:58:28Z</time>
      </trkpt>
      <trkpt lat="43.94465" lon="5.28476">
        <ele>272.5</ele>
        <time>2019-09-14T09:58:33Z</time>
      </trkpt>
      <trkpt lat="43.94467" lon="5.28465">
        <ele>272.5</ele>
        <time>2019-09-14T09:58:39Z</time>
      </trkpt>
      <trkpt lat="43.9447" lon="5.28456">
        <ele>270.5</ele>
        <time>2019-09-14T09:58:45Z</time>
      </trkpt>
      <trkpt lat="43.94468" lon="5.28446">
        <ele>271.5</ele>
        <time>2019-09-14T09:58:50Z</time>
      </trkpt>
      <trkpt lat="43.94465" lon="5.28437">
        <ele>274.5</ele>
        <time>2019-09-14T09:58:55Z</time>
      </trkpt>
      <trkpt lat="43.94473" lon="5.28434">
        <ele>279.5</ele>
        <time>2019-09-14T09:59:02Z</time>
      </trkpt>
      <trkpt lat="43.94474" lon="5.28431">
        <ele>279.5</ele>
        <time>2019-09-14T09:59:07Z</time>
      </trkpt>
      <trkpt lat="43.9447" lon="5.28422">
        <ele>276.5</ele>
        <time>2019-09-14T09:59:13Z</time>
      </trkpt>
      <trkpt lat="43.94473" lon="5.28417">
        <ele>277.5</ele>
        <time>2019-09-14T09:59:18Z</time>
      </trkpt>
      <trkpt lat="43.94473" lon="5.28411">
        <ele>279.5</ele>
        <time>2019-09-14T09:59:24Z</time>
      </trkpt>
      <trkpt lat="43.94473" lon="5.28404">
        <ele>276.5</ele>
        <time>2019-09-14T09:59:30Z</time>
      </trkpt>
      <trkpt lat="43.94472" lon="5.284">
        <ele>276.5</ele>
        <time>2019-09-14T09:59:35Z</time>
      </trkpt>
      <trkpt lat="43.94471" lon="5.28385">
        <ele>281.5</ele>
        <time>2019-09-14T09:59:41Z</time>
      </trkpt>
      <trkpt lat="43.9447" lon="5.28378">
        <ele>280.5</ele>
        <time>2019-09-14T09:59:47Z</time>
      </trkpt>
      <trkpt lat="43.9447" lon="5.28369">
        <ele>277.5</ele>
        <time>2019-09-14T09:59:53Z</time>
      </trkpt>
      <trkpt lat="43.94466" lon="5.28361">
        <ele>273.5</ele>
        <time>2019-09-14T09:59:59Z</time>
      </trkpt>
      <trkpt lat="43.94469" lon="5.28353">
        <ele>272.5</ele>
        <time>2019-09-14T10:00:04Z</time>
      </trkpt>
      <trkpt lat="43.94467" lon="5.28346">
        <ele>270.5</ele>
        <time>2019-09-14T10:00:10Z</time>
      </trkpt>
      <trkpt lat="43.94464" lon="5.28339">
        <ele>274.5</ele>
        <time>2019-09-14T10:00:15Z</time>
      </trkpt>
      <trkpt lat="43.94461" lon="5.28328">
        <ele>277.5</ele>
        <time>2019-09-14T10:00:21Z</time>
      </trkpt>
      <trkpt lat="43.94462" lon="5.28321">
        <ele>277.5</ele>
        <time>2019-09-14T10:00:27Z</time>
      </trkpt>
      <trkpt lat="43.9446" lon="5.28313">
        <ele>280.5</ele>
        <time>2019-09-14T10:00:33Z</time>
      </trkpt>
      <trkpt lat="43.94459" lon="5.28307">
        <ele>281.5</ele>
        <time>2019-09-14T10:00:38Z</time>
      </trkpt>
      <trkpt lat="43.94457" lon="5.28299">
        <ele>281.5</ele>
        <time>2019-09-14T10:00:43Z</time>
      </trkpt>
      <trkpt lat="43.94455" lon="5.28297">
        <ele>279.5</ele>
        <time>2019-09-14T10:00:49Z</time>
      </trkpt>
      <trkpt lat="43.94456" lon="5.28299">
        <ele>280.5</ele>
        <time>2019-09-14T10:00:55Z</time>
      </trkpt>
      <trkpt lat="43.94455" lon="5.28298">
        <ele>281.5</ele>
        <time>2019-09-14T10:01:00Z</time>
      </trkpt>
      <trkpt lat="43.94455" lon="5.28297">
        <ele>281.5</ele>
        <time>2019-09-14T10:01:06Z</time>
      </trkpt>
      <trkpt lat="43.94454" lon="5.28292">
        <ele>278.5</ele>
        <time>2019-09-14T10:01:12Z</time>
      </trkpt>
      <trkpt lat="43.94455" lon="5.28279">
        <ele>276.5</ele>
        <time>2019-09-14T10:01:17Z</time>
      </trkpt>
      <trkpt lat="43.94451" lon="5.28269">
        <ele>277.5</ele>
        <time>2019-09-14T10:01:23Z</time>
      </trkpt>
      <trkpt lat="43.94449" lon="5.28262">
        <ele>276.5</ele>
        <time>2019-09-14T10:01:29Z</time>
      </trkpt>
      <trkpt lat="43.94447" lon="5.28256">
        <ele>278.5</ele>
        <time>2019-09-14T10:01:35Z</time>
      </trkpt>
      <trkpt lat="43.94446" lon="5.28255">
        <ele>278.5</ele>
        <time>2019-09-14T10:01:41Z</time>
      </trkpt>
      <trkpt lat="43.94447" lon="5.28252">
        <ele>278.5</ele>
        <time>2019-09-14T10:01:47Z</time>
      </trkpt>
      <trkpt lat="43.94446" lon="5.28238">
        <ele>274.5</ele>
        <time>2019-09-14T10:01:53Z</time>
      </trkpt>
      <trkpt lat="43.94443" lon="5.28228">
        <ele>274.5</ele>
        <time>2019-09-14T10:01:58Z</time>
      </trkpt>
      <trkpt lat="43.94443" lon="5.28218">
        <ele>272.5</ele>
        <time>2019-09-14T10:02:03Z</time>
      </trkpt>
      <trkpt lat="43.94438" lon="5.28208">
        <ele>276.5</ele>
        <time>2019-09-14T10:02:09Z</time>
      </trkpt>
      <trkpt lat="43.94435" lon="5.28201">
        <ele>275.5</ele>
        <time>2019-09-14T10:02:14Z</time>
      </trkpt>
      <trkpt lat="43.94436" lon="5.28195">
        <ele>276.5</ele>
        <time>2019-09-14T10:02:19Z</time>
      </trkpt>
      <trkpt lat="43.94433" lon="5.28186">
        <ele>276.5</ele>
        <time>2019-09-14T10:02:24Z</time>
      </trkpt>
      <trkpt lat="43.94429" lon="5.28174">
        <ele>274.5</ele>
        <time>2019-09-14T10:02:29Z</time>
      </trkpt>
      <trkpt lat="43.94428" lon="5.28166">
        <ele>278.5</ele>
        <time>2019-09-14T10:02:35Z</time>
      </trkpt>
      <trkpt lat="43.94427" lon="5.28157">
        <ele>281.5</ele>
        <time>2019-09-14T10:02:40Z</time>
      </trkpt>
      <trkpt lat="43.94425" lon="5.28149">
        <ele>282.5</ele>
        <time>2019-09-14T10:02:46Z</time>
      </trkpt>
      <trkpt lat="43.94424" lon="5.28139">
        <ele>283.5</ele>
        <time>2019-09-14T10:02:52Z</time>
      </trkpt>
      <trkpt lat="43.94421" lon="5.28133">
        <ele>283.5</ele>
        <time>2019-09-14T10:02:57Z</time>
      </trkpt>
      <trkpt lat="43.94414" lon="5.2813">
        <ele>283.5</ele>
        <time>2019-09-14T10:03:03Z</time>
      </trkpt>
      <trkpt lat="43.94411" lon="5.28122">
        <ele>285.5</ele>
        <time>2019-09-14T10:03:10Z</time>
      </trkpt>
      <trkpt lat="43.94408" lon="5.28113">
        <ele>286.5</ele>
        <time>2019-09-14T10:03:16Z</time>
      </trkpt>
      <trkpt lat="43.94404" lon="5.28106">
        <ele>285.5</ele>
        <time>2019-09-14T10:03:21Z</time>
      </trkpt>
      <trkpt lat="43.94399" lon="5.281">
        <ele>287.5</ele>
        <time>2019-09-14T10:03:26Z</time>
      </trkpt>
      <trkpt lat="43.94394" lon="5.28093">
        <ele>287.5</ele>
        <time>2019-09-14T10:03:32Z</time>
      </trkpt>
      <trkpt lat="43.94387" lon="5.28087">
        <ele>286.5</ele>
        <time>2019-09-14T10:03:37Z</time>
      </trkpt>
      <trkpt lat="43.94381" lon="5.28078">
        <ele>287.5</ele>
        <time>2019-09-14T10:03:43Z</time>
      </trkpt>
      <trkpt lat="43.94376" lon="5.28075">
        <ele>285.5</ele>
        <time>2019-09-14T10:03:49Z</time>
      </trkpt>
      <trkpt lat="43.94373" lon="5.2807">
        <ele>285.5</ele>
        <time>2019-09-14T10:03:54Z</time>
      </trkpt>
      <trkpt lat="43.94367" lon="5.28066">
        <ele>283.5</ele>
        <time>2019-09-14T10:04:00Z</time>
      </trkpt>
      <trkpt lat="43.94364" lon="5.28062">
        <ele>281.5</ele>
        <time>2019-09-14T10:04:05Z</time>
      </trkpt>
      <trkpt lat="43.94358" lon="5.2806">
        <ele>279.5</ele>
        <time>2019-09-14T10:04:11Z</time>
      </trkpt>
      <trkpt lat="43.94354" lon="5.28053">
        <ele>280.5</ele>
        <time>2019-09-14T10:04:16Z</time>
      </trkpt>
      <trkpt lat="43.94352" lon="5.28048">
        <ele>279.5</ele>
        <time>2019-09-14T10:04:21Z</time>
      </trkpt>
      <trkpt lat="43.94349" lon="5.28041">
        <ele>281.5</ele>
        <time>2019-09-14T10:04:26Z</time>
      </trkpt>
      <trkpt lat="43.94344" lon="5.28033">
        <ele>280.5</ele>
        <time>2019-09-14T10:04:32Z</time>
      </trkpt>
      <trkpt lat="43.94338" lon="5.28027">
        <ele>280.5</ele>
        <time>2019-09-14T10:04:38Z</time>
      </trkpt>
      <trkpt lat="43.94333" lon="5.28023">
        <ele>283.5</ele>
        <time>2019-09-14T10:04:43Z</time>
      </trkpt>
      <trkpt lat="43.94326" lon="5.28021">
        <ele>285.5</ele>
        <time>2019-09-14T10:04:48Z</time>
      </trkpt>
      <trkpt lat="43.9432" lon="5.28018">
        <ele>286.5</ele>
        <time>2019-09-14T10:04:53Z</time>
      </trkpt>
      <trkpt lat="43.94315" lon="5.28015">
        <ele>285.5</ele>
        <time>2019-09-14T10:04:58Z</time>
      </trkpt>
      <trkpt lat="43.94296" lon="5.28001">
        <ele>285.5</ele>
        <time>2019-09-14T10:05:15Z</time>
      </trkpt>
      <trkpt lat="43.94292" lon="5.27995">
        <ele>288.5</ele>
        <time>2019-09-14T10:05:21Z</time>
      </trkpt>
      <trkpt lat="43.94291" lon="5.2799">
        <ele>286.5</ele>
        <time>2019-09-14T10:05:27Z</time>
      </trkpt>
      <trkpt lat="43.94286" lon="5.27987">
        <ele>284.5</ele>
        <time>2019-09-14T10:05:33Z</time>
      </trkpt>
      <trkpt lat="43.9428" lon="5.27982">
        <ele>282.5</ele>
        <time>2019-09-14T10:05:38Z</time>
      </trkpt>
      <trkpt lat="43.94276" lon="5.27978">
        <ele>281.5</ele>
        <time>2019-09-14T10:05:43Z</time>
      </trkpt>
      <trkpt lat="43.94273" lon="5.2797">
        <ele>278.5</ele>
        <time>2019-09-14T10:05:49Z</time>
      </trkpt>
      <trkpt lat="43.94272" lon="5.27963">
        <ele>276.5</ele>
        <time>2019-09-14T10:05:55Z</time>
      </trkpt>
      <trkpt lat="43.94266" lon="5.2796">
        <ele>276.5</ele>
        <time>2019-09-14T10:06:00Z</time>
      </trkpt>
      <trkpt lat="43.94263" lon="5.27956">
        <ele>274.5</ele>
        <time>2019-09-14T10:06:05Z</time>
      </trkpt>
      <trkpt lat="43.94257" lon="5.2795">
        <ele>276.5</ele>
        <time>2019-09-14T10:06:11Z</time>
      </trkpt>
      <trkpt lat="43.94252" lon="5.27943">
        <ele>273.5</ele>
        <time>2019-09-14T10:06:17Z</time>
      </trkpt>
      <trkpt lat="43.94246" lon="5.27939">
        <ele>271.5</ele>
        <time>2019-09-14T10:06:23Z</time>
      </trkpt>
      <trkpt lat="43.94244" lon="5.27931">
        <ele>265.5</ele>
        <time>2019-09-14T10:06:28Z</time>
      </trkpt>
      <trkpt lat="43.94244" lon="5.27925">
        <ele>265.5</ele>
        <time>2019-09-14T10:06:33Z</time>
      </trkpt>
      <trkpt lat="43.94239" lon="5.2792">
        <ele>265.5</ele>
        <time>2019-09-14T10:06:39Z</time>
      </trkpt>
      <trkpt lat="43.94233" lon="5.27914">
        <ele>265.5</ele>
        <time>2019-09-14T10:06:45Z</time>
      </trkpt>
      <trkpt lat="43.94232" lon="5.2791">
        <ele>262.5</ele>
        <time>2019-09-14T10:06:51Z</time>
      </trkpt>
      <trkpt lat="43.94228" lon="5.27905">
        <ele>262.5</ele>
        <time>2019-09-14T10:06:56Z</time>
      </trkpt>
      <trkpt lat="43.94225" lon="5.27899">
        <ele>261.5</ele>
        <time>2019-09-14T10:07:02Z</time>
      </trkpt>
      <trkpt lat="43.94221" lon="5.27891">
        <ele>257.5</ele>
        <time>2019-09-14T10:07:08Z</time>
      </trkpt>
      <trkpt lat="43.94213" lon="5.27884">
        <ele>262.5</ele>
        <time>2019-09-14T10:07:14Z</time>
      </trkpt>
      <trkpt lat="43.94212" lon="5.27877">
        <ele>262.5</ele>
        <time>2019-09-14T10:07:19Z</time>
      </trkpt>
      <trkpt lat="43.94209" lon="5.27874">
        <ele>261.5</ele>
        <time>2019-09-14T10:07:25Z</time>
      </trkpt>
      <trkpt lat="43.94205" lon="5.27866">
        <ele>266.5</ele>
        <time>2019-09-14T10:07:30Z</time>
      </trkpt>
      <trkpt lat="43.94202" lon="5.2786">
        <ele>264.5</ele>
        <time>2019-09-14T10:07:36Z</time>
      </trkpt>
      <trkpt lat="43.94198" lon="5.27852">
        <ele>262.5</ele>
        <time>2019-09-14T10:07:41Z</time>
      </trkpt>
      <trkpt lat="43.94197" lon="5.27846">
        <ele>262.5</ele>
        <time>2019-09-14T10:07:46Z</time>
      </trkpt>
      <trkpt lat="43.94193" lon="5.27839">
        <ele>262.5</ele>
        <time>2019-09-14T10:07:52Z</time>
      </trkpt>
      <trkpt lat="43.9419" lon="5.27832">
        <ele>261.5</ele>
        <time>2019-09-14T10:07:58Z</time>
      </trkpt>
      <trkpt lat="43.94186" lon="5.27827">
        <ele>261.5</ele>
        <time>2019-09-14T10:08:03Z</time>
      </trkpt>
      <trkpt lat="43.94178" lon="5.27819">
        <ele>260.5</ele>
        <time>2019-09-14T10:08:09Z</time>
      </trkpt>
      <trkpt lat="43.94175" lon="5.27812">
        <ele>263.5</ele>
        <time>2019-09-14T10:08:15Z</time>
      </trkpt>
      <trkpt lat="43.94171" lon="5.27806">
        <ele>265.5</ele>
        <time>2019-09-14T10:08:20Z</time>
      </trkpt>
      <trkpt lat="43.94168" lon="5.27797">
        <ele>263.5</ele>
        <time>2019-09-14T10:08:25Z</time>
      </trkpt>
      <trkpt lat="43.94163" lon="5.27789">
        <ele>265.5</ele>
        <time>2019-09-14T10:08:31Z</time>
      </trkpt>
      <trkpt lat="43.94156" lon="5.27782">
        <ele>267.5</ele>
        <time>2019-09-14T10:08:36Z</time>
      </trkpt>
      <trkpt lat="43.94152" lon="5.27777">
        <ele>267.5</ele>
        <time>2019-09-14T10:08:41Z</time>
      </trkpt>
      <trkpt lat="43.94148" lon="5.27774">
        <ele>265.5</ele>
        <time>2019-09-14T10:08:47Z</time>
      </trkpt>
      <trkpt lat="43.94142" lon="5.2777">
        <ele>264.5</ele>
        <time>2019-09-14T10:08:53Z</time>
      </trkpt>
      <trkpt lat="43.94136" lon="5.27765">
        <ele>264.5</ele>
        <time>2019-09-14T10:08:58Z</time>
      </trkpt>
      <trkpt lat="43.94128" lon="5.27759">
        <ele>266.5</ele>
        <time>2019-09-14T10:09:04Z</time>
      </trkpt>
      <trkpt lat="43.94122" lon="5.27754">
        <ele>266.5</ele>
        <time>2019-09-14T10:09:09Z</time>
      </trkpt>
      <trkpt lat="43.94116" lon="5.27752">
        <ele>266.5</ele>
        <time>2019-09-14T10:09:14Z</time>
      </trkpt>
      <trkpt lat="43.94111" lon="5.27748">
        <ele>266.5</ele>
        <time>2019-09-14T10:09:19Z</time>
      </trkpt>
      <trkpt lat="43.94108" lon="5.27746">
        <ele>265.5</ele>
        <time>2019-09-14T10:09:25Z</time>
      </trkpt>
      <trkpt lat="43.94102" lon="5.27741">
        <ele>268.5</ele>
        <time>2019-09-14T10:09:31Z</time>
      </trkpt>
      <trkpt lat="43.94099" lon="5.27739">
        <ele>267.5</ele>
        <time>2019-09-14T10:09:37Z</time>
      </trkpt>
      <trkpt lat="43.94093" lon="5.27734">
        <ele>266.5</ele>
        <time>2019-09-14T10:09:42Z</time>
      </trkpt>
      <trkpt lat="43.94092" lon="5.27733">
        <ele>264.5</ele>
        <time>2019-09-14T10:09:47Z</time>
      </trkpt>
      <trkpt lat="43.94088" lon="5.27729">
        <ele>265.5</ele>
        <time>2019-09-14T10:09:53Z</time>
      </trkpt>
      <trkpt lat="43.94082" lon="5.27724">
        <ele>264.5</ele>
        <time>2019-09-14T10:09:59Z</time>
      </trkpt>
      <trkpt lat="43.94078" lon="5.27724">
        <ele>267.5</ele>
        <time>2019-09-14T10:10:05Z</time>
      </trkpt>
      <trkpt lat="43.94073" lon="5.27719">
        <ele>266.5</ele>
        <time>2019-09-14T10:10:10Z</time>
      </trkpt>
      <trkpt lat="43.94072" lon="5.27716">
        <ele>264.5</ele>
        <time>2019-09-14T10:10:16Z</time>
      </trkpt>
      <trkpt lat="43.94069" lon="5.27709">
        <ele>267.5</ele>
        <time>2019-09-14T10:10:21Z</time>
      </trkpt>
      <trkpt lat="43.94061" lon="5.27704">
        <ele>267.5</ele>
        <time>2019-09-14T10:10:27Z</time>
      </trkpt>
      <trkpt lat="43.94062" lon="5.277">
        <ele>266.5</ele>
        <time>2019-09-14T10:10:32Z</time>
      </trkpt>
      <trkpt lat="43.94064" lon="5.27689">
        <ele>266.5</ele>
        <time>2019-09-14T10:10:37Z</time>
      </trkpt>
      <trkpt lat="43.94062" lon="5.27683">
        <ele>266.5</ele>
        <time>2019-09-14T10:10:42Z</time>
      </trkpt>
      <trkpt lat="43.94057" lon="5.27674">
        <ele>268.5</ele>
        <time>2019-09-14T10:10:48Z</time>
      </trkpt>
      <trkpt lat="43.94055" lon="5.27669">
        <ele>268.5</ele>
        <time>2019-09-14T10:10:54Z</time>
      </trkpt>
      <trkpt lat="43.94058" lon="5.27658">
        <ele>263.5</ele>
        <time>2019-09-14T10:11:00Z</time>
      </trkpt>
      <trkpt lat="43.94057" lon="5.27648">
        <ele>263.5</ele>
        <time>2019-09-14T10:11:05Z</time>
      </trkpt>
      <trkpt lat="43.94056" lon="5.2764">
        <ele>262.5</ele>
        <time>2019-09-14T10:11:11Z</time>
      </trkpt>
      <trkpt lat="43.94055" lon="5.27635">
        <ele>263.5</ele>
        <time>2019-09-14T10:11:16Z</time>
      </trkpt>
      <trkpt lat="43.94052" lon="5.27628">
        <ele>267.5</ele>
        <time>2019-09-14T10:11:22Z</time>
      </trkpt>
      <trkpt lat="43.94051" lon="5.2762">
        <ele>266.5</ele>
        <time>2019-09-14T10:11:27Z</time>
      </trkpt>
      <trkpt lat="43.94053" lon="5.2761">
        <ele>267.5</ele>
        <time>2019-09-14T10:11:33Z</time>
      </trkpt>
      <trkpt lat="43.94051" lon="5.27603">
        <ele>268.5</ele>
        <time>2019-09-14T10:11:38Z</time>
      </trkpt>
      <trkpt lat="43.9405" lon="5.27594">
        <ele>265.5</ele>
        <time>2019-09-14T10:11:44Z</time>
      </trkpt>
      <trkpt lat="43.94048" lon="5.27587">
        <ele>267.5</ele>
        <time>2019-09-14T10:11:49Z</time>
      </trkpt>
      <trkpt lat="43.94046" lon="5.2758">
        <ele>264.5</ele>
        <time>2019-09-14T10:11:54Z</time>
      </trkpt>
      <trkpt lat="43.94045" lon="5.27572">
        <ele>266.5</ele>
        <time>2019-09-14T10:11:59Z</time>
      </trkpt>
      <trkpt lat="43.94041" lon="5.27562">
        <ele>262.5</ele>
        <time>2019-09-14T10:12:05Z</time>
      </trkpt>
      <trkpt lat="43.94042" lon="5.27555">
        <ele>262.5</ele>
        <time>2019-09-14T10:12:10Z</time>
      </trkpt>
      <trkpt lat="43.94043" lon="5.27544">
        <ele>266.5</ele>
        <time>2019-09-14T10:12:16Z</time>
      </trkpt>
      <trkpt lat="43.94044" lon="5.27535">
        <ele>265.5</ele>
        <time>2019-09-14T10:12:21Z</time>
      </trkpt>
      <trkpt lat="43.94046" lon="5.27526">
        <ele>263.5</ele>
        <time>2019-09-14T10:12:27Z</time>
      </trkpt>
      <trkpt lat="43.94045" lon="5.27519">
        <ele>262.5</ele>
        <time>2019-09-14T10:12:32Z</time>
      </trkpt>
      <trkpt lat="43.94041" lon="5.27512">
        <ele>261.5</ele>
        <time>2019-09-14T10:12:38Z</time>
      </trkpt>
      <trkpt lat="43.94039" lon="5.27501">
        <ele>261.5</ele>
        <time>2019-09-14T10:12:43Z</time>
      </trkpt>
      <trkpt lat="43.94038" lon="5.27497">
        <ele>260.5</ele>
        <time>2019-09-14T10:12:48Z</time>
      </trkpt>
      <trkpt lat="43.94036" lon="5.27489">
        <ele>262.5</ele>
        <time>2019-09-14T10:12:54Z</time>
      </trkpt>
      <trkpt lat="43.94032" lon="5.2748">
        <ele>263.5</ele>
        <time>2019-09-14T10:12:59Z</time>
      </trkpt>
      <trkpt lat="43.9403" lon="5.27472">
        <ele>265.5</ele>
        <time>2019-09-14T10:13:04Z</time>
      </trkpt>
      <trkpt lat="43.94032" lon="5.27464">
        <ele>266.5</ele>
        <time>2019-09-14T10:13:10Z</time>
      </trkpt>
      <trkpt lat="43.94031" lon="5.27454">
        <ele>268.5</ele>
        <time>2019-09-14T10:13:15Z</time>
      </trkpt>
      <trkpt lat="43.94029" lon="5.27449">
        <ele>271.5</ele>
        <time>2019-09-14T10:13:21Z</time>
      </trkpt>
      <trkpt lat="43.94022" lon="5.27435">
        <ele>271.5</ele>
        <time>2019-09-14T10:13:27Z</time>
      </trkpt>
      <trkpt lat="43.94022" lon="5.27431">
        <ele>269.5</ele>
        <time>2019-09-14T10:13:32Z</time>
      </trkpt>
      <trkpt lat="43.94024" lon="5.27425">
        <ele>265.5</ele>
        <time>2019-09-14T10:13:38Z</time>
      </trkpt>
      <trkpt lat="43.94026" lon="5.27416">
        <ele>263.5</ele>
        <time>2019-09-14T10:13:43Z</time>
      </trkpt>
      <trkpt lat="43.94026" lon="5.27409">
        <ele>265.5</ele>
        <time>2019-09-14T10:13:49Z</time>
      </trkpt>
      <trkpt lat="43.94027" lon="5.274">
        <ele>264.5</ele>
        <time>2019-09-14T10:13:55Z</time>
      </trkpt>
      <trkpt lat="43.9403" lon="5.27396">
        <ele>261.5</ele>
        <time>2019-09-14T10:14:00Z</time>
      </trkpt>
      <trkpt lat="43.94031" lon="5.27393">
        <ele>257.5</ele>
        <time>2019-09-14T10:14:05Z</time>
      </trkpt>
      <trkpt lat="43.94031" lon="5.27385">
        <ele>260.5</ele>
        <time>2019-09-14T10:14:11Z</time>
      </trkpt>
      <trkpt lat="43.94026" lon="5.27383">
        <ele>263.5</ele>
        <time>2019-09-14T10:14:17Z</time>
      </trkpt>
      <trkpt lat="43.94024" lon="5.27382">
        <ele>263.5</ele>
        <time>2019-09-14T10:14:23Z</time>
      </trkpt>
      <trkpt lat="43.94024" lon="5.27382">
        <ele>264.5</ele>
        <time>2019-09-14T10:14:28Z</time>
      </trkpt>
      <trkpt lat="43.94023" lon="5.27382">
        <ele>264.5</ele>
        <time>2019-09-14T10:14:34Z</time>
      </trkpt>
      <trkpt lat="43.94023" lon="5.27382">
        <ele>263.5</ele>
        <time>2019-09-14T10:14:40Z</time>
      </trkpt>
      <trkpt lat="43.94024" lon="5.27382">
        <ele>263.5</ele>
        <time>2019-09-14T10:14:46Z</time>
      </trkpt>
      <trkpt lat="43.94024" lon="5.27382">
        <ele>263.5</ele>
        <time>2019-09-14T10:14:51Z</time>
      </trkpt>
      <trkpt lat="43.94025" lon="5.27371">
        <ele>262.5</ele>
        <time>2019-09-14T10:14:57Z</time>
      </trkpt>
      <trkpt lat="43.9403" lon="5.27362">
        <ele>261.5</ele>
        <time>2019-09-14T10:15:02Z</time>
      </trkpt>
      <trkpt lat="43.9403" lon="5.27351">
        <ele>263.5</ele>
        <time>2019-09-14T10:15:07Z</time>
      </trkpt>
      <trkpt lat="43.94035" lon="5.27341">
        <ele>261.5</ele>
        <time>2019-09-14T10:15:13Z</time>
      </trkpt>
      <trkpt lat="43.94038" lon="5.27333">
        <ele>260.5</ele>
        <time>2019-09-14T10:15:18Z</time>
      </trkpt>
      <trkpt lat="43.94039" lon="5.27323">
        <ele>261.5</ele>
        <time>2019-09-14T10:15:23Z</time>
      </trkpt>
      <trkpt lat="43.9404" lon="5.27316">
        <ele>262.5</ele>
        <time>2019-09-14T10:15:29Z</time>
      </trkpt>
      <trkpt lat="43.94043" lon="5.27306">
        <ele>261.5</ele>
        <time>2019-09-14T10:15:35Z</time>
      </trkpt>
      <trkpt lat="43.94042" lon="5.27299">
        <ele>260.5</ele>
        <time>2019-09-14T10:15:41Z</time>
      </trkpt>
      <trkpt lat="43.94043" lon="5.27289">
        <ele>260.5</ele>
        <time>2019-09-14T10:15:46Z</time>
      </trkpt>
      <trkpt lat="43.94051" lon="5.27282">
        <ele>261.5</ele>
        <time>2019-09-14T10:15:52Z</time>
      </trkpt>
      <trkpt lat="43.94051" lon="5.27271">
        <ele>265.5</ele>
        <time>2019-09-14T10:15:57Z</time>
      </trkpt>
      <trkpt lat="43.94052" lon="5.27264">
        <ele>266.5</ele>
        <time>2019-09-14T10:16:03Z</time>
      </trkpt>
      <trkpt lat="43.94058" lon="5.2726">
        <ele>260.5</ele>
        <time>2019-09-14T10:16:09Z</time>
      </trkpt>
      <trkpt lat="43.94064" lon="5.27257">
        <ele>262.5</ele>
        <time>2019-09-14T10:16:14Z</time>
      </trkpt>
      <trkpt lat="43.94063" lon="5.27247">
        <ele>260.5</ele>
        <time>2019-09-14T10:16:20Z</time>
      </trkpt>
      <trkpt lat="43.94066" lon="5.27237">
        <ele>261.5</ele>
        <time>2019-09-14T10:16:26Z</time>
      </trkpt>
      <trkpt lat="43.94066" lon="5.27228">
        <ele>262.5</ele>
        <time>2019-09-14T10:16:32Z</time>
      </trkpt>
      <trkpt lat="43.94069" lon="5.27223">
        <ele>261.5</ele>
        <time>2019-09-14T10:16:37Z</time>
      </trkpt>
      <trkpt lat="43.94069" lon="5.27217">
        <ele>260.5</ele>
        <time>2019-09-14T10:16:43Z</time>
      </trkpt>
      <trkpt lat="43.94065" lon="5.27207">
        <ele>262.5</ele>
        <time>2019-09-14T10:16:48Z</time>
      </trkpt>
      <trkpt lat="43.94064" lon="5.27207">
        <ele>265.5</ele>
        <time>2019-09-14T10:16:53Z</time>
      </trkpt>
      <trkpt lat="43.94064" lon="5.27206">
        <ele>268.5</ele>
        <time>2019-09-14T10:16:58Z</time>
      </trkpt>
      <trkpt lat="43.94064" lon="5.27206">
        <ele>268.5</ele>
        <time>2019-09-14T10:17:03Z</time>
      </trkpt>
      <trkpt lat="43.94064" lon="5.27206">
        <ele>268.5</ele>
        <time>2019-09-14T10:17:09Z</time>
      </trkpt>
      <trkpt lat="43.94064" lon="5.27206">
        <ele>268.5</ele>
        <time>2019-09-14T10:17:14Z</time>
      </trkpt>
      <trkpt lat="43.94064" lon="5.27206">
        <ele>268.5</ele>
        <time>2019-09-14T10:17:19Z</time>
      </trkpt>
      <trkpt lat="43.94064" lon="5.27206">
        <ele>268.5</ele>
        <time>2019-09-14T10:17:26Z</time>
      </trkpt>
      <trkpt lat="43.94064" lon="5.27206">
        <ele>268.5</ele>
        <time>2019-09-14T10:17:31Z</time>
      </trkpt>
      <trkpt lat="43.94064" lon="5.27206">
        <ele>268.5</ele>
        <time>2019-09-14T10:17:36Z</time>
      </trkpt>
      <trkpt lat="43.94064" lon="5.27206">
        <ele>268.5</ele>
        <time>2019-09-14T10:17:42Z</time>
      </trkpt>
      <trkpt lat="43.94064" lon="5.27206">
        <ele>268.5</ele>
        <time>2019-09-14T10:17:48Z</time>
      </trkpt>
      <trkpt lat="43.94064" lon="5.27206">
        <ele>268.5</ele>
        <time>2019-09-14T10:17:53Z</time>
      </trkpt>
      <trkpt lat="43.94064" lon="5.27206">
        <ele>268.5</ele>
        <time>2019-09-14T10:17:59Z</time>
      </trkpt>
      <trkpt lat="43.94075" lon="5.27195">
        <ele>261.5</ele>
        <time>2019-09-14T10:18:04Z</time>
      </trkpt>
      <trkpt lat="43.94089" lon="5.27198">
        <ele>261.5</ele>
        <time>2019-09-14T10:18:10Z</time>
      </trkpt>
      <trkpt lat="43.94092" lon="5.27197">
        <ele>261.5</ele>
        <time>2019-09-14T10:18:15Z</time>
      </trkpt>
      <trkpt lat="43.94099" lon="5.27199">
        <ele>263.5</ele>
        <time>2019-09-14T10:18:21Z</time>
      </trkpt>
      <trkpt lat="43.94096" lon="5.27198">
        <ele>263.5</ele>
        <time>2019-09-14T10:18:27Z</time>
      </trkpt>
      <trkpt lat="43.94095" lon="5.27197">
        <ele>264.5</ele>
        <time>2019-09-14T10:18:32Z</time>
      </trkpt>
      <trkpt lat="43.94094" lon="5.27197">
        <ele>264.5</ele>
        <time>2019-09-14T10:18:38Z</time>
      </trkpt>
      <trkpt lat="43.94093" lon="5.27197">
        <ele>265.5</ele>
        <time>2019-09-14T10:18:44Z</time>
      </trkpt>
      <trkpt lat="43.94094" lon="5.27197">
        <ele>265.5</ele>
        <time>2019-09-14T10:18:49Z</time>
      </trkpt>
      <trkpt lat="43.94094" lon="5.27197">
        <ele>265.5</ele>
        <time>2019-09-14T10:18:54Z</time>
      </trkpt>
      <trkpt lat="43.94094" lon="5.27197">
        <ele>265.5</ele>
        <time>2019-09-14T10:19:00Z</time>
      </trkpt>
      <trkpt lat="43.94094" lon="5.27197">
        <ele>265.5</ele>
        <time>2019-09-14T10:19:06Z</time>
      </trkpt>
      <trkpt lat="43.94098" lon="5.27195">
        <ele>264.5</ele>
        <time>2019-09-14T10:19:11Z</time>
      </trkpt>
      <trkpt lat="43.941" lon="5.27189">
        <ele>264.5</ele>
        <time>2019-09-14T10:19:17Z</time>
      </trkpt>
      <trkpt lat="43.94103" lon="5.27185">
        <ele>265.5</ele>
        <time>2019-09-14T10:19:23Z</time>
      </trkpt>
      <trkpt lat="43.94105" lon="5.27185">
        <ele>265.5</ele>
        <time>2019-09-14T10:19:29Z</time>
      </trkpt>
      <trkpt lat="43.9411" lon="5.27184">
        <ele>267.5</ele>
        <time>2019-09-14T10:19:35Z</time>
      </trkpt>
      <trkpt lat="43.94128" lon="5.2718">
        <ele>263.5</ele>
        <time>2019-09-14T10:19:41Z</time>
      </trkpt>
      <trkpt lat="43.94134" lon="5.27179">
        <ele>261.5</ele>
        <time>2019-09-14T10:19:48Z</time>
      </trkpt>
      <trkpt lat="43.9414" lon="5.2718">
        <ele>261.5</ele>
        <time>2019-09-14T10:19:54Z</time>
      </trkpt>
      <trkpt lat="43.9414" lon="5.27174">
        <ele>260.5</ele>
        <time>2019-09-14T10:19:59Z</time>
      </trkpt>
      <trkpt lat="43.94143" lon="5.27173">
        <ele>264.5</ele>
        <time>2019-09-14T10:20:04Z</time>
      </trkpt>
      <trkpt lat="43.94155" lon="5.27168">
        <ele>265.5</ele>
        <time>2019-09-14T10:20:10Z</time>
      </trkpt>
      <trkpt lat="43.94161" lon="5.27176">
        <ele>273.5</ele>
        <time>2019-09-14T10:20:16Z</time>
      </trkpt>
      <trkpt lat="43.94159" lon="5.2718">
        <ele>272.5</ele>
        <time>2019-09-14T10:20:22Z</time>
      </trkpt>
      <trkpt lat="43.9416" lon="5.27179">
        <ele>269.5</ele>
        <time>2019-09-14T10:20:28Z</time>
      </trkpt>
      <trkpt lat="43.94159" lon="5.27179">
        <ele>269.5</ele>
        <time>2019-09-14T10:20:33Z</time>
      </trkpt>
      <trkpt lat="43.94159" lon="5.27179">
        <ele>268.5</ele>
        <time>2019-09-14T10:20:39Z</time>
      </trkpt>
      <trkpt lat="43.9416" lon="5.27178">
        <ele>268.5</ele>
        <time>2019-09-14T10:20:44Z</time>
      </trkpt>
      <trkpt lat="43.94159" lon="5.27178">
        <ele>268.5</ele>
        <time>2019-09-14T10:20:50Z</time>
      </trkpt>
      <trkpt lat="43.94159" lon="5.27178">
        <ele>268.5</ele>
        <time>2019-09-14T10:20:56Z</time>
      </trkpt>
      <trkpt lat="43.94159" lon="5.27178">
        <ele>268.5</ele>
        <time>2019-09-14T10:21:01Z</time>
      </trkpt>
      <trkpt lat="43.9416" lon="5.27178">
        <ele>268.5</ele>
        <time>2019-09-14T10:21:07Z</time>
      </trkpt>
      <trkpt lat="43.94167" lon="5.27184">
        <ele>269.5</ele>
        <time>2019-09-14T10:21:12Z</time>
      </trkpt>
      <trkpt lat="43.94172" lon="5.27178">
        <ele>266.5</ele>
        <time>2019-09-14T10:21:18Z</time>
      </trkpt>
      <trkpt lat="43.94182" lon="5.27179">
        <ele>269.5</ele>
        <time>2019-09-14T10:21:24Z</time>
      </trkpt>
      <trkpt lat="43.94187" lon="5.27172">
        <ele>273.5</ele>
        <time>2019-09-14T10:21:30Z</time>
      </trkpt>
      <trkpt lat="43.94208" lon="5.27195">
        <ele>268.5</ele>
        <time>2019-09-14T10:21:35Z</time>
      </trkpt>
      <trkpt lat="43.94219" lon="5.27195">
        <ele>271.5</ele>
        <time>2019-09-14T10:21:40Z</time>
      </trkpt>
      <trkpt lat="43.94226" lon="5.27194">
        <ele>266.5</ele>
        <time>2019-09-14T10:21:46Z</time>
      </trkpt>
      <trkpt lat="43.94228" lon="5.27188">
        <ele>266.5</ele>
        <time>2019-09-14T10:21:51Z</time>
      </trkpt>
      <trkpt lat="43.94228" lon="5.27178">
        <ele>267.5</ele>
        <time>2019-09-14T10:21:57Z</time>
      </trkpt>
      <trkpt lat="43.94246" lon="5.27191">
        <ele>267.5</ele>
        <time>2019-09-14T10:22:03Z</time>
      </trkpt>
      <trkpt lat="43.94244" lon="5.27182">
        <ele>264.5</ele>
        <time>2019-09-14T10:22:09Z</time>
      </trkpt>
      <trkpt lat="43.94254" lon="5.27187">
        <ele>263.5</ele>
        <time>2019-09-14T10:22:15Z</time>
      </trkpt>
      <trkpt lat="43.94265" lon="5.27202">
        <ele>261.5</ele>
        <time>2019-09-14T10:22:20Z</time>
      </trkpt>
      <trkpt lat="43.94255" lon="5.27192">
        <ele>264.5</ele>
        <time>2019-09-14T10:22:26Z</time>
      </trkpt>
      <trkpt lat="43.94238" lon="5.27177">
        <ele>268.5</ele>
        <time>2019-09-14T10:22:31Z</time>
      </trkpt>
      <trkpt lat="43.94233" lon="5.27168">
        <ele>266.5</ele>
        <time>2019-09-14T10:22:37Z</time>
      </trkpt>
      <trkpt lat="43.94232" lon="5.27163">
        <ele>267.5</ele>
        <time>2019-09-14T10:22:43Z</time>
      </trkpt>
      <trkpt lat="43.94238" lon="5.27166">
        <ele>266.5</ele>
        <time>2019-09-14T10:22:48Z</time>
      </trkpt>
      <trkpt lat="43.94245" lon="5.27163">
        <ele>265.5</ele>
        <time>2019-09-14T10:22:54Z</time>
      </trkpt>
      <trkpt lat="43.94237" lon="5.27159">
        <ele>265.5</ele>
        <time>2019-09-14T10:23:00Z</time>
      </trkpt>
      <trkpt lat="43.94224" lon="5.27152">
        <ele>265.5</ele>
        <time>2019-09-14T10:23:06Z</time>
      </trkpt>
      <trkpt lat="43.94225" lon="5.27152">
        <ele>264.5</ele>
        <time>2019-09-14T10:23:12Z</time>
      </trkpt>
      <trkpt lat="43.94237" lon="5.27153">
        <ele>265.5</ele>
        <time>2019-09-14T10:23:17Z</time>
      </trkpt>
      <trkpt lat="43.94224" lon="5.27148">
        <ele>264.5</ele>
        <time>2019-09-14T10:23:23Z</time>
      </trkpt>
      <trkpt lat="43.94217" lon="5.27135">
        <ele>266.5</ele>
        <time>2019-09-14T10:23:29Z</time>
      </trkpt>
      <trkpt lat="43.94217" lon="5.27131">
        <ele>268.5</ele>
        <time>2019-09-14T10:23:35Z</time>
      </trkpt>
      <trkpt lat="43.94218" lon="5.27132">
        <ele>270.5</ele>
        <time>2019-09-14T10:23:41Z</time>
      </trkpt>
      <trkpt lat="43.94217" lon="5.27132">
        <ele>270.5</ele>
        <time>2019-09-14T10:23:47Z</time>
      </trkpt>
      <trkpt lat="43.94216" lon="5.27129">
        <ele>271.5</ele>
        <time>2019-09-14T10:23:53Z</time>
      </trkpt>
      <trkpt lat="43.94216" lon="5.27129">
        <ele>268.5</ele>
        <time>2019-09-14T10:23:58Z</time>
      </trkpt>
      <trkpt lat="43.9422" lon="5.27134">
        <ele>271.5</ele>
        <time>2019-09-14T10:24:04Z</time>
      </trkpt>
      <trkpt lat="43.94224" lon="5.27123">
        <ele>271.5</ele>
        <time>2019-09-14T10:24:10Z</time>
      </trkpt>
      <trkpt lat="43.94228" lon="5.27128">
        <ele>271.5</ele>
        <time>2019-09-14T10:24:16Z</time>
      </trkpt>
      <trkpt lat="43.9426" lon="5.27152">
        <ele>266.5</ele>
        <time>2019-09-14T10:24:22Z</time>
      </trkpt>
      <trkpt lat="43.94258" lon="5.27158">
        <ele>268.5</ele>
        <time>2019-09-14T10:24:28Z</time>
      </trkpt>
      <trkpt lat="43.94255" lon="5.27138">
        <ele>268.5</ele>
        <time>2019-09-14T10:24:37Z</time>
      </trkpt>
      <trkpt lat="43.94263" lon="5.27156">
        <ele>266.5</ele>
        <time>2019-09-14T10:24:51Z</time>
      </trkpt>
      <trkpt lat="43.9427" lon="5.27166">
        <ele>268.5</ele>
        <time>2019-09-14T10:24:56Z</time>
      </trkpt>
      <trkpt lat="43.94272" lon="5.27161">
        <ele>265.5</ele>
        <time>2019-09-14T10:25:02Z</time>
      </trkpt>
      <trkpt lat="43.9427" lon="5.27153">
        <ele>265.5</ele>
        <time>2019-09-14T10:25:07Z</time>
      </trkpt>
      <trkpt lat="43.94266" lon="5.27137">
        <ele>265.5</ele>
        <time>2019-09-14T10:25:13Z</time>
      </trkpt>
      <trkpt lat="43.94284" lon="5.27149">
        <ele>263.5</ele>
        <time>2019-09-14T10:25:19Z</time>
      </trkpt>
      <trkpt lat="43.94282" lon="5.2714">
        <ele>275.5</ele>
        <time>2019-09-14T10:25:25Z</time>
      </trkpt>
      <trkpt lat="43.9428" lon="5.2714">
        <ele>276.5</ele>
        <time>2019-09-14T10:25:30Z</time>
      </trkpt>
      <trkpt lat="43.94275" lon="5.27133">
        <ele>275.5</ele>
        <time>2019-09-14T10:25:36Z</time>
      </trkpt>
      <trkpt lat="43.94265" lon="5.27118">
        <ele>275.5</ele>
        <time>2019-09-14T10:25:41Z</time>
      </trkpt>
      <trkpt lat="43.94289" lon="5.27145">
        <ele>270.5</ele>
        <time>2019-09-14T10:25:56Z</time>
      </trkpt>
      <trkpt lat="43.94287" lon="5.27142">
        <ele>271.5</ele>
        <time>2019-09-14T10:26:03Z</time>
      </trkpt>
      <trkpt lat="43.94303" lon="5.27151">
        <ele>272.5</ele>
        <time>2019-09-14T10:26:09Z</time>
      </trkpt>
      <trkpt lat="43.9431" lon="5.27149">
        <ele>271.5</ele>
        <time>2019-09-14T10:26:14Z</time>
      </trkpt>
      <trkpt lat="43.94301" lon="5.27138">
        <ele>268.5</ele>
        <time>2019-09-14T10:26:20Z</time>
      </trkpt>
      <trkpt lat="43.94294" lon="5.27134">
        <ele>266.5</ele>
        <time>2019-09-14T10:26:26Z</time>
      </trkpt>
      <trkpt lat="43.94325" lon="5.27141">
        <ele>267.5</ele>
        <time>2019-09-14T10:26:41Z</time>
      </trkpt>
      <trkpt lat="43.94303" lon="5.2712">
        <ele>272.5</ele>
        <time>2019-09-14T10:26:47Z</time>
      </trkpt>
      <trkpt lat="43.94301" lon="5.27104">
        <ele>270.5</ele>
        <time>2019-09-14T10:26:53Z</time>
      </trkpt>
      <trkpt lat="43.94294" lon="5.27096">
        <ele>273.5</ele>
        <time>2019-09-14T10:26:59Z</time>
      </trkpt>
      <trkpt lat="43.94289" lon="5.27076">
        <ele>273.5</ele>
        <time>2019-09-14T10:27:05Z</time>
      </trkpt>
      <trkpt lat="43.94279" lon="5.27078">
        <ele>269.5</ele>
        <time>2019-09-14T10:27:15Z</time>
      </trkpt>
      <trkpt lat="43.94306" lon="5.27098">
        <ele>261.5</ele>
        <time>2019-09-14T10:27:21Z</time>
      </trkpt>
      <trkpt lat="43.94302" lon="5.27091">
        <ele>262.5</ele>
        <time>2019-09-14T10:27:26Z</time>
      </trkpt>
      <trkpt lat="43.94306" lon="5.27095">
        <ele>262.5</ele>
        <time>2019-09-14T10:27:31Z</time>
      </trkpt>
      <trkpt lat="43.94291" lon="5.2707">
        <ele>259.5</ele>
        <time>2019-09-14T10:27:37Z</time>
      </trkpt>
      <trkpt lat="43.94277" lon="5.27047">
        <ele>267.5</ele>
        <time>2019-09-14T10:28:00Z</time>
      </trkpt>
      <trkpt lat="43.94283" lon="5.27063">
        <ele>268.5</ele>
        <time>2019-09-14T10:28:06Z</time>
      </trkpt>
      <trkpt lat="43.94285" lon="5.27042">
        <ele>262.5</ele>
        <time>2019-09-14T10:28:12Z</time>
      </trkpt>
      <trkpt lat="43.943" lon="5.27052">
        <ele>267.5</ele>
        <time>2019-09-14T10:28:18Z</time>
      </trkpt>
      <trkpt lat="43.94301" lon="5.27045">
        <ele>267.5</ele>
        <time>2019-09-14T10:28:24Z</time>
      </trkpt>
      <trkpt lat="43.94288" lon="5.27037">
        <ele>266.5</ele>
        <time>2019-09-14T10:28:30Z</time>
      </trkpt>
      <trkpt lat="43.94319" lon="5.27066">
        <ele>266.5</ele>
        <time>2019-09-14T10:28:36Z</time>
      </trkpt>
      <trkpt lat="43.94335" lon="5.2708">
        <ele>266.5</ele>
        <time>2019-09-14T10:28:42Z</time>
      </trkpt>
      <trkpt lat="43.94345" lon="5.27087">
        <ele>266.5</ele>
        <time>2019-09-14T10:28:47Z</time>
      </trkpt>
      <trkpt lat="43.94345" lon="5.27082">
        <ele>266.5</ele>
        <time>2019-09-14T10:28:55Z</time>
      </trkpt>
      <trkpt lat="43.94341" lon="5.27065">
        <ele>264.5</ele>
        <time>2019-09-14T10:29:01Z</time>
      </trkpt>
      <trkpt lat="43.94343" lon="5.27054">
        <ele>265.5</ele>
        <time>2019-09-14T10:29:07Z</time>
      </trkpt>
      <trkpt lat="43.9431" lon="5.2701">
        <ele>274.5</ele>
        <time>2019-09-14T10:29:25Z</time>
      </trkpt>
      <trkpt lat="43.94361" lon="5.2704">
        <ele>271.5</ele>
        <time>2019-09-14T10:30:05Z</time>
      </trkpt>
      <trkpt lat="43.94367" lon="5.27029">
        <ele>264.5</ele>
        <time>2019-09-14T10:30:11Z</time>
      </trkpt>
      <trkpt lat="43.94388" lon="5.27048">
        <ele>254.5</ele>
        <time>2019-09-14T10:30:17Z</time>
      </trkpt>
      <trkpt lat="43.94382" lon="5.27019">
        <ele>262.5</ele>
        <time>2019-09-14T10:30:59Z</time>
      </trkpt>
      <trkpt lat="43.94392" lon="5.27026">
        <ele>263.5</ele>
        <time>2019-09-14T10:31:04Z</time>
      </trkpt>
      <trkpt lat="43.94383" lon="5.26999">
        <ele>261.5</ele>
        <time>2019-09-14T10:31:10Z</time>
      </trkpt>
      <trkpt lat="43.94392" lon="5.27004">
        <ele>260.5</ele>
        <time>2019-09-14T10:31:15Z</time>
      </trkpt>
      <trkpt lat="43.94464" lon="5.26968">
        <ele>285.5</ele>
        <time>2019-09-14T10:36:56Z</time>
      </trkpt>
      <trkpt lat="43.9446" lon="5.26968">
        <ele>281.5</ele>
        <time>2019-09-14T10:37:02Z</time>
      </trkpt>
      <trkpt lat="43.94461" lon="5.26969">
        <ele>280.5</ele>
        <time>2019-09-14T10:37:07Z</time>
      </trkpt>
      <trkpt lat="43.94461" lon="5.2697">
        <ele>282.5</ele>
        <time>2019-09-14T10:42:59Z</time>
      </trkpt>
      <trkpt lat="43.94461" lon="5.2697">
        <ele>282.5</ele>
        <time>2019-09-14T10:43:05Z</time>
      </trkpt>
      <trkpt lat="43.94462" lon="5.2697">
        <ele>284.5</ele>
        <time>2019-09-14T10:43:11Z</time>
      </trkpt>
      <trkpt lat="43.94462" lon="5.26969">
        <ele>286.5</ele>
        <time>2019-09-14T10:43:16Z</time>
      </trkpt>
      <trkpt lat="43.94463" lon="5.26969">
        <ele>287.5</ele>
        <time>2019-09-14T10:43:22Z</time>
      </trkpt>
      <trkpt lat="43.94463" lon="5.26968">
        <ele>288.5</ele>
        <time>2019-09-14T10:43:28Z</time>
      </trkpt>
      <trkpt lat="43.94463" lon="5.26968">
        <ele>288.5</ele>
        <time>2019-09-14T10:43:33Z</time>
      </trkpt>
      <trkpt lat="43.94463" lon="5.26968">
        <ele>288.5</ele>
        <time>2019-09-14T10:43:38Z</time>
      </trkpt>
      <trkpt lat="43.94463" lon="5.26969">
        <ele>287.5</ele>
        <time>2019-09-14T10:43:44Z</time>
      </trkpt>
      <trkpt lat="43.94463" lon="5.26969">
        <ele>287.5</ele>
        <time>2019-09-14T10:43:50Z</time>
      </trkpt>
      <trkpt lat="43.94462" lon="5.26969">
        <ele>286.5</ele>
        <time>2019-09-14T10:43:55Z</time>
      </trkpt>
      <trkpt lat="43.94462" lon="5.26969">
        <ele>286.5</ele>
        <time>2019-09-14T10:44:01Z</time>
      </trkpt>
      <trkpt lat="43.94462" lon="5.26969">
        <ele>286.5</ele>
        <time>2019-09-14T10:44:06Z</time>
      </trkpt>
      <trkpt lat="43.94462" lon="5.26969">
        <ele>286.5</ele>
        <time>2019-09-14T10:44:12Z</time>
      </trkpt>
      <trkpt lat="43.94462" lon="5.26969">
        <ele>286.5</ele>
        <time>2019-09-14T10:44:18Z</time>
      </trkpt>
      <trkpt lat="43.94462" lon="5.26969">
        <ele>286.5</ele>
        <time>2019-09-14T10:44:23Z</time>
      </trkpt>
      <trkpt lat="43.94462" lon="5.26969">
        <ele>286.5</ele>
        <time>2019-09-14T10:44:28Z</time>
      </trkpt>
      <trkpt lat="43.94463" lon="5.26969">
        <ele>287.5</ele>
        <time>2019-09-14T10:44:33Z</time>
      </trkpt>
      <trkpt lat="43.94463" lon="5.26969">
        <ele>287.5</ele>
        <time>2019-09-14T10:44:38Z</time>
      </trkpt>
      <trkpt lat="43.94462" lon="5.26969">
        <ele>286.5</ele>
        <time>2019-09-14T10:44:44Z</time>
      </trkpt>
      <trkpt lat="43.94462" lon="5.26969">
        <ele>286.5</ele>
        <time>2019-09-14T10:44:50Z</time>
      </trkpt>
      <trkpt lat="43.94462" lon="5.26969">
        <ele>286.5</ele>
        <time>2019-09-14T10:44:55Z</time>
      </trkpt>
      <trkpt lat="43.94462" lon="5.26969">
        <ele>286.5</ele>
        <time>2019-09-14T10:45:00Z</time>
      </trkpt>
      <trkpt lat="43.94462" lon="5.26969">
        <ele>286.5</ele>
        <time>2019-09-14T10:45:06Z</time>
      </trkpt>
      <trkpt lat="43.94462" lon="5.26969">
        <ele>286.5</ele>
        <time>2019-09-14T10:45:11Z</time>
      </trkpt>
      <trkpt lat="43.94462" lon="5.26969">
        <ele>286.5</ele>
        <time>2019-09-14T10:45:17Z</time>
      </trkpt>
      <trkpt lat="43.94462" lon="5.26969">
        <ele>286.5</ele>
        <time>2019-09-14T10:45:23Z</time>
      </trkpt>
      <trkpt lat="43.94462" lon="5.26969">
        <ele>286.5</ele>
        <time>2019-09-14T10:45:29Z</time>
      </trkpt>
      <trkpt lat="43.94462" lon="5.26969">
        <ele>286.5</ele>
        <time>2019-09-14T10:45:35Z</time>
      </trkpt>
      <trkpt lat="43.94462" lon="5.26969">
        <ele>286.5</ele>
        <time>2019-09-14T10:45:40Z</time>
      </trkpt>
      <trkpt lat="43.94462" lon="5.26969">
        <ele>286.5</ele>
        <time>2019-09-14T10:45:45Z</time>
      </trkpt>
      <trkpt lat="43.94462" lon="5.26969">
        <ele>286.5</ele>
        <time>2019-09-14T10:45:51Z</time>
      </trkpt>
      <trkpt lat="43.94462" lon="5.26969">
        <ele>286.5</ele>
        <time>2019-09-14T10:45:56Z</time>
      </trkpt>
      <trkpt lat="43.94462" lon="5.26969">
        <ele>286.5</ele>
        <time>2019-09-14T10:46:02Z</time>
      </trkpt>
      <trkpt lat="43.94462" lon="5.26969">
        <ele>286.5</ele>
        <time>2019-09-14T10:46:08Z</time>
      </trkpt>
      <trkpt lat="43.94462" lon="5.26969">
        <ele>286.5</ele>
        <time>2019-09-14T10:46:14Z</time>
      </trkpt>
      <trkpt lat="43.94462" lon="5.26969">
        <ele>286.5</ele>
        <time>2019-09-14T10:46:20Z</time>
      </trkpt>
      <trkpt lat="43.94462" lon="5.26969">
        <ele>286.5</ele>
        <time>2019-09-14T10:46:25Z</time>
      </trkpt>
      <trkpt lat="43.94462" lon="5.26969">
        <ele>286.5</ele>
        <time>2019-09-14T10:46:31Z</time>
      </trkpt>
      <trkpt lat="43.94462" lon="5.26969">
        <ele>286.5</ele>
        <time>2019-09-14T10:46:37Z</time>
      </trkpt>
      <trkpt lat="43.94462" lon="5.2697">
        <ele>286.5</ele>
        <time>2019-09-14T10:46:43Z</time>
      </trkpt>
      <trkpt lat="43.94462" lon="5.26969">
        <ele>286.5</ele>
        <time>2019-09-14T10:46:48Z</time>
      </trkpt>
      <trkpt lat="43.94462" lon="5.2697">
        <ele>286.5</ele>
        <time>2019-09-14T10:46:54Z</time>
      </trkpt>
      <trkpt lat="43.94462" lon="5.2697">
        <ele>286.5</ele>
        <time>2019-09-14T10:47:00Z</time>
      </trkpt>
      <trkpt lat="43.94462" lon="5.2697">
        <ele>286.5</ele>
        <time>2019-09-14T10:47:06Z</time>
      </trkpt>
      <trkpt lat="43.94462" lon="5.2697">
        <ele>286.5</ele>
        <time>2019-09-14T10:47:11Z</time>
      </trkpt>
      <trkpt lat="43.94462" lon="5.2697">
        <ele>286.5</ele>
        <time>2019-09-14T10:47:17Z</time>
      </trkpt>
      <trkpt lat="43.94462" lon="5.2697">
        <ele>286.5</ele>
        <time>2019-09-14T10:47:22Z</time>
      </trkpt>
      <trkpt lat="43.94462" lon="5.2697">
        <ele>286.5</ele>
        <time>2019-09-14T10:47:28Z</time>
      </trkpt>
      <trkpt lat="43.94462" lon="5.2697">
        <ele>286.5</ele>
        <time>2019-09-14T10:47:33Z</time>
      </trkpt>
      <trkpt lat="43.94462" lon="5.2697">
        <ele>286.5</ele>
        <time>2019-09-14T10:47:39Z</time>
      </trkpt>
      <trkpt lat="43.94462" lon="5.2697">
        <ele>286.5</ele>
        <time>2019-09-14T10:47:45Z</time>
      </trkpt>
      <trkpt lat="43.94462" lon="5.2697">
        <ele>286.5</ele>
        <time>2019-09-14T10:47:51Z</time>
      </trkpt>
      <trkpt lat="43.94462" lon="5.2697">
        <ele>286.5</ele>
        <time>2019-09-14T10:47:57Z</time>
      </trkpt>
      <trkpt lat="43.94462" lon="5.2697">
        <ele>286.5</ele>
        <time>2019-09-14T10:48:02Z</time>
      </trkpt>
      <trkpt lat="43.94462" lon="5.2697">
        <ele>286.5</ele>
        <time>2019-09-14T10:48:08Z</time>
      </trkpt>
      <trkpt lat="43.94462" lon="5.2697">
        <ele>286.5</ele>
        <time>2019-09-14T10:48:13Z</time>
      </trkpt>
      <trkpt lat="43.94462" lon="5.2697">
        <ele>286.5</ele>
        <time>2019-09-14T10:48:18Z</time>
      </trkpt>
      <trkpt lat="43.94462" lon="5.2697">
        <ele>286.5</ele>
        <time>2019-09-14T10:48:24Z</time>
      </trkpt>
      <trkpt lat="43.94462" lon="5.2697">
        <ele>286.5</ele>
        <time>2019-09-14T10:48:29Z</time>
      </trkpt>
      <trkpt lat="43.94462" lon="5.2697">
        <ele>286.5</ele>
        <time>2019-09-14T10:48:35Z</time>
      </trkpt>
      <trkpt lat="43.94462" lon="5.2697">
        <ele>286.5</ele>
        <time>2019-09-14T10:48:41Z</time>
      </trkpt>
      <trkpt lat="43.94462" lon="5.2697">
        <ele>286.5</ele>
        <time>2019-09-14T10:48:47Z</time>
      </trkpt>
      <trkpt lat="43.94462" lon="5.2697">
        <ele>286.5</ele>
        <time>2019-09-14T10:48:52Z</time>
      </trkpt>
      <trkpt lat="43.94462" lon="5.2697">
        <ele>286.5</ele>
        <time>2019-09-14T10:48:58Z</time>
      </trkpt>
      <trkpt lat="43.94462" lon="5.2697">
        <ele>286.5</ele>
        <time>2019-09-14T10:49:04Z</time>
      </trkpt>
      <trkpt lat="43.94462" lon="5.2697">
        <ele>286.5</ele>
        <time>2019-09-14T10:49:09Z</time>
      </trkpt>
      <trkpt lat="43.94462" lon="5.26969">
        <ele>286.5</ele>
        <time>2019-09-14T10:49:14Z</time>
      </trkpt>
      <trkpt lat="43.94462" lon="5.26969">
        <ele>286.5</ele>
        <time>2019-09-14T10:49:20Z</time>
      </trkpt>
      <trkpt lat="43.94462" lon="5.26969">
        <ele>286.5</ele>
        <time>2019-09-14T10:49:26Z</time>
      </trkpt>
      <trkpt lat="43.94462" lon="5.26969">
        <ele>286.5</ele>
        <time>2019-09-14T10:49:32Z</time>
      </trkpt>
      <trkpt lat="43.94462" lon="5.26969">
        <ele>286.5</ele>
        <time>2019-09-14T10:49:38Z</time>
      </trkpt>
      <trkpt lat="43.94462" lon="5.2697">
        <ele>286.5</ele>
        <time>2019-09-14T10:49:43Z</time>
      </trkpt>
      <trkpt lat="43.94462" lon="5.2697">
        <ele>286.5</ele>
        <time>2019-09-14T10:49:48Z</time>
      </trkpt>
      <trkpt lat="43.94462" lon="5.2697">
        <ele>286.5</ele>
        <time>2019-09-14T10:49:55Z</time>
      </trkpt>
      <trkpt lat="43.94462" lon="5.2697">
        <ele>286.5</ele>
        <time>2019-09-14T10:50:03Z</time>
      </trkpt>
      <trkpt lat="43.94462" lon="5.2697">
        <ele>286.5</ele>
        <time>2019-09-14T10:50:09Z</time>
      </trkpt>
      <trkpt lat="43.94462" lon="5.2697">
        <ele>286.5</ele>
        <time>2019-09-14T10:50:15Z</time>
      </trkpt>
      <trkpt lat="43.94462" lon="5.2697">
        <ele>286.5</ele>
        <time>2019-09-14T10:50:21Z</time>
      </trkpt>
      <trkpt lat="43.94462" lon="5.2697">
        <ele>286.5</ele>
        <time>2019-09-14T10:50:27Z</time>
      </trkpt>
      <trkpt lat="43.94462" lon="5.2697">
        <ele>286.5</ele>
        <time>2019-09-14T10:50:33Z</time>
      </trkpt>
      <trkpt lat="43.94462" lon="5.2697">
        <ele>286.5</ele>
        <time>2019-09-14T10:50:38Z</time>
      </trkpt>
      <trkpt lat="43.94462" lon="5.2697">
        <ele>286.5</ele>
        <time>2019-09-14T10:50:44Z</time>
      </trkpt>
      <trkpt lat="43.94462" lon="5.2697">
        <ele>286.5</ele>
        <time>2019-09-14T10:50:49Z</time>
      </trkpt>
      <trkpt lat="43.94462" lon="5.2697">
        <ele>286.5</ele>
        <time>2019-09-14T10:50:55Z</time>
      </trkpt>
      <trkpt lat="43.94462" lon="5.2697">
        <ele>286.5</ele>
        <time>2019-09-14T10:51:00Z</time>
      </trkpt>
      <trkpt lat="43.94462" lon="5.2697">
        <ele>286.5</ele>
        <time>2019-09-14T10:51:06Z</time>
      </trkpt>
      <trkpt lat="43.94462" lon="5.2697">
        <ele>286.5</ele>
        <time>2019-09-14T10:51:11Z</time>
      </trkpt>
      <trkpt lat="43.94462" lon="5.2697">
        <ele>286.5</ele>
        <time>2019-09-14T10:51:17Z</time>
      </trkpt>
      <trkpt lat="43.94462" lon="5.2697">
        <ele>286.5</ele>
        <time>2019-09-14T10:51:22Z</time>
      </trkpt>
      <trkpt lat="43.94462" lon="5.2697">
        <ele>286.5</ele>
        <time>2019-09-14T10:51:28Z</time>
      </trkpt>
      <trkpt lat="43.94462" lon="5.2697">
        <ele>286.5</ele>
        <time>2019-09-14T10:51:33Z</time>
      </trkpt>
      <trkpt lat="43.94462" lon="5.2697">
        <ele>286.5</ele>
        <time>2019-09-14T10:51:39Z</time>
      </trkpt>
      <trkpt lat="43.94462" lon="5.26969">
        <ele>286.5</ele>
        <time>2019-09-14T10:51:44Z</time>
      </trkpt>
      <trkpt lat="43.94462" lon="5.26969">
        <ele>286.5</ele>
        <time>2019-09-14T10:51:49Z</time>
      </trkpt>
      <trkpt lat="43.94462" lon="5.26969">
        <ele>286.5</ele>
        <time>2019-09-14T10:51:55Z</time>
      </trkpt>
      <trkpt lat="43.94461" lon="5.26969">
        <ele>287.5</ele>
        <time>2019-09-14T10:52:01Z</time>
      </trkpt>
      <trkpt lat="43.94461" lon="5.26969">
        <ele>287.5</ele>
        <time>2019-09-14T10:52:06Z</time>
      </trkpt>
      <trkpt lat="43.94461" lon="5.26969">
        <ele>287.5</ele>
        <time>2019-09-14T10:52:11Z</time>
      </trkpt>
      <trkpt lat="43.94461" lon="5.26969">
        <ele>287.5</ele>
        <time>2019-09-14T10:52:17Z</time>
      </trkpt>
      <trkpt lat="43.94462" lon="5.26969">
        <ele>287.5</ele>
        <time>2019-09-14T10:52:22Z</time>
      </trkpt>
      <trkpt lat="43.94461" lon="5.26969">
        <ele>287.5</ele>
        <time>2019-09-14T10:52:27Z</time>
      </trkpt>
      <trkpt lat="43.94461" lon="5.26969">
        <ele>287.5</ele>
        <time>2019-09-14T10:52:33Z</time>
      </trkpt>
      <trkpt lat="43.94461" lon="5.26969">
        <ele>287.5</ele>
        <time>2019-09-14T10:52:39Z</time>
      </trkpt>
      <trkpt lat="43.94461" lon="5.26969">
        <ele>287.5</ele>
        <time>2019-09-14T10:52:45Z</time>
      </trkpt>
      <trkpt lat="43.94461" lon="5.26969">
        <ele>287.5</ele>
        <time>2019-09-14T10:52:51Z</time>
      </trkpt>
      <trkpt lat="43.94461" lon="5.26969">
        <ele>287.5</ele>
        <time>2019-09-14T10:52:56Z</time>
      </trkpt>
      <trkpt lat="43.94461" lon="5.26969">
        <ele>287.5</ele>
        <time>2019-09-14T10:53:01Z</time>
      </trkpt>
      <trkpt lat="43.94461" lon="5.26969">
        <ele>287.5</ele>
        <time>2019-09-14T10:53:07Z</time>
      </trkpt>
      <trkpt lat="43.94461" lon="5.26969">
        <ele>287.5</ele>
        <time>2019-09-14T10:53:12Z</time>
      </trkpt>
      <trkpt lat="43.94461" lon="5.26969">
        <ele>287.5</ele>
        <time>2019-09-14T10:53:18Z</time>
      </trkpt>
      <trkpt lat="43.94461" lon="5.26969">
        <ele>287.5</ele>
        <time>2019-09-14T10:53:24Z</time>
      </trkpt>
      <trkpt lat="43.94461" lon="5.26969">
        <ele>287.5</ele>
        <time>2019-09-14T10:53:30Z</time>
      </trkpt>
      <trkpt lat="43.94461" lon="5.26969">
        <ele>287.5</ele>
        <time>2019-09-14T10:53:35Z</time>
      </trkpt>
      <trkpt lat="43.94461" lon="5.26969">
        <ele>287.5</ele>
        <time>2019-09-14T10:53:41Z</time>
      </trkpt>
      <trkpt lat="43.94461" lon="5.26969">
        <ele>287.5</ele>
        <time>2019-09-14T10:53:47Z</time>
      </trkpt>
      <trkpt lat="43.94461" lon="5.26969">
        <ele>287.5</ele>
        <time>2019-09-14T10:53:52Z</time>
      </trkpt>
      <trkpt lat="43.94461" lon="5.26969">
        <ele>287.5</ele>
        <time>2019-09-14T10:53:58Z</time>
      </trkpt>
      <trkpt lat="43.94461" lon="5.26969">
        <ele>287.5</ele>
        <time>2019-09-14T10:54:03Z</time>
      </trkpt>
      <trkpt lat="43.94461" lon="5.26969">
        <ele>287.5</ele>
        <time>2019-09-14T10:54:08Z</time>
      </trkpt>
      <trkpt lat="43.94461" lon="5.26969">
        <ele>287.5</ele>
        <time>2019-09-14T10:54:14Z</time>
      </trkpt>
      <trkpt lat="43.94461" lon="5.26969">
        <ele>287.5</ele>
        <time>2019-09-14T10:54:19Z</time>
      </trkpt>
      <trkpt lat="43.94461" lon="5.26969">
        <ele>287.5</ele>
        <time>2019-09-14T10:54:25Z</time>
      </trkpt>
      <trkpt lat="43.94461" lon="5.26969">
        <ele>287.5</ele>
        <time>2019-09-14T10:54:31Z</time>
      </trkpt>
      <trkpt lat="43.94461" lon="5.26969">
        <ele>287.5</ele>
        <time>2019-09-14T10:54:37Z</time>
      </trkpt>
      <trkpt lat="43.94461" lon="5.26969">
        <ele>287.5</ele>
        <time>2019-09-14T10:54:42Z</time>
      </trkpt>
      <trkpt lat="43.94461" lon="5.26969">
        <ele>287.5</ele>
        <time>2019-09-14T10:54:48Z</time>
      </trkpt>
      <trkpt lat="43.94461" lon="5.26969">
        <ele>287.5</ele>
        <time>2019-09-14T10:54:54Z</time>
      </trkpt>
      <trkpt lat="43.94461" lon="5.26969">
        <ele>287.5</ele>
        <time>2019-09-14T10:54:59Z</time>
      </trkpt>
      <trkpt lat="43.94461" lon="5.26969">
        <ele>287.5</ele>
        <time>2019-09-14T10:55:04Z</time>
      </trkpt>
      <trkpt lat="43.94461" lon="5.26969">
        <ele>287.5</ele>
        <time>2019-09-14T10:55:10Z</time>
      </trkpt>
      <trkpt lat="43.94461" lon="5.26969">
        <ele>287.5</ele>
        <time>2019-09-14T10:55:15Z</time>
      </trkpt>
      <trkpt lat="43.94461" lon="5.26969">
        <ele>287.5</ele>
        <time>2019-09-14T10:55:21Z</time>
      </trkpt>
      <trkpt lat="43.94461" lon="5.26969">
        <ele>288.5</ele>
        <time>2019-09-14T10:57:58Z</time>
      </trkpt>
      <trkpt lat="43.94461" lon="5.26969">
        <ele>288.5</ele>
        <time>2019-09-14T10:58:04Z</time>
      </trkpt>
      <trkpt lat="43.94461" lon="5.26968">
        <ele>288.5</ele>
        <time>2019-09-14T10:58:09Z</time>
      </trkpt>
      <trkpt lat="43.94461" lon="5.26968">
        <ele>288.5</ele>
        <time>2019-09-14T10:58:14Z</time>
      </trkpt>
      <trkpt lat="43.94461" lon="5.26968">
        <ele>288.5</ele>
        <time>2019-09-14T10:58:20Z</time>
      </trkpt>
      <trkpt lat="43.94461" lon="5.26968">
        <ele>288.5</ele>
        <time>2019-09-14T10:58:26Z</time>
      </trkpt>
      <trkpt lat="43.94461" lon="5.26968">
        <ele>288.5</ele>
        <time>2019-09-14T10:58:32Z</time>
      </trkpt>
      <trkpt lat="43.94461" lon="5.26968">
        <ele>288.5</ele>
        <time>2019-09-14T10:58:38Z</time>
      </trkpt>
      <trkpt lat="43.94461" lon="5.26968">
        <ele>288.5</ele>
        <time>2019-09-14T10:58:43Z</time>
      </trkpt>
      <trkpt lat="43.94461" lon="5.26968">
        <ele>288.5</ele>
        <time>2019-09-14T10:58:48Z</time>
      </trkpt>
      <trkpt lat="43.94461" lon="5.26968">
        <ele>288.5</ele>
        <time>2019-09-14T10:58:54Z</time>
      </trkpt>
      <trkpt lat="43.94462" lon="5.2697">
        <ele>288.5</ele>
        <time>2019-09-14T10:59:00Z</time>
      </trkpt>
      <trkpt lat="43.94462" lon="5.2697">
        <ele>288.5</ele>
        <time>2019-09-14T10:59:06Z</time>
      </trkpt>
      <trkpt lat="43.94462" lon="5.2697">
        <ele>288.5</ele>
        <time>2019-09-14T10:59:11Z</time>
      </trkpt>
      <trkpt lat="43.94462" lon="5.2697">
        <ele>288.5</ele>
        <time>2019-09-14T10:59:17Z</time>
      </trkpt>
      <trkpt lat="43.94462" lon="5.2697">
        <ele>288.5</ele>
        <time>2019-09-14T10:59:22Z</time>
      </trkpt>
      <trkpt lat="43.94462" lon="5.26969">
        <ele>288.5</ele>
        <time>2019-09-14T10:59:28Z</time>
      </trkpt>
      <trkpt lat="43.94461" lon="5.26969">
        <ele>288.5</ele>
        <time>2019-09-14T10:59:34Z</time>
      </trkpt>
      <trkpt lat="43.94461" lon="5.26969">
        <ele>288.5</ele>
        <time>2019-09-14T10:59:40Z</time>
      </trkpt>
      <trkpt lat="43.94461" lon="5.26968">
        <ele>288.5</ele>
        <time>2019-09-14T10:59:46Z</time>
      </trkpt>
      <trkpt lat="43.94461" lon="5.26968">
        <ele>287.5</ele>
        <time>2019-09-14T10:59:52Z</time>
      </trkpt>
      <trkpt lat="43.9446" lon="5.26968">
        <ele>287.5</ele>
        <time>2019-09-14T10:59:58Z</time>
      </trkpt>
      <trkpt lat="43.9446" lon="5.26967">
        <ele>287.5</ele>
        <time>2019-09-14T11:00:03Z</time>
      </trkpt>
      <trkpt lat="43.9446" lon="5.26967">
        <ele>287.5</ele>
        <time>2019-09-14T11:00:09Z</time>
      </trkpt>
      <trkpt lat="43.9446" lon="5.26967">
        <ele>287.5</ele>
        <time>2019-09-14T11:00:14Z</time>
      </trkpt>
      <trkpt lat="43.9446" lon="5.26967">
        <ele>287.5</ele>
        <time>2019-09-14T11:00:20Z</time>
      </trkpt>
      <trkpt lat="43.9446" lon="5.26967">
        <ele>287.5</ele>
        <time>2019-09-14T11:00:26Z</time>
      </trkpt>
      <trkpt lat="43.9446" lon="5.26967">
        <ele>287.5</ele>
        <time>2019-09-14T11:00:31Z</time>
      </trkpt>
      <trkpt lat="43.9446" lon="5.26967">
        <ele>287.5</ele>
        <time>2019-09-14T11:00:37Z</time>
      </trkpt>
      <trkpt lat="43.9446" lon="5.26967">
        <ele>287.5</ele>
        <time>2019-09-14T11:00:42Z</time>
      </trkpt>
      <trkpt lat="43.9446" lon="5.26967">
        <ele>287.5</ele>
        <time>2019-09-14T11:00:48Z</time>
      </trkpt>
      <trkpt lat="43.9446" lon="5.26967">
        <ele>287.5</ele>
        <time>2019-09-14T11:00:54Z</time>
      </trkpt>
      <trkpt lat="43.9446" lon="5.26967">
        <ele>287.5</ele>
        <time>2019-09-14T11:01:00Z</time>
      </trkpt>
      <trkpt lat="43.9446" lon="5.26967">
        <ele>287.5</ele>
        <time>2019-09-14T11:01:05Z</time>
      </trkpt>
      <trkpt lat="43.9446" lon="5.26967">
        <ele>287.5</ele>
        <time>2019-09-14T11:01:11Z</time>
      </trkpt>
      <trkpt lat="43.9446" lon="5.26967">
        <ele>287.5</ele>
        <time>2019-09-14T11:01:16Z</time>
      </trkpt>
      <trkpt lat="43.9446" lon="5.26967">
        <ele>287.5</ele>
        <time>2019-09-14T11:01:21Z</time>
      </trkpt>
      <trkpt lat="43.9446" lon="5.26967">
        <ele>287.5</ele>
        <time>2019-09-14T11:01:26Z</time>
      </trkpt>
      <trkpt lat="43.9446" lon="5.26967">
        <ele>287.5</ele>
        <time>2019-09-14T11:01:31Z</time>
      </trkpt>
      <trkpt lat="43.9446" lon="5.26967">
        <ele>287.5</ele>
        <time>2019-09-14T11:01:37Z</time>
      </trkpt>
      <trkpt lat="43.9446" lon="5.26967">
        <ele>287.5</ele>
        <time>2019-09-14T11:01:43Z</time>
      </trkpt>
      <trkpt lat="43.9446" lon="5.26967">
        <ele>288.5</ele>
        <time>2019-09-14T11:01:48Z</time>
      </trkpt>
      <trkpt lat="43.9446" lon="5.26967">
        <ele>288.5</ele>
        <time>2019-09-14T11:01:53Z</time>
      </trkpt>
      <trkpt lat="43.9446" lon="5.26967">
        <ele>288.5</ele>
        <time>2019-09-14T11:01:59Z</time>
      </trkpt>
      <trkpt lat="43.9446" lon="5.26967">
        <ele>287.5</ele>
        <time>2019-09-14T11:02:05Z</time>
      </trkpt>
      <trkpt lat="43.9446" lon="5.26967">
        <ele>287.5</ele>
        <time>2019-09-14T11:02:11Z</time>
      </trkpt>
      <trkpt lat="43.9446" lon="5.26967">
        <ele>288.5</ele>
        <time>2019-09-14T11:02:17Z</time>
      </trkpt>
      <trkpt lat="43.9446" lon="5.26967">
        <ele>288.5</ele>
        <time>2019-09-14T11:02:23Z</time>
      </trkpt>
      <trkpt lat="43.9446" lon="5.26967">
        <ele>288.5</ele>
        <time>2019-09-14T11:02:28Z</time>
      </trkpt>
      <trkpt lat="43.94459" lon="5.26967">
        <ele>288.5</ele>
        <time>2019-09-14T11:02:34Z</time>
      </trkpt>
      <trkpt lat="43.94459" lon="5.26966">
        <ele>288.5</ele>
        <time>2019-09-14T11:02:39Z</time>
      </trkpt>
      <trkpt lat="43.9446" lon="5.26967">
        <ele>288.5</ele>
        <time>2019-09-14T11:02:44Z</time>
      </trkpt>
      <trkpt lat="43.94459" lon="5.26967">
        <ele>288.5</ele>
        <time>2019-09-14T11:02:49Z</time>
      </trkpt>
      <trkpt lat="43.9446" lon="5.26967">
        <ele>288.5</ele>
        <time>2019-09-14T11:02:55Z</time>
      </trkpt>
      <trkpt lat="43.94459" lon="5.26967">
        <ele>288.5</ele>
        <time>2019-09-14T11:03:01Z</time>
      </trkpt>
      <trkpt lat="43.94459" lon="5.26966">
        <ele>288.5</ele>
        <time>2019-09-14T11:03:07Z</time>
      </trkpt>
      <trkpt lat="43.94459" lon="5.26966">
        <ele>288.5</ele>
        <time>2019-09-14T11:03:12Z</time>
      </trkpt>
      <trkpt lat="43.94459" lon="5.26966">
        <ele>288.5</ele>
        <time>2019-09-14T11:03:18Z</time>
      </trkpt>
      <trkpt lat="43.94459" lon="5.26966">
        <ele>288.5</ele>
        <time>2019-09-14T11:03:23Z</time>
      </trkpt>
      <trkpt lat="43.94459" lon="5.26966">
        <ele>288.5</ele>
        <time>2019-09-14T11:03:29Z</time>
      </trkpt>
      <trkpt lat="43.94459" lon="5.26966">
        <ele>288.5</ele>
        <time>2019-09-14T11:03:34Z</time>
      </trkpt>
      <trkpt lat="43.94459" lon="5.26966">
        <ele>288.5</ele>
        <time>2019-09-14T11:03:39Z</time>
      </trkpt>
      <trkpt lat="43.94459" lon="5.26967">
        <ele>288.5</ele>
        <time>2019-09-14T11:03:45Z</time>
      </trkpt>
      <trkpt lat="43.94459" lon="5.26967">
        <ele>288.5</ele>
        <time>2019-09-14T11:03:50Z</time>
      </trkpt>
      <trkpt lat="43.94459" lon="5.26967">
        <ele>288.5</ele>
        <time>2019-09-14T11:03:56Z</time>
      </trkpt>
      <trkpt lat="43.94459" lon="5.26966">
        <ele>288.5</ele>
        <time>2019-09-14T11:04:02Z</time>
      </trkpt>
      <trkpt lat="43.94459" lon="5.26966">
        <ele>288.5</ele>
        <time>2019-09-14T11:04:08Z</time>
      </trkpt>
      <trkpt lat="43.94459" lon="5.26966">
        <ele>288.5</ele>
        <time>2019-09-14T11:04:14Z</time>
      </trkpt>
      <trkpt lat="43.94459" lon="5.26966">
        <ele>288.5</ele>
        <time>2019-09-14T11:04:19Z</time>
      </trkpt>
      <trkpt lat="43.94459" lon="5.26966">
        <ele>288.5</ele>
        <time>2019-09-14T11:04:25Z</time>
      </trkpt>
      <trkpt lat="43.94459" lon="5.26966">
        <ele>288.5</ele>
        <time>2019-09-14T11:04:30Z</time>
      </trkpt>
      <trkpt lat="43.94459" lon="5.26966">
        <ele>288.5</ele>
        <time>2019-09-14T11:04:36Z</time>
      </trkpt>
      <trkpt lat="43.94459" lon="5.26966">
        <ele>288.5</ele>
        <time>2019-09-14T11:04:42Z</time>
      </trkpt>
      <trkpt lat="43.94459" lon="5.26966">
        <ele>288.5</ele>
        <time>2019-09-14T11:04:56Z</time>
      </trkpt>
      <trkpt lat="43.94459" lon="5.26966">
        <ele>288.5</ele>
        <time>2019-09-14T11:05:02Z</time>
      </trkpt>
      <trkpt lat="43.94459" lon="5.26966">
        <ele>288.5</ele>
        <time>2019-09-14T11:05:08Z</time>
      </trkpt>
      <trkpt lat="43.94459" lon="5.26966">
        <ele>288.5</ele>
        <time>2019-09-14T11:05:14Z</time>
      </trkpt>
      <trkpt lat="43.94459" lon="5.26966">
        <ele>288.5</ele>
        <time>2019-09-14T11:05:20Z</time>
      </trkpt>
      <trkpt lat="43.94459" lon="5.26966">
        <ele>288.5</ele>
        <time>2019-09-14T11:05:26Z</time>
      </trkpt>
      <trkpt lat="43.94459" lon="5.26966">
        <ele>288.5</ele>
        <time>2019-09-14T11:05:31Z</time>
      </trkpt>
      <trkpt lat="43.94459" lon="5.26966">
        <ele>288.5</ele>
        <time>2019-09-14T11:05:37Z</time>
      </trkpt>
      <trkpt lat="43.94459" lon="5.26966">
        <ele>288.5</ele>
        <time>2019-09-14T11:05:42Z</time>
      </trkpt>
      <trkpt lat="43.94459" lon="5.26966">
        <ele>288.5</ele>
        <time>2019-09-14T11:05:47Z</time>
      </trkpt>
      <trkpt lat="43.94459" lon="5.26966">
        <ele>288.5</ele>
        <time>2019-09-14T11:05:53Z</time>
      </trkpt>
      <trkpt lat="43.94459" lon="5.26966">
        <ele>288.5</ele>
        <time>2019-09-14T11:05:59Z</time>
      </trkpt>
      <trkpt lat="43.94459" lon="5.26966">
        <ele>288.5</ele>
        <time>2019-09-14T11:06:04Z</time>
      </trkpt>
      <trkpt lat="43.94459" lon="5.26966">
        <ele>288.5</ele>
        <time>2019-09-14T11:06:10Z</time>
      </trkpt>
      <trkpt lat="43.94459" lon="5.26966">
        <ele>288.5</ele>
        <time>2019-09-14T11:06:15Z</time>
      </trkpt>
      <trkpt lat="43.94459" lon="5.26966">
        <ele>288.5</ele>
        <time>2019-09-14T11:06:21Z</time>
      </trkpt>
      <trkpt lat="43.94459" lon="5.26966">
        <ele>288.5</ele>
        <time>2019-09-14T11:06:26Z</time>
      </trkpt>
      <trkpt lat="43.94459" lon="5.26966">
        <ele>288.5</ele>
        <time>2019-09-14T11:06:31Z</time>
      </trkpt>
      <trkpt lat="43.94459" lon="5.26966">
        <ele>288.5</ele>
        <time>2019-09-14T11:06:37Z</time>
      </trkpt>
      <trkpt lat="43.94459" lon="5.26966">
        <ele>288.5</ele>
        <time>2019-09-14T11:06:43Z</time>
      </trkpt>
      <trkpt lat="43.94459" lon="5.26966">
        <ele>288.5</ele>
        <time>2019-09-14T11:06:48Z</time>
      </trkpt>
      <trkpt lat="43.94459" lon="5.26966">
        <ele>288.5</ele>
        <time>2019-09-14T11:06:54Z</time>
      </trkpt>
      <trkpt lat="43.94459" lon="5.26966">
        <ele>288.5</ele>
        <time>2019-09-14T11:07:00Z</time>
      </trkpt>
      <trkpt lat="43.94459" lon="5.26966">
        <ele>288.5</ele>
        <time>2019-09-14T11:07:05Z</time>
      </trkpt>
      <trkpt lat="43.94459" lon="5.26966">
        <ele>288.5</ele>
        <time>2019-09-14T11:07:11Z</time>
      </trkpt>
      <trkpt lat="43.94459" lon="5.26966">
        <ele>288.5</ele>
        <time>2019-09-14T11:07:17Z</time>
      </trkpt>
      <trkpt lat="43.94459" lon="5.26966">
        <ele>288.5</ele>
        <time>2019-09-14T11:07:22Z</time>
      </trkpt>
      <trkpt lat="43.94459" lon="5.26966">
        <ele>288.5</ele>
        <time>2019-09-14T11:07:28Z</time>
      </trkpt>
      <trkpt lat="43.94459" lon="5.26966">
        <ele>288.5</ele>
        <time>2019-09-14T11:07:34Z</time>
      </trkpt>
      <trkpt lat="43.94459" lon="5.26966">
        <ele>288.5</ele>
        <time>2019-09-14T11:07:40Z</time>
      </trkpt>
      <trkpt lat="43.94459" lon="5.26966">
        <ele>288.5</ele>
        <time>2019-09-14T11:07:45Z</time>
      </trkpt>
      <trkpt lat="43.94459" lon="5.26966">
        <ele>288.5</ele>
        <time>2019-09-14T11:07:51Z</time>
      </trkpt>
      <trkpt lat="43.94459" lon="5.26966">
        <ele>288.5</ele>
        <time>2019-09-14T11:07:56Z</time>
      </trkpt>
      <trkpt lat="43.94459" lon="5.26966">
        <ele>288.5</ele>
        <time>2019-09-14T11:08:02Z</time>
      </trkpt>
      <trkpt lat="43.94459" lon="5.26966">
        <ele>288.5</ele>
        <time>2019-09-14T11:08:08Z</time>
      </trkpt>
      <trkpt lat="43.94459" lon="5.26966">
        <ele>288.5</ele>
        <time>2019-09-14T11:08:13Z</time>
      </trkpt>
      <trkpt lat="43.94459" lon="5.26966">
        <ele>288.5</ele>
        <time>2019-09-14T11:08:19Z</time>
      </trkpt>
      <trkpt lat="43.94459" lon="5.26966">
        <ele>288.5</ele>
        <time>2019-09-14T11:08:24Z</time>
      </trkpt>
      <trkpt lat="43.94459" lon="5.26966">
        <ele>288.5</ele>
        <time>2019-09-14T11:08:29Z</time>
      </trkpt>
      <trkpt lat="43.94459" lon="5.26966">
        <ele>288.5</ele>
        <time>2019-09-14T11:08:35Z</time>
      </trkpt>
      <trkpt lat="43.94459" lon="5.26966">
        <ele>288.5</ele>
        <time>2019-09-14T11:08:41Z</time>
      </trkpt>
      <trkpt lat="43.94459" lon="5.26966">
        <ele>288.5</ele>
        <time>2019-09-14T11:08:47Z</time>
      </trkpt>
      <trkpt lat="43.94459" lon="5.26966">
        <ele>288.5</ele>
        <time>2019-09-14T11:08:53Z</time>
      </trkpt>
      <trkpt lat="43.94459" lon="5.26966">
        <ele>288.5</ele>
        <time>2019-09-14T11:08:59Z</time>
      </trkpt>
      <trkpt lat="43.94459" lon="5.26966">
        <ele>288.5</ele>
        <time>2019-09-14T11:09:04Z</time>
      </trkpt>
      <trkpt lat="43.94459" lon="5.26966">
        <ele>288.5</ele>
        <time>2019-09-14T11:09:10Z</time>
      </trkpt>
      <trkpt lat="43.94459" lon="5.26966">
        <ele>288.5</ele>
        <time>2019-09-14T11:09:16Z</time>
      </trkpt>
      <trkpt lat="43.94459" lon="5.26966">
        <ele>288.5</ele>
        <time>2019-09-14T11:09:21Z</time>
      </trkpt>
      <trkpt lat="43.94459" lon="5.26966">
        <ele>288.5</ele>
        <time>2019-09-14T11:09:27Z</time>
      </trkpt>
      <trkpt lat="43.94459" lon="5.26966">
        <ele>288.5</ele>
        <time>2019-09-14T11:09:32Z</time>
      </trkpt>
      <trkpt lat="43.94459" lon="5.26966">
        <ele>288.5</ele>
        <time>2019-09-14T11:09:37Z</time>
      </trkpt>
      <trkpt lat="43.94459" lon="5.26966">
        <ele>288.5</ele>
        <time>2019-09-14T11:09:43Z</time>
      </trkpt>
      <trkpt lat="43.94459" lon="5.26966">
        <ele>288.5</ele>
        <time>2019-09-14T11:09:48Z</time>
      </trkpt>
      <trkpt lat="43.94459" lon="5.26966">
        <ele>288.5</ele>
        <time>2019-09-14T11:09:53Z</time>
      </trkpt>
      <trkpt lat="43.94459" lon="5.26966">
        <ele>288.5</ele>
        <time>2019-09-14T11:09:59Z</time>
      </trkpt>
      <trkpt lat="43.94459" lon="5.26966">
        <ele>288.5</ele>
        <time>2019-09-14T11:10:04Z</time>
      </trkpt>
      <trkpt lat="43.94459" lon="5.26966">
        <ele>288.5</ele>
        <time>2019-09-14T11:10:10Z</time>
      </trkpt>
      <trkpt lat="43.94459" lon="5.26966">
        <ele>288.5</ele>
        <time>2019-09-14T11:10:15Z</time>
      </trkpt>
      <trkpt lat="43.94459" lon="5.26966">
        <ele>288.5</ele>
        <time>2019-09-14T11:10:21Z</time>
      </trkpt>
      <trkpt lat="43.94459" lon="5.26966">
        <ele>288.5</ele>
        <time>2019-09-14T11:10:27Z</time>
      </trkpt>
      <trkpt lat="43.94459" lon="5.26967">
        <ele>288.5</ele>
        <time>2019-09-14T11:10:32Z</time>
      </trkpt>
      <trkpt lat="43.94459" lon="5.26967">
        <ele>288.5</ele>
        <time>2019-09-14T11:10:38Z</time>
      </trkpt>
      <trkpt lat="43.94459" lon="5.26967">
        <ele>288.5</ele>
        <time>2019-09-14T11:10:44Z</time>
      </trkpt>
      <trkpt lat="43.94459" lon="5.26967">
        <ele>288.5</ele>
        <time>2019-09-14T11:10:49Z</time>
      </trkpt>
      <trkpt lat="43.94459" lon="5.26967">
        <ele>288.5</ele>
        <time>2019-09-14T11:10:55Z</time>
      </trkpt>
      <trkpt lat="43.94459" lon="5.26967">
        <ele>288.5</ele>
        <time>2019-09-14T11:11:01Z</time>
      </trkpt>
      <trkpt lat="43.94459" lon="5.26967">
        <ele>288.5</ele>
        <time>2019-09-14T11:11:07Z</time>
      </trkpt>
      <trkpt lat="43.94459" lon="5.26967">
        <ele>288.5</ele>
        <time>2019-09-14T11:11:13Z</time>
      </trkpt>
      <trkpt lat="43.94459" lon="5.26967">
        <ele>288.5</ele>
        <time>2019-09-14T11:11:18Z</time>
      </trkpt>
      <trkpt lat="43.94459" lon="5.26967">
        <ele>288.5</ele>
        <time>2019-09-14T11:11:24Z</time>
      </trkpt>
      <trkpt lat="43.94459" lon="5.26967">
        <ele>288.5</ele>
        <time>2019-09-14T11:11:29Z</time>
      </trkpt>
      <trkpt lat="43.94459" lon="5.26967">
        <ele>288.5</ele>
        <time>2019-09-14T11:11:34Z</time>
      </trkpt>
      <trkpt lat="43.94459" lon="5.26967">
        <ele>288.5</ele>
        <time>2019-09-14T11:11:39Z</time>
      </trkpt>
      <trkpt lat="43.94459" lon="5.26967">
        <ele>288.5</ele>
        <time>2019-09-14T11:11:46Z</time>
      </trkpt>
      <trkpt lat="43.94459" lon="5.26967">
        <ele>288.5</ele>
        <time>2019-09-14T11:11:52Z</time>
      </trkpt>
      <trkpt lat="43.94459" lon="5.26967">
        <ele>288.5</ele>
        <time>2019-09-14T11:11:58Z</time>
      </trkpt>
      <trkpt lat="43.94459" lon="5.26967">
        <ele>288.5</ele>
        <time>2019-09-14T11:12:03Z</time>
      </trkpt>
      <trkpt lat="43.94459" lon="5.26967">
        <ele>288.5</ele>
        <time>2019-09-14T11:12:09Z</time>
      </trkpt>
      <trkpt lat="43.94459" lon="5.26967">
        <ele>288.5</ele>
        <time>2019-09-14T11:12:15Z</time>
      </trkpt>
      <trkpt lat="43.94459" lon="5.26967">
        <ele>288.5</ele>
        <time>2019-09-14T11:12:20Z</time>
      </trkpt>
      <trkpt lat="43.94459" lon="5.26967">
        <ele>289.5</ele>
        <time>2019-09-14T11:12:26Z</time>
      </trkpt>
      <trkpt lat="43.94459" lon="5.26967">
        <ele>288.5</ele>
        <time>2019-09-14T11:12:32Z</time>
      </trkpt>
      <trkpt lat="43.94459" lon="5.26967">
        <ele>288.5</ele>
        <time>2019-09-14T11:12:37Z</time>
      </trkpt>
      <trkpt lat="43.94459" lon="5.26967">
        <ele>288.5</ele>
        <time>2019-09-14T11:12:43Z</time>
      </trkpt>
      <trkpt lat="43.94459" lon="5.26967">
        <ele>288.5</ele>
        <time>2019-09-14T11:12:49Z</time>
      </trkpt>
      <trkpt lat="43.94459" lon="5.26967">
        <ele>288.5</ele>
        <time>2019-09-14T11:12:55Z</time>
      </trkpt>
      <trkpt lat="43.94459" lon="5.26967">
        <ele>288.5</ele>
        <time>2019-09-14T11:13:00Z</time>
      </trkpt>
      <trkpt lat="43.94459" lon="5.26967">
        <ele>289.5</ele>
        <time>2019-09-14T11:13:06Z</time>
      </trkpt>
      <trkpt lat="43.94459" lon="5.26967">
        <ele>289.5</ele>
        <time>2019-09-14T11:13:11Z</time>
      </trkpt>
      <trkpt lat="43.94459" lon="5.26967">
        <ele>289.5</ele>
        <time>2019-09-14T11:13:17Z</time>
      </trkpt>
      <trkpt lat="43.94459" lon="5.26967">
        <ele>289.5</ele>
        <time>2019-09-14T11:13:22Z</time>
      </trkpt>
      <trkpt lat="43.94459" lon="5.26967">
        <ele>289.5</ele>
        <time>2019-09-14T11:13:27Z</time>
      </trkpt>
      <trkpt lat="43.94459" lon="5.26967">
        <ele>289.5</ele>
        <time>2019-09-14T11:13:33Z</time>
      </trkpt>
      <trkpt lat="43.94459" lon="5.26967">
        <ele>289.5</ele>
        <time>2019-09-14T11:13:39Z</time>
      </trkpt>
      <trkpt lat="43.94459" lon="5.26967">
        <ele>289.5</ele>
        <time>2019-09-14T11:13:45Z</time>
      </trkpt>
      <trkpt lat="43.94459" lon="5.26967">
        <ele>289.5</ele>
        <time>2019-09-14T11:13:51Z</time>
      </trkpt>
      <trkpt lat="43.94459" lon="5.26967">
        <ele>289.5</ele>
        <time>2019-09-14T11:13:57Z</time>
      </trkpt>
      <trkpt lat="43.94459" lon="5.26967">
        <ele>289.5</ele>
        <time>2019-09-14T11:14:02Z</time>
      </trkpt>
      <trkpt lat="43.94459" lon="5.26967">
        <ele>289.5</ele>
        <time>2019-09-14T11:14:08Z</time>
      </trkpt>
      <trkpt lat="43.94459" lon="5.26967">
        <ele>289.5</ele>
        <time>2019-09-14T11:14:13Z</time>
      </trkpt>
      <trkpt lat="43.94459" lon="5.26967">
        <ele>289.5</ele>
        <time>2019-09-14T11:14:19Z</time>
      </trkpt>
      <trkpt lat="43.94459" lon="5.26967">
        <ele>289.5</ele>
        <time>2019-09-14T11:14:24Z</time>
      </trkpt>
      <trkpt lat="43.94459" lon="5.26967">
        <ele>289.5</ele>
        <time>2019-09-14T11:14:30Z</time>
      </trkpt>
      <trkpt lat="43.94459" lon="5.26967">
        <ele>289.5</ele>
        <time>2019-09-14T11:14:35Z</time>
      </trkpt>
      <trkpt lat="43.94459" lon="5.26967">
        <ele>289.5</ele>
        <time>2019-09-14T11:14:42Z</time>
      </trkpt>
      <trkpt lat="43.94459" lon="5.26967">
        <ele>289.5</ele>
        <time>2019-09-14T11:14:47Z</time>
      </trkpt>
      <trkpt lat="43.94459" lon="5.26967">
        <ele>289.5</ele>
        <time>2019-09-14T11:14:52Z</time>
      </trkpt>
      <trkpt lat="43.94459" lon="5.26967">
        <ele>289.5</ele>
        <time>2019-09-14T11:14:58Z</time>
      </trkpt>
      <trkpt lat="43.94459" lon="5.26967">
        <ele>289.5</ele>
        <time>2019-09-14T11:15:03Z</time>
      </trkpt>
      <trkpt lat="43.94459" lon="5.26967">
        <ele>289.5</ele>
        <time>2019-09-14T11:15:09Z</time>
      </trkpt>
      <trkpt lat="43.94459" lon="5.26967">
        <ele>289.5</ele>
        <time>2019-09-14T11:15:14Z</time>
      </trkpt>
      <trkpt lat="43.94459" lon="5.26967">
        <ele>289.5</ele>
        <time>2019-09-14T11:15:20Z</time>
      </trkpt>
      <trkpt lat="43.94459" lon="5.26967">
        <ele>289.5</ele>
        <time>2019-09-14T11:15:26Z</time>
      </trkpt>
      <trkpt lat="43.94459" lon="5.26967">
        <ele>289.5</ele>
        <time>2019-09-14T11:15:31Z</time>
      </trkpt>
      <trkpt lat="43.94459" lon="5.26967">
        <ele>289.5</ele>
        <time>2019-09-14T11:15:36Z</time>
      </trkpt>
      <trkpt lat="43.94459" lon="5.26967">
        <ele>289.5</ele>
        <time>2019-09-14T11:15:42Z</time>
      </trkpt>
      <trkpt lat="43.94459" lon="5.26967">
        <ele>289.5</ele>
        <time>2019-09-14T11:15:48Z</time>
      </trkpt>
      <trkpt lat="43.94459" lon="5.26967">
        <ele>289.5</ele>
        <time>2019-09-14T11:15:54Z</time>
      </trkpt>
      <trkpt lat="43.9446" lon="5.26969">
        <ele>289.5</ele>
        <time>2019-09-14T11:16:00Z</time>
      </trkpt>
      <trkpt lat="43.94461" lon="5.26971">
        <ele>290.5</ele>
        <time>2019-09-14T11:16:05Z</time>
      </trkpt>
      <trkpt lat="43.94462" lon="5.26971">
        <ele>290.5</ele>
        <time>2019-09-14T11:16:10Z</time>
      </trkpt>
      <trkpt lat="43.94462" lon="5.26971">
        <ele>290.5</ele>
        <time>2019-09-14T11:16:16Z</time>
      </trkpt>
      <trkpt lat="43.94462" lon="5.26971">
        <ele>290.5</ele>
        <time>2019-09-14T11:16:22Z</time>
      </trkpt>
      <trkpt lat="43.94462" lon="5.26971">
        <ele>290.5</ele>
        <time>2019-09-14T11:16:28Z</time>
      </trkpt>
      <trkpt lat="43.94462" lon="5.26972">
        <ele>290.5</ele>
        <time>2019-09-14T11:16:33Z</time>
      </trkpt>
      <trkpt lat="43.94462" lon="5.26972">
        <ele>290.5</ele>
        <time>2019-09-14T11:16:39Z</time>
      </trkpt>
      <trkpt lat="43.94462" lon="5.26972">
        <ele>290.5</ele>
        <time>2019-09-14T11:16:44Z</time>
      </trkpt>
      <trkpt lat="43.94462" lon="5.26972">
        <ele>290.5</ele>
        <time>2019-09-14T11:16:50Z</time>
      </trkpt>
      <trkpt lat="43.94463" lon="5.26972">
        <ele>290.5</ele>
        <time>2019-09-14T11:16:56Z</time>
      </trkpt>
      <trkpt lat="43.94463" lon="5.26972">
        <ele>290.5</ele>
        <time>2019-09-14T11:17:01Z</time>
      </trkpt>
      <trkpt lat="43.94463" lon="5.26973">
        <ele>290.5</ele>
        <time>2019-09-14T11:17:07Z</time>
      </trkpt>
      <trkpt lat="43.94463" lon="5.26973">
        <ele>290.5</ele>
        <time>2019-09-14T11:17:13Z</time>
      </trkpt>
      <trkpt lat="43.94463" lon="5.26973">
        <ele>290.5</ele>
        <time>2019-09-14T11:17:19Z</time>
      </trkpt>
      <trkpt lat="43.94463" lon="5.26973">
        <ele>290.5</ele>
        <time>2019-09-14T11:17:25Z</time>
      </trkpt>
      <trkpt lat="43.94463" lon="5.26973">
        <ele>290.5</ele>
        <time>2019-09-14T11:17:31Z</time>
      </trkpt>
      <trkpt lat="43.94463" lon="5.26973">
        <ele>290.5</ele>
        <time>2019-09-14T11:17:37Z</time>
      </trkpt>
      <trkpt lat="43.94463" lon="5.26973">
        <ele>290.5</ele>
        <time>2019-09-14T11:17:42Z</time>
      </trkpt>
      <trkpt lat="43.94463" lon="5.26973">
        <ele>290.5</ele>
        <time>2019-09-14T11:17:48Z</time>
      </trkpt>
      <trkpt lat="43.94463" lon="5.26973">
        <ele>290.5</ele>
        <time>2019-09-14T11:17:53Z</time>
      </trkpt>
      <trkpt lat="43.94463" lon="5.26973">
        <ele>290.5</ele>
        <time>2019-09-14T11:17:58Z</time>
      </trkpt>
      <trkpt lat="43.94463" lon="5.26973">
        <ele>290.5</ele>
        <time>2019-09-14T11:18:04Z</time>
      </trkpt>
      <trkpt lat="43.94463" lon="5.26973">
        <ele>290.5</ele>
        <time>2019-09-14T11:18:10Z</time>
      </trkpt>
      <trkpt lat="43.94463" lon="5.26973">
        <ele>290.5</ele>
        <time>2019-09-14T11:18:16Z</time>
      </trkpt>
      <trkpt lat="43.94463" lon="5.26973">
        <ele>290.5</ele>
        <time>2019-09-14T11:18:22Z</time>
      </trkpt>
      <trkpt lat="43.94463" lon="5.26973">
        <ele>290.5</ele>
        <time>2019-09-14T11:18:28Z</time>
      </trkpt>
      <trkpt lat="43.94463" lon="5.26973">
        <ele>290.5</ele>
        <time>2019-09-14T11:18:33Z</time>
      </trkpt>
      <trkpt lat="43.94463" lon="5.26973">
        <ele>290.5</ele>
        <time>2019-09-14T11:18:39Z</time>
      </trkpt>
      <trkpt lat="43.94463" lon="5.26973">
        <ele>290.5</ele>
        <time>2019-09-14T11:18:44Z</time>
      </trkpt>
      <trkpt lat="43.94463" lon="5.26973">
        <ele>290.5</ele>
        <time>2019-09-14T11:18:50Z</time>
      </trkpt>
      <trkpt lat="43.94463" lon="5.26973">
        <ele>290.5</ele>
        <time>2019-09-14T11:18:55Z</time>
      </trkpt>
      <trkpt lat="43.94463" lon="5.26973">
        <ele>290.5</ele>
        <time>2019-09-14T11:19:01Z</time>
      </trkpt>
      <trkpt lat="43.94463" lon="5.26973">
        <ele>290.5</ele>
        <time>2019-09-14T11:19:07Z</time>
      </trkpt>
      <trkpt lat="43.94463" lon="5.26973">
        <ele>290.5</ele>
        <time>2019-09-14T11:19:13Z</time>
      </trkpt>
      <trkpt lat="43.94463" lon="5.26973">
        <ele>290.5</ele>
        <time>2019-09-14T11:19:18Z</time>
      </trkpt>
      <trkpt lat="43.94463" lon="5.26973">
        <ele>290.5</ele>
        <time>2019-09-14T11:19:24Z</time>
      </trkpt>
      <trkpt lat="43.94463" lon="5.26973">
        <ele>290.5</ele>
        <time>2019-09-14T11:19:30Z</time>
      </trkpt>
      <trkpt lat="43.94463" lon="5.26973">
        <ele>290.5</ele>
        <time>2019-09-14T11:19:35Z</time>
      </trkpt>
      <trkpt lat="43.94463" lon="5.26973">
        <ele>290.5</ele>
        <time>2019-09-14T11:19:40Z</time>
      </trkpt>
      <trkpt lat="43.94463" lon="5.26973">
        <ele>290.5</ele>
        <time>2019-09-14T11:19:46Z</time>
      </trkpt>
      <trkpt lat="43.94463" lon="5.26973">
        <ele>290.5</ele>
        <time>2019-09-14T11:19:52Z</time>
      </trkpt>
      <trkpt lat="43.94463" lon="5.26973">
        <ele>290.5</ele>
        <time>2019-09-14T11:19:57Z</time>
      </trkpt>
      <trkpt lat="43.94463" lon="5.26973">
        <ele>290.5</ele>
        <time>2019-09-14T11:20:02Z</time>
      </trkpt>
      <trkpt lat="43.94463" lon="5.26973">
        <ele>290.5</ele>
        <time>2019-09-14T11:20:08Z</time>
      </trkpt>
      <trkpt lat="43.94463" lon="5.26973">
        <ele>290.5</ele>
        <time>2019-09-14T11:20:13Z</time>
      </trkpt>
      <trkpt lat="43.94463" lon="5.26973">
        <ele>290.5</ele>
        <time>2019-09-14T11:20:19Z</time>
      </trkpt>
      <trkpt lat="43.94463" lon="5.26973">
        <ele>290.5</ele>
        <time>2019-09-14T11:20:25Z</time>
      </trkpt>
      <trkpt lat="43.94463" lon="5.26973">
        <ele>290.5</ele>
        <time>2019-09-14T11:20:31Z</time>
      </trkpt>
      <trkpt lat="43.94463" lon="5.26973">
        <ele>290.5</ele>
        <time>2019-09-14T11:20:36Z</time>
      </trkpt>
      <trkpt lat="43.94463" lon="5.26973">
        <ele>290.5</ele>
        <time>2019-09-14T11:20:41Z</time>
      </trkpt>
      <trkpt lat="43.94463" lon="5.26973">
        <ele>290.5</ele>
        <time>2019-09-14T11:20:47Z</time>
      </trkpt>
      <trkpt lat="43.94463" lon="5.26973">
        <ele>290.5</ele>
        <time>2019-09-14T11:20:53Z</time>
      </trkpt>
      <trkpt lat="43.94463" lon="5.26973">
        <ele>290.5</ele>
        <time>2019-09-14T11:20:59Z</time>
      </trkpt>
      <trkpt lat="43.94463" lon="5.26972">
        <ele>290.5</ele>
        <time>2019-09-14T11:21:04Z</time>
      </trkpt>
      <trkpt lat="43.94463" lon="5.26972">
        <ele>290.5</ele>
        <time>2019-09-14T11:21:10Z</time>
      </trkpt>
      <trkpt lat="43.94463" lon="5.26972">
        <ele>290.5</ele>
        <time>2019-09-14T11:21:16Z</time>
      </trkpt>
      <trkpt lat="43.94463" lon="5.26972">
        <ele>290.5</ele>
        <time>2019-09-14T11:21:22Z</time>
      </trkpt>
      <trkpt lat="43.94463" lon="5.26972">
        <ele>290.5</ele>
        <time>2019-09-14T11:21:28Z</time>
      </trkpt>
      <trkpt lat="43.94463" lon="5.26972">
        <ele>290.5</ele>
        <time>2019-09-14T11:21:33Z</time>
      </trkpt>
      <trkpt lat="43.94463" lon="5.26972">
        <ele>290.5</ele>
        <time>2019-09-14T11:21:38Z</time>
      </trkpt>
      <trkpt lat="43.94463" lon="5.26972">
        <ele>290.5</ele>
        <time>2019-09-14T11:21:44Z</time>
      </trkpt>
      <trkpt lat="43.94462" lon="5.26972">
        <ele>290.5</ele>
        <time>2019-09-14T11:21:50Z</time>
      </trkpt>
      <trkpt lat="43.94462" lon="5.26972">
        <ele>290.5</ele>
        <time>2019-09-14T11:21:56Z</time>
      </trkpt>
      <trkpt lat="43.94463" lon="5.26972">
        <ele>290.5</ele>
        <time>2019-09-14T11:22:01Z</time>
      </trkpt>
      <trkpt lat="43.94463" lon="5.26972">
        <ele>290.5</ele>
        <time>2019-09-14T11:22:07Z</time>
      </trkpt>
      <trkpt lat="43.94462" lon="5.26972">
        <ele>290.5</ele>
        <time>2019-09-14T11:22:12Z</time>
      </trkpt>
      <trkpt lat="43.94462" lon="5.26972">
        <ele>290.5</ele>
        <time>2019-09-14T11:22:18Z</time>
      </trkpt>
      <trkpt lat="43.94462" lon="5.26972">
        <ele>290.5</ele>
        <time>2019-09-14T11:22:24Z</time>
      </trkpt>
      <trkpt lat="43.94462" lon="5.26972">
        <ele>290.5</ele>
        <time>2019-09-14T11:22:30Z</time>
      </trkpt>
      <trkpt lat="43.94462" lon="5.26972">
        <ele>290.5</ele>
        <time>2019-09-14T11:22:35Z</time>
      </trkpt>
      <trkpt lat="43.94462" lon="5.26972">
        <ele>290.5</ele>
        <time>2019-09-14T11:22:41Z</time>
      </trkpt>
      <trkpt lat="43.94462" lon="5.26972">
        <ele>290.5</ele>
        <time>2019-09-14T11:22:46Z</time>
      </trkpt>
      <trkpt lat="43.94462" lon="5.26972">
        <ele>290.5</ele>
        <time>2019-09-14T11:22:52Z</time>
      </trkpt>
      <trkpt lat="43.94462" lon="5.26972">
        <ele>290.5</ele>
        <time>2019-09-14T11:22:57Z</time>
      </trkpt>
      <trkpt lat="43.94462" lon="5.26972">
        <ele>290.5</ele>
        <time>2019-09-14T11:23:02Z</time>
      </trkpt>
      <trkpt lat="43.94462" lon="5.26972">
        <ele>290.5</ele>
        <time>2019-09-14T11:23:08Z</time>
      </trkpt>
      <trkpt lat="43.94462" lon="5.26972">
        <ele>290.5</ele>
        <time>2019-09-14T11:23:14Z</time>
      </trkpt>
      <trkpt lat="43.94462" lon="5.26972">
        <ele>290.5</ele>
        <time>2019-09-14T11:23:20Z</time>
      </trkpt>
      <trkpt lat="43.94462" lon="5.26972">
        <ele>290.5</ele>
        <time>2019-09-14T11:23:25Z</time>
      </trkpt>
      <trkpt lat="43.94462" lon="5.26972">
        <ele>290.5</ele>
        <time>2019-09-14T11:23:32Z</time>
      </trkpt>
      <trkpt lat="43.94462" lon="5.26972">
        <ele>290.5</ele>
        <time>2019-09-14T11:23:38Z</time>
      </trkpt>
      <trkpt lat="43.94462" lon="5.26972">
        <ele>290.5</ele>
        <time>2019-09-14T11:23:43Z</time>
      </trkpt>
      <trkpt lat="43.94462" lon="5.26972">
        <ele>290.5</ele>
        <time>2019-09-14T11:23:49Z</time>
      </trkpt>
      <trkpt lat="43.94462" lon="5.26972">
        <ele>290.5</ele>
        <time>2019-09-14T11:23:55Z</time>
      </trkpt>
      <trkpt lat="43.94462" lon="5.26972">
        <ele>290.5</ele>
        <time>2019-09-14T11:24:00Z</time>
      </trkpt>
      <trkpt lat="43.94462" lon="5.26972">
        <ele>290.5</ele>
        <time>2019-09-14T11:24:05Z</time>
      </trkpt>
      <trkpt lat="43.94462" lon="5.26972">
        <ele>290.5</ele>
        <time>2019-09-14T11:24:11Z</time>
      </trkpt>
      <trkpt lat="43.94462" lon="5.26972">
        <ele>290.5</ele>
        <time>2019-09-14T11:24:16Z</time>
      </trkpt>
      <trkpt lat="43.94462" lon="5.26972">
        <ele>290.5</ele>
        <time>2019-09-14T11:24:22Z</time>
      </trkpt>
      <trkpt lat="43.94462" lon="5.26972">
        <ele>290.5</ele>
        <time>2019-09-14T11:24:28Z</time>
      </trkpt>
      <trkpt lat="43.94462" lon="5.26972">
        <ele>290.5</ele>
        <time>2019-09-14T11:24:33Z</time>
      </trkpt>
      <trkpt lat="43.94462" lon="5.26972">
        <ele>290.5</ele>
        <time>2019-09-14T11:24:39Z</time>
      </trkpt>
      <trkpt lat="43.94462" lon="5.26972">
        <ele>290.5</ele>
        <time>2019-09-14T11:24:44Z</time>
      </trkpt>
      <trkpt lat="43.94462" lon="5.26972">
        <ele>290.5</ele>
        <time>2019-09-14T11:24:49Z</time>
      </trkpt>
      <trkpt lat="43.94462" lon="5.26972">
        <ele>290.5</ele>
        <time>2019-09-14T11:24:55Z</time>
      </trkpt>
      <trkpt lat="43.94462" lon="5.26972">
        <ele>290.5</ele>
        <time>2019-09-14T11:25:00Z</time>
      </trkpt>
      <trkpt lat="43.94462" lon="5.26972">
        <ele>290.5</ele>
        <time>2019-09-14T11:25:06Z</time>
      </trkpt>
      <trkpt lat="43.94462" lon="5.26972">
        <ele>290.5</ele>
        <time>2019-09-14T11:25:12Z</time>
      </trkpt>
      <trkpt lat="43.94462" lon="5.26972">
        <ele>290.5</ele>
        <time>2019-09-14T11:25:18Z</time>
      </trkpt>
      <trkpt lat="43.94462" lon="5.26972">
        <ele>290.5</ele>
        <time>2019-09-14T11:25:23Z</time>
      </trkpt>
      <trkpt lat="43.94462" lon="5.26972">
        <ele>290.5</ele>
        <time>2019-09-14T11:25:29Z</time>
      </trkpt>
      <trkpt lat="43.94462" lon="5.26972">
        <ele>290.5</ele>
        <time>2019-09-14T11:25:35Z</time>
      </trkpt>
      <trkpt lat="43.94462" lon="5.26972">
        <ele>290.5</ele>
        <time>2019-09-14T11:25:41Z</time>
      </trkpt>
      <trkpt lat="43.94462" lon="5.26972">
        <ele>290.5</ele>
        <time>2019-09-14T11:25:47Z</time>
      </trkpt>
      <trkpt lat="43.94462" lon="5.26972">
        <ele>290.5</ele>
        <time>2019-09-14T11:25:53Z</time>
      </trkpt>
      <trkpt lat="43.94462" lon="5.26972">
        <ele>290.5</ele>
        <time>2019-09-14T11:25:58Z</time>
      </trkpt>
      <trkpt lat="43.94462" lon="5.26972">
        <ele>290.5</ele>
        <time>2019-09-14T11:26:04Z</time>
      </trkpt>
      <trkpt lat="43.94462" lon="5.26972">
        <ele>290.5</ele>
        <time>2019-09-14T11:26:10Z</time>
      </trkpt>
      <trkpt lat="43.94462" lon="5.26972">
        <ele>290.5</ele>
        <time>2019-09-14T11:26:15Z</time>
      </trkpt>
      <trkpt lat="43.94462" lon="5.26972">
        <ele>290.5</ele>
        <time>2019-09-14T11:26:21Z</time>
      </trkpt>
      <trkpt lat="43.94462" lon="5.26972">
        <ele>290.5</ele>
        <time>2019-09-14T11:26:26Z</time>
      </trkpt>
      <trkpt lat="43.94462" lon="5.26972">
        <ele>290.5</ele>
        <time>2019-09-14T11:26:32Z</time>
      </trkpt>
      <trkpt lat="43.94462" lon="5.26972">
        <ele>290.5</ele>
        <time>2019-09-14T11:26:38Z</time>
      </trkpt>
      <trkpt lat="43.94462" lon="5.26972">
        <ele>290.5</ele>
        <time>2019-09-14T11:26:44Z</time>
      </trkpt>
      <trkpt lat="43.94462" lon="5.26972">
        <ele>290.5</ele>
        <time>2019-09-14T11:26:50Z</time>
      </trkpt>
      <trkpt lat="43.94462" lon="5.26972">
        <ele>290.5</ele>
        <time>2019-09-14T11:26:56Z</time>
      </trkpt>
      <trkpt lat="43.94462" lon="5.26972">
        <ele>290.5</ele>
        <time>2019-09-14T11:27:01Z</time>
      </trkpt>
      <trkpt lat="43.94462" lon="5.26972">
        <ele>290.5</ele>
        <time>2019-09-14T11:27:07Z</time>
      </trkpt>
      <trkpt lat="43.94462" lon="5.26972">
        <ele>290.5</ele>
        <time>2019-09-14T11:27:13Z</time>
      </trkpt>
      <trkpt lat="43.94462" lon="5.26972">
        <ele>290.5</ele>
        <time>2019-09-14T11:27:19Z</time>
      </trkpt>
      <trkpt lat="43.94462" lon="5.26972">
        <ele>290.5</ele>
        <time>2019-09-14T11:27:24Z</time>
      </trkpt>
      <trkpt lat="43.94462" lon="5.26972">
        <ele>290.5</ele>
        <time>2019-09-14T11:27:30Z</time>
      </trkpt>
      <trkpt lat="43.94462" lon="5.26972">
        <ele>290.5</ele>
        <time>2019-09-14T11:27:36Z</time>
      </trkpt>
      <trkpt lat="43.94462" lon="5.26972">
        <ele>290.5</ele>
        <time>2019-09-14T11:27:42Z</time>
      </trkpt>
      <trkpt lat="43.94462" lon="5.26972">
        <ele>290.5</ele>
        <time>2019-09-14T11:27:48Z</time>
      </trkpt>
      <trkpt lat="43.94462" lon="5.26972">
        <ele>290.5</ele>
        <time>2019-09-14T11:27:54Z</time>
      </trkpt>
      <trkpt lat="43.94462" lon="5.26972">
        <ele>290.5</ele>
        <time>2019-09-14T11:28:00Z</time>
      </trkpt>
      <trkpt lat="43.94462" lon="5.26972">
        <ele>290.5</ele>
        <time>2019-09-14T11:28:05Z</time>
      </trkpt>
      <trkpt lat="43.94462" lon="5.26972">
        <ele>290.5</ele>
        <time>2019-09-14T11:28:11Z</time>
      </trkpt>
      <trkpt lat="43.94462" lon="5.26972">
        <ele>290.5</ele>
        <time>2019-09-14T11:28:17Z</time>
      </trkpt>
      <trkpt lat="43.94462" lon="5.26972">
        <ele>290.5</ele>
        <time>2019-09-14T11:28:22Z</time>
      </trkpt>
      <trkpt lat="43.94462" lon="5.26972">
        <ele>290.5</ele>
        <time>2019-09-14T11:28:27Z</time>
      </trkpt>
      <trkpt lat="43.94462" lon="5.26972">
        <ele>290.5</ele>
        <time>2019-09-14T11:28:33Z</time>
      </trkpt>
      <trkpt lat="43.94462" lon="5.26972">
        <ele>290.5</ele>
        <time>2019-09-14T11:28:39Z</time>
      </trkpt>
      <trkpt lat="43.94462" lon="5.26972">
        <ele>290.5</ele>
        <time>2019-09-14T11:28:45Z</time>
      </trkpt>
      <trkpt lat="43.94462" lon="5.26972">
        <ele>290.5</ele>
        <time>2019-09-14T11:28:51Z</time>
      </trkpt>
      <trkpt lat="43.94462" lon="5.26972">
        <ele>290.5</ele>
        <time>2019-09-14T11:28:57Z</time>
      </trkpt>
      <trkpt lat="43.94462" lon="5.26972">
        <ele>290.5</ele>
        <time>2019-09-14T11:29:02Z</time>
      </trkpt>
      <trkpt lat="43.94462" lon="5.26972">
        <ele>290.5</ele>
        <time>2019-09-14T11:29:08Z</time>
      </trkpt>
      <trkpt lat="43.94462" lon="5.26972">
        <ele>290.5</ele>
        <time>2019-09-14T11:29:14Z</time>
      </trkpt>
      <trkpt lat="43.94462" lon="5.26971">
        <ele>290.5</ele>
        <time>2019-09-14T11:29:20Z</time>
      </trkpt>
      <trkpt lat="43.94462" lon="5.26971">
        <ele>290.5</ele>
        <time>2019-09-14T11:29:25Z</time>
      </trkpt>
      <trkpt lat="43.94462" lon="5.26971">
        <ele>290.5</ele>
        <time>2019-09-14T11:29:30Z</time>
      </trkpt>
      <trkpt lat="43.94461" lon="5.26971">
        <ele>290.5</ele>
        <time>2019-09-14T11:29:36Z</time>
      </trkpt>
      <trkpt lat="43.94461" lon="5.26971">
        <ele>290.5</ele>
        <time>2019-09-14T11:29:42Z</time>
      </trkpt>
      <trkpt lat="43.94461" lon="5.26971">
        <ele>290.5</ele>
        <time>2019-09-14T11:29:48Z</time>
      </trkpt>
      <trkpt lat="43.94461" lon="5.26971">
        <ele>290.5</ele>
        <time>2019-09-14T11:29:53Z</time>
      </trkpt>
      <trkpt lat="43.94461" lon="5.26971">
        <ele>290.5</ele>
        <time>2019-09-14T11:29:59Z</time>
      </trkpt>
      <trkpt lat="43.94461" lon="5.26971">
        <ele>290.5</ele>
        <time>2019-09-14T11:30:05Z</time>
      </trkpt>
      <trkpt lat="43.94461" lon="5.26971">
        <ele>290.5</ele>
        <time>2019-09-14T11:30:10Z</time>
      </trkpt>
      <trkpt lat="43.94461" lon="5.26971">
        <ele>290.5</ele>
        <time>2019-09-14T11:30:16Z</time>
      </trkpt>
      <trkpt lat="43.94461" lon="5.26971">
        <ele>290.5</ele>
        <time>2019-09-14T11:30:21Z</time>
      </trkpt>
      <trkpt lat="43.94461" lon="5.26971">
        <ele>290.5</ele>
        <time>2019-09-14T11:30:27Z</time>
      </trkpt>
      <trkpt lat="43.94461" lon="5.26971">
        <ele>290.5</ele>
        <time>2019-09-14T11:30:33Z</time>
      </trkpt>
      <trkpt lat="43.94461" lon="5.26971">
        <ele>290.5</ele>
        <time>2019-09-14T11:30:38Z</time>
      </trkpt>
      <trkpt lat="43.94461" lon="5.26971">
        <ele>290.5</ele>
        <time>2019-09-14T11:30:44Z</time>
      </trkpt>
      <trkpt lat="43.94461" lon="5.26971">
        <ele>290.5</ele>
        <time>2019-09-14T11:30:50Z</time>
      </trkpt>
      <trkpt lat="43.94461" lon="5.26971">
        <ele>290.5</ele>
        <time>2019-09-14T11:30:55Z</time>
      </trkpt>
      <trkpt lat="43.94461" lon="5.26971">
        <ele>290.5</ele>
        <time>2019-09-14T11:31:01Z</time>
      </trkpt>
      <trkpt lat="43.94461" lon="5.26971">
        <ele>290.5</ele>
        <time>2019-09-14T11:31:07Z</time>
      </trkpt>
      <trkpt lat="43.94461" lon="5.26971">
        <ele>290.5</ele>
        <time>2019-09-14T11:31:13Z</time>
      </trkpt>
      <trkpt lat="43.94461" lon="5.26971">
        <ele>290.5</ele>
        <time>2019-09-14T11:31:18Z</time>
      </trkpt>
      <trkpt lat="43.94461" lon="5.26971">
        <ele>290.5</ele>
        <time>2019-09-14T11:31:24Z</time>
      </trkpt>
      <trkpt lat="43.94461" lon="5.26971">
        <ele>290.5</ele>
        <time>2019-09-14T11:31:30Z</time>
      </trkpt>
      <trkpt lat="43.94461" lon="5.26971">
        <ele>290.5</ele>
        <time>2019-09-14T11:31:35Z</time>
      </trkpt>
      <trkpt lat="43.94461" lon="5.26971">
        <ele>290.5</ele>
        <time>2019-09-14T11:31:41Z</time>
      </trkpt>
      <trkpt lat="43.94461" lon="5.26971">
        <ele>290.5</ele>
        <time>2019-09-14T11:31:47Z</time>
      </trkpt>
      <trkpt lat="43.94461" lon="5.26971">
        <ele>290.5</ele>
        <time>2019-09-14T11:31:52Z</time>
      </trkpt>
      <trkpt lat="43.94461" lon="5.26971">
        <ele>290.5</ele>
        <time>2019-09-14T11:31:57Z</time>
      </trkpt>
      <trkpt lat="43.94461" lon="5.26971">
        <ele>290.5</ele>
        <time>2019-09-14T11:32:03Z</time>
      </trkpt>
      <trkpt lat="43.94461" lon="5.26971">
        <ele>290.5</ele>
        <time>2019-09-14T11:32:08Z</time>
      </trkpt>
      <trkpt lat="43.94461" lon="5.26971">
        <ele>290.5</ele>
        <time>2019-09-14T11:32:14Z</time>
      </trkpt>
      <trkpt lat="43.94461" lon="5.26971">
        <ele>290.5</ele>
        <time>2019-09-14T11:32:20Z</time>
      </trkpt>
      <trkpt lat="43.94461" lon="5.26971">
        <ele>290.5</ele>
        <time>2019-09-14T11:32:26Z</time>
      </trkpt>
      <trkpt lat="43.94461" lon="5.26971">
        <ele>290.5</ele>
        <time>2019-09-14T11:32:31Z</time>
      </trkpt>
      <trkpt lat="43.94461" lon="5.26971">
        <ele>290.5</ele>
        <time>2019-09-14T11:32:37Z</time>
      </trkpt>
      <trkpt lat="43.94461" lon="5.26971">
        <ele>290.5</ele>
        <time>2019-09-14T11:32:43Z</time>
      </trkpt>
      <trkpt lat="43.94461" lon="5.26971">
        <ele>290.5</ele>
        <time>2019-09-14T11:32:49Z</time>
      </trkpt>
      <trkpt lat="43.94461" lon="5.26971">
        <ele>290.5</ele>
        <time>2019-09-14T11:32:55Z</time>
      </trkpt>
      <trkpt lat="43.94461" lon="5.26971">
        <ele>290.5</ele>
        <time>2019-09-14T11:33:00Z</time>
      </trkpt>
      <trkpt lat="43.94461" lon="5.26971">
        <ele>290.5</ele>
        <time>2019-09-14T11:33:06Z</time>
      </trkpt>
      <trkpt lat="43.94461" lon="5.26971">
        <ele>290.5</ele>
        <time>2019-09-14T11:33:12Z</time>
      </trkpt>
      <trkpt lat="43.94461" lon="5.26971">
        <ele>290.5</ele>
        <time>2019-09-14T11:33:18Z</time>
      </trkpt>
      <trkpt lat="43.94461" lon="5.26971">
        <ele>290.5</ele>
        <time>2019-09-14T11:33:24Z</time>
      </trkpt>
      <trkpt lat="43.94461" lon="5.26971">
        <ele>290.5</ele>
        <time>2019-09-14T11:33:29Z</time>
      </trkpt>
      <trkpt lat="43.94461" lon="5.26971">
        <ele>290.5</ele>
        <time>2019-09-14T11:33:35Z</time>
      </trkpt>
      <trkpt lat="43.94461" lon="5.26971">
        <ele>290.5</ele>
        <time>2019-09-14T11:33:41Z</time>
      </trkpt>
      <trkpt lat="43.94461" lon="5.26971">
        <ele>290.5</ele>
        <time>2019-09-14T11:33:47Z</time>
      </trkpt>
      <trkpt lat="43.94461" lon="5.26971">
        <ele>290.5</ele>
        <time>2019-09-14T11:33:53Z</time>
      </trkpt>
      <trkpt lat="43.94461" lon="5.26971">
        <ele>290.5</ele>
        <time>2019-09-14T11:33:58Z</time>
      </trkpt>
      <trkpt lat="43.94461" lon="5.26971">
        <ele>290.5</ele>
        <time>2019-09-14T11:34:04Z</time>
      </trkpt>
      <trkpt lat="43.94461" lon="5.26971">
        <ele>290.5</ele>
        <time>2019-09-14T11:34:09Z</time>
      </trkpt>
      <trkpt lat="43.94461" lon="5.26971">
        <ele>290.5</ele>
        <time>2019-09-14T11:34:15Z</time>
      </trkpt>
      <trkpt lat="43.94461" lon="5.26971">
        <ele>290.5</ele>
        <time>2019-09-14T11:34:20Z</time>
      </trkpt>
      <trkpt lat="43.94461" lon="5.26971">
        <ele>290.5</ele>
        <time>2019-09-14T11:34:26Z</time>
      </trkpt>
      <trkpt lat="43.94461" lon="5.26971">
        <ele>290.5</ele>
        <time>2019-09-14T11:34:32Z</time>
      </trkpt>
      <trkpt lat="43.94461" lon="5.26971">
        <ele>290.5</ele>
        <time>2019-09-14T11:34:38Z</time>
      </trkpt>
      <trkpt lat="43.94461" lon="5.26971">
        <ele>290.5</ele>
        <time>2019-09-14T11:34:43Z</time>
      </trkpt>
      <trkpt lat="43.94461" lon="5.26971">
        <ele>290.5</ele>
        <time>2019-09-14T11:34:49Z</time>
      </trkpt>
      <trkpt lat="43.94461" lon="5.26971">
        <ele>290.5</ele>
        <time>2019-09-14T11:34:55Z</time>
      </trkpt>
      <trkpt lat="43.94461" lon="5.26971">
        <ele>290.5</ele>
        <time>2019-09-14T11:35:00Z</time>
      </trkpt>
      <trkpt lat="43.94461" lon="5.26971">
        <ele>290.5</ele>
        <time>2019-09-14T11:35:05Z</time>
      </trkpt>
      <trkpt lat="43.94461" lon="5.26971">
        <ele>290.5</ele>
        <time>2019-09-14T11:35:11Z</time>
      </trkpt>
      <trkpt lat="43.94461" lon="5.26971">
        <ele>290.5</ele>
        <time>2019-09-14T11:35:17Z</time>
      </trkpt>
      <trkpt lat="43.94461" lon="5.26971">
        <ele>290.5</ele>
        <time>2019-09-14T11:35:23Z</time>
      </trkpt>
      <trkpt lat="43.94461" lon="5.26971">
        <ele>290.5</ele>
        <time>2019-09-14T11:35:29Z</time>
      </trkpt>
      <trkpt lat="43.94461" lon="5.26971">
        <ele>290.5</ele>
        <time>2019-09-14T11:35:35Z</time>
      </trkpt>
      <trkpt lat="43.94461" lon="5.26971">
        <ele>290.5</ele>
        <time>2019-09-14T11:35:41Z</time>
      </trkpt>
      <trkpt lat="43.94461" lon="5.26971">
        <ele>290.5</ele>
        <time>2019-09-14T11:35:47Z</time>
      </trkpt>
      <trkpt lat="43.94461" lon="5.26971">
        <ele>290.5</ele>
        <time>2019-09-14T11:35:53Z</time>
      </trkpt>
      <trkpt lat="43.94461" lon="5.26971">
        <ele>290.5</ele>
        <time>2019-09-14T11:35:58Z</time>
      </trkpt>
      <trkpt lat="43.94461" lon="5.26971">
        <ele>290.5</ele>
        <time>2019-09-14T11:36:03Z</time>
      </trkpt>
      <trkpt lat="43.94461" lon="5.26971">
        <ele>290.5</ele>
        <time>2019-09-14T11:36:08Z</time>
      </trkpt>
      <trkpt lat="43.94461" lon="5.26971">
        <ele>290.5</ele>
        <time>2019-09-14T11:36:14Z</time>
      </trkpt>
      <trkpt lat="43.94461" lon="5.26971">
        <ele>290.5</ele>
        <time>2019-09-14T11:36:20Z</time>
      </trkpt>
      <trkpt lat="43.94461" lon="5.26971">
        <ele>290.5</ele>
        <time>2019-09-14T11:36:26Z</time>
      </trkpt>
      <trkpt lat="43.94461" lon="5.26971">
        <ele>290.5</ele>
        <time>2019-09-14T11:36:31Z</time>
      </trkpt>
      <trkpt lat="43.94461" lon="5.26971">
        <ele>290.5</ele>
        <time>2019-09-14T11:36:37Z</time>
      </trkpt>
      <trkpt lat="43.94461" lon="5.26971">
        <ele>290.5</ele>
        <time>2019-09-14T11:36:43Z</time>
      </trkpt>
      <trkpt lat="43.94461" lon="5.26971">
        <ele>290.5</ele>
        <time>2019-09-14T11:36:49Z</time>
      </trkpt>
      <trkpt lat="43.94461" lon="5.26971">
        <ele>290.5</ele>
        <time>2019-09-14T11:36:55Z</time>
      </trkpt>
      <trkpt lat="43.94461" lon="5.26971">
        <ele>290.5</ele>
        <time>2019-09-14T11:37:00Z</time>
      </trkpt>
      <trkpt lat="43.94461" lon="5.26971">
        <ele>290.5</ele>
        <time>2019-09-14T11:37:06Z</time>
      </trkpt>
      <trkpt lat="43.94461" lon="5.26971">
        <ele>290.5</ele>
        <time>2019-09-14T11:37:12Z</time>
      </trkpt>
      <trkpt lat="43.94461" lon="5.26971">
        <ele>290.5</ele>
        <time>2019-09-14T11:37:17Z</time>
      </trkpt>
      <trkpt lat="43.94461" lon="5.26971">
        <ele>290.5</ele>
        <time>2019-09-14T11:37:23Z</time>
      </trkpt>
      <trkpt lat="43.94461" lon="5.26971">
        <ele>290.5</ele>
        <time>2019-09-14T11:37:28Z</time>
      </trkpt>
      <trkpt lat="43.94461" lon="5.26971">
        <ele>290.5</ele>
        <time>2019-09-14T11:37:34Z</time>
      </trkpt>
      <trkpt lat="43.94461" lon="5.26971">
        <ele>290.5</ele>
        <time>2019-09-14T11:37:40Z</time>
      </trkpt>
      <trkpt lat="43.94461" lon="5.26971">
        <ele>290.5</ele>
        <time>2019-09-14T11:37:46Z</time>
      </trkpt>
      <trkpt lat="43.94461" lon="5.26971">
        <ele>290.5</ele>
        <time>2019-09-14T11:37:51Z</time>
      </trkpt>
      <trkpt lat="43.94461" lon="5.26971">
        <ele>290.5</ele>
        <time>2019-09-14T11:37:57Z</time>
      </trkpt>
      <trkpt lat="43.94461" lon="5.26971">
        <ele>290.5</ele>
        <time>2019-09-14T11:38:03Z</time>
      </trkpt>
      <trkpt lat="43.94461" lon="5.26971">
        <ele>290.5</ele>
        <time>2019-09-14T11:38:09Z</time>
      </trkpt>
      <trkpt lat="43.94461" lon="5.26971">
        <ele>290.5</ele>
        <time>2019-09-14T11:38:14Z</time>
      </trkpt>
      <trkpt lat="43.94461" lon="5.26971">
        <ele>290.5</ele>
        <time>2019-09-14T11:38:20Z</time>
      </trkpt>
      <trkpt lat="43.94461" lon="5.26971">
        <ele>290.5</ele>
        <time>2019-09-14T11:38:26Z</time>
      </trkpt>
      <trkpt lat="43.94461" lon="5.26971">
        <ele>290.5</ele>
        <time>2019-09-14T11:38:32Z</time>
      </trkpt>
      <trkpt lat="43.94461" lon="5.26971">
        <ele>290.5</ele>
        <time>2019-09-14T11:38:38Z</time>
      </trkpt>
      <trkpt lat="43.94461" lon="5.26971">
        <ele>290.5</ele>
        <time>2019-09-14T11:38:44Z</time>
      </trkpt>
      <trkpt lat="43.94461" lon="5.26971">
        <ele>290.5</ele>
        <time>2019-09-14T11:38:50Z</time>
      </trkpt>
      <trkpt lat="43.94461" lon="5.26971">
        <ele>290.5</ele>
        <time>2019-09-14T11:38:56Z</time>
      </trkpt>
      <trkpt lat="43.94461" lon="5.26971">
        <ele>290.5</ele>
        <time>2019-09-14T11:39:01Z</time>
      </trkpt>
      <trkpt lat="43.94461" lon="5.26971">
        <ele>290.5</ele>
        <time>2019-09-14T11:39:07Z</time>
      </trkpt>
      <trkpt lat="43.94461" lon="5.26971">
        <ele>290.5</ele>
        <time>2019-09-14T11:39:13Z</time>
      </trkpt>
      <trkpt lat="43.94461" lon="5.26971">
        <ele>290.5</ele>
        <time>2019-09-14T11:39:19Z</time>
      </trkpt>
      <trkpt lat="43.94461" lon="5.26971">
        <ele>290.5</ele>
        <time>2019-09-14T11:39:24Z</time>
      </trkpt>
      <trkpt lat="43.94461" lon="5.26971">
        <ele>290.5</ele>
        <time>2019-09-14T11:39:29Z</time>
      </trkpt>
      <trkpt lat="43.94461" lon="5.26971">
        <ele>290.5</ele>
        <time>2019-09-14T11:39:35Z</time>
      </trkpt>
      <trkpt lat="43.94461" lon="5.26971">
        <ele>290.5</ele>
        <time>2019-09-14T11:39:41Z</time>
      </trkpt>
      <trkpt lat="43.94461" lon="5.26971">
        <ele>290.5</ele>
        <time>2019-09-14T11:39:47Z</time>
      </trkpt>
      <trkpt lat="43.94461" lon="5.26971">
        <ele>290.5</ele>
        <time>2019-09-14T11:39:52Z</time>
      </trkpt>
      <trkpt lat="43.94461" lon="5.26971">
        <ele>290.5</ele>
        <time>2019-09-14T11:39:58Z</time>
      </trkpt>
      <trkpt lat="43.94461" lon="5.26971">
        <ele>290.5</ele>
        <time>2019-09-14T11:40:03Z</time>
      </trkpt>
      <trkpt lat="43.94461" lon="5.26971">
        <ele>290.5</ele>
        <time>2019-09-14T11:40:08Z</time>
      </trkpt>
      <trkpt lat="43.94461" lon="5.26971">
        <ele>290.5</ele>
        <time>2019-09-14T11:40:14Z</time>
      </trkpt>
      <trkpt lat="43.94461" lon="5.26971">
        <ele>290.5</ele>
        <time>2019-09-14T11:40:19Z</time>
      </trkpt>
      <trkpt lat="43.94461" lon="5.26971">
        <ele>290.5</ele>
        <time>2019-09-14T11:40:25Z</time>
      </trkpt>
      <trkpt lat="43.9446" lon="5.26971">
        <ele>290.5</ele>
        <time>2019-09-14T11:40:31Z</time>
      </trkpt>
      <trkpt lat="43.9446" lon="5.26971">
        <ele>290.5</ele>
        <time>2019-09-14T11:40:36Z</time>
      </trkpt>
      <trkpt lat="43.9446" lon="5.26971">
        <ele>290.5</ele>
        <time>2019-09-14T11:40:41Z</time>
      </trkpt>
      <trkpt lat="43.9446" lon="5.26971">
        <ele>290.5</ele>
        <time>2019-09-14T11:40:47Z</time>
      </trkpt>
      <trkpt lat="43.9446" lon="5.26971">
        <ele>290.5</ele>
        <time>2019-09-14T11:40:52Z</time>
      </trkpt>
      <trkpt lat="43.9446" lon="5.26971">
        <ele>290.5</ele>
        <time>2019-09-14T11:40:58Z</time>
      </trkpt>
      <trkpt lat="43.9446" lon="5.26971">
        <ele>290.5</ele>
        <time>2019-09-14T11:41:03Z</time>
      </trkpt>
      <trkpt lat="43.9446" lon="5.26971">
        <ele>290.5</ele>
        <time>2019-09-14T11:41:08Z</time>
      </trkpt>
      <trkpt lat="43.9446" lon="5.26971">
        <ele>290.5</ele>
        <time>2019-09-14T11:41:14Z</time>
      </trkpt>
      <trkpt lat="43.9446" lon="5.26971">
        <ele>290.5</ele>
        <time>2019-09-14T11:41:20Z</time>
      </trkpt>
      <trkpt lat="43.9446" lon="5.26971">
        <ele>290.5</ele>
        <time>2019-09-14T11:41:26Z</time>
      </trkpt>
      <trkpt lat="43.9446" lon="5.26971">
        <ele>290.5</ele>
        <time>2019-09-14T11:41:31Z</time>
      </trkpt>
      <trkpt lat="43.9446" lon="5.26971">
        <ele>290.5</ele>
        <time>2019-09-14T11:41:37Z</time>
      </trkpt>
      <trkpt lat="43.9446" lon="5.26971">
        <ele>290.5</ele>
        <time>2019-09-14T11:41:42Z</time>
      </trkpt>
      <trkpt lat="43.9446" lon="5.26971">
        <ele>290.5</ele>
        <time>2019-09-14T11:41:48Z</time>
      </trkpt>
      <trkpt lat="43.9446" lon="5.26971">
        <ele>290.5</ele>
        <time>2019-09-14T11:41:54Z</time>
      </trkpt>
      <trkpt lat="43.9446" lon="5.26971">
        <ele>290.5</ele>
        <time>2019-09-14T11:41:59Z</time>
      </trkpt>
      <trkpt lat="43.9446" lon="5.26971">
        <ele>290.5</ele>
        <time>2019-09-14T11:42:04Z</time>
      </trkpt>
      <trkpt lat="43.9446" lon="5.26971">
        <ele>290.5</ele>
        <time>2019-09-14T11:42:10Z</time>
      </trkpt>
      <trkpt lat="43.9446" lon="5.26971">
        <ele>290.5</ele>
        <time>2019-09-14T11:42:15Z</time>
      </trkpt>
      <trkpt lat="43.9446" lon="5.26971">
        <ele>290.5</ele>
        <time>2019-09-14T11:42:20Z</time>
      </trkpt>
      <trkpt lat="43.9446" lon="5.2697">
        <ele>290.5</ele>
        <time>2019-09-14T11:42:30Z</time>
      </trkpt>
      <trkpt lat="43.9446" lon="5.2697">
        <ele>290.5</ele>
        <time>2019-09-14T11:42:36Z</time>
      </trkpt>
      <trkpt lat="43.9446" lon="5.2697">
        <ele>290.5</ele>
        <time>2019-09-14T11:42:41Z</time>
      </trkpt>
      <trkpt lat="43.9446" lon="5.2697">
        <ele>290.5</ele>
        <time>2019-09-14T11:42:47Z</time>
      </trkpt>
      <trkpt lat="43.9446" lon="5.2697">
        <ele>290.5</ele>
        <time>2019-09-14T11:42:52Z</time>
      </trkpt>
      <trkpt lat="43.9446" lon="5.2697">
        <ele>290.5</ele>
        <time>2019-09-14T11:42:58Z</time>
      </trkpt>
      <trkpt lat="43.9446" lon="5.2697">
        <ele>290.5</ele>
        <time>2019-09-14T11:43:03Z</time>
      </trkpt>
      <trkpt lat="43.9446" lon="5.2697">
        <ele>290.5</ele>
        <time>2019-09-14T11:43:09Z</time>
      </trkpt>
      <trkpt lat="43.9446" lon="5.2697">
        <ele>290.5</ele>
        <time>2019-09-14T11:43:15Z</time>
      </trkpt>
      <trkpt lat="43.9446" lon="5.2697">
        <ele>290.5</ele>
        <time>2019-09-14T11:43:21Z</time>
      </trkpt>
      <trkpt lat="43.9446" lon="5.2697">
        <ele>290.5</ele>
        <time>2019-09-14T11:43:26Z</time>
      </trkpt>
      <trkpt lat="43.9446" lon="5.2697">
        <ele>290.5</ele>
        <time>2019-09-14T11:43:32Z</time>
      </trkpt>
      <trkpt lat="43.9446" lon="5.2697">
        <ele>290.5</ele>
        <time>2019-09-14T11:43:38Z</time>
      </trkpt>
      <trkpt lat="43.9446" lon="5.2697">
        <ele>290.5</ele>
        <time>2019-09-14T11:43:43Z</time>
      </trkpt>
      <trkpt lat="43.9446" lon="5.2697">
        <ele>290.5</ele>
        <time>2019-09-14T11:43:49Z</time>
      </trkpt>
      <trkpt lat="43.9446" lon="5.2697">
        <ele>290.5</ele>
        <time>2019-09-14T11:43:55Z</time>
      </trkpt>
      <trkpt lat="43.9446" lon="5.2697">
        <ele>290.5</ele>
        <time>2019-09-14T11:44:00Z</time>
      </trkpt>
      <trkpt lat="43.9446" lon="5.2697">
        <ele>290.5</ele>
        <time>2019-09-14T11:44:06Z</time>
      </trkpt>
      <trkpt lat="43.9446" lon="5.2697">
        <ele>290.5</ele>
        <time>2019-09-14T11:44:12Z</time>
      </trkpt>
      <trkpt lat="43.9446" lon="5.2697">
        <ele>290.5</ele>
        <time>2019-09-14T11:44:17Z</time>
      </trkpt>
      <trkpt lat="43.9446" lon="5.2697">
        <ele>290.5</ele>
        <time>2019-09-14T11:44:24Z</time>
      </trkpt>
      <trkpt lat="43.9446" lon="5.2697">
        <ele>290.5</ele>
        <time>2019-09-14T11:44:29Z</time>
      </trkpt>
      <trkpt lat="43.9446" lon="5.2697">
        <ele>290.5</ele>
        <time>2019-09-14T11:44:35Z</time>
      </trkpt>
      <trkpt lat="43.9446" lon="5.2697">
        <ele>290.5</ele>
        <time>2019-09-14T11:44:40Z</time>
      </trkpt>
      <trkpt lat="43.9446" lon="5.2697">
        <ele>290.5</ele>
        <time>2019-09-14T11:44:46Z</time>
      </trkpt>
      <trkpt lat="43.9446" lon="5.2697">
        <ele>290.5</ele>
        <time>2019-09-14T11:44:52Z</time>
      </trkpt>
      <trkpt lat="43.9446" lon="5.2697">
        <ele>290.5</ele>
        <time>2019-09-14T11:44:57Z</time>
      </trkpt>
      <trkpt lat="43.9446" lon="5.2697">
        <ele>290.5</ele>
        <time>2019-09-14T11:45:02Z</time>
      </trkpt>
      <trkpt lat="43.9446" lon="5.2697">
        <ele>290.5</ele>
        <time>2019-09-14T11:45:08Z</time>
      </trkpt>
      <trkpt lat="43.9446" lon="5.2697">
        <ele>290.5</ele>
        <time>2019-09-14T11:45:14Z</time>
      </trkpt>
      <trkpt lat="43.9446" lon="5.2697">
        <ele>290.5</ele>
        <time>2019-09-14T11:45:19Z</time>
      </trkpt>
      <trkpt lat="43.9446" lon="5.2697">
        <ele>290.5</ele>
        <time>2019-09-14T11:45:25Z</time>
      </trkpt>
      <trkpt lat="43.9446" lon="5.2697">
        <ele>290.5</ele>
        <time>2019-09-14T11:45:31Z</time>
      </trkpt>
      <trkpt lat="43.9446" lon="5.2697">
        <ele>290.5</ele>
        <time>2019-09-14T11:45:37Z</time>
      </trkpt>
      <trkpt lat="43.9446" lon="5.2697">
        <ele>290.5</ele>
        <time>2019-09-14T11:45:43Z</time>
      </trkpt>
      <trkpt lat="43.9446" lon="5.2697">
        <ele>290.5</ele>
        <time>2019-09-14T11:45:49Z</time>
      </trkpt>
      <trkpt lat="43.9446" lon="5.2697">
        <ele>290.5</ele>
        <time>2019-09-14T11:45:55Z</time>
      </trkpt>
      <trkpt lat="43.9446" lon="5.2697">
        <ele>290.5</ele>
        <time>2019-09-14T11:46:01Z</time>
      </trkpt>
      <trkpt lat="43.9446" lon="5.2697">
        <ele>290.5</ele>
        <time>2019-09-14T11:46:07Z</time>
      </trkpt>
      <trkpt lat="43.9446" lon="5.2697">
        <ele>290.5</ele>
        <time>2019-09-14T11:46:13Z</time>
      </trkpt>
      <trkpt lat="43.9446" lon="5.2697">
        <ele>290.5</ele>
        <time>2019-09-14T11:46:18Z</time>
      </trkpt>
      <trkpt lat="43.9446" lon="5.2697">
        <ele>290.5</ele>
        <time>2019-09-14T11:46:24Z</time>
      </trkpt>
      <trkpt lat="43.9446" lon="5.2697">
        <ele>290.5</ele>
        <time>2019-09-14T11:46:29Z</time>
      </trkpt>
      <trkpt lat="43.9446" lon="5.2697">
        <ele>290.5</ele>
        <time>2019-09-14T11:46:35Z</time>
      </trkpt>
      <trkpt lat="43.9446" lon="5.2697">
        <ele>290.5</ele>
        <time>2019-09-14T11:46:41Z</time>
      </trkpt>
      <trkpt lat="43.9446" lon="5.2697">
        <ele>290.5</ele>
        <time>2019-09-14T11:46:47Z</time>
      </trkpt>
      <trkpt lat="43.9446" lon="5.2697">
        <ele>290.5</ele>
        <time>2019-09-14T11:46:52Z</time>
      </trkpt>
      <trkpt lat="43.9446" lon="5.2697">
        <ele>290.5</ele>
        <time>2019-09-14T11:46:58Z</time>
      </trkpt>
      <trkpt lat="43.9446" lon="5.2697">
        <ele>290.5</ele>
        <time>2019-09-14T11:47:03Z</time>
      </trkpt>
      <trkpt lat="43.9446" lon="5.2697">
        <ele>290.5</ele>
        <time>2019-09-14T11:47:10Z</time>
      </trkpt>
      <trkpt lat="43.9446" lon="5.2697">
        <ele>290.5</ele>
        <time>2019-09-14T11:47:16Z</time>
      </trkpt>
      <trkpt lat="43.9446" lon="5.2697">
        <ele>290.5</ele>
        <time>2019-09-14T11:47:22Z</time>
      </trkpt>
      <trkpt lat="43.9446" lon="5.2697">
        <ele>290.5</ele>
        <time>2019-09-14T11:47:28Z</time>
      </trkpt>
      <trkpt lat="43.9446" lon="5.2697">
        <ele>290.5</ele>
        <time>2019-09-14T11:47:33Z</time>
      </trkpt>
      <trkpt lat="43.9446" lon="5.2697">
        <ele>290.5</ele>
        <time>2019-09-14T11:47:39Z</time>
      </trkpt>
      <trkpt lat="43.9446" lon="5.2697">
        <ele>290.5</ele>
        <time>2019-09-14T11:47:45Z</time>
      </trkpt>
      <trkpt lat="43.9446" lon="5.2697">
        <ele>290.5</ele>
        <time>2019-09-14T11:47:51Z</time>
      </trkpt>
      <trkpt lat="43.9446" lon="5.2697">
        <ele>290.5</ele>
        <time>2019-09-14T11:47:56Z</time>
      </trkpt>
      <trkpt lat="43.9446" lon="5.2697">
        <ele>290.5</ele>
        <time>2019-09-14T11:48:01Z</time>
      </trkpt>
      <trkpt lat="43.9446" lon="5.2697">
        <ele>290.5</ele>
        <time>2019-09-14T11:48:07Z</time>
      </trkpt>
      <trkpt lat="43.9446" lon="5.2697">
        <ele>290.5</ele>
        <time>2019-09-14T11:48:12Z</time>
      </trkpt>
      <trkpt lat="43.9446" lon="5.2697">
        <ele>290.5</ele>
        <time>2019-09-14T11:48:17Z</time>
      </trkpt>
      <trkpt lat="43.9446" lon="5.2697">
        <ele>290.5</ele>
        <time>2019-09-14T11:48:23Z</time>
      </trkpt>
      <trkpt lat="43.9446" lon="5.2697">
        <ele>290.5</ele>
        <time>2019-09-14T11:48:29Z</time>
      </trkpt>
      <trkpt lat="43.9446" lon="5.2697">
        <ele>290.5</ele>
        <time>2019-09-14T11:48:34Z</time>
      </trkpt>
      <trkpt lat="43.9446" lon="5.2697">
        <ele>290.5</ele>
        <time>2019-09-14T11:48:39Z</time>
      </trkpt>
      <trkpt lat="43.9446" lon="5.2697">
        <ele>290.5</ele>
        <time>2019-09-14T11:48:44Z</time>
      </trkpt>
      <trkpt lat="43.9446" lon="5.2697">
        <ele>290.5</ele>
        <time>2019-09-14T11:48:50Z</time>
      </trkpt>
      <trkpt lat="43.9446" lon="5.2697">
        <ele>290.5</ele>
        <time>2019-09-14T11:48:56Z</time>
      </trkpt>
      <trkpt lat="43.9446" lon="5.2697">
        <ele>290.5</ele>
        <time>2019-09-14T11:49:07Z</time>
      </trkpt>
      <trkpt lat="43.9446" lon="5.2697">
        <ele>291.5</ele>
        <time>2019-09-14T11:49:13Z</time>
      </trkpt>
      <trkpt lat="43.9446" lon="5.2697">
        <ele>291.5</ele>
        <time>2019-09-14T11:49:19Z</time>
      </trkpt>
      <trkpt lat="43.9446" lon="5.2697">
        <ele>291.5</ele>
        <time>2019-09-14T11:49:24Z</time>
      </trkpt>
      <trkpt lat="43.9446" lon="5.2697">
        <ele>291.5</ele>
        <time>2019-09-14T11:49:30Z</time>
      </trkpt>
      <trkpt lat="43.9446" lon="5.2697">
        <ele>291.5</ele>
        <time>2019-09-14T11:49:36Z</time>
      </trkpt>
      <trkpt lat="43.9446" lon="5.2697">
        <ele>291.5</ele>
        <time>2019-09-14T11:49:42Z</time>
      </trkpt>
      <trkpt lat="43.9446" lon="5.2697">
        <ele>291.5</ele>
        <time>2019-09-14T11:49:48Z</time>
      </trkpt>
      <trkpt lat="43.9446" lon="5.2697">
        <ele>291.5</ele>
        <time>2019-09-14T11:49:54Z</time>
      </trkpt>
      <trkpt lat="43.9446" lon="5.2697">
        <ele>291.5</ele>
        <time>2019-09-14T11:50:00Z</time>
      </trkpt>
      <trkpt lat="43.9446" lon="5.2697">
        <ele>291.5</ele>
        <time>2019-09-14T11:50:05Z</time>
      </trkpt>
      <trkpt lat="43.9446" lon="5.2697">
        <ele>291.5</ele>
        <time>2019-09-14T11:50:12Z</time>
      </trkpt>
      <trkpt lat="43.9446" lon="5.2697">
        <ele>291.5</ele>
        <time>2019-09-14T11:50:17Z</time>
      </trkpt>
      <trkpt lat="43.9446" lon="5.2697">
        <ele>291.5</ele>
        <time>2019-09-14T11:50:22Z</time>
      </trkpt>
      <trkpt lat="43.9446" lon="5.2697">
        <ele>291.5</ele>
        <time>2019-09-14T11:50:28Z</time>
      </trkpt>
      <trkpt lat="43.9446" lon="5.2697">
        <ele>291.5</ele>
        <time>2019-09-14T11:50:34Z</time>
      </trkpt>
      <trkpt lat="43.9446" lon="5.2697">
        <ele>291.5</ele>
        <time>2019-09-14T11:50:39Z</time>
      </trkpt>
      <trkpt lat="43.9446" lon="5.2697">
        <ele>291.5</ele>
        <time>2019-09-14T11:50:45Z</time>
      </trkpt>
      <trkpt lat="43.9446" lon="5.2697">
        <ele>291.5</ele>
        <time>2019-09-14T11:50:50Z</time>
      </trkpt>
      <trkpt lat="43.9446" lon="5.2697">
        <ele>291.5</ele>
        <time>2019-09-14T11:50:56Z</time>
      </trkpt>
      <trkpt lat="43.9446" lon="5.2697">
        <ele>291.5</ele>
        <time>2019-09-14T11:51:02Z</time>
      </trkpt>
      <trkpt lat="43.94461" lon="5.2697">
        <ele>291.5</ele>
        <time>2019-09-14T11:51:08Z</time>
      </trkpt>
      <trkpt lat="43.9447" lon="5.26972">
        <ele>287.5</ele>
        <time>2019-09-14T11:51:13Z</time>
      </trkpt>
      <trkpt lat="43.94492" lon="5.2696">
        <ele>280.5</ele>
        <time>2019-09-14T11:51:19Z</time>
      </trkpt>
      <trkpt lat="43.94514" lon="5.26974">
        <ele>277.5</ele>
        <time>2019-09-14T11:51:25Z</time>
      </trkpt>
      <trkpt lat="43.94539" lon="5.26975">
        <ele>279.5</ele>
        <time>2019-09-14T11:51:31Z</time>
      </trkpt>
      <trkpt lat="43.94545" lon="5.26977">
        <ele>282.5</ele>
        <time>2019-09-14T11:51:37Z</time>
      </trkpt>
      <trkpt lat="43.94555" lon="5.26977">
        <ele>285.5</ele>
        <time>2019-09-14T11:51:43Z</time>
      </trkpt>
      <trkpt lat="43.94566" lon="5.26981">
        <ele>289.5</ele>
        <time>2019-09-14T11:51:49Z</time>
      </trkpt>
      <trkpt lat="43.94572" lon="5.26986">
        <ele>304.5</ele>
        <time>2019-09-14T11:51:54Z</time>
      </trkpt>
      <trkpt lat="43.94581" lon="5.26987">
        <ele>302.5</ele>
        <time>2019-09-14T11:52:00Z</time>
      </trkpt>
      <trkpt lat="43.94582" lon="5.26997">
        <ele>309.5</ele>
        <time>2019-09-14T11:52:06Z</time>
      </trkpt>
      <trkpt lat="43.9458" lon="5.27003">
        <ele>315.5</ele>
        <time>2019-09-14T11:52:11Z</time>
      </trkpt>
      <trkpt lat="43.94581" lon="5.2701">
        <ele>322.5</ele>
        <time>2019-09-14T11:52:17Z</time>
      </trkpt>
      <trkpt lat="43.94582" lon="5.27014">
        <ele>320.5</ele>
        <time>2019-09-14T11:52:23Z</time>
      </trkpt>
      <trkpt lat="43.94584" lon="5.2702">
        <ele>321.5</ele>
        <time>2019-09-14T11:52:28Z</time>
      </trkpt>
      <trkpt lat="43.94587" lon="5.27016">
        <ele>324.5</ele>
        <time>2019-09-14T11:52:34Z</time>
      </trkpt>
      <trkpt lat="43.94589" lon="5.27017">
        <ele>325.5</ele>
        <time>2019-09-14T11:52:40Z</time>
      </trkpt>
      <trkpt lat="43.94593" lon="5.27018">
        <ele>324.5</ele>
        <time>2019-09-14T11:52:45Z</time>
      </trkpt>
      <trkpt lat="43.94593" lon="5.27019">
        <ele>325.5</ele>
        <time>2019-09-14T11:52:51Z</time>
      </trkpt>
      <trkpt lat="43.94595" lon="5.27018">
        <ele>325.5</ele>
        <time>2019-09-14T11:52:57Z</time>
      </trkpt>
      <trkpt lat="43.94596" lon="5.27018">
        <ele>325.5</ele>
        <time>2019-09-14T11:53:03Z</time>
      </trkpt>
      <trkpt lat="43.94597" lon="5.27018">
        <ele>325.5</ele>
        <time>2019-09-14T11:53:09Z</time>
      </trkpt>
      <trkpt lat="43.94597" lon="5.27018">
        <ele>325.5</ele>
        <time>2019-09-14T11:53:15Z</time>
      </trkpt>
      <trkpt lat="43.94597" lon="5.27018">
        <ele>325.5</ele>
        <time>2019-09-14T11:53:21Z</time>
      </trkpt>
      <trkpt lat="43.94597" lon="5.27018">
        <ele>325.5</ele>
        <time>2019-09-14T11:53:27Z</time>
      </trkpt>
      <trkpt lat="43.94597" lon="5.27018">
        <ele>326.5</ele>
        <time>2019-09-14T11:53:32Z</time>
      </trkpt>
      <trkpt lat="43.94597" lon="5.27018">
        <ele>326.5</ele>
        <time>2019-09-14T11:53:37Z</time>
      </trkpt>
      <trkpt lat="43.94597" lon="5.27018">
        <ele>326.5</ele>
        <time>2019-09-14T11:53:42Z</time>
      </trkpt>
      <trkpt lat="43.94597" lon="5.27018">
        <ele>326.5</ele>
        <time>2019-09-14T11:53:48Z</time>
      </trkpt>
      <trkpt lat="43.94597" lon="5.27018">
        <ele>326.5</ele>
        <time>2019-09-14T11:53:53Z</time>
      </trkpt>
      <trkpt lat="43.94597" lon="5.27018">
        <ele>326.5</ele>
        <time>2019-09-14T11:53:58Z</time>
      </trkpt>
      <trkpt lat="43.94597" lon="5.27018">
        <ele>326.5</ele>
        <time>2019-09-14T11:54:04Z</time>
      </trkpt>
      <trkpt lat="43.94597" lon="5.27018">
        <ele>326.5</ele>
        <time>2019-09-14T11:54:10Z</time>
      </trkpt>
      <trkpt lat="43.94597" lon="5.27018">
        <ele>326.5</ele>
        <time>2019-09-14T11:54:16Z</time>
      </trkpt>
      <trkpt lat="43.94598" lon="5.27018">
        <ele>326.5</ele>
        <time>2019-09-14T11:54:21Z</time>
      </trkpt>
      <trkpt lat="43.94598" lon="5.27018">
        <ele>326.5</ele>
        <time>2019-09-14T11:54:26Z</time>
      </trkpt>
      <trkpt lat="43.94598" lon="5.27018">
        <ele>326.5</ele>
        <time>2019-09-14T11:54:32Z</time>
      </trkpt>
      <trkpt lat="43.94598" lon="5.27018">
        <ele>326.5</ele>
        <time>2019-09-14T11:54:38Z</time>
      </trkpt>
      <trkpt lat="43.94598" lon="5.27018">
        <ele>326.5</ele>
        <time>2019-09-14T11:54:43Z</time>
      </trkpt>
      <trkpt lat="43.94598" lon="5.27018">
        <ele>326.5</ele>
        <time>2019-09-14T11:54:49Z</time>
      </trkpt>
      <trkpt lat="43.94598" lon="5.27018">
        <ele>326.5</ele>
        <time>2019-09-14T11:54:54Z</time>
      </trkpt>
      <trkpt lat="43.94598" lon="5.27018">
        <ele>326.5</ele>
        <time>2019-09-14T11:55:00Z</time>
      </trkpt>
      <trkpt lat="43.94598" lon="5.27018">
        <ele>326.5</ele>
        <time>2019-09-14T11:55:06Z</time>
      </trkpt>
      <trkpt lat="43.94598" lon="5.27018">
        <ele>326.5</ele>
        <time>2019-09-14T11:55:12Z</time>
      </trkpt>
      <trkpt lat="43.94598" lon="5.27018">
        <ele>326.5</ele>
        <time>2019-09-14T11:55:17Z</time>
      </trkpt>
      <trkpt lat="43.94598" lon="5.27018">
        <ele>326.5</ele>
        <time>2019-09-14T11:55:23Z</time>
      </trkpt>
      <trkpt lat="43.94598" lon="5.27018">
        <ele>326.5</ele>
        <time>2019-09-14T11:55:29Z</time>
      </trkpt>
      <trkpt lat="43.94598" lon="5.27018">
        <ele>326.5</ele>
        <time>2019-09-14T11:55:34Z</time>
      </trkpt>
      <trkpt lat="43.94598" lon="5.27018">
        <ele>326.5</ele>
        <time>2019-09-14T11:55:40Z</time>
      </trkpt>
      <trkpt lat="43.94598" lon="5.27018">
        <ele>326.5</ele>
        <time>2019-09-14T11:55:46Z</time>
      </trkpt>
      <trkpt lat="43.94598" lon="5.27018">
        <ele>326.5</ele>
        <time>2019-09-14T11:55:52Z</time>
      </trkpt>
      <trkpt lat="43.9462" lon="5.26991">
        <ele>333.5</ele>
        <time>2019-09-14T11:55:58Z</time>
      </trkpt>
      <trkpt lat="43.94627" lon="5.26986">
        <ele>331.5</ele>
        <time>2019-09-14T11:56:04Z</time>
      </trkpt>
      <trkpt lat="43.94631" lon="5.26981">
        <ele>328.5</ele>
        <time>2019-09-14T11:56:10Z</time>
      </trkpt>
      <trkpt lat="43.94632" lon="5.26981">
        <ele>328.5</ele>
        <time>2019-09-14T11:56:15Z</time>
      </trkpt>
      <trkpt lat="43.94634" lon="5.2698">
        <ele>330.5</ele>
        <time>2019-09-14T11:56:20Z</time>
      </trkpt>
      <trkpt lat="43.94634" lon="5.26979">
        <ele>332.5</ele>
        <time>2019-09-14T11:56:26Z</time>
      </trkpt>
      <trkpt lat="43.94634" lon="5.26979">
        <ele>332.5</ele>
        <time>2019-09-14T11:56:32Z</time>
      </trkpt>
      <trkpt lat="43.94638" lon="5.26975">
        <ele>332.5</ele>
        <time>2019-09-14T11:56:37Z</time>
      </trkpt>
      <trkpt lat="43.94645" lon="5.26955">
        <ele>329.5</ele>
        <time>2019-09-14T11:56:43Z</time>
      </trkpt>
      <trkpt lat="43.94661" lon="5.26938">
        <ele>323.5</ele>
        <time>2019-09-14T11:56:49Z</time>
      </trkpt>
      <trkpt lat="43.94658" lon="5.26933">
        <ele>327.5</ele>
        <time>2019-09-14T11:56:55Z</time>
      </trkpt>
      <trkpt lat="43.94672" lon="5.2693">
        <ele>324.5</ele>
        <time>2019-09-14T11:57:01Z</time>
      </trkpt>
      <trkpt lat="43.94671" lon="5.26924">
        <ele>326.5</ele>
        <time>2019-09-14T11:57:06Z</time>
      </trkpt>
      <trkpt lat="43.9468" lon="5.2692">
        <ele>325.5</ele>
        <time>2019-09-14T11:57:12Z</time>
      </trkpt>
      <trkpt lat="43.94679" lon="5.26928">
        <ele>324.5</ele>
        <time>2019-09-14T11:57:18Z</time>
      </trkpt>
      <trkpt lat="43.94682" lon="5.26928">
        <ele>326.5</ele>
        <time>2019-09-14T11:57:23Z</time>
      </trkpt>
      <trkpt lat="43.94684" lon="5.26927">
        <ele>326.5</ele>
        <time>2019-09-14T11:57:29Z</time>
      </trkpt>
      <trkpt lat="43.94684" lon="5.26927">
        <ele>327.5</ele>
        <time>2019-09-14T11:57:34Z</time>
      </trkpt>
      <trkpt lat="43.94685" lon="5.26929">
        <ele>325.5</ele>
        <time>2019-09-14T11:57:40Z</time>
      </trkpt>
      <trkpt lat="43.94685" lon="5.26929">
        <ele>325.5</ele>
        <time>2019-09-14T11:57:46Z</time>
      </trkpt>
      <trkpt lat="43.94684" lon="5.26926">
        <ele>329.5</ele>
        <time>2019-09-14T11:57:52Z</time>
      </trkpt>
      <trkpt lat="43.94684" lon="5.26926">
        <ele>329.5</ele>
        <time>2019-09-14T11:57:58Z</time>
      </trkpt>
      <trkpt lat="43.94684" lon="5.26926">
        <ele>329.5</ele>
        <time>2019-09-14T11:58:04Z</time>
      </trkpt>
      <trkpt lat="43.94684" lon="5.26926">
        <ele>329.5</ele>
        <time>2019-09-14T11:58:10Z</time>
      </trkpt>
      <trkpt lat="43.94684" lon="5.26926">
        <ele>329.5</ele>
        <time>2019-09-14T11:58:16Z</time>
      </trkpt>
      <trkpt lat="43.94684" lon="5.26926">
        <ele>329.5</ele>
        <time>2019-09-14T11:58:21Z</time>
      </trkpt>
      <trkpt lat="43.94684" lon="5.26926">
        <ele>329.5</ele>
        <time>2019-09-14T11:58:27Z</time>
      </trkpt>
      <trkpt lat="43.94684" lon="5.26926">
        <ele>329.5</ele>
        <time>2019-09-14T11:58:33Z</time>
      </trkpt>
      <trkpt lat="43.94684" lon="5.26926">
        <ele>329.5</ele>
        <time>2019-09-14T11:58:38Z</time>
      </trkpt>
      <trkpt lat="43.94684" lon="5.26926">
        <ele>329.5</ele>
        <time>2019-09-14T11:58:44Z</time>
      </trkpt>
      <trkpt lat="43.94684" lon="5.26926">
        <ele>329.5</ele>
        <time>2019-09-14T11:58:50Z</time>
      </trkpt>
      <trkpt lat="43.94684" lon="5.26926">
        <ele>329.5</ele>
        <time>2019-09-14T11:58:56Z</time>
      </trkpt>
      <trkpt lat="43.94684" lon="5.26926">
        <ele>329.5</ele>
        <time>2019-09-14T11:59:02Z</time>
      </trkpt>
      <trkpt lat="43.94684" lon="5.26926">
        <ele>328.5</ele>
        <time>2019-09-14T11:59:08Z</time>
      </trkpt>
      <trkpt lat="43.94684" lon="5.26926">
        <ele>328.5</ele>
        <time>2019-09-14T11:59:13Z</time>
      </trkpt>
      <trkpt lat="43.94684" lon="5.26926">
        <ele>328.5</ele>
        <time>2019-09-14T11:59:19Z</time>
      </trkpt>
      <trkpt lat="43.94684" lon="5.26926">
        <ele>328.5</ele>
        <time>2019-09-14T11:59:24Z</time>
      </trkpt>
      <trkpt lat="43.94684" lon="5.26926">
        <ele>328.5</ele>
        <time>2019-09-14T11:59:30Z</time>
      </trkpt>
      <trkpt lat="43.94684" lon="5.26926">
        <ele>328.5</ele>
        <time>2019-09-14T11:59:36Z</time>
      </trkpt>
      <trkpt lat="43.94684" lon="5.26926">
        <ele>328.5</ele>
        <time>2019-09-14T11:59:42Z</time>
      </trkpt>
      <trkpt lat="43.94684" lon="5.26926">
        <ele>328.5</ele>
        <time>2019-09-14T11:59:47Z</time>
      </trkpt>
      <trkpt lat="43.94684" lon="5.26926">
        <ele>328.5</ele>
        <time>2019-09-14T11:59:53Z</time>
      </trkpt>
      <trkpt lat="43.94685" lon="5.26926">
        <ele>328.5</ele>
        <time>2019-09-14T11:59:59Z</time>
      </trkpt>
      <trkpt lat="43.94685" lon="5.26926">
        <ele>327.5</ele>
        <time>2019-09-14T12:00:05Z</time>
      </trkpt>
      <trkpt lat="43.94685" lon="5.26926">
        <ele>327.5</ele>
        <time>2019-09-14T12:00:11Z</time>
      </trkpt>
      <trkpt lat="43.94685" lon="5.26926">
        <ele>327.5</ele>
        <time>2019-09-14T12:00:17Z</time>
      </trkpt>
      <trkpt lat="43.94685" lon="5.26926">
        <ele>327.5</ele>
        <time>2019-09-14T12:00:22Z</time>
      </trkpt>
      <trkpt lat="43.94685" lon="5.26926">
        <ele>327.5</ele>
        <time>2019-09-14T12:00:27Z</time>
      </trkpt>
      <trkpt lat="43.94685" lon="5.26926">
        <ele>327.5</ele>
        <time>2019-09-14T12:00:33Z</time>
      </trkpt>
      <trkpt lat="43.94685" lon="5.26926">
        <ele>327.5</ele>
        <time>2019-09-14T12:00:38Z</time>
      </trkpt>
      <trkpt lat="43.94685" lon="5.26926">
        <ele>327.5</ele>
        <time>2019-09-14T12:00:44Z</time>
      </trkpt>
      <trkpt lat="43.94685" lon="5.26926">
        <ele>327.5</ele>
        <time>2019-09-14T12:01:11Z</time>
      </trkpt>
      <trkpt lat="43.94685" lon="5.26926">
        <ele>327.5</ele>
        <time>2019-09-14T12:01:29Z</time>
      </trkpt>
      <trkpt lat="43.94685" lon="5.26926">
        <ele>327.5</ele>
        <time>2019-09-14T12:01:35Z</time>
      </trkpt>
      <trkpt lat="43.94685" lon="5.26926">
        <ele>327.5</ele>
        <time>2019-09-14T12:01:40Z</time>
      </trkpt>
      <trkpt lat="43.94685" lon="5.26926">
        <ele>326.5</ele>
        <time>2019-09-14T12:01:45Z</time>
      </trkpt>
      <trkpt lat="43.94685" lon="5.26925">
        <ele>326.5</ele>
        <time>2019-09-14T12:01:51Z</time>
      </trkpt>
      <trkpt lat="43.94685" lon="5.26925">
        <ele>326.5</ele>
        <time>2019-09-14T12:01:57Z</time>
      </trkpt>
      <trkpt lat="43.94685" lon="5.26925">
        <ele>326.5</ele>
        <time>2019-09-14T12:02:03Z</time>
      </trkpt>
      <trkpt lat="43.94685" lon="5.26925">
        <ele>326.5</ele>
        <time>2019-09-14T12:02:09Z</time>
      </trkpt>
      <trkpt lat="43.94685" lon="5.26925">
        <ele>326.5</ele>
        <time>2019-09-14T12:02:15Z</time>
      </trkpt>
      <trkpt lat="43.94685" lon="5.26925">
        <ele>326.5</ele>
        <time>2019-09-14T12:02:21Z</time>
      </trkpt>
      <trkpt lat="43.94685" lon="5.26925">
        <ele>326.5</ele>
        <time>2019-09-14T12:02:26Z</time>
      </trkpt>
      <trkpt lat="43.94685" lon="5.26925">
        <ele>326.5</ele>
        <time>2019-09-14T12:02:32Z</time>
      </trkpt>
      <trkpt lat="43.94685" lon="5.26925">
        <ele>326.5</ele>
        <time>2019-09-14T12:02:37Z</time>
      </trkpt>
      <trkpt lat="43.94685" lon="5.26925">
        <ele>325.5</ele>
        <time>2019-09-14T12:02:43Z</time>
      </trkpt>
      <trkpt lat="43.94685" lon="5.26924">
        <ele>325.5</ele>
        <time>2019-09-14T12:02:48Z</time>
      </trkpt>
      <trkpt lat="43.94686" lon="5.26917">
        <ele>298.5</ele>
        <time>2019-09-14T12:02:54Z</time>
      </trkpt>
      <trkpt lat="43.94689" lon="5.26893">
        <ele>290.5</ele>
        <time>2019-09-14T12:03:00Z</time>
      </trkpt>
      <trkpt lat="43.94701" lon="5.26872">
        <ele>283.5</ele>
        <time>2019-09-14T12:03:07Z</time>
      </trkpt>
      <trkpt lat="43.94714" lon="5.26846">
        <ele>280.5</ele>
        <time>2019-09-14T12:03:13Z</time>
      </trkpt>
      <trkpt lat="43.94727" lon="5.26831">
        <ele>280.5</ele>
        <time>2019-09-14T12:03:18Z</time>
      </trkpt>
      <trkpt lat="43.94731" lon="5.26824">
        <ele>278.5</ele>
        <time>2019-09-14T12:03:24Z</time>
      </trkpt>
      <trkpt lat="43.9473" lon="5.26815">
        <ele>275.5</ele>
        <time>2019-09-14T12:03:29Z</time>
      </trkpt>
      <trkpt lat="43.94734" lon="5.26798">
        <ele>276.5</ele>
        <time>2019-09-14T12:03:34Z</time>
      </trkpt>
      <trkpt lat="43.94745" lon="5.26781">
        <ele>276.5</ele>
        <time>2019-09-14T12:03:40Z</time>
      </trkpt>
      <trkpt lat="43.94746" lon="5.26764">
        <ele>275.5</ele>
        <time>2019-09-14T12:03:45Z</time>
      </trkpt>
      <trkpt lat="43.94755" lon="5.26754">
        <ele>278.5</ele>
        <time>2019-09-14T12:03:51Z</time>
      </trkpt>
      <trkpt lat="43.94762" lon="5.26739">
        <ele>281.5</ele>
        <time>2019-09-14T12:03:57Z</time>
      </trkpt>
      <trkpt lat="43.94779" lon="5.26717">
        <ele>283.5</ele>
        <time>2019-09-14T12:04:02Z</time>
      </trkpt>
      <trkpt lat="43.94784" lon="5.26705">
        <ele>284.5</ele>
        <time>2019-09-14T12:04:08Z</time>
      </trkpt>
      <trkpt lat="43.94797" lon="5.2669">
        <ele>284.5</ele>
        <time>2019-09-14T12:04:14Z</time>
      </trkpt>
      <trkpt lat="43.94805" lon="5.26674">
        <ele>289.5</ele>
        <time>2019-09-14T12:04:19Z</time>
      </trkpt>
      <trkpt lat="43.94817" lon="5.26652">
        <ele>290.5</ele>
        <time>2019-09-14T12:04:25Z</time>
      </trkpt>
      <trkpt lat="43.94823" lon="5.26646">
        <ele>291.5</ele>
        <time>2019-09-14T12:04:30Z</time>
      </trkpt>
      <trkpt lat="43.94821" lon="5.26644">
        <ele>295.5</ele>
        <time>2019-09-14T12:04:35Z</time>
      </trkpt>
      <trkpt lat="43.94828" lon="5.26648">
        <ele>294.5</ele>
        <time>2019-09-14T12:04:41Z</time>
      </trkpt>
      <trkpt lat="43.94833" lon="5.26641">
        <ele>292.5</ele>
        <time>2019-09-14T12:04:47Z</time>
      </trkpt>
      <trkpt lat="43.94831" lon="5.26639">
        <ele>292.5</ele>
        <time>2019-09-14T12:04:52Z</time>
      </trkpt>
      <trkpt lat="43.94833" lon="5.26634">
        <ele>292.5</ele>
        <time>2019-09-14T12:04:57Z</time>
      </trkpt>
      <trkpt lat="43.94829" lon="5.26634">
        <ele>295.5</ele>
        <time>2019-09-14T12:05:03Z</time>
      </trkpt>
      <trkpt lat="43.94844" lon="5.26632">
        <ele>296.5</ele>
        <time>2019-09-14T12:05:09Z</time>
      </trkpt>
      <trkpt lat="43.94841" lon="5.2662">
        <ele>298.5</ele>
        <time>2019-09-14T12:05:15Z</time>
      </trkpt>
      <trkpt lat="43.94842" lon="5.26616">
        <ele>302.5</ele>
        <time>2019-09-14T12:05:20Z</time>
      </trkpt>
      <trkpt lat="43.94852" lon="5.2661">
        <ele>300.5</ele>
        <time>2019-09-14T12:05:25Z</time>
      </trkpt>
      <trkpt lat="43.94863" lon="5.26601">
        <ele>307.5</ele>
        <time>2019-09-14T12:05:31Z</time>
      </trkpt>
      <trkpt lat="43.94875" lon="5.2659">
        <ele>309.5</ele>
        <time>2019-09-14T12:05:37Z</time>
      </trkpt>
      <trkpt lat="43.94881" lon="5.26589">
        <ele>310.5</ele>
        <time>2019-09-14T12:05:43Z</time>
      </trkpt>
      <trkpt lat="43.94877" lon="5.26601">
        <ele>310.5</ele>
        <time>2019-09-14T12:05:49Z</time>
      </trkpt>
      <trkpt lat="43.94868" lon="5.26608">
        <ele>311.5</ele>
        <time>2019-09-14T12:05:55Z</time>
      </trkpt>
      <trkpt lat="43.94884" lon="5.26605">
        <ele>310.5</ele>
        <time>2019-09-14T12:06:01Z</time>
      </trkpt>
      <trkpt lat="43.94894" lon="5.26592">
        <ele>312.5</ele>
        <time>2019-09-14T12:06:07Z</time>
      </trkpt>
      <trkpt lat="43.94896" lon="5.26583">
        <ele>315.5</ele>
        <time>2019-09-14T12:06:13Z</time>
      </trkpt>
      <trkpt lat="43.9489" lon="5.26577">
        <ele>317.5</ele>
        <time>2019-09-14T12:06:18Z</time>
      </trkpt>
      <trkpt lat="43.94899" lon="5.2657">
        <ele>316.5</ele>
        <time>2019-09-14T12:06:24Z</time>
      </trkpt>
      <trkpt lat="43.94904" lon="5.26574">
        <ele>316.5</ele>
        <time>2019-09-14T12:06:29Z</time>
      </trkpt>
      <trkpt lat="43.94913" lon="5.26566">
        <ele>316.5</ele>
        <time>2019-09-14T12:06:34Z</time>
      </trkpt>
      <trkpt lat="43.94908" lon="5.26563">
        <ele>316.5</ele>
        <time>2019-09-14T12:06:40Z</time>
      </trkpt>
      <trkpt lat="43.94906" lon="5.26577">
        <ele>317.5</ele>
        <time>2019-09-14T12:06:46Z</time>
      </trkpt>
      <trkpt lat="43.94898" lon="5.26596">
        <ele>317.5</ele>
        <time>2019-09-14T12:06:56Z</time>
      </trkpt>
      <trkpt lat="43.94948" lon="5.26602">
        <ele>318.5</ele>
        <time>2019-09-14T12:07:23Z</time>
      </trkpt>
      <trkpt lat="43.94957" lon="5.26585">
        <ele>319.5</ele>
        <time>2019-09-14T12:07:29Z</time>
      </trkpt>
      <trkpt lat="43.94931" lon="5.26581">
        <ele>323.5</ele>
        <time>2019-09-14T12:07:35Z</time>
      </trkpt>
      <trkpt lat="43.94935" lon="5.26588">
        <ele>325.5</ele>
        <time>2019-09-14T12:07:40Z</time>
      </trkpt>
      <trkpt lat="43.94938" lon="5.26586">
        <ele>328.5</ele>
        <time>2019-09-14T12:07:46Z</time>
      </trkpt>
      <trkpt lat="43.94949" lon="5.26582">
        <ele>328.5</ele>
        <time>2019-09-14T12:07:51Z</time>
      </trkpt>
      <trkpt lat="43.94958" lon="5.26587">
        <ele>327.5</ele>
        <time>2019-09-14T12:07:57Z</time>
      </trkpt>
      <trkpt lat="43.94954" lon="5.26567">
        <ele>327.5</ele>
        <time>2019-09-14T12:08:02Z</time>
      </trkpt>
      <trkpt lat="43.94955" lon="5.26576">
        <ele>328.5</ele>
        <time>2019-09-14T12:08:08Z</time>
      </trkpt>
      <trkpt lat="43.94952" lon="5.26591">
        <ele>331.5</ele>
        <time>2019-09-14T12:08:18Z</time>
      </trkpt>
      <trkpt lat="43.94926" lon="5.2658">
        <ele>338.5</ele>
        <time>2019-09-14T12:08:33Z</time>
      </trkpt>
      <trkpt lat="43.94929" lon="5.26579">
        <ele>340.5</ele>
        <time>2019-09-14T12:08:39Z</time>
      </trkpt>
      <trkpt lat="43.94943" lon="5.26591">
        <ele>341.5</ele>
        <time>2019-09-14T12:08:45Z</time>
      </trkpt>
      <trkpt lat="43.94951" lon="5.26598">
        <ele>343.5</ele>
        <time>2019-09-14T12:08:51Z</time>
      </trkpt>
      <trkpt lat="43.94969" lon="5.2658">
        <ele>341.5</ele>
        <time>2019-09-14T12:08:56Z</time>
      </trkpt>
      <trkpt lat="43.94969" lon="5.26573">
        <ele>342.5</ele>
        <time>2019-09-14T12:09:01Z</time>
      </trkpt>
      <trkpt lat="43.94983" lon="5.26565">
        <ele>343.5</ele>
        <time>2019-09-14T12:09:06Z</time>
      </trkpt>
      <trkpt lat="43.95003" lon="5.26577">
        <ele>344.5</ele>
        <time>2019-09-14T12:09:11Z</time>
      </trkpt>
      <trkpt lat="43.95002" lon="5.26572">
        <ele>342.5</ele>
        <time>2019-09-14T12:09:17Z</time>
      </trkpt>
      <trkpt lat="43.95001" lon="5.26575">
        <ele>345.5</ele>
        <time>2019-09-14T12:09:23Z</time>
      </trkpt>
      <trkpt lat="43.95003" lon="5.26576">
        <ele>350.5</ele>
        <time>2019-09-14T12:09:29Z</time>
      </trkpt>
      <trkpt lat="43.95" lon="5.26576">
        <ele>347.5</ele>
        <time>2019-09-14T12:09:35Z</time>
      </trkpt>
      <trkpt lat="43.95004" lon="5.2658">
        <ele>350.5</ele>
        <time>2019-09-14T12:09:41Z</time>
      </trkpt>
      <trkpt lat="43.95002" lon="5.26592">
        <ele>350.5</ele>
        <time>2019-09-14T12:09:46Z</time>
      </trkpt>
      <trkpt lat="43.95003" lon="5.26597">
        <ele>353.5</ele>
        <time>2019-09-14T12:09:52Z</time>
      </trkpt>
      <trkpt lat="43.9501" lon="5.26592">
        <ele>352.5</ele>
        <time>2019-09-14T12:09:58Z</time>
      </trkpt>
      <trkpt lat="43.9501" lon="5.26612">
        <ele>359.5</ele>
        <time>2019-09-14T12:10:03Z</time>
      </trkpt>
      <trkpt lat="43.95003" lon="5.26621">
        <ele>363.5</ele>
        <time>2019-09-14T12:10:09Z</time>
      </trkpt>
      <trkpt lat="43.95008" lon="5.26627">
        <ele>366.5</ele>
        <time>2019-09-14T12:10:15Z</time>
      </trkpt>
      <trkpt lat="43.95017" lon="5.26613">
        <ele>373.5</ele>
        <time>2019-09-14T12:10:21Z</time>
      </trkpt>
      <trkpt lat="43.95029" lon="5.2661">
        <ele>377.5</ele>
        <time>2019-09-14T12:10:26Z</time>
      </trkpt>
      <trkpt lat="43.95035" lon="5.2661">
        <ele>376.5</ele>
        <time>2019-09-14T12:10:32Z</time>
      </trkpt>
      <trkpt lat="43.95043" lon="5.26609">
        <ele>378.5</ele>
        <time>2019-09-14T12:10:37Z</time>
      </trkpt>
      <trkpt lat="43.95045" lon="5.26601">
        <ele>375.5</ele>
        <time>2019-09-14T12:10:43Z</time>
      </trkpt>
      <trkpt lat="43.95047" lon="5.26603">
        <ele>373.5</ele>
        <time>2019-09-14T12:10:49Z</time>
      </trkpt>
      <trkpt lat="43.95056" lon="5.26596">
        <ele>370.5</ele>
        <time>2019-09-14T12:10:54Z</time>
      </trkpt>
      <trkpt lat="43.95055" lon="5.26592">
        <ele>376.5</ele>
        <time>2019-09-14T12:10:59Z</time>
      </trkpt>
      <trkpt lat="43.95057" lon="5.26598">
        <ele>379.5</ele>
        <time>2019-09-14T12:11:05Z</time>
      </trkpt>
      <trkpt lat="43.95064" lon="5.26598">
        <ele>381.5</ele>
        <time>2019-09-14T12:11:15Z</time>
      </trkpt>
      <trkpt lat="43.95072" lon="5.26602">
        <ele>377.5</ele>
        <time>2019-09-14T12:11:21Z</time>
      </trkpt>
      <trkpt lat="43.95079" lon="5.266">
        <ele>376.5</ele>
        <time>2019-09-14T12:11:27Z</time>
      </trkpt>
      <trkpt lat="43.95075" lon="5.26605">
        <ele>377.5</ele>
        <time>2019-09-14T12:11:33Z</time>
      </trkpt>
      <trkpt lat="43.95079" lon="5.26606">
        <ele>378.5</ele>
        <time>2019-09-14T12:11:39Z</time>
      </trkpt>
      <trkpt lat="43.95075" lon="5.2661">
        <ele>380.5</ele>
        <time>2019-09-14T12:11:44Z</time>
      </trkpt>
      <trkpt lat="43.95083" lon="5.26604">
        <ele>381.5</ele>
        <time>2019-09-14T12:11:50Z</time>
      </trkpt>
      <trkpt lat="43.95084" lon="5.266">
        <ele>379.5</ele>
        <time>2019-09-14T12:11:55Z</time>
      </trkpt>
      <trkpt lat="43.95088" lon="5.26603">
        <ele>379.5</ele>
        <time>2019-09-14T12:12:00Z</time>
      </trkpt>
      <trkpt lat="43.951" lon="5.26601">
        <ele>379.5</ele>
        <time>2019-09-14T12:12:06Z</time>
      </trkpt>
      <trkpt lat="43.95103" lon="5.26602">
        <ele>380.5</ele>
        <time>2019-09-14T12:12:12Z</time>
      </trkpt>
      <trkpt lat="43.95109" lon="5.26604">
        <ele>378.5</ele>
        <time>2019-09-14T12:12:17Z</time>
      </trkpt>
      <trkpt lat="43.95107" lon="5.26599">
        <ele>386.5</ele>
        <time>2019-09-14T12:12:23Z</time>
      </trkpt>
      <trkpt lat="43.95114" lon="5.26592">
        <ele>389.5</ele>
        <time>2019-09-14T12:12:28Z</time>
      </trkpt>
      <trkpt lat="43.95124" lon="5.26595">
        <ele>394.5</ele>
        <time>2019-09-14T12:12:34Z</time>
      </trkpt>
      <trkpt lat="43.95135" lon="5.2659">
        <ele>393.5</ele>
        <time>2019-09-14T12:12:39Z</time>
      </trkpt>
      <trkpt lat="43.9513" lon="5.26583">
        <ele>392.5</ele>
        <time>2019-09-14T12:12:45Z</time>
      </trkpt>
      <trkpt lat="43.95136" lon="5.26584">
        <ele>392.5</ele>
        <time>2019-09-14T12:12:50Z</time>
      </trkpt>
      <trkpt lat="43.95173" lon="5.26566">
        <ele>392.5</ele>
        <time>2019-09-14T12:12:56Z</time>
      </trkpt>
      <trkpt lat="43.95159" lon="5.2657">
        <ele>394.5</ele>
        <time>2019-09-14T12:13:02Z</time>
      </trkpt>
      <trkpt lat="43.95176" lon="5.26577">
        <ele>393.5</ele>
        <time>2019-09-14T12:13:07Z</time>
      </trkpt>
      <trkpt lat="43.95175" lon="5.26571">
        <ele>393.5</ele>
        <time>2019-09-14T12:13:13Z</time>
      </trkpt>
      <trkpt lat="43.95174" lon="5.26571">
        <ele>394.5</ele>
        <time>2019-09-14T12:13:19Z</time>
      </trkpt>
      <trkpt lat="43.95173" lon="5.26572">
        <ele>393.5</ele>
        <time>2019-09-14T12:13:24Z</time>
      </trkpt>
      <trkpt lat="43.95182" lon="5.26553">
        <ele>395.5</ele>
        <time>2019-09-14T12:13:29Z</time>
      </trkpt>
      <trkpt lat="43.95179" lon="5.26542">
        <ele>396.5</ele>
        <time>2019-09-14T12:13:35Z</time>
      </trkpt>
      <trkpt lat="43.95192" lon="5.26555">
        <ele>396.5</ele>
        <time>2019-09-14T12:13:41Z</time>
      </trkpt>
      <trkpt lat="43.95186" lon="5.26568">
        <ele>400.5</ele>
        <time>2019-09-14T12:13:47Z</time>
      </trkpt>
      <trkpt lat="43.95189" lon="5.26555">
        <ele>405.5</ele>
        <time>2019-09-14T12:13:52Z</time>
      </trkpt>
      <trkpt lat="43.9521" lon="5.26555">
        <ele>407.5</ele>
        <time>2019-09-14T12:13:58Z</time>
      </trkpt>
      <trkpt lat="43.95218" lon="5.26552">
        <ele>408.5</ele>
        <time>2019-09-14T12:14:04Z</time>
      </trkpt>
      <trkpt lat="43.95217" lon="5.26553">
        <ele>408.5</ele>
        <time>2019-09-14T12:14:09Z</time>
      </trkpt>
      <trkpt lat="43.95248" lon="5.26554">
        <ele>412.5</ele>
        <time>2019-09-14T12:14:30Z</time>
      </trkpt>
      <trkpt lat="43.95197" lon="5.26568">
        <ele>411.5</ele>
        <time>2019-09-14T12:15:16Z</time>
      </trkpt>
      <trkpt lat="43.95199" lon="5.26561">
        <ele>412.5</ele>
        <time>2019-09-14T12:15:26Z</time>
      </trkpt>
      <trkpt lat="43.95189" lon="5.2653">
        <ele>409.5</ele>
        <time>2019-09-14T12:15:45Z</time>
      </trkpt>
      <trkpt lat="43.95186" lon="5.26546">
        <ele>421.5</ele>
        <time>2019-09-14T12:15:51Z</time>
      </trkpt>
      <trkpt lat="43.95181" lon="5.26542">
        <ele>434.5</ele>
        <time>2019-09-14T12:15:57Z</time>
      </trkpt>
      <trkpt lat="43.95182" lon="5.26544">
        <ele>432.5</ele>
        <time>2019-09-14T12:16:03Z</time>
      </trkpt>
      <trkpt lat="43.95182" lon="5.26544">
        <ele>431.5</ele>
        <time>2019-09-14T12:16:08Z</time>
      </trkpt>
      <trkpt lat="43.95184" lon="5.26545">
        <ele>426.5</ele>
        <time>2019-09-14T12:16:13Z</time>
      </trkpt>
      <trkpt lat="43.95185" lon="5.26546">
        <ele>424.5</ele>
        <time>2019-09-14T12:16:18Z</time>
      </trkpt>
      <trkpt lat="43.95185" lon="5.26547">
        <ele>425.5</ele>
        <time>2019-09-14T12:16:24Z</time>
      </trkpt>
      <trkpt lat="43.95185" lon="5.26547">
        <ele>425.5</ele>
        <time>2019-09-14T12:16:30Z</time>
      </trkpt>
      <trkpt lat="43.95185" lon="5.26547">
        <ele>425.5</ele>
        <time>2019-09-14T12:16:35Z</time>
      </trkpt>
      <trkpt lat="43.95185" lon="5.26546">
        <ele>424.5</ele>
        <time>2019-09-14T12:16:41Z</time>
      </trkpt>
      <trkpt lat="43.95185" lon="5.26546">
        <ele>424.5</ele>
        <time>2019-09-14T12:16:46Z</time>
      </trkpt>
      <trkpt lat="43.95186" lon="5.26546">
        <ele>422.5</ele>
        <time>2019-09-14T12:16:52Z</time>
      </trkpt>
      <trkpt lat="43.95186" lon="5.26546">
        <ele>423.5</ele>
        <time>2019-09-14T12:16:58Z</time>
      </trkpt>
      <trkpt lat="43.95186" lon="5.26546">
        <ele>423.5</ele>
        <time>2019-09-14T12:17:14Z</time>
      </trkpt>
      <trkpt lat="43.95186" lon="5.26546">
        <ele>423.5</ele>
        <time>2019-09-14T12:17:20Z</time>
      </trkpt>
      <trkpt lat="43.95186" lon="5.26546">
        <ele>422.5</ele>
        <time>2019-09-14T12:17:25Z</time>
      </trkpt>
      <trkpt lat="43.95186" lon="5.26546">
        <ele>422.5</ele>
        <time>2019-09-14T12:17:31Z</time>
      </trkpt>
      <trkpt lat="43.95186" lon="5.26546">
        <ele>422.5</ele>
        <time>2019-09-14T12:17:37Z</time>
      </trkpt>
      <trkpt lat="43.95186" lon="5.26546">
        <ele>422.5</ele>
        <time>2019-09-14T12:17:42Z</time>
      </trkpt>
      <trkpt lat="43.95186" lon="5.26546">
        <ele>422.5</ele>
        <time>2019-09-14T12:17:47Z</time>
      </trkpt>
      <trkpt lat="43.95186" lon="5.26546">
        <ele>422.5</ele>
        <time>2019-09-14T12:17:53Z</time>
      </trkpt>
      <trkpt lat="43.95186" lon="5.26546">
        <ele>422.5</ele>
        <time>2019-09-14T12:17:58Z</time>
      </trkpt>
      <trkpt lat="43.95186" lon="5.26546">
        <ele>422.5</ele>
        <time>2019-09-14T12:18:03Z</time>
      </trkpt>
      <trkpt lat="43.95186" lon="5.26546">
        <ele>422.5</ele>
        <time>2019-09-14T12:18:09Z</time>
      </trkpt>
      <trkpt lat="43.95186" lon="5.26546">
        <ele>422.5</ele>
        <time>2019-09-14T12:18:14Z</time>
      </trkpt>
      <trkpt lat="43.95186" lon="5.26546">
        <ele>422.5</ele>
        <time>2019-09-14T12:18:20Z</time>
      </trkpt>
      <trkpt lat="43.95186" lon="5.26546">
        <ele>422.5</ele>
        <time>2019-09-14T12:18:26Z</time>
      </trkpt>
      <trkpt lat="43.95186" lon="5.26546">
        <ele>422.5</ele>
        <time>2019-09-14T12:18:31Z</time>
      </trkpt>
      <trkpt lat="43.95186" lon="5.26546">
        <ele>422.5</ele>
        <time>2019-09-14T12:18:36Z</time>
      </trkpt>
      <trkpt lat="43.95186" lon="5.26546">
        <ele>422.5</ele>
        <time>2019-09-14T12:18:42Z</time>
      </trkpt>
      <trkpt lat="43.95186" lon="5.26546">
        <ele>422.5</ele>
        <time>2019-09-14T12:18:48Z</time>
      </trkpt>
      <trkpt lat="43.95186" lon="5.26546">
        <ele>422.5</ele>
        <time>2019-09-14T12:18:54Z</time>
      </trkpt>
      <trkpt lat="43.95186" lon="5.26546">
        <ele>422.5</ele>
        <time>2019-09-14T12:18:59Z</time>
      </trkpt>
      <trkpt lat="43.95186" lon="5.26546">
        <ele>422.5</ele>
        <time>2019-09-14T12:19:04Z</time>
      </trkpt>
      <trkpt lat="43.95186" lon="5.26546">
        <ele>423.5</ele>
        <time>2019-09-14T12:19:10Z</time>
      </trkpt>
      <trkpt lat="43.95186" lon="5.26546">
        <ele>423.5</ele>
        <time>2019-09-14T12:19:16Z</time>
      </trkpt>
      <trkpt lat="43.95186" lon="5.26546">
        <ele>423.5</ele>
        <time>2019-09-14T12:19:21Z</time>
      </trkpt>
      <trkpt lat="43.95186" lon="5.26546">
        <ele>423.5</ele>
        <time>2019-09-14T12:19:27Z</time>
      </trkpt>
      <trkpt lat="43.95186" lon="5.26546">
        <ele>422.5</ele>
        <time>2019-09-14T12:19:32Z</time>
      </trkpt>
      <trkpt lat="43.95186" lon="5.26546">
        <ele>422.5</ele>
        <time>2019-09-14T12:19:38Z</time>
      </trkpt>
      <trkpt lat="43.95186" lon="5.26546">
        <ele>422.5</ele>
        <time>2019-09-14T12:19:44Z</time>
      </trkpt>
      <trkpt lat="43.95186" lon="5.26546">
        <ele>422.5</ele>
        <time>2019-09-14T12:19:49Z</time>
      </trkpt>
      <trkpt lat="43.95186" lon="5.26546">
        <ele>422.5</ele>
        <time>2019-09-14T12:19:55Z</time>
      </trkpt>
      <trkpt lat="43.95186" lon="5.26546">
        <ele>422.5</ele>
        <time>2019-09-14T12:20:00Z</time>
      </trkpt>
      <trkpt lat="43.95186" lon="5.26546">
        <ele>422.5</ele>
        <time>2019-09-14T12:20:05Z</time>
      </trkpt>
      <trkpt lat="43.95186" lon="5.26546">
        <ele>422.5</ele>
        <time>2019-09-14T12:20:10Z</time>
      </trkpt>
      <trkpt lat="43.95186" lon="5.26546">
        <ele>422.5</ele>
        <time>2019-09-14T12:20:16Z</time>
      </trkpt>
      <trkpt lat="43.95187" lon="5.26547">
        <ele>421.5</ele>
        <time>2019-09-14T12:20:21Z</time>
      </trkpt>
      <trkpt lat="43.95187" lon="5.26547">
        <ele>421.5</ele>
        <time>2019-09-14T12:20:26Z</time>
      </trkpt>
      <trkpt lat="43.95187" lon="5.26547">
        <ele>421.5</ele>
        <time>2019-09-14T12:20:32Z</time>
      </trkpt>
      <trkpt lat="43.95187" lon="5.26547">
        <ele>421.5</ele>
        <time>2019-09-14T12:20:38Z</time>
      </trkpt>
      <trkpt lat="43.95187" lon="5.26547">
        <ele>421.5</ele>
        <time>2019-09-14T12:20:43Z</time>
      </trkpt>
      <trkpt lat="43.95187" lon="5.26547">
        <ele>421.5</ele>
        <time>2019-09-14T12:20:49Z</time>
      </trkpt>
      <trkpt lat="43.95187" lon="5.26547">
        <ele>420.5</ele>
        <time>2019-09-14T12:20:55Z</time>
      </trkpt>
      <trkpt lat="43.95187" lon="5.26547">
        <ele>420.5</ele>
        <time>2019-09-14T12:21:01Z</time>
      </trkpt>
      <trkpt lat="43.95187" lon="5.26547">
        <ele>420.5</ele>
        <time>2019-09-14T12:21:07Z</time>
      </trkpt>
      <trkpt lat="43.95187" lon="5.26547">
        <ele>420.5</ele>
        <time>2019-09-14T12:21:13Z</time>
      </trkpt>
      <trkpt lat="43.95187" lon="5.26547">
        <ele>419.5</ele>
        <time>2019-09-14T12:21:19Z</time>
      </trkpt>
      <trkpt lat="43.95187" lon="5.26547">
        <ele>419.5</ele>
        <time>2019-09-14T12:21:25Z</time>
      </trkpt>
      <trkpt lat="43.95188" lon="5.26547">
        <ele>419.5</ele>
        <time>2019-09-14T12:21:30Z</time>
      </trkpt>
      <trkpt lat="43.95188" lon="5.26547">
        <ele>419.5</ele>
        <time>2019-09-14T12:21:36Z</time>
      </trkpt>
      <trkpt lat="43.95188" lon="5.26547">
        <ele>419.5</ele>
        <time>2019-09-14T12:21:41Z</time>
      </trkpt>
      <trkpt lat="43.9521" lon="5.26551">
        <ele>421.5</ele>
        <time>2019-09-14T12:21:47Z</time>
      </trkpt>
      <trkpt lat="43.95228" lon="5.26557">
        <ele>422.5</ele>
        <time>2019-09-14T12:21:53Z</time>
      </trkpt>
      <trkpt lat="43.95232" lon="5.2657">
        <ele>424.5</ele>
        <time>2019-09-14T12:21:59Z</time>
      </trkpt>
      <trkpt lat="43.95247" lon="5.26573">
        <ele>422.5</ele>
        <time>2019-09-14T12:22:04Z</time>
      </trkpt>
      <trkpt lat="43.95246" lon="5.26571">
        <ele>423.5</ele>
        <time>2019-09-14T12:22:10Z</time>
      </trkpt>
      <trkpt lat="43.95244" lon="5.26573">
        <ele>426.5</ele>
        <time>2019-09-14T12:22:15Z</time>
      </trkpt>
      <trkpt lat="43.9524" lon="5.2658">
        <ele>426.5</ele>
        <time>2019-09-14T12:22:21Z</time>
      </trkpt>
      <trkpt lat="43.95235" lon="5.26587">
        <ele>430.5</ele>
        <time>2019-09-14T12:22:27Z</time>
      </trkpt>
      <trkpt lat="43.95246" lon="5.26581">
        <ele>425.5</ele>
        <time>2019-09-14T12:22:32Z</time>
      </trkpt>
      <trkpt lat="43.95244" lon="5.26583">
        <ele>426.5</ele>
        <time>2019-09-14T12:22:38Z</time>
      </trkpt>
      <trkpt lat="43.95257" lon="5.26578">
        <ele>427.5</ele>
        <time>2019-09-14T12:22:43Z</time>
      </trkpt>
      <trkpt lat="43.95261" lon="5.26578">
        <ele>431.5</ele>
        <time>2019-09-14T12:22:48Z</time>
      </trkpt>
      <trkpt lat="43.95277" lon="5.26575">
        <ele>430.5</ele>
        <time>2019-09-14T12:22:54Z</time>
      </trkpt>
      <trkpt lat="43.95277" lon="5.26575">
        <ele>431.5</ele>
        <time>2019-09-14T12:23:00Z</time>
      </trkpt>
      <trkpt lat="43.95273" lon="5.2658">
        <ele>433.5</ele>
        <time>2019-09-14T12:23:06Z</time>
      </trkpt>
      <trkpt lat="43.9527" lon="5.2658">
        <ele>433.5</ele>
        <time>2019-09-14T12:23:12Z</time>
      </trkpt>
      <trkpt lat="43.95271" lon="5.2658">
        <ele>433.5</ele>
        <time>2019-09-14T12:23:17Z</time>
      </trkpt>
      <trkpt lat="43.95271" lon="5.26579">
        <ele>433.5</ele>
        <time>2019-09-14T12:23:22Z</time>
      </trkpt>
      <trkpt lat="43.95272" lon="5.26579">
        <ele>433.5</ele>
        <time>2019-09-14T12:23:28Z</time>
      </trkpt>
      <trkpt lat="43.95272" lon="5.26579">
        <ele>433.5</ele>
        <time>2019-09-14T12:23:34Z</time>
      </trkpt>
      <trkpt lat="43.95272" lon="5.26579">
        <ele>433.5</ele>
        <time>2019-09-14T12:23:40Z</time>
      </trkpt>
      <trkpt lat="43.95272" lon="5.26579">
        <ele>433.5</ele>
        <time>2019-09-14T12:23:45Z</time>
      </trkpt>
      <trkpt lat="43.95271" lon="5.26579">
        <ele>433.5</ele>
        <time>2019-09-14T12:23:50Z</time>
      </trkpt>
      <trkpt lat="43.95271" lon="5.26579">
        <ele>433.5</ele>
        <time>2019-09-14T12:23:56Z</time>
      </trkpt>
      <trkpt lat="43.95285" lon="5.2658">
        <ele>436.5</ele>
        <time>2019-09-14T12:24:01Z</time>
      </trkpt>
      <trkpt lat="43.95292" lon="5.2658">
        <ele>435.5</ele>
        <time>2019-09-14T12:24:07Z</time>
      </trkpt>
      <trkpt lat="43.95313" lon="5.26579">
        <ele>432.5</ele>
        <time>2019-09-14T12:24:13Z</time>
      </trkpt>
      <trkpt lat="43.95311" lon="5.26589">
        <ele>428.5</ele>
        <time>2019-09-14T12:24:18Z</time>
      </trkpt>
      <trkpt lat="43.95343" lon="5.26577">
        <ele>420.5</ele>
        <time>2019-09-14T12:24:24Z</time>
      </trkpt>
      <trkpt lat="43.95361" lon="5.26565">
        <ele>416.5</ele>
        <time>2019-09-14T12:24:29Z</time>
      </trkpt>
      <trkpt lat="43.95368" lon="5.26563">
        <ele>417.5</ele>
        <time>2019-09-14T12:24:35Z</time>
      </trkpt>
      <trkpt lat="43.95368" lon="5.26559">
        <ele>418.5</ele>
        <time>2019-09-14T12:24:40Z</time>
      </trkpt>
      <trkpt lat="43.9537" lon="5.26549">
        <ele>416.5</ele>
        <time>2019-09-14T12:24:46Z</time>
      </trkpt>
      <trkpt lat="43.95386" lon="5.26587">
        <ele>406.5</ele>
        <time>2019-09-14T12:25:14Z</time>
      </trkpt>
      <trkpt lat="43.95394" lon="5.26591">
        <ele>401.5</ele>
        <time>2019-09-14T12:25:20Z</time>
      </trkpt>
      <trkpt lat="43.95407" lon="5.26586">
        <ele>396.5</ele>
        <time>2019-09-14T12:25:25Z</time>
      </trkpt>
      <trkpt lat="43.95398" lon="5.26596">
        <ele>392.5</ele>
        <time>2019-09-14T12:25:31Z</time>
      </trkpt>
      <trkpt lat="43.95404" lon="5.26599">
        <ele>394.5</ele>
        <time>2019-09-14T12:25:36Z</time>
      </trkpt>
      <trkpt lat="43.95409" lon="5.26602">
        <ele>399.5</ele>
        <time>2019-09-14T12:25:42Z</time>
      </trkpt>
      <trkpt lat="43.95411" lon="5.26612">
        <ele>392.5</ele>
        <time>2019-09-14T12:25:48Z</time>
      </trkpt>
      <trkpt lat="43.95429" lon="5.26615">
        <ele>387.5</ele>
        <time>2019-09-14T12:25:54Z</time>
      </trkpt>
      <trkpt lat="43.9543" lon="5.26621">
        <ele>382.5</ele>
        <time>2019-09-14T12:25:59Z</time>
      </trkpt>
      <trkpt lat="43.95435" lon="5.26623">
        <ele>388.5</ele>
        <time>2019-09-14T12:26:05Z</time>
      </trkpt>
      <trkpt lat="43.95433" lon="5.2663">
        <ele>389.5</ele>
        <time>2019-09-14T12:26:10Z</time>
      </trkpt>
      <trkpt lat="43.95434" lon="5.26633">
        <ele>390.5</ele>
        <time>2019-09-14T12:26:16Z</time>
      </trkpt>
      <trkpt lat="43.9543" lon="5.26635">
        <ele>395.5</ele>
        <time>2019-09-14T12:26:22Z</time>
      </trkpt>
      <trkpt lat="43.95435" lon="5.26634">
        <ele>396.5</ele>
        <time>2019-09-14T12:26:27Z</time>
      </trkpt>
      <trkpt lat="43.95435" lon="5.26634">
        <ele>397.5</ele>
        <time>2019-09-14T12:26:33Z</time>
      </trkpt>
      <trkpt lat="43.95436" lon="5.26634">
        <ele>397.5</ele>
        <time>2019-09-14T12:26:38Z</time>
      </trkpt>
      <trkpt lat="43.95436" lon="5.26634">
        <ele>396.5</ele>
        <time>2019-09-14T12:26:44Z</time>
      </trkpt>
      <trkpt lat="43.95435" lon="5.26634">
        <ele>396.5</ele>
        <time>2019-09-14T12:26:49Z</time>
      </trkpt>
      <trkpt lat="43.95435" lon="5.26634">
        <ele>397.5</ele>
        <time>2019-09-14T12:26:54Z</time>
      </trkpt>
      <trkpt lat="43.95437" lon="5.26635">
        <ele>395.5</ele>
        <time>2019-09-14T12:27:00Z</time>
      </trkpt>
      <trkpt lat="43.95437" lon="5.26635">
        <ele>395.5</ele>
        <time>2019-09-14T12:27:06Z</time>
      </trkpt>
      <trkpt lat="43.95437" lon="5.26635">
        <ele>395.5</ele>
        <time>2019-09-14T12:27:12Z</time>
      </trkpt>
      <trkpt lat="43.95447" lon="5.26637">
        <ele>393.5</ele>
        <time>2019-09-14T12:27:18Z</time>
      </trkpt>
      <trkpt lat="43.9544" lon="5.26649">
        <ele>399.5</ele>
        <time>2019-09-14T12:27:23Z</time>
      </trkpt>
      <trkpt lat="43.95448" lon="5.26646">
        <ele>397.5</ele>
        <time>2019-09-14T12:27:29Z</time>
      </trkpt>
      <trkpt lat="43.95454" lon="5.26646">
        <ele>395.5</ele>
        <time>2019-09-14T12:27:34Z</time>
      </trkpt>
      <trkpt lat="43.95454" lon="5.26646">
        <ele>395.5</ele>
        <time>2019-09-14T12:27:39Z</time>
      </trkpt>
      <trkpt lat="43.95454" lon="5.26646">
        <ele>395.5</ele>
        <time>2019-09-14T12:27:44Z</time>
      </trkpt>
      <trkpt lat="43.95454" lon="5.26646">
        <ele>395.5</ele>
        <time>2019-09-14T12:27:49Z</time>
      </trkpt>
      <trkpt lat="43.95454" lon="5.26645">
        <ele>395.5</ele>
        <time>2019-09-14T12:27:55Z</time>
      </trkpt>
      <trkpt lat="43.95454" lon="5.26645">
        <ele>395.5</ele>
        <time>2019-09-14T12:28:00Z</time>
      </trkpt>
      <trkpt lat="43.95454" lon="5.26646">
        <ele>395.5</ele>
        <time>2019-09-14T12:28:06Z</time>
      </trkpt>
      <trkpt lat="43.95454" lon="5.26646">
        <ele>395.5</ele>
        <time>2019-09-14T12:28:11Z</time>
      </trkpt>
      <trkpt lat="43.95454" lon="5.26646">
        <ele>395.5</ele>
        <time>2019-09-14T12:28:16Z</time>
      </trkpt>
      <trkpt lat="43.95454" lon="5.26646">
        <ele>395.5</ele>
        <time>2019-09-14T12:28:22Z</time>
      </trkpt>
      <trkpt lat="43.95454" lon="5.26646">
        <ele>395.5</ele>
        <time>2019-09-14T12:28:28Z</time>
      </trkpt>
      <trkpt lat="43.95454" lon="5.26646">
        <ele>395.5</ele>
        <time>2019-09-14T12:28:34Z</time>
      </trkpt>
      <trkpt lat="43.95454" lon="5.26646">
        <ele>395.5</ele>
        <time>2019-09-14T12:28:41Z</time>
      </trkpt>
      <trkpt lat="43.95454" lon="5.26646">
        <ele>395.5</ele>
        <time>2019-09-14T12:28:46Z</time>
      </trkpt>
      <trkpt lat="43.95454" lon="5.26646">
        <ele>395.5</ele>
        <time>2019-09-14T12:28:51Z</time>
      </trkpt>
      <trkpt lat="43.95454" lon="5.26646">
        <ele>395.5</ele>
        <time>2019-09-14T12:28:57Z</time>
      </trkpt>
      <trkpt lat="43.95454" lon="5.26646">
        <ele>395.5</ele>
        <time>2019-09-14T12:29:02Z</time>
      </trkpt>
      <trkpt lat="43.95454" lon="5.26646">
        <ele>394.5</ele>
        <time>2019-09-14T12:29:08Z</time>
      </trkpt>
      <trkpt lat="43.95453" lon="5.26646">
        <ele>394.5</ele>
        <time>2019-09-14T12:29:13Z</time>
      </trkpt>
      <trkpt lat="43.95453" lon="5.26646">
        <ele>394.5</ele>
        <time>2019-09-14T12:29:19Z</time>
      </trkpt>
      <trkpt lat="43.95453" lon="5.26646">
        <ele>394.5</ele>
        <time>2019-09-14T12:29:25Z</time>
      </trkpt>
      <trkpt lat="43.95453" lon="5.26646">
        <ele>394.5</ele>
        <time>2019-09-14T12:29:31Z</time>
      </trkpt>
      <trkpt lat="43.95453" lon="5.26646">
        <ele>394.5</ele>
        <time>2019-09-14T12:29:37Z</time>
      </trkpt>
      <trkpt lat="43.95453" lon="5.26646">
        <ele>394.5</ele>
        <time>2019-09-14T12:29:42Z</time>
      </trkpt>
      <trkpt lat="43.95453" lon="5.26646">
        <ele>394.5</ele>
        <time>2019-09-14T12:29:47Z</time>
      </trkpt>
      <trkpt lat="43.95453" lon="5.26645">
        <ele>394.5</ele>
        <time>2019-09-14T12:29:53Z</time>
      </trkpt>
      <trkpt lat="43.95453" lon="5.26645">
        <ele>394.5</ele>
        <time>2019-09-14T12:30:00Z</time>
      </trkpt>
      <trkpt lat="43.95453" lon="5.26645">
        <ele>394.5</ele>
        <time>2019-09-14T12:30:05Z</time>
      </trkpt>
      <trkpt lat="43.95453" lon="5.26645">
        <ele>394.5</ele>
        <time>2019-09-14T12:30:11Z</time>
      </trkpt>
      <trkpt lat="43.95453" lon="5.26645">
        <ele>394.5</ele>
        <time>2019-09-14T12:30:16Z</time>
      </trkpt>
      <trkpt lat="43.95453" lon="5.26645">
        <ele>394.5</ele>
        <time>2019-09-14T12:30:22Z</time>
      </trkpt>
      <trkpt lat="43.95453" lon="5.26645">
        <ele>394.5</ele>
        <time>2019-09-14T12:30:28Z</time>
      </trkpt>
      <trkpt lat="43.95453" lon="5.26645">
        <ele>394.5</ele>
        <time>2019-09-14T12:30:33Z</time>
      </trkpt>
      <trkpt lat="43.95453" lon="5.26645">
        <ele>394.5</ele>
        <time>2019-09-14T12:30:39Z</time>
      </trkpt>
      <trkpt lat="43.95453" lon="5.26645">
        <ele>394.5</ele>
        <time>2019-09-14T12:30:45Z</time>
      </trkpt>
      <trkpt lat="43.95453" lon="5.26645">
        <ele>394.5</ele>
        <time>2019-09-14T12:30:50Z</time>
      </trkpt>
      <trkpt lat="43.95453" lon="5.26645">
        <ele>394.5</ele>
        <time>2019-09-14T12:30:56Z</time>
      </trkpt>
      <trkpt lat="43.95453" lon="5.26645">
        <ele>394.5</ele>
        <time>2019-09-14T12:31:01Z</time>
      </trkpt>
      <trkpt lat="43.95453" lon="5.26645">
        <ele>394.5</ele>
        <time>2019-09-14T12:31:06Z</time>
      </trkpt>
      <trkpt lat="43.95453" lon="5.26645">
        <ele>394.5</ele>
        <time>2019-09-14T12:31:11Z</time>
      </trkpt>
      <trkpt lat="43.95453" lon="5.26645">
        <ele>394.5</ele>
        <time>2019-09-14T12:31:16Z</time>
      </trkpt>
      <trkpt lat="43.95453" lon="5.26645">
        <ele>394.5</ele>
        <time>2019-09-14T12:31:22Z</time>
      </trkpt>
      <trkpt lat="43.95453" lon="5.26645">
        <ele>394.5</ele>
        <time>2019-09-14T12:31:28Z</time>
      </trkpt>
      <trkpt lat="43.95453" lon="5.26645">
        <ele>394.5</ele>
        <time>2019-09-14T12:31:34Z</time>
      </trkpt>
      <trkpt lat="43.95453" lon="5.26645">
        <ele>394.5</ele>
        <time>2019-09-14T12:31:40Z</time>
      </trkpt>
      <trkpt lat="43.95453" lon="5.26645">
        <ele>394.5</ele>
        <time>2019-09-14T12:31:46Z</time>
      </trkpt>
      <trkpt lat="43.95453" lon="5.26645">
        <ele>394.5</ele>
        <time>2019-09-14T12:31:52Z</time>
      </trkpt>
      <trkpt lat="43.95453" lon="5.26645">
        <ele>394.5</ele>
        <time>2019-09-14T12:31:57Z</time>
      </trkpt>
      <trkpt lat="43.95453" lon="5.26645">
        <ele>394.5</ele>
        <time>2019-09-14T12:32:02Z</time>
      </trkpt>
      <trkpt lat="43.95453" lon="5.26645">
        <ele>394.5</ele>
        <time>2019-09-14T12:32:08Z</time>
      </trkpt>
      <trkpt lat="43.95453" lon="5.26645">
        <ele>394.5</ele>
        <time>2019-09-14T12:32:13Z</time>
      </trkpt>
      <trkpt lat="43.95453" lon="5.26645">
        <ele>394.5</ele>
        <time>2019-09-14T12:32:19Z</time>
      </trkpt>
      <trkpt lat="43.95453" lon="5.26645">
        <ele>394.5</ele>
        <time>2019-09-14T12:32:25Z</time>
      </trkpt>
      <trkpt lat="43.95453" lon="5.26645">
        <ele>394.5</ele>
        <time>2019-09-14T12:32:30Z</time>
      </trkpt>
      <trkpt lat="43.95453" lon="5.26645">
        <ele>394.5</ele>
        <time>2019-09-14T12:32:36Z</time>
      </trkpt>
      <trkpt lat="43.95453" lon="5.26645">
        <ele>394.5</ele>
        <time>2019-09-14T12:32:43Z</time>
      </trkpt>
      <trkpt lat="43.95459" lon="5.26647">
        <ele>396.5</ele>
        <time>2019-09-14T12:32:48Z</time>
      </trkpt>
      <trkpt lat="43.95476" lon="5.26648">
        <ele>396.5</ele>
        <time>2019-09-14T12:32:53Z</time>
      </trkpt>
      <trkpt lat="43.95494" lon="5.26653">
        <ele>398.5</ele>
        <time>2019-09-14T12:32:59Z</time>
      </trkpt>
      <trkpt lat="43.95509" lon="5.26656">
        <ele>403.5</ele>
        <time>2019-09-14T12:33:04Z</time>
      </trkpt>
      <trkpt lat="43.95514" lon="5.26661">
        <ele>402.5</ele>
        <time>2019-09-14T12:33:10Z</time>
      </trkpt>
      <trkpt lat="43.95528" lon="5.26666">
        <ele>404.5</ele>
        <time>2019-09-14T12:33:16Z</time>
      </trkpt>
      <trkpt lat="43.95538" lon="5.26678">
        <ele>405.5</ele>
        <time>2019-09-14T12:33:22Z</time>
      </trkpt>
      <trkpt lat="43.9554" lon="5.26676">
        <ele>403.5</ele>
        <time>2019-09-14T12:33:28Z</time>
      </trkpt>
      <trkpt lat="43.9555" lon="5.26684">
        <ele>403.5</ele>
        <time>2019-09-14T12:33:34Z</time>
      </trkpt>
      <trkpt lat="43.95544" lon="5.26694">
        <ele>408.5</ele>
        <time>2019-09-14T12:33:40Z</time>
      </trkpt>
      <trkpt lat="43.95559" lon="5.26689">
        <ele>406.5</ele>
        <time>2019-09-14T12:33:46Z</time>
      </trkpt>
      <trkpt lat="43.9556" lon="5.26691">
        <ele>406.5</ele>
        <time>2019-09-14T12:33:51Z</time>
      </trkpt>
      <trkpt lat="43.95561" lon="5.26693">
        <ele>407.5</ele>
        <time>2019-09-14T12:33:57Z</time>
      </trkpt>
      <trkpt lat="43.9556" lon="5.26693">
        <ele>407.5</ele>
        <time>2019-09-14T12:34:10Z</time>
      </trkpt>
      <trkpt lat="43.95561" lon="5.26693">
        <ele>407.5</ele>
        <time>2019-09-14T12:34:16Z</time>
      </trkpt>
      <trkpt lat="43.95561" lon="5.26693">
        <ele>407.5</ele>
        <time>2019-09-14T12:34:22Z</time>
      </trkpt>
      <trkpt lat="43.95561" lon="5.26694">
        <ele>407.5</ele>
        <time>2019-09-14T12:34:28Z</time>
      </trkpt>
      <trkpt lat="43.95561" lon="5.26694">
        <ele>407.5</ele>
        <time>2019-09-14T12:34:34Z</time>
      </trkpt>
      <trkpt lat="43.95561" lon="5.26694">
        <ele>407.5</ele>
        <time>2019-09-14T12:34:39Z</time>
      </trkpt>
      <trkpt lat="43.95561" lon="5.26694">
        <ele>407.5</ele>
        <time>2019-09-14T12:34:45Z</time>
      </trkpt>
      <trkpt lat="43.95561" lon="5.26694">
        <ele>407.5</ele>
        <time>2019-09-14T12:34:50Z</time>
      </trkpt>
      <trkpt lat="43.95561" lon="5.26694">
        <ele>407.5</ele>
        <time>2019-09-14T12:34:57Z</time>
      </trkpt>
      <trkpt lat="43.95561" lon="5.26694">
        <ele>407.5</ele>
        <time>2019-09-14T12:35:02Z</time>
      </trkpt>
      <trkpt lat="43.95561" lon="5.26694">
        <ele>407.5</ele>
        <time>2019-09-14T12:35:08Z</time>
      </trkpt>
      <trkpt lat="43.95561" lon="5.26694">
        <ele>407.5</ele>
        <time>2019-09-14T12:35:14Z</time>
      </trkpt>
      <trkpt lat="43.95561" lon="5.26694">
        <ele>407.5</ele>
        <time>2019-09-14T12:35:20Z</time>
      </trkpt>
      <trkpt lat="43.95561" lon="5.26694">
        <ele>407.5</ele>
        <time>2019-09-14T12:35:26Z</time>
      </trkpt>
      <trkpt lat="43.95561" lon="5.26694">
        <ele>407.5</ele>
        <time>2019-09-14T12:35:32Z</time>
      </trkpt>
      <trkpt lat="43.95561" lon="5.26694">
        <ele>407.5</ele>
        <time>2019-09-14T12:35:37Z</time>
      </trkpt>
      <trkpt lat="43.95561" lon="5.26694">
        <ele>407.5</ele>
        <time>2019-09-14T12:35:42Z</time>
      </trkpt>
      <trkpt lat="43.95561" lon="5.26694">
        <ele>407.5</ele>
        <time>2019-09-14T12:35:47Z</time>
      </trkpt>
      <trkpt lat="43.95561" lon="5.26694">
        <ele>407.5</ele>
        <time>2019-09-14T12:35:52Z</time>
      </trkpt>
      <trkpt lat="43.9557" lon="5.2669">
        <ele>411.5</ele>
        <time>2019-09-14T12:35:58Z</time>
      </trkpt>
      <trkpt lat="43.95594" lon="5.26678">
        <ele>412.5</ele>
        <time>2019-09-14T12:36:04Z</time>
      </trkpt>
      <trkpt lat="43.95605" lon="5.26674">
        <ele>414.5</ele>
        <time>2019-09-14T12:36:09Z</time>
      </trkpt>
      <trkpt lat="43.95614" lon="5.26675">
        <ele>420.5</ele>
        <time>2019-09-14T12:36:14Z</time>
      </trkpt>
      <trkpt lat="43.95627" lon="5.26676">
        <ele>422.5</ele>
        <time>2019-09-14T12:36:20Z</time>
      </trkpt>
      <trkpt lat="43.95628" lon="5.26675">
        <ele>424.5</ele>
        <time>2019-09-14T12:36:26Z</time>
      </trkpt>
      <trkpt lat="43.95632" lon="5.26668">
        <ele>425.5</ele>
        <time>2019-09-14T12:36:32Z</time>
      </trkpt>
      <trkpt lat="43.95645" lon="5.26658">
        <ele>427.5</ele>
        <time>2019-09-14T12:36:38Z</time>
      </trkpt>
      <trkpt lat="43.95651" lon="5.26661">
        <ele>421.5</ele>
        <time>2019-09-14T12:36:43Z</time>
      </trkpt>
      <trkpt lat="43.95666" lon="5.26661">
        <ele>428.5</ele>
        <time>2019-09-14T12:36:49Z</time>
      </trkpt>
      <trkpt lat="43.95676" lon="5.26656">
        <ele>428.5</ele>
        <time>2019-09-14T12:36:54Z</time>
      </trkpt>
      <trkpt lat="43.95682" lon="5.26659">
        <ele>429.5</ele>
        <time>2019-09-14T12:36:59Z</time>
      </trkpt>
      <trkpt lat="43.95693" lon="5.26667">
        <ele>433.5</ele>
        <time>2019-09-14T12:37:05Z</time>
      </trkpt>
      <trkpt lat="43.957" lon="5.26659">
        <ele>436.5</ele>
        <time>2019-09-14T12:37:10Z</time>
      </trkpt>
      <trkpt lat="43.957" lon="5.26648">
        <ele>434.5</ele>
        <time>2019-09-14T12:37:15Z</time>
      </trkpt>
      <trkpt lat="43.9571" lon="5.26652">
        <ele>432.5</ele>
        <time>2019-09-14T12:37:20Z</time>
      </trkpt>
      <trkpt lat="43.95715" lon="5.26658">
        <ele>427.5</ele>
        <time>2019-09-14T12:37:25Z</time>
      </trkpt>
      <trkpt lat="43.95701" lon="5.26654">
        <ele>424.5</ele>
        <time>2019-09-14T12:37:31Z</time>
      </trkpt>
      <trkpt lat="43.95699" lon="5.26664">
        <ele>431.5</ele>
        <time>2019-09-14T12:37:36Z</time>
      </trkpt>
      <trkpt lat="43.95693" lon="5.26675">
        <ele>431.5</ele>
        <time>2019-09-14T12:37:42Z</time>
      </trkpt>
      <trkpt lat="43.95695" lon="5.26677">
        <ele>433.5</ele>
        <time>2019-09-14T12:37:48Z</time>
      </trkpt>
      <trkpt lat="43.95694" lon="5.26669">
        <ele>431.5</ele>
        <time>2019-09-14T12:37:54Z</time>
      </trkpt>
      <trkpt lat="43.95696" lon="5.26662">
        <ele>428.5</ele>
        <time>2019-09-14T12:38:00Z</time>
      </trkpt>
      <trkpt lat="43.95704" lon="5.26654">
        <ele>433.5</ele>
        <time>2019-09-14T12:38:05Z</time>
      </trkpt>
      <trkpt lat="43.95705" lon="5.26653">
        <ele>434.5</ele>
        <time>2019-09-14T12:38:11Z</time>
      </trkpt>
      <trkpt lat="43.95704" lon="5.26653">
        <ele>434.5</ele>
        <time>2019-09-14T12:38:16Z</time>
      </trkpt>
      <trkpt lat="43.95704" lon="5.26654">
        <ele>434.5</ele>
        <time>2019-09-14T12:38:22Z</time>
      </trkpt>
      <trkpt lat="43.95704" lon="5.26655">
        <ele>432.5</ele>
        <time>2019-09-14T12:38:28Z</time>
      </trkpt>
      <trkpt lat="43.95698" lon="5.26656">
        <ele>410.5</ele>
        <time>2019-09-14T12:38:33Z</time>
      </trkpt>
      <trkpt lat="43.95698" lon="5.26656">
        <ele>409.5</ele>
        <time>2019-09-14T12:38:39Z</time>
      </trkpt>
      <trkpt lat="43.95697" lon="5.26654">
        <ele>407.5</ele>
        <time>2019-09-14T12:38:44Z</time>
      </trkpt>
      <trkpt lat="43.95697" lon="5.26654">
        <ele>407.5</ele>
        <time>2019-09-14T12:38:50Z</time>
      </trkpt>
      <trkpt lat="43.95697" lon="5.26654">
        <ele>407.5</ele>
        <time>2019-09-14T12:38:56Z</time>
      </trkpt>
      <trkpt lat="43.95697" lon="5.26654">
        <ele>407.5</ele>
        <time>2019-09-14T12:39:06Z</time>
      </trkpt>
      <trkpt lat="43.95697" lon="5.26654">
        <ele>407.5</ele>
        <time>2019-09-14T12:39:12Z</time>
      </trkpt>
      <trkpt lat="43.95697" lon="5.26654">
        <ele>407.5</ele>
        <time>2019-09-14T12:39:18Z</time>
      </trkpt>
      <trkpt lat="43.95697" lon="5.26654">
        <ele>407.5</ele>
        <time>2019-09-14T12:39:24Z</time>
      </trkpt>
      <trkpt lat="43.95697" lon="5.26654">
        <ele>407.5</ele>
        <time>2019-09-14T12:39:30Z</time>
      </trkpt>
      <trkpt lat="43.95697" lon="5.26654">
        <ele>407.5</ele>
        <time>2019-09-14T12:39:36Z</time>
      </trkpt>
      <trkpt lat="43.95697" lon="5.26654">
        <ele>407.5</ele>
        <time>2019-09-14T12:39:42Z</time>
      </trkpt>
      <trkpt lat="43.95697" lon="5.26654">
        <ele>407.5</ele>
        <time>2019-09-14T12:39:47Z</time>
      </trkpt>
      <trkpt lat="43.95697" lon="5.26654">
        <ele>406.5</ele>
        <time>2019-09-14T12:39:53Z</time>
      </trkpt>
      <trkpt lat="43.95697" lon="5.26654">
        <ele>407.5</ele>
        <time>2019-09-14T12:39:58Z</time>
      </trkpt>
      <trkpt lat="43.95697" lon="5.26654">
        <ele>407.5</ele>
        <time>2019-09-14T12:40:04Z</time>
      </trkpt>
      <trkpt lat="43.95697" lon="5.26654">
        <ele>408.5</ele>
        <time>2019-09-14T12:40:10Z</time>
      </trkpt>
      <trkpt lat="43.95697" lon="5.26654">
        <ele>407.5</ele>
        <time>2019-09-14T12:40:16Z</time>
      </trkpt>
      <trkpt lat="43.95696" lon="5.26654">
        <ele>407.5</ele>
        <time>2019-09-14T12:40:22Z</time>
      </trkpt>
      <trkpt lat="43.95696" lon="5.26654">
        <ele>407.5</ele>
        <time>2019-09-14T12:40:28Z</time>
      </trkpt>
      <trkpt lat="43.95696" lon="5.26654">
        <ele>407.5</ele>
        <time>2019-09-14T12:40:34Z</time>
      </trkpt>
      <trkpt lat="43.95696" lon="5.26654">
        <ele>407.5</ele>
        <time>2019-09-14T12:40:40Z</time>
      </trkpt>
      <trkpt lat="43.95696" lon="5.26654">
        <ele>407.5</ele>
        <time>2019-09-14T12:40:46Z</time>
      </trkpt>
      <trkpt lat="43.95696" lon="5.26654">
        <ele>407.5</ele>
        <time>2019-09-14T12:40:53Z</time>
      </trkpt>
      <trkpt lat="43.95696" lon="5.26654">
        <ele>407.5</ele>
        <time>2019-09-14T12:40:58Z</time>
      </trkpt>
      <trkpt lat="43.95696" lon="5.26654">
        <ele>407.5</ele>
        <time>2019-09-14T12:41:03Z</time>
      </trkpt>
      <trkpt lat="43.95696" lon="5.26654">
        <ele>407.5</ele>
        <time>2019-09-14T12:41:09Z</time>
      </trkpt>
      <trkpt lat="43.95696" lon="5.26654">
        <ele>407.5</ele>
        <time>2019-09-14T12:41:15Z</time>
      </trkpt>
      <trkpt lat="43.95696" lon="5.26654">
        <ele>407.5</ele>
        <time>2019-09-14T12:41:21Z</time>
      </trkpt>
      <trkpt lat="43.95697" lon="5.26654">
        <ele>407.5</ele>
        <time>2019-09-14T12:41:26Z</time>
      </trkpt>
      <trkpt lat="43.95697" lon="5.26654">
        <ele>407.5</ele>
        <time>2019-09-14T12:41:32Z</time>
      </trkpt>
      <trkpt lat="43.95697" lon="5.26654">
        <ele>407.5</ele>
        <time>2019-09-14T12:41:37Z</time>
      </trkpt>
      <trkpt lat="43.95697" lon="5.26654">
        <ele>407.5</ele>
        <time>2019-09-14T12:41:42Z</time>
      </trkpt>
      <trkpt lat="43.95697" lon="5.26654">
        <ele>407.5</ele>
        <time>2019-09-14T12:41:47Z</time>
      </trkpt>
      <trkpt lat="43.95697" lon="5.26654">
        <ele>407.5</ele>
        <time>2019-09-14T12:41:53Z</time>
      </trkpt>
      <trkpt lat="43.95697" lon="5.26654">
        <ele>407.5</ele>
        <time>2019-09-14T12:41:58Z</time>
      </trkpt>
      <trkpt lat="43.95697" lon="5.26654">
        <ele>407.5</ele>
        <time>2019-09-14T12:42:04Z</time>
      </trkpt>
      <trkpt lat="43.95697" lon="5.26654">
        <ele>407.5</ele>
        <time>2019-09-14T12:42:10Z</time>
      </trkpt>
      <trkpt lat="43.95697" lon="5.26654">
        <ele>407.5</ele>
        <time>2019-09-14T12:42:15Z</time>
      </trkpt>
      <trkpt lat="43.95696" lon="5.26655">
        <ele>408.5</ele>
        <time>2019-09-14T12:42:21Z</time>
      </trkpt>
      <trkpt lat="43.95697" lon="5.26655">
        <ele>407.5</ele>
        <time>2019-09-14T12:42:27Z</time>
      </trkpt>
      <trkpt lat="43.95697" lon="5.26655">
        <ele>407.5</ele>
        <time>2019-09-14T12:42:32Z</time>
      </trkpt>
      <trkpt lat="43.95697" lon="5.26655">
        <ele>407.5</ele>
        <time>2019-09-14T12:42:38Z</time>
      </trkpt>
      <trkpt lat="43.95697" lon="5.26655">
        <ele>407.5</ele>
        <time>2019-09-14T12:42:44Z</time>
      </trkpt>
      <trkpt lat="43.95697" lon="5.26655">
        <ele>407.5</ele>
        <time>2019-09-14T12:42:49Z</time>
      </trkpt>
      <trkpt lat="43.95697" lon="5.26654">
        <ele>407.5</ele>
        <time>2019-09-14T12:42:55Z</time>
      </trkpt>
      <trkpt lat="43.95697" lon="5.26655">
        <ele>406.5</ele>
        <time>2019-09-14T12:43:01Z</time>
      </trkpt>
      <trkpt lat="43.95697" lon="5.26655">
        <ele>406.5</ele>
        <time>2019-09-14T12:43:06Z</time>
      </trkpt>
      <trkpt lat="43.95697" lon="5.26655">
        <ele>406.5</ele>
        <time>2019-09-14T12:43:12Z</time>
      </trkpt>
      <trkpt lat="43.95704" lon="5.26659">
        <ele>405.5</ele>
        <time>2019-09-14T12:43:17Z</time>
      </trkpt>
      <trkpt lat="43.95716" lon="5.26675">
        <ele>400.5</ele>
        <time>2019-09-14T12:43:23Z</time>
      </trkpt>
      <trkpt lat="43.95727" lon="5.26674">
        <ele>400.5</ele>
        <time>2019-09-14T12:43:29Z</time>
      </trkpt>
      <trkpt lat="43.95751" lon="5.26683">
        <ele>403.5</ele>
        <time>2019-09-14T12:43:35Z</time>
      </trkpt>
      <trkpt lat="43.95755" lon="5.26681">
        <ele>403.5</ele>
        <time>2019-09-14T12:43:40Z</time>
      </trkpt>
      <trkpt lat="43.95761" lon="5.26683">
        <ele>397.5</ele>
        <time>2019-09-14T12:43:46Z</time>
      </trkpt>
      <trkpt lat="43.95762" lon="5.26681">
        <ele>400.5</ele>
        <time>2019-09-14T12:43:52Z</time>
      </trkpt>
      <trkpt lat="43.95762" lon="5.26682">
        <ele>401.5</ele>
        <time>2019-09-14T12:43:57Z</time>
      </trkpt>
      <trkpt lat="43.95762" lon="5.26682">
        <ele>402.5</ele>
        <time>2019-09-14T12:44:03Z</time>
      </trkpt>
      <trkpt lat="43.95762" lon="5.26682">
        <ele>402.5</ele>
        <time>2019-09-14T12:44:09Z</time>
      </trkpt>
      <trkpt lat="43.95762" lon="5.26682">
        <ele>401.5</ele>
        <time>2019-09-14T12:44:14Z</time>
      </trkpt>
      <trkpt lat="43.95762" lon="5.26682">
        <ele>402.5</ele>
        <time>2019-09-14T12:44:20Z</time>
      </trkpt>
      <trkpt lat="43.95762" lon="5.26682">
        <ele>401.5</ele>
        <time>2019-09-14T12:44:25Z</time>
      </trkpt>
      <trkpt lat="43.95762" lon="5.26682">
        <ele>402.5</ele>
        <time>2019-09-14T12:44:32Z</time>
      </trkpt>
      <trkpt lat="43.95762" lon="5.26682">
        <ele>402.5</ele>
        <time>2019-09-14T12:44:37Z</time>
      </trkpt>
      <trkpt lat="43.95762" lon="5.26682">
        <ele>402.5</ele>
        <time>2019-09-14T12:44:42Z</time>
      </trkpt>
      <trkpt lat="43.95762" lon="5.26682">
        <ele>402.5</ele>
        <time>2019-09-14T12:44:48Z</time>
      </trkpt>
      <trkpt lat="43.95762" lon="5.26682">
        <ele>402.5</ele>
        <time>2019-09-14T12:44:53Z</time>
      </trkpt>
      <trkpt lat="43.95763" lon="5.26681">
        <ele>401.5</ele>
        <time>2019-09-14T12:44:59Z</time>
      </trkpt>
      <trkpt lat="43.95765" lon="5.26681">
        <ele>408.5</ele>
        <time>2019-09-14T12:45:05Z</time>
      </trkpt>
      <trkpt lat="43.95772" lon="5.26682">
        <ele>404.5</ele>
        <time>2019-09-14T12:45:10Z</time>
      </trkpt>
      <trkpt lat="43.9578" lon="5.26678">
        <ele>402.5</ele>
        <time>2019-09-14T12:45:16Z</time>
      </trkpt>
      <trkpt lat="43.95801" lon="5.26673">
        <ele>399.5</ele>
        <time>2019-09-14T12:45:21Z</time>
      </trkpt>
      <trkpt lat="43.95806" lon="5.26673">
        <ele>399.5</ele>
        <time>2019-09-14T12:45:27Z</time>
      </trkpt>
      <trkpt lat="43.95814" lon="5.26675">
        <ele>400.5</ele>
        <time>2019-09-14T12:45:33Z</time>
      </trkpt>
      <trkpt lat="43.95813" lon="5.26676">
        <ele>404.5</ele>
        <time>2019-09-14T12:45:39Z</time>
      </trkpt>
      <trkpt lat="43.9581" lon="5.26678">
        <ele>407.5</ele>
        <time>2019-09-14T12:45:45Z</time>
      </trkpt>
      <trkpt lat="43.95814" lon="5.26677">
        <ele>406.5</ele>
        <time>2019-09-14T12:45:50Z</time>
      </trkpt>
      <trkpt lat="43.95812" lon="5.26678">
        <ele>406.5</ele>
        <time>2019-09-14T12:45:56Z</time>
      </trkpt>
      <trkpt lat="43.95813" lon="5.26676">
        <ele>406.5</ele>
        <time>2019-09-14T12:46:01Z</time>
      </trkpt>
      <trkpt lat="43.95817" lon="5.26676">
        <ele>404.5</ele>
        <time>2019-09-14T12:46:07Z</time>
      </trkpt>
      <trkpt lat="43.95816" lon="5.26677">
        <ele>405.5</ele>
        <time>2019-09-14T12:46:13Z</time>
      </trkpt>
      <trkpt lat="43.95819" lon="5.26677">
        <ele>409.5</ele>
        <time>2019-09-14T12:46:18Z</time>
      </trkpt>
      <trkpt lat="43.95822" lon="5.26678">
        <ele>412.5</ele>
        <time>2019-09-14T12:46:24Z</time>
      </trkpt>
      <trkpt lat="43.95835" lon="5.26675">
        <ele>419.5</ele>
        <time>2019-09-14T12:46:30Z</time>
      </trkpt>
      <trkpt lat="43.95839" lon="5.26678">
        <ele>417.5</ele>
        <time>2019-09-14T12:46:35Z</time>
      </trkpt>
      <trkpt lat="43.95844" lon="5.26677">
        <ele>417.5</ele>
        <time>2019-09-14T12:46:41Z</time>
      </trkpt>
      <trkpt lat="43.95848" lon="5.26684">
        <ele>418.5</ele>
        <time>2019-09-14T12:46:46Z</time>
      </trkpt>
      <trkpt lat="43.95854" lon="5.26681">
        <ele>416.5</ele>
        <time>2019-09-14T12:46:52Z</time>
      </trkpt>
      <trkpt lat="43.95857" lon="5.26675">
        <ele>416.5</ele>
        <time>2019-09-14T12:46:57Z</time>
      </trkpt>
      <trkpt lat="43.95858" lon="5.26674">
        <ele>417.5</ele>
        <time>2019-09-14T12:47:02Z</time>
      </trkpt>
      <trkpt lat="43.9586" lon="5.26673">
        <ele>416.5</ele>
        <time>2019-09-14T12:47:08Z</time>
      </trkpt>
      <trkpt lat="43.9586" lon="5.26673">
        <ele>416.5</ele>
        <time>2019-09-14T12:47:14Z</time>
      </trkpt>
      <trkpt lat="43.9586" lon="5.26673">
        <ele>416.5</ele>
        <time>2019-09-14T12:47:20Z</time>
      </trkpt>
      <trkpt lat="43.9586" lon="5.26673">
        <ele>416.5</ele>
        <time>2019-09-14T12:47:25Z</time>
      </trkpt>
      <trkpt lat="43.95864" lon="5.26673">
        <ele>414.5</ele>
        <time>2019-09-14T12:47:31Z</time>
      </trkpt>
      <trkpt lat="43.95873" lon="5.26668">
        <ele>412.5</ele>
        <time>2019-09-14T12:47:36Z</time>
      </trkpt>
      <trkpt lat="43.95878" lon="5.26665">
        <ele>409.5</ele>
        <time>2019-09-14T12:47:42Z</time>
      </trkpt>
      <trkpt lat="43.95888" lon="5.26666">
        <ele>404.5</ele>
        <time>2019-09-14T12:47:47Z</time>
      </trkpt>
      <trkpt lat="43.95889" lon="5.26663">
        <ele>404.5</ele>
        <time>2019-09-14T12:47:53Z</time>
      </trkpt>
      <trkpt lat="43.95889" lon="5.26663">
        <ele>405.5</ele>
        <time>2019-09-14T12:47:59Z</time>
      </trkpt>
      <trkpt lat="43.95888" lon="5.26663">
        <ele>406.5</ele>
        <time>2019-09-14T12:48:05Z</time>
      </trkpt>
      <trkpt lat="43.9589" lon="5.26664">
        <ele>405.5</ele>
        <time>2019-09-14T12:48:10Z</time>
      </trkpt>
      <trkpt lat="43.95891" lon="5.26664">
        <ele>406.5</ele>
        <time>2019-09-14T12:48:15Z</time>
      </trkpt>
      <trkpt lat="43.95891" lon="5.26664">
        <ele>406.5</ele>
        <time>2019-09-14T12:48:20Z</time>
      </trkpt>
      <trkpt lat="43.95891" lon="5.26664">
        <ele>406.5</ele>
        <time>2019-09-14T12:48:26Z</time>
      </trkpt>
      <trkpt lat="43.95891" lon="5.26664">
        <ele>406.5</ele>
        <time>2019-09-14T12:48:32Z</time>
      </trkpt>
      <trkpt lat="43.95891" lon="5.26664">
        <ele>406.5</ele>
        <time>2019-09-14T12:48:38Z</time>
      </trkpt>
      <trkpt lat="43.95891" lon="5.26664">
        <ele>406.5</ele>
        <time>2019-09-14T12:48:44Z</time>
      </trkpt>
      <trkpt lat="43.95891" lon="5.26664">
        <ele>406.5</ele>
        <time>2019-09-14T12:48:50Z</time>
      </trkpt>
      <trkpt lat="43.95891" lon="5.26664">
        <ele>406.5</ele>
        <time>2019-09-14T12:48:56Z</time>
      </trkpt>
      <trkpt lat="43.959" lon="5.26654">
        <ele>409.5</ele>
        <time>2019-09-14T12:49:02Z</time>
      </trkpt>
      <trkpt lat="43.95914" lon="5.26657">
        <ele>412.5</ele>
        <time>2019-09-14T12:49:08Z</time>
      </trkpt>
      <trkpt lat="43.95922" lon="5.26654">
        <ele>410.5</ele>
        <time>2019-09-14T12:49:13Z</time>
      </trkpt>
      <trkpt lat="43.95937" lon="5.26642">
        <ele>413.5</ele>
        <time>2019-09-14T12:49:19Z</time>
      </trkpt>
      <trkpt lat="43.95949" lon="5.26647">
        <ele>413.5</ele>
        <time>2019-09-14T12:49:25Z</time>
      </trkpt>
      <trkpt lat="43.9595" lon="5.26648">
        <ele>413.5</ele>
        <time>2019-09-14T12:49:30Z</time>
      </trkpt>
      <trkpt lat="43.95955" lon="5.26655">
        <ele>415.5</ele>
        <time>2019-09-14T12:49:36Z</time>
      </trkpt>
      <trkpt lat="43.95962" lon="5.2666">
        <ele>410.5</ele>
        <time>2019-09-14T12:49:42Z</time>
      </trkpt>
      <trkpt lat="43.95964" lon="5.26663">
        <ele>412.5</ele>
        <time>2019-09-14T12:49:47Z</time>
      </trkpt>
      <trkpt lat="43.95973" lon="5.26659">
        <ele>413.5</ele>
        <time>2019-09-14T12:49:52Z</time>
      </trkpt>
      <trkpt lat="43.95978" lon="5.26654">
        <ele>411.5</ele>
        <time>2019-09-14T12:49:58Z</time>
      </trkpt>
      <trkpt lat="43.95988" lon="5.26652">
        <ele>411.5</ele>
        <time>2019-09-14T12:50:03Z</time>
      </trkpt>
      <trkpt lat="43.95992" lon="5.26659">
        <ele>409.5</ele>
        <time>2019-09-14T12:50:09Z</time>
      </trkpt>
      <trkpt lat="43.95994" lon="5.26644">
        <ele>410.5</ele>
        <time>2019-09-14T12:50:15Z</time>
      </trkpt>
      <trkpt lat="43.95996" lon="5.26641">
        <ele>412.5</ele>
        <time>2019-09-14T12:50:20Z</time>
      </trkpt>
      <trkpt lat="43.95986" lon="5.2664">
        <ele>410.5</ele>
        <time>2019-09-14T12:50:27Z</time>
      </trkpt>
      <trkpt lat="43.95988" lon="5.26635">
        <ele>413.5</ele>
        <time>2019-09-14T12:50:33Z</time>
      </trkpt>
      <trkpt lat="43.95983" lon="5.26631">
        <ele>416.5</ele>
        <time>2019-09-14T12:50:38Z</time>
      </trkpt>
      <trkpt lat="43.95982" lon="5.26633">
        <ele>417.5</ele>
        <time>2019-09-14T12:50:45Z</time>
      </trkpt>
      <trkpt lat="43.96007" lon="5.26639">
        <ele>415.5</ele>
        <time>2019-09-14T12:50:50Z</time>
      </trkpt>
      <trkpt lat="43.96009" lon="5.26628">
        <ele>413.5</ele>
        <time>2019-09-14T12:50:55Z</time>
      </trkpt>
      <trkpt lat="43.96005" lon="5.26627">
        <ele>411.5</ele>
        <time>2019-09-14T12:51:01Z</time>
      </trkpt>
      <trkpt lat="43.96002" lon="5.26627">
        <ele>413.5</ele>
        <time>2019-09-14T12:51:07Z</time>
      </trkpt>
      <trkpt lat="43.96002" lon="5.26628">
        <ele>412.5</ele>
        <time>2019-09-14T12:51:13Z</time>
      </trkpt>
      <trkpt lat="43.96004" lon="5.26629">
        <ele>411.5</ele>
        <time>2019-09-14T12:51:18Z</time>
      </trkpt>
      <trkpt lat="43.96004" lon="5.26629">
        <ele>411.5</ele>
        <time>2019-09-14T12:51:24Z</time>
      </trkpt>
      <trkpt lat="43.96004" lon="5.26629">
        <ele>411.5</ele>
        <time>2019-09-14T12:51:30Z</time>
      </trkpt>
      <trkpt lat="43.96004" lon="5.26629">
        <ele>411.5</ele>
        <time>2019-09-14T12:51:36Z</time>
      </trkpt>
      <trkpt lat="43.96004" lon="5.26629">
        <ele>411.5</ele>
        <time>2019-09-14T12:51:41Z</time>
      </trkpt>
      <trkpt lat="43.96002" lon="5.26619">
        <ele>411.5</ele>
        <time>2019-09-14T12:51:47Z</time>
      </trkpt>
      <trkpt lat="43.96" lon="5.26611">
        <ele>415.5</ele>
        <time>2019-09-14T12:51:52Z</time>
      </trkpt>
      <trkpt lat="43.96008" lon="5.26607">
        <ele>415.5</ele>
        <time>2019-09-14T12:51:57Z</time>
      </trkpt>
      <trkpt lat="43.96011" lon="5.26602">
        <ele>413.5</ele>
        <time>2019-09-14T12:52:03Z</time>
      </trkpt>
      <trkpt lat="43.96011" lon="5.26599">
        <ele>414.5</ele>
        <time>2019-09-14T12:52:08Z</time>
      </trkpt>
      <trkpt lat="43.96018" lon="5.266">
        <ele>414.5</ele>
        <time>2019-09-14T12:52:14Z</time>
      </trkpt>
      <trkpt lat="43.96022" lon="5.26601">
        <ele>414.5</ele>
        <time>2019-09-14T12:52:19Z</time>
      </trkpt>
      <trkpt lat="43.96023" lon="5.26601">
        <ele>414.5</ele>
        <time>2019-09-14T12:52:25Z</time>
      </trkpt>
      <trkpt lat="43.96023" lon="5.26601">
        <ele>414.5</ele>
        <time>2019-09-14T12:52:31Z</time>
      </trkpt>
      <trkpt lat="43.96036" lon="5.266">
        <ele>413.5</ele>
        <time>2019-09-14T12:52:37Z</time>
      </trkpt>
      <trkpt lat="43.96059" lon="5.26604">
        <ele>414.5</ele>
        <time>2019-09-14T12:52:43Z</time>
      </trkpt>
      <trkpt lat="43.96066" lon="5.26602">
        <ele>413.5</ele>
        <time>2019-09-14T12:52:49Z</time>
      </trkpt>
      <trkpt lat="43.9607" lon="5.26595">
        <ele>414.5</ele>
        <time>2019-09-14T12:52:55Z</time>
      </trkpt>
      <trkpt lat="43.96067" lon="5.26596">
        <ele>403.5</ele>
        <time>2019-09-14T12:53:00Z</time>
      </trkpt>
      <trkpt lat="43.96072" lon="5.26597">
        <ele>401.5</ele>
        <time>2019-09-14T12:53:06Z</time>
      </trkpt>
      <trkpt lat="43.96072" lon="5.26586">
        <ele>401.5</ele>
        <time>2019-09-14T12:53:11Z</time>
      </trkpt>
      <trkpt lat="43.96076" lon="5.26586">
        <ele>405.5</ele>
        <time>2019-09-14T12:53:16Z</time>
      </trkpt>
      <trkpt lat="43.96076" lon="5.2657">
        <ele>404.5</ele>
        <time>2019-09-14T12:53:22Z</time>
      </trkpt>
      <trkpt lat="43.96089" lon="5.26574">
        <ele>402.5</ele>
        <time>2019-09-14T12:53:27Z</time>
      </trkpt>
      <trkpt lat="43.96093" lon="5.26574">
        <ele>404.5</ele>
        <time>2019-09-14T12:53:35Z</time>
      </trkpt>
      <trkpt lat="43.96097" lon="5.26571">
        <ele>408.5</ele>
        <time>2019-09-14T12:53:40Z</time>
      </trkpt>
      <trkpt lat="43.96096" lon="5.26562">
        <ele>409.5</ele>
        <time>2019-09-14T12:53:46Z</time>
      </trkpt>
      <trkpt lat="43.96099" lon="5.26558">
        <ele>411.5</ele>
        <time>2019-09-14T12:53:53Z</time>
      </trkpt>
      <trkpt lat="43.96105" lon="5.26549">
        <ele>415.5</ele>
        <time>2019-09-14T12:53:59Z</time>
      </trkpt>
      <trkpt lat="43.96088" lon="5.26537">
        <ele>413.5</ele>
        <time>2019-09-14T12:54:04Z</time>
      </trkpt>
      <trkpt lat="43.96097" lon="5.26528">
        <ele>407.5</ele>
        <time>2019-09-14T12:54:10Z</time>
      </trkpt>
      <trkpt lat="43.96102" lon="5.2652">
        <ele>410.5</ele>
        <time>2019-09-14T12:54:16Z</time>
      </trkpt>
      <trkpt lat="43.96098" lon="5.26516">
        <ele>411.5</ele>
        <time>2019-09-14T12:54:21Z</time>
      </trkpt>
      <trkpt lat="43.96098" lon="5.26513">
        <ele>408.5</ele>
        <time>2019-09-14T12:54:27Z</time>
      </trkpt>
      <trkpt lat="43.96116" lon="5.26523">
        <ele>409.5</ele>
        <time>2019-09-14T12:54:33Z</time>
      </trkpt>
      <trkpt lat="43.96104" lon="5.26522">
        <ele>410.5</ele>
        <time>2019-09-14T12:54:39Z</time>
      </trkpt>
      <trkpt lat="43.96108" lon="5.26521">
        <ele>409.5</ele>
        <time>2019-09-14T12:54:45Z</time>
      </trkpt>
      <trkpt lat="43.9611" lon="5.26521">
        <ele>409.5</ele>
        <time>2019-09-14T12:54:51Z</time>
      </trkpt>
      <trkpt lat="43.9611" lon="5.26521">
        <ele>409.5</ele>
        <time>2019-09-14T12:54:56Z</time>
      </trkpt>
      <trkpt lat="43.9611" lon="5.26521">
        <ele>409.5</ele>
        <time>2019-09-14T12:55:01Z</time>
      </trkpt>
      <trkpt lat="43.9611" lon="5.26521">
        <ele>409.5</ele>
        <time>2019-09-14T12:55:07Z</time>
      </trkpt>
      <trkpt lat="43.96117" lon="5.2652">
        <ele>410.5</ele>
        <time>2019-09-14T12:55:13Z</time>
      </trkpt>
      <trkpt lat="43.96127" lon="5.26516">
        <ele>410.5</ele>
        <time>2019-09-14T12:55:19Z</time>
      </trkpt>
      <trkpt lat="43.96123" lon="5.26524">
        <ele>411.5</ele>
        <time>2019-09-14T12:55:25Z</time>
      </trkpt>
      <trkpt lat="43.96129" lon="5.26536">
        <ele>410.5</ele>
        <time>2019-09-14T12:55:31Z</time>
      </trkpt>
      <trkpt lat="43.96127" lon="5.26542">
        <ele>410.5</ele>
        <time>2019-09-14T12:55:36Z</time>
      </trkpt>
      <trkpt lat="43.96138" lon="5.26523">
        <ele>410.5</ele>
        <time>2019-09-14T12:55:51Z</time>
      </trkpt>
      <trkpt lat="43.96143" lon="5.2651">
        <ele>410.5</ele>
        <time>2019-09-14T12:55:57Z</time>
      </trkpt>
      <trkpt lat="43.96143" lon="5.26505">
        <ele>410.5</ele>
        <time>2019-09-14T12:56:03Z</time>
      </trkpt>
      <trkpt lat="43.96141" lon="5.26502">
        <ele>416.5</ele>
        <time>2019-09-14T12:56:42Z</time>
      </trkpt>
      <trkpt lat="43.96143" lon="5.26502">
        <ele>419.5</ele>
        <time>2019-09-14T12:56:47Z</time>
      </trkpt>
      <trkpt lat="43.96143" lon="5.26502">
        <ele>419.5</ele>
        <time>2019-09-14T12:56:52Z</time>
      </trkpt>
      <trkpt lat="43.96143" lon="5.26502">
        <ele>419.5</ele>
        <time>2019-09-14T12:56:57Z</time>
      </trkpt>
      <trkpt lat="43.96144" lon="5.26503">
        <ele>420.5</ele>
        <time>2019-09-14T12:57:03Z</time>
      </trkpt>
      <trkpt lat="43.96153" lon="5.26503">
        <ele>404.5</ele>
        <time>2019-09-14T12:57:09Z</time>
      </trkpt>
      <trkpt lat="43.96155" lon="5.26503">
        <ele>403.5</ele>
        <time>2019-09-14T12:57:15Z</time>
      </trkpt>
      <trkpt lat="43.96156" lon="5.26503">
        <ele>401.5</ele>
        <time>2019-09-14T12:57:21Z</time>
      </trkpt>
      <trkpt lat="43.96155" lon="5.26501">
        <ele>397.5</ele>
        <time>2019-09-14T12:57:27Z</time>
      </trkpt>
      <trkpt lat="43.96153" lon="5.26499">
        <ele>404.5</ele>
        <time>2019-09-14T12:57:32Z</time>
      </trkpt>
      <trkpt lat="43.96153" lon="5.26499">
        <ele>406.5</ele>
        <time>2019-09-14T12:57:38Z</time>
      </trkpt>
      <trkpt lat="43.96153" lon="5.26499">
        <ele>407.5</ele>
        <time>2019-09-14T12:57:44Z</time>
      </trkpt>
      <trkpt lat="43.96153" lon="5.26499">
        <ele>407.5</ele>
        <time>2019-09-14T12:57:50Z</time>
      </trkpt>
      <trkpt lat="43.96153" lon="5.26499">
        <ele>406.5</ele>
        <time>2019-09-14T12:57:55Z</time>
      </trkpt>
      <trkpt lat="43.96154" lon="5.26499">
        <ele>406.5</ele>
        <time>2019-09-14T12:58:02Z</time>
      </trkpt>
      <trkpt lat="43.96154" lon="5.26499">
        <ele>405.5</ele>
        <time>2019-09-14T12:58:08Z</time>
      </trkpt>
      <trkpt lat="43.96154" lon="5.26499">
        <ele>406.5</ele>
        <time>2019-09-14T12:58:13Z</time>
      </trkpt>
      <trkpt lat="43.96155" lon="5.26499">
        <ele>406.5</ele>
        <time>2019-09-14T12:58:19Z</time>
      </trkpt>
      <trkpt lat="43.96155" lon="5.26497">
        <ele>407.5</ele>
        <time>2019-09-14T12:58:24Z</time>
      </trkpt>
      <trkpt lat="43.96155" lon="5.26497">
        <ele>408.5</ele>
        <time>2019-09-14T12:58:30Z</time>
      </trkpt>
      <trkpt lat="43.96156" lon="5.26496">
        <ele>406.5</ele>
        <time>2019-09-14T12:58:36Z</time>
      </trkpt>
      <trkpt lat="43.96156" lon="5.26496">
        <ele>406.5</ele>
        <time>2019-09-14T12:58:42Z</time>
      </trkpt>
      <trkpt lat="43.96157" lon="5.26496">
        <ele>405.5</ele>
        <time>2019-09-14T12:58:47Z</time>
      </trkpt>
      <trkpt lat="43.96157" lon="5.26496">
        <ele>405.5</ele>
        <time>2019-09-14T12:58:53Z</time>
      </trkpt>
      <trkpt lat="43.96157" lon="5.26496">
        <ele>406.5</ele>
        <time>2019-09-14T12:58:59Z</time>
      </trkpt>
      <trkpt lat="43.96156" lon="5.26496">
        <ele>407.5</ele>
        <time>2019-09-14T12:59:05Z</time>
      </trkpt>
      <trkpt lat="43.96157" lon="5.26496">
        <ele>407.5</ele>
        <time>2019-09-14T12:59:10Z</time>
      </trkpt>
      <trkpt lat="43.96157" lon="5.26496">
        <ele>407.5</ele>
        <time>2019-09-14T12:59:15Z</time>
      </trkpt>
      <trkpt lat="43.96157" lon="5.26495">
        <ele>407.5</ele>
        <time>2019-09-14T12:59:21Z</time>
      </trkpt>
      <trkpt lat="43.96157" lon="5.26495">
        <ele>407.5</ele>
        <time>2019-09-14T12:59:27Z</time>
      </trkpt>
      <trkpt lat="43.96157" lon="5.26495">
        <ele>408.5</ele>
        <time>2019-09-14T12:59:32Z</time>
      </trkpt>
      <trkpt lat="43.96156" lon="5.26495">
        <ele>408.5</ele>
        <time>2019-09-14T12:59:38Z</time>
      </trkpt>
      <trkpt lat="43.96156" lon="5.26495">
        <ele>408.5</ele>
        <time>2019-09-14T12:59:44Z</time>
      </trkpt>
      <trkpt lat="43.96156" lon="5.26495">
        <ele>409.5</ele>
        <time>2019-09-14T12:59:50Z</time>
      </trkpt>
      <trkpt lat="43.96157" lon="5.26494">
        <ele>409.5</ele>
        <time>2019-09-14T12:59:55Z</time>
      </trkpt>
      <trkpt lat="43.96157" lon="5.26494">
        <ele>409.5</ele>
        <time>2019-09-14T13:00:00Z</time>
      </trkpt>
      <trkpt lat="43.96157" lon="5.26494">
        <ele>409.5</ele>
        <time>2019-09-14T13:00:05Z</time>
      </trkpt>
      <trkpt lat="43.96157" lon="5.26494">
        <ele>409.5</ele>
        <time>2019-09-14T13:00:10Z</time>
      </trkpt>
      <trkpt lat="43.96157" lon="5.26494">
        <ele>409.5</ele>
        <time>2019-09-14T13:00:16Z</time>
      </trkpt>
      <trkpt lat="43.96157" lon="5.26495">
        <ele>409.5</ele>
        <time>2019-09-14T13:00:23Z</time>
      </trkpt>
      <trkpt lat="43.96157" lon="5.26495">
        <ele>409.5</ele>
        <time>2019-09-14T13:00:28Z</time>
      </trkpt>
      <trkpt lat="43.96157" lon="5.26495">
        <ele>409.5</ele>
        <time>2019-09-14T13:00:33Z</time>
      </trkpt>
      <trkpt lat="43.96157" lon="5.26495">
        <ele>409.5</ele>
        <time>2019-09-14T13:00:38Z</time>
      </trkpt>
      <trkpt lat="43.96157" lon="5.26495">
        <ele>409.5</ele>
        <time>2019-09-14T13:00:43Z</time>
      </trkpt>
      <trkpt lat="43.96169" lon="5.26495">
        <ele>412.5</ele>
        <time>2019-09-14T13:00:49Z</time>
      </trkpt>
      <trkpt lat="43.96175" lon="5.26496">
        <ele>415.5</ele>
        <time>2019-09-14T13:00:56Z</time>
      </trkpt>
      <trkpt lat="43.96172" lon="5.26501">
        <ele>416.5</ele>
        <time>2019-09-14T13:01:01Z</time>
      </trkpt>
      <trkpt lat="43.96173" lon="5.26499">
        <ele>415.5</ele>
        <time>2019-09-14T13:01:06Z</time>
      </trkpt>
      <trkpt lat="43.96174" lon="5.26503">
        <ele>414.5</ele>
        <time>2019-09-14T13:01:11Z</time>
      </trkpt>
      <trkpt lat="43.96168" lon="5.26504">
        <ele>413.5</ele>
        <time>2019-09-14T13:01:17Z</time>
      </trkpt>
      <trkpt lat="43.96182" lon="5.26509">
        <ele>408.5</ele>
        <time>2019-09-14T13:01:22Z</time>
      </trkpt>
      <trkpt lat="43.96186" lon="5.26515">
        <ele>412.5</ele>
        <time>2019-09-14T13:01:28Z</time>
      </trkpt>
      <trkpt lat="43.96182" lon="5.2651">
        <ele>415.5</ele>
        <time>2019-09-14T13:01:35Z</time>
      </trkpt>
      <trkpt lat="43.96182" lon="5.26516">
        <ele>417.5</ele>
        <time>2019-09-14T13:01:40Z</time>
      </trkpt>
      <trkpt lat="43.96181" lon="5.26517">
        <ele>419.5</ele>
        <time>2019-09-14T13:01:45Z</time>
      </trkpt>
      <trkpt lat="43.96179" lon="5.26518">
        <ele>420.5</ele>
        <time>2019-09-14T13:01:50Z</time>
      </trkpt>
      <trkpt lat="43.9618" lon="5.26517">
        <ele>420.5</ele>
        <time>2019-09-14T13:01:55Z</time>
      </trkpt>
      <trkpt lat="43.9618" lon="5.26517">
        <ele>421.5</ele>
        <time>2019-09-14T13:02:00Z</time>
      </trkpt>
      <trkpt lat="43.9618" lon="5.26517">
        <ele>421.5</ele>
        <time>2019-09-14T13:02:06Z</time>
      </trkpt>
      <trkpt lat="43.9618" lon="5.26517">
        <ele>421.5</ele>
        <time>2019-09-14T13:02:12Z</time>
      </trkpt>
      <trkpt lat="43.9618" lon="5.26517">
        <ele>421.5</ele>
        <time>2019-09-14T13:02:17Z</time>
      </trkpt>
      <trkpt lat="43.9618" lon="5.26517">
        <ele>421.5</ele>
        <time>2019-09-14T13:02:23Z</time>
      </trkpt>
      <trkpt lat="43.9618" lon="5.26517">
        <ele>421.5</ele>
        <time>2019-09-14T13:02:29Z</time>
      </trkpt>
      <trkpt lat="43.9618" lon="5.26517">
        <ele>421.5</ele>
        <time>2019-09-14T13:02:34Z</time>
      </trkpt>
      <trkpt lat="43.9618" lon="5.26517">
        <ele>421.5</ele>
        <time>2019-09-14T13:02:39Z</time>
      </trkpt>
      <trkpt lat="43.9618" lon="5.26517">
        <ele>421.5</ele>
        <time>2019-09-14T13:02:44Z</time>
      </trkpt>
      <trkpt lat="43.9618" lon="5.26517">
        <ele>421.5</ele>
        <time>2019-09-14T13:02:50Z</time>
      </trkpt>
      <trkpt lat="43.9618" lon="5.26517">
        <ele>421.5</ele>
        <time>2019-09-14T13:02:56Z</time>
      </trkpt>
      <trkpt lat="43.96181" lon="5.26519">
        <ele>420.5</ele>
        <time>2019-09-14T13:03:02Z</time>
      </trkpt>
      <trkpt lat="43.96182" lon="5.26527">
        <ele>424.5</ele>
        <time>2019-09-14T13:03:08Z</time>
      </trkpt>
      <trkpt lat="43.96185" lon="5.26538">
        <ele>425.5</ele>
        <time>2019-09-14T13:03:13Z</time>
      </trkpt>
      <trkpt lat="43.96186" lon="5.26544">
        <ele>427.5</ele>
        <time>2019-09-14T13:03:19Z</time>
      </trkpt>
      <trkpt lat="43.96193" lon="5.26547">
        <ele>424.5</ele>
        <time>2019-09-14T13:03:25Z</time>
      </trkpt>
      <trkpt lat="43.96195" lon="5.26547">
        <ele>426.5</ele>
        <time>2019-09-14T13:03:31Z</time>
      </trkpt>
      <trkpt lat="43.96195" lon="5.2655">
        <ele>425.5</ele>
        <time>2019-09-14T13:03:36Z</time>
      </trkpt>
      <trkpt lat="43.96196" lon="5.26552">
        <ele>426.5</ele>
        <time>2019-09-14T13:03:41Z</time>
      </trkpt>
      <trkpt lat="43.96196" lon="5.26555">
        <ele>426.5</ele>
        <time>2019-09-14T13:03:47Z</time>
      </trkpt>
      <trkpt lat="43.96195" lon="5.26555">
        <ele>426.5</ele>
        <time>2019-09-14T13:03:53Z</time>
      </trkpt>
      <trkpt lat="43.96195" lon="5.26555">
        <ele>426.5</ele>
        <time>2019-09-14T13:03:59Z</time>
      </trkpt>
      <trkpt lat="43.96195" lon="5.26555">
        <ele>426.5</ele>
        <time>2019-09-14T13:04:04Z</time>
      </trkpt>
      <trkpt lat="43.96195" lon="5.26555">
        <ele>427.5</ele>
        <time>2019-09-14T13:04:10Z</time>
      </trkpt>
      <trkpt lat="43.96195" lon="5.26555">
        <ele>427.5</ele>
        <time>2019-09-14T13:04:16Z</time>
      </trkpt>
      <trkpt lat="43.96195" lon="5.26555">
        <ele>427.5</ele>
        <time>2019-09-14T13:04:21Z</time>
      </trkpt>
      <trkpt lat="43.96195" lon="5.26555">
        <ele>427.5</ele>
        <time>2019-09-14T13:04:27Z</time>
      </trkpt>
      <trkpt lat="43.96195" lon="5.26555">
        <ele>427.5</ele>
        <time>2019-09-14T13:04:32Z</time>
      </trkpt>
      <trkpt lat="43.96195" lon="5.26555">
        <ele>427.5</ele>
        <time>2019-09-14T13:04:38Z</time>
      </trkpt>
      <trkpt lat="43.96195" lon="5.26555">
        <ele>427.5</ele>
        <time>2019-09-14T13:04:44Z</time>
      </trkpt>
      <trkpt lat="43.96195" lon="5.26555">
        <ele>427.5</ele>
        <time>2019-09-14T13:04:49Z</time>
      </trkpt>
      <trkpt lat="43.96195" lon="5.26555">
        <ele>427.5</ele>
        <time>2019-09-14T13:04:55Z</time>
      </trkpt>
      <trkpt lat="43.96195" lon="5.26555">
        <ele>427.5</ele>
        <time>2019-09-14T13:05:00Z</time>
      </trkpt>
      <trkpt lat="43.96188" lon="5.26563">
        <ele>430.5</ele>
        <time>2019-09-14T13:05:06Z</time>
      </trkpt>
      <trkpt lat="43.96186" lon="5.26567">
        <ele>430.5</ele>
        <time>2019-09-14T13:05:11Z</time>
      </trkpt>
      <trkpt lat="43.96187" lon="5.26569">
        <ele>430.5</ele>
        <time>2019-09-14T13:05:16Z</time>
      </trkpt>
      <trkpt lat="43.96186" lon="5.26577">
        <ele>430.5</ele>
        <time>2019-09-14T13:05:21Z</time>
      </trkpt>
      <trkpt lat="43.96183" lon="5.26584">
        <ele>429.5</ele>
        <time>2019-09-14T13:05:27Z</time>
      </trkpt>
      <trkpt lat="43.96175" lon="5.26587">
        <ele>429.5</ele>
        <time>2019-09-14T13:05:33Z</time>
      </trkpt>
      <trkpt lat="43.9617" lon="5.26582">
        <ele>431.5</ele>
        <time>2019-09-14T13:05:39Z</time>
      </trkpt>
      <trkpt lat="43.96169" lon="5.26586">
        <ele>430.5</ele>
        <time>2019-09-14T13:05:45Z</time>
      </trkpt>
      <trkpt lat="43.96165" lon="5.26588">
        <ele>433.5</ele>
        <time>2019-09-14T13:05:51Z</time>
      </trkpt>
      <trkpt lat="43.96165" lon="5.26593">
        <ele>437.5</ele>
        <time>2019-09-14T13:05:57Z</time>
      </trkpt>
      <trkpt lat="43.96169" lon="5.26591">
        <ele>437.5</ele>
        <time>2019-09-14T13:06:02Z</time>
      </trkpt>
      <trkpt lat="43.96171" lon="5.26592">
        <ele>437.5</ele>
        <time>2019-09-14T13:06:07Z</time>
      </trkpt>
      <trkpt lat="43.96172" lon="5.26592">
        <ele>439.5</ele>
        <time>2019-09-14T13:06:13Z</time>
      </trkpt>
      <trkpt lat="43.96172" lon="5.26594">
        <ele>440.5</ele>
        <time>2019-09-14T13:06:19Z</time>
      </trkpt>
      <trkpt lat="43.96173" lon="5.26595">
        <ele>441.5</ele>
        <time>2019-09-14T13:06:24Z</time>
      </trkpt>
      <trkpt lat="43.96173" lon="5.26595">
        <ele>441.5</ele>
        <time>2019-09-14T13:06:30Z</time>
      </trkpt>
      <trkpt lat="43.96173" lon="5.26595">
        <ele>441.5</ele>
        <time>2019-09-14T13:06:35Z</time>
      </trkpt>
      <trkpt lat="43.96173" lon="5.26595">
        <ele>441.5</ele>
        <time>2019-09-14T13:06:40Z</time>
      </trkpt>
      <trkpt lat="43.96173" lon="5.26595">
        <ele>441.5</ele>
        <time>2019-09-14T13:06:45Z</time>
      </trkpt>
      <trkpt lat="43.96173" lon="5.26596">
        <ele>443.5</ele>
        <time>2019-09-14T13:06:50Z</time>
      </trkpt>
      <trkpt lat="43.96174" lon="5.26597">
        <ele>445.5</ele>
        <time>2019-09-14T13:06:55Z</time>
      </trkpt>
      <trkpt lat="43.96175" lon="5.26599">
        <ele>446.5</ele>
        <time>2019-09-14T13:07:01Z</time>
      </trkpt>
      <trkpt lat="43.96175" lon="5.26599">
        <ele>446.5</ele>
        <time>2019-09-14T13:07:07Z</time>
      </trkpt>
      <trkpt lat="43.96175" lon="5.26599">
        <ele>446.5</ele>
        <time>2019-09-14T13:07:12Z</time>
      </trkpt>
      <trkpt lat="43.96175" lon="5.26599">
        <ele>446.5</ele>
        <time>2019-09-14T13:07:18Z</time>
      </trkpt>
      <trkpt lat="43.96175" lon="5.26599">
        <ele>446.5</ele>
        <time>2019-09-14T13:07:24Z</time>
      </trkpt>
      <trkpt lat="43.96175" lon="5.26599">
        <ele>446.5</ele>
        <time>2019-09-14T13:07:29Z</time>
      </trkpt>
      <trkpt lat="43.96175" lon="5.26599">
        <ele>446.5</ele>
        <time>2019-09-14T13:07:34Z</time>
      </trkpt>
      <trkpt lat="43.96175" lon="5.26599">
        <ele>446.5</ele>
        <time>2019-09-14T13:07:40Z</time>
      </trkpt>
      <trkpt lat="43.96175" lon="5.26599">
        <ele>446.5</ele>
        <time>2019-09-14T13:07:45Z</time>
      </trkpt>
      <trkpt lat="43.96175" lon="5.26599">
        <ele>446.5</ele>
        <time>2019-09-14T13:07:51Z</time>
      </trkpt>
      <trkpt lat="43.96175" lon="5.26599">
        <ele>446.5</ele>
        <time>2019-09-14T13:07:56Z</time>
      </trkpt>
      <trkpt lat="43.96175" lon="5.26599">
        <ele>446.5</ele>
        <time>2019-09-14T13:08:07Z</time>
      </trkpt>
      <trkpt lat="43.96175" lon="5.26599">
        <ele>446.5</ele>
        <time>2019-09-14T13:08:13Z</time>
      </trkpt>
      <trkpt lat="43.96175" lon="5.26599">
        <ele>446.5</ele>
        <time>2019-09-14T13:08:19Z</time>
      </trkpt>
      <trkpt lat="43.96175" lon="5.26599">
        <ele>446.5</ele>
        <time>2019-09-14T13:08:24Z</time>
      </trkpt>
      <trkpt lat="43.96175" lon="5.26599">
        <ele>446.5</ele>
        <time>2019-09-14T13:08:30Z</time>
      </trkpt>
      <trkpt lat="43.96175" lon="5.26599">
        <ele>447.5</ele>
        <time>2019-09-14T13:08:35Z</time>
      </trkpt>
      <trkpt lat="43.96175" lon="5.26599">
        <ele>447.5</ele>
        <time>2019-09-14T13:08:40Z</time>
      </trkpt>
      <trkpt lat="43.96175" lon="5.26599">
        <ele>447.5</ele>
        <time>2019-09-14T13:08:46Z</time>
      </trkpt>
      <trkpt lat="43.96175" lon="5.26599">
        <ele>447.5</ele>
        <time>2019-09-14T13:08:52Z</time>
      </trkpt>
      <trkpt lat="43.96175" lon="5.26599">
        <ele>447.5</ele>
        <time>2019-09-14T13:08:57Z</time>
      </trkpt>
      <trkpt lat="43.96175" lon="5.26599">
        <ele>447.5</ele>
        <time>2019-09-14T13:09:02Z</time>
      </trkpt>
      <trkpt lat="43.96175" lon="5.26599">
        <ele>447.5</ele>
        <time>2019-09-14T13:09:08Z</time>
      </trkpt>
      <trkpt lat="43.96175" lon="5.26599">
        <ele>447.5</ele>
        <time>2019-09-14T13:09:14Z</time>
      </trkpt>
      <trkpt lat="43.96175" lon="5.26599">
        <ele>448.5</ele>
        <time>2019-09-14T13:09:20Z</time>
      </trkpt>
      <trkpt lat="43.96175" lon="5.26599">
        <ele>449.5</ele>
        <time>2019-09-14T13:09:26Z</time>
      </trkpt>
      <trkpt lat="43.96175" lon="5.26599">
        <ele>449.5</ele>
        <time>2019-09-14T13:09:31Z</time>
      </trkpt>
      <trkpt lat="43.96174" lon="5.26599">
        <ele>449.5</ele>
        <time>2019-09-14T13:09:37Z</time>
      </trkpt>
      <trkpt lat="43.96174" lon="5.26599">
        <ele>449.5</ele>
        <time>2019-09-14T13:09:43Z</time>
      </trkpt>
      <trkpt lat="43.96174" lon="5.26599">
        <ele>449.5</ele>
        <time>2019-09-14T13:09:49Z</time>
      </trkpt>
      <trkpt lat="43.96174" lon="5.26599">
        <ele>465.5</ele>
        <time>2019-09-14T13:09:54Z</time>
      </trkpt>
      <trkpt lat="43.96174" lon="5.26599">
        <ele>456.5</ele>
        <time>2019-09-14T13:10:00Z</time>
      </trkpt>
      <trkpt lat="43.96174" lon="5.26599">
        <ele>453.5</ele>
        <time>2019-09-14T13:10:05Z</time>
      </trkpt>
      <trkpt lat="43.96174" lon="5.26599">
        <ele>452.5</ele>
        <time>2019-09-14T13:10:10Z</time>
      </trkpt>
      <trkpt lat="43.96174" lon="5.26599">
        <ele>451.5</ele>
        <time>2019-09-14T13:10:15Z</time>
      </trkpt>
      <trkpt lat="43.96174" lon="5.26599">
        <ele>450.5</ele>
        <time>2019-09-14T13:10:47Z</time>
      </trkpt>
      <trkpt lat="43.96174" lon="5.26599">
        <ele>450.5</ele>
        <time>2019-09-14T13:10:52Z</time>
      </trkpt>
      <trkpt lat="43.96174" lon="5.26599">
        <ele>450.5</ele>
        <time>2019-09-14T13:10:57Z</time>
      </trkpt>
      <trkpt lat="43.96174" lon="5.26599">
        <ele>450.5</ele>
        <time>2019-09-14T13:11:03Z</time>
      </trkpt>
      <trkpt lat="43.96174" lon="5.26599">
        <ele>450.5</ele>
        <time>2019-09-14T13:11:09Z</time>
      </trkpt>
      <trkpt lat="43.96174" lon="5.26599">
        <ele>450.5</ele>
        <time>2019-09-14T13:11:14Z</time>
      </trkpt>
      <trkpt lat="43.96174" lon="5.26599">
        <ele>450.5</ele>
        <time>2019-09-14T13:11:20Z</time>
      </trkpt>
      <trkpt lat="43.96174" lon="5.26599">
        <ele>450.5</ele>
        <time>2019-09-14T13:11:25Z</time>
      </trkpt>
      <trkpt lat="43.96174" lon="5.26599">
        <ele>450.5</ele>
        <time>2019-09-14T13:11:30Z</time>
      </trkpt>
      <trkpt lat="43.96174" lon="5.26599">
        <ele>450.5</ele>
        <time>2019-09-14T13:11:36Z</time>
      </trkpt>
      <trkpt lat="43.96174" lon="5.26599">
        <ele>450.5</ele>
        <time>2019-09-14T13:11:43Z</time>
      </trkpt>
      <trkpt lat="43.96174" lon="5.26599">
        <ele>450.5</ele>
        <time>2019-09-14T13:11:48Z</time>
      </trkpt>
      <trkpt lat="43.96174" lon="5.26599">
        <ele>450.5</ele>
        <time>2019-09-14T13:11:54Z</time>
      </trkpt>
      <trkpt lat="43.96174" lon="5.26599">
        <ele>450.5</ele>
        <time>2019-09-14T13:12:00Z</time>
      </trkpt>
      <trkpt lat="43.96174" lon="5.26599">
        <ele>450.5</ele>
        <time>2019-09-14T13:12:05Z</time>
      </trkpt>
      <trkpt lat="43.96172" lon="5.26604">
        <ele>449.5</ele>
        <time>2019-09-14T13:12:10Z</time>
      </trkpt>
      <trkpt lat="43.9617" lon="5.26611">
        <ele>448.5</ele>
        <time>2019-09-14T13:12:15Z</time>
      </trkpt>
      <trkpt lat="43.9617" lon="5.26627">
        <ele>451.5</ele>
        <time>2019-09-14T13:12:21Z</time>
      </trkpt>
      <trkpt lat="43.96168" lon="5.26635">
        <ele>451.5</ele>
        <time>2019-09-14T13:12:27Z</time>
      </trkpt>
      <trkpt lat="43.96165" lon="5.26641">
        <ele>458.5</ele>
        <time>2019-09-14T13:12:32Z</time>
      </trkpt>
      <trkpt lat="43.96166" lon="5.26648">
        <ele>455.5</ele>
        <time>2019-09-14T13:12:37Z</time>
      </trkpt>
      <trkpt lat="43.96165" lon="5.26652">
        <ele>456.5</ele>
        <time>2019-09-14T13:12:42Z</time>
      </trkpt>
      <trkpt lat="43.96163" lon="5.26659">
        <ele>455.5</ele>
        <time>2019-09-14T13:12:48Z</time>
      </trkpt>
      <trkpt lat="43.96162" lon="5.26667">
        <ele>456.5</ele>
        <time>2019-09-14T13:12:53Z</time>
      </trkpt>
      <trkpt lat="43.96162" lon="5.26673">
        <ele>458.5</ele>
        <time>2019-09-14T13:12:59Z</time>
      </trkpt>
      <trkpt lat="43.96163" lon="5.26681">
        <ele>463.5</ele>
        <time>2019-09-14T13:13:05Z</time>
      </trkpt>
      <trkpt lat="43.96166" lon="5.26686">
        <ele>465.5</ele>
        <time>2019-09-14T13:13:10Z</time>
      </trkpt>
      <trkpt lat="43.9617" lon="5.26691">
        <ele>463.5</ele>
        <time>2019-09-14T13:13:16Z</time>
      </trkpt>
      <trkpt lat="43.96169" lon="5.26693">
        <ele>463.5</ele>
        <time>2019-09-14T13:13:22Z</time>
      </trkpt>
      <trkpt lat="43.96168" lon="5.26694">
        <ele>464.5</ele>
        <time>2019-09-14T13:13:27Z</time>
      </trkpt>
      <trkpt lat="43.96168" lon="5.26695">
        <ele>464.5</ele>
        <time>2019-09-14T13:13:33Z</time>
      </trkpt>
      <trkpt lat="43.96168" lon="5.26695">
        <ele>464.5</ele>
        <time>2019-09-14T13:13:39Z</time>
      </trkpt>
      <trkpt lat="43.96168" lon="5.26695">
        <ele>464.5</ele>
        <time>2019-09-14T13:13:45Z</time>
      </trkpt>
      <trkpt lat="43.96171" lon="5.26699">
        <ele>463.5</ele>
        <time>2019-09-14T13:13:51Z</time>
      </trkpt>
      <trkpt lat="43.96179" lon="5.26705">
        <ele>465.5</ele>
        <time>2019-09-14T13:13:57Z</time>
      </trkpt>
      <trkpt lat="43.96185" lon="5.26713">
        <ele>465.5</ele>
        <time>2019-09-14T13:14:02Z</time>
      </trkpt>
      <trkpt lat="43.96185" lon="5.26721">
        <ele>470.5</ele>
        <time>2019-09-14T13:14:08Z</time>
      </trkpt>
      <trkpt lat="43.96189" lon="5.26727">
        <ele>472.5</ele>
        <time>2019-09-14T13:14:13Z</time>
      </trkpt>
      <trkpt lat="43.96194" lon="5.26734">
        <ele>476.5</ele>
        <time>2019-09-14T13:14:18Z</time>
      </trkpt>
      <trkpt lat="43.96198" lon="5.26738">
        <ele>474.5</ele>
        <time>2019-09-14T13:14:23Z</time>
      </trkpt>
      <trkpt lat="43.962" lon="5.26742">
        <ele>478.5</ele>
        <time>2019-09-14T13:14:28Z</time>
      </trkpt>
      <trkpt lat="43.96209" lon="5.26753">
        <ele>475.5</ele>
        <time>2019-09-14T13:14:34Z</time>
      </trkpt>
      <trkpt lat="43.96213" lon="5.26757">
        <ele>474.5</ele>
        <time>2019-09-14T13:14:39Z</time>
      </trkpt>
      <trkpt lat="43.96216" lon="5.26763">
        <ele>473.5</ele>
        <time>2019-09-14T13:14:45Z</time>
      </trkpt>
      <trkpt lat="43.96218" lon="5.26766">
        <ele>476.5</ele>
        <time>2019-09-14T13:14:50Z</time>
      </trkpt>
      <trkpt lat="43.96221" lon="5.26772">
        <ele>472.5</ele>
        <time>2019-09-14T13:14:56Z</time>
      </trkpt>
      <trkpt lat="43.96224" lon="5.26777">
        <ele>476.5</ele>
        <time>2019-09-14T13:15:02Z</time>
      </trkpt>
      <trkpt lat="43.96225" lon="5.2678">
        <ele>476.5</ele>
        <time>2019-09-14T13:15:08Z</time>
      </trkpt>
      <trkpt lat="43.96228" lon="5.2679">
        <ele>475.5</ele>
        <time>2019-09-14T13:15:14Z</time>
      </trkpt>
      <trkpt lat="43.96229" lon="5.26792">
        <ele>478.5</ele>
        <time>2019-09-14T13:15:20Z</time>
      </trkpt>
      <trkpt lat="43.96228" lon="5.26793">
        <ele>478.5</ele>
        <time>2019-09-14T13:15:25Z</time>
      </trkpt>
      <trkpt lat="43.96228" lon="5.26793">
        <ele>478.5</ele>
        <time>2019-09-14T13:15:30Z</time>
      </trkpt>
      <trkpt lat="43.96229" lon="5.26793">
        <ele>477.5</ele>
        <time>2019-09-14T13:15:35Z</time>
      </trkpt>
      <trkpt lat="43.96229" lon="5.26794">
        <ele>477.5</ele>
        <time>2019-09-14T13:15:41Z</time>
      </trkpt>
      <trkpt lat="43.96229" lon="5.26794">
        <ele>477.5</ele>
        <time>2019-09-14T13:15:47Z</time>
      </trkpt>
      <trkpt lat="43.96232" lon="5.26804">
        <ele>480.5</ele>
        <time>2019-09-14T13:15:53Z</time>
      </trkpt>
      <trkpt lat="43.96239" lon="5.2681">
        <ele>481.5</ele>
        <time>2019-09-14T13:15:59Z</time>
      </trkpt>
      <trkpt lat="43.9624" lon="5.26819">
        <ele>483.5</ele>
        <time>2019-09-14T13:16:05Z</time>
      </trkpt>
      <trkpt lat="43.96241" lon="5.26819">
        <ele>482.5</ele>
        <time>2019-09-14T13:16:11Z</time>
      </trkpt>
      <trkpt lat="43.96244" lon="5.26824">
        <ele>483.5</ele>
        <time>2019-09-14T13:16:17Z</time>
      </trkpt>
      <trkpt lat="43.96247" lon="5.26837">
        <ele>481.5</ele>
        <time>2019-09-14T13:16:22Z</time>
      </trkpt>
      <trkpt lat="43.96253" lon="5.2685">
        <ele>479.5</ele>
        <time>2019-09-14T13:16:28Z</time>
      </trkpt>
      <trkpt lat="43.96253" lon="5.26851">
        <ele>478.5</ele>
        <time>2019-09-14T13:16:33Z</time>
      </trkpt>
      <trkpt lat="43.96255" lon="5.26854">
        <ele>480.5</ele>
        <time>2019-09-14T13:16:39Z</time>
      </trkpt>
      <trkpt lat="43.96256" lon="5.26855">
        <ele>482.5</ele>
        <time>2019-09-14T13:16:45Z</time>
      </trkpt>
      <trkpt lat="43.9626" lon="5.26862">
        <ele>480.5</ele>
        <time>2019-09-14T13:16:50Z</time>
      </trkpt>
      <trkpt lat="43.96266" lon="5.26876">
        <ele>478.5</ele>
        <time>2019-09-14T13:16:55Z</time>
      </trkpt>
      <trkpt lat="43.96274" lon="5.26885">
        <ele>477.5</ele>
        <time>2019-09-14T13:17:01Z</time>
      </trkpt>
      <trkpt lat="43.96278" lon="5.26895">
        <ele>478.5</ele>
        <time>2019-09-14T13:17:07Z</time>
      </trkpt>
      <trkpt lat="43.9628" lon="5.26901">
        <ele>479.5</ele>
        <time>2019-09-14T13:17:12Z</time>
      </trkpt>
      <trkpt lat="43.96283" lon="5.26903">
        <ele>478.5</ele>
        <time>2019-09-14T13:17:17Z</time>
      </trkpt>
      <trkpt lat="43.96284" lon="5.26904">
        <ele>477.5</ele>
        <time>2019-09-14T13:17:22Z</time>
      </trkpt>
      <trkpt lat="43.96285" lon="5.26909">
        <ele>480.5</ele>
        <time>2019-09-14T13:17:28Z</time>
      </trkpt>
      <trkpt lat="43.96287" lon="5.26917">
        <ele>481.5</ele>
        <time>2019-09-14T13:17:33Z</time>
      </trkpt>
      <trkpt lat="43.96292" lon="5.2692">
        <ele>479.5</ele>
        <time>2019-09-14T13:17:38Z</time>
      </trkpt>
      <trkpt lat="43.96292" lon="5.26929">
        <ele>481.5</ele>
        <time>2019-09-14T13:17:44Z</time>
      </trkpt>
      <trkpt lat="43.96294" lon="5.26939">
        <ele>483.5</ele>
        <time>2019-09-14T13:17:49Z</time>
      </trkpt>
      <trkpt lat="43.96296" lon="5.26944">
        <ele>482.5</ele>
        <time>2019-09-14T13:17:54Z</time>
      </trkpt>
      <trkpt lat="43.96297" lon="5.26957">
        <ele>485.5</ele>
        <time>2019-09-14T13:17:59Z</time>
      </trkpt>
      <trkpt lat="43.96301" lon="5.26964">
        <ele>487.5</ele>
        <time>2019-09-14T13:18:05Z</time>
      </trkpt>
      <trkpt lat="43.96303" lon="5.26973">
        <ele>486.5</ele>
        <time>2019-09-14T13:18:10Z</time>
      </trkpt>
      <trkpt lat="43.96301" lon="5.26982">
        <ele>488.5</ele>
        <time>2019-09-14T13:18:16Z</time>
      </trkpt>
      <trkpt lat="43.96304" lon="5.26992">
        <ele>489.5</ele>
        <time>2019-09-14T13:18:22Z</time>
      </trkpt>
      <trkpt lat="43.96305" lon="5.27001">
        <ele>491.5</ele>
        <time>2019-09-14T13:18:27Z</time>
      </trkpt>
      <trkpt lat="43.96306" lon="5.27008">
        <ele>493.5</ele>
        <time>2019-09-14T13:18:32Z</time>
      </trkpt>
      <trkpt lat="43.96306" lon="5.27019">
        <ele>494.5</ele>
        <time>2019-09-14T13:18:38Z</time>
      </trkpt>
      <trkpt lat="43.96307" lon="5.27028">
        <ele>495.5</ele>
        <time>2019-09-14T13:18:43Z</time>
      </trkpt>
      <trkpt lat="43.96307" lon="5.27036">
        <ele>496.5</ele>
        <time>2019-09-14T13:18:49Z</time>
      </trkpt>
      <trkpt lat="43.96307" lon="5.27043">
        <ele>498.5</ele>
        <time>2019-09-14T13:18:55Z</time>
      </trkpt>
      <trkpt lat="43.9631" lon="5.27047">
        <ele>495.5</ele>
        <time>2019-09-14T13:19:01Z</time>
      </trkpt>
      <trkpt lat="43.96314" lon="5.2706">
        <ele>496.5</ele>
        <time>2019-09-14T13:19:07Z</time>
      </trkpt>
      <trkpt lat="43.9632" lon="5.27071">
        <ele>497.5</ele>
        <time>2019-09-14T13:19:13Z</time>
      </trkpt>
      <trkpt lat="43.96318" lon="5.27075">
        <ele>494.5</ele>
        <time>2019-09-14T13:19:19Z</time>
      </trkpt>
      <trkpt lat="43.96319" lon="5.27083">
        <ele>493.5</ele>
        <time>2019-09-14T13:19:24Z</time>
      </trkpt>
      <trkpt lat="43.9632" lon="5.27092">
        <ele>491.5</ele>
        <time>2019-09-14T13:19:30Z</time>
      </trkpt>
      <trkpt lat="43.96322" lon="5.271">
        <ele>491.5</ele>
        <time>2019-09-14T13:19:35Z</time>
      </trkpt>
      <trkpt lat="43.96326" lon="5.2711">
        <ele>494.5</ele>
        <time>2019-09-14T13:19:41Z</time>
      </trkpt>
      <trkpt lat="43.96327" lon="5.27119">
        <ele>493.5</ele>
        <time>2019-09-14T13:19:46Z</time>
      </trkpt>
      <trkpt lat="43.96328" lon="5.27128">
        <ele>495.5</ele>
        <time>2019-09-14T13:19:52Z</time>
      </trkpt>
      <trkpt lat="43.96331" lon="5.27135">
        <ele>497.5</ele>
        <time>2019-09-14T13:19:57Z</time>
      </trkpt>
      <trkpt lat="43.9633" lon="5.2714">
        <ele>499.5</ele>
        <time>2019-09-14T13:20:02Z</time>
      </trkpt>
      <trkpt lat="43.96327" lon="5.2714">
        <ele>497.5</ele>
        <time>2019-09-14T13:20:08Z</time>
      </trkpt>
      <trkpt lat="43.96325" lon="5.27135">
        <ele>498.5</ele>
        <time>2019-09-14T13:20:13Z</time>
      </trkpt>
      <trkpt lat="43.96321" lon="5.27131">
        <ele>495.5</ele>
        <time>2019-09-14T13:20:18Z</time>
      </trkpt>
      <trkpt lat="43.96319" lon="5.27133">
        <ele>492.5</ele>
        <time>2019-09-14T13:20:24Z</time>
      </trkpt>
      <trkpt lat="43.96322" lon="5.27136">
        <ele>492.5</ele>
        <time>2019-09-14T13:20:30Z</time>
      </trkpt>
      <trkpt lat="43.96325" lon="5.27141">
        <ele>497.5</ele>
        <time>2019-09-14T13:20:36Z</time>
      </trkpt>
      <trkpt lat="43.96326" lon="5.27144">
        <ele>500.5</ele>
        <time>2019-09-14T13:20:42Z</time>
      </trkpt>
      <trkpt lat="43.96326" lon="5.27145">
        <ele>501.5</ele>
        <time>2019-09-14T13:20:48Z</time>
      </trkpt>
      <trkpt lat="43.96327" lon="5.27145">
        <ele>501.5</ele>
        <time>2019-09-14T13:20:53Z</time>
      </trkpt>
      <trkpt lat="43.96327" lon="5.27145">
        <ele>501.5</ele>
        <time>2019-09-14T13:20:58Z</time>
      </trkpt>
      <trkpt lat="43.96326" lon="5.27145">
        <ele>501.5</ele>
        <time>2019-09-14T13:21:04Z</time>
      </trkpt>
      <trkpt lat="43.96326" lon="5.27145">
        <ele>501.5</ele>
        <time>2019-09-14T13:21:13Z</time>
      </trkpt>
      <trkpt lat="43.96326" lon="5.27145">
        <ele>501.5</ele>
        <time>2019-09-14T13:21:18Z</time>
      </trkpt>
      <trkpt lat="43.96326" lon="5.27145">
        <ele>501.5</ele>
        <time>2019-09-14T13:21:24Z</time>
      </trkpt>
      <trkpt lat="43.96326" lon="5.27145">
        <ele>501.5</ele>
        <time>2019-09-14T13:21:29Z</time>
      </trkpt>
      <trkpt lat="43.96326" lon="5.27145">
        <ele>501.5</ele>
        <time>2019-09-14T13:21:34Z</time>
      </trkpt>
      <trkpt lat="43.96327" lon="5.27144">
        <ele>501.5</ele>
        <time>2019-09-14T13:21:39Z</time>
      </trkpt>
      <trkpt lat="43.96327" lon="5.27144">
        <ele>501.5</ele>
        <time>2019-09-14T13:21:45Z</time>
      </trkpt>
      <trkpt lat="43.96327" lon="5.27144">
        <ele>501.5</ele>
        <time>2019-09-14T13:21:51Z</time>
      </trkpt>
      <trkpt lat="43.96327" lon="5.27144">
        <ele>501.5</ele>
        <time>2019-09-14T13:21:56Z</time>
      </trkpt>
      <trkpt lat="43.96327" lon="5.27144">
        <ele>501.5</ele>
        <time>2019-09-14T13:22:02Z</time>
      </trkpt>
      <trkpt lat="43.96327" lon="5.27144">
        <ele>501.5</ele>
        <time>2019-09-14T13:22:08Z</time>
      </trkpt>
      <trkpt lat="43.96327" lon="5.27144">
        <ele>501.5</ele>
        <time>2019-09-14T13:22:14Z</time>
      </trkpt>
      <trkpt lat="43.96327" lon="5.27144">
        <ele>501.5</ele>
        <time>2019-09-14T13:22:19Z</time>
      </trkpt>
      <trkpt lat="43.96327" lon="5.27144">
        <ele>501.5</ele>
        <time>2019-09-14T13:22:25Z</time>
      </trkpt>
      <trkpt lat="43.96327" lon="5.27144">
        <ele>501.5</ele>
        <time>2019-09-14T13:22:30Z</time>
      </trkpt>
      <trkpt lat="43.96327" lon="5.27144">
        <ele>501.5</ele>
        <time>2019-09-14T13:22:35Z</time>
      </trkpt>
      <trkpt lat="43.96327" lon="5.27144">
        <ele>501.5</ele>
        <time>2019-09-14T13:22:41Z</time>
      </trkpt>
      <trkpt lat="43.96327" lon="5.27144">
        <ele>501.5</ele>
        <time>2019-09-14T13:22:46Z</time>
      </trkpt>
      <trkpt lat="43.96327" lon="5.27144">
        <ele>501.5</ele>
        <time>2019-09-14T13:22:52Z</time>
      </trkpt>
      <trkpt lat="43.96327" lon="5.27144">
        <ele>501.5</ele>
        <time>2019-09-14T13:22:57Z</time>
      </trkpt>
      <trkpt lat="43.96331" lon="5.27154">
        <ele>498.5</ele>
        <time>2019-09-14T13:23:02Z</time>
      </trkpt>
      <trkpt lat="43.96339" lon="5.27166">
        <ele>500.5</ele>
        <time>2019-09-14T13:23:08Z</time>
      </trkpt>
      <trkpt lat="43.96342" lon="5.2717">
        <ele>502.5</ele>
        <time>2019-09-14T13:23:14Z</time>
      </trkpt>
      <trkpt lat="43.96343" lon="5.27171">
        <ele>500.5</ele>
        <time>2019-09-14T13:23:20Z</time>
      </trkpt>
      <trkpt lat="43.96342" lon="5.27171">
        <ele>501.5</ele>
        <time>2019-09-14T13:23:25Z</time>
      </trkpt>
      <trkpt lat="43.96343" lon="5.27171">
        <ele>501.5</ele>
        <time>2019-09-14T13:23:31Z</time>
      </trkpt>
      <trkpt lat="43.96351" lon="5.27184">
        <ele>503.5</ele>
        <time>2019-09-14T13:23:36Z</time>
      </trkpt>
      <trkpt lat="43.96355" lon="5.27191">
        <ele>504.5</ele>
        <time>2019-09-14T13:23:41Z</time>
      </trkpt>
      <trkpt lat="43.96358" lon="5.27197">
        <ele>502.5</ele>
        <time>2019-09-14T13:23:47Z</time>
      </trkpt>
      <trkpt lat="43.9636" lon="5.27207">
        <ele>503.5</ele>
        <time>2019-09-14T13:23:53Z</time>
      </trkpt>
      <trkpt lat="43.96365" lon="5.27214">
        <ele>503.5</ele>
        <time>2019-09-14T13:23:59Z</time>
      </trkpt>
      <trkpt lat="43.96366" lon="5.2722">
        <ele>501.5</ele>
        <time>2019-09-14T13:24:04Z</time>
      </trkpt>
      <trkpt lat="43.96362" lon="5.27229">
        <ele>499.5</ele>
        <time>2019-09-14T13:24:09Z</time>
      </trkpt>
      <trkpt lat="43.96365" lon="5.27237">
        <ele>501.5</ele>
        <time>2019-09-14T13:24:15Z</time>
      </trkpt>
      <trkpt lat="43.96368" lon="5.2724">
        <ele>502.5</ele>
        <time>2019-09-14T13:24:21Z</time>
      </trkpt>
      <trkpt lat="43.96371" lon="5.27248">
        <ele>501.5</ele>
        <time>2019-09-14T13:24:26Z</time>
      </trkpt>
      <trkpt lat="43.9638" lon="5.27262">
        <ele>506.5</ele>
        <time>2019-09-14T13:24:32Z</time>
      </trkpt>
      <trkpt lat="43.96383" lon="5.27271">
        <ele>508.5</ele>
        <time>2019-09-14T13:24:38Z</time>
      </trkpt>
      <trkpt lat="43.96384" lon="5.27278">
        <ele>507.5</ele>
        <time>2019-09-14T13:24:43Z</time>
      </trkpt>
      <trkpt lat="43.96383" lon="5.27277">
        <ele>507.5</ele>
        <time>2019-09-14T13:24:49Z</time>
      </trkpt>
      <trkpt lat="43.96381" lon="5.27278">
        <ele>505.5</ele>
        <time>2019-09-14T13:24:54Z</time>
      </trkpt>
      <trkpt lat="43.96381" lon="5.27279">
        <ele>505.5</ele>
        <time>2019-09-14T13:24:59Z</time>
      </trkpt>
      <trkpt lat="43.96383" lon="5.27284">
        <ele>506.5</ele>
        <time>2019-09-14T13:25:04Z</time>
      </trkpt>
      <trkpt lat="43.96379" lon="5.27295">
        <ele>504.5</ele>
        <time>2019-09-14T13:25:09Z</time>
      </trkpt>
      <trkpt lat="43.9638" lon="5.27304">
        <ele>503.5</ele>
        <time>2019-09-14T13:25:15Z</time>
      </trkpt>
      <trkpt lat="43.96381" lon="5.27308">
        <ele>500.5</ele>
        <time>2019-09-14T13:25:20Z</time>
      </trkpt>
      <trkpt lat="43.96388" lon="5.2731">
        <ele>499.5</ele>
        <time>2019-09-14T13:25:26Z</time>
      </trkpt>
      <trkpt lat="43.96395" lon="5.27309">
        <ele>499.5</ele>
        <time>2019-09-14T13:25:31Z</time>
      </trkpt>
      <trkpt lat="43.96402" lon="5.27307">
        <ele>501.5</ele>
        <time>2019-09-14T13:25:37Z</time>
      </trkpt>
      <trkpt lat="43.96407" lon="5.27304">
        <ele>504.5</ele>
        <time>2019-09-14T13:25:42Z</time>
      </trkpt>
      <trkpt lat="43.96409" lon="5.273">
        <ele>503.5</ele>
        <time>2019-09-14T13:25:48Z</time>
      </trkpt>
      <trkpt lat="43.96411" lon="5.27299">
        <ele>503.5</ele>
        <time>2019-09-14T13:25:54Z</time>
      </trkpt>
      <trkpt lat="43.96415" lon="5.27301">
        <ele>504.5</ele>
        <time>2019-09-14T13:25:59Z</time>
      </trkpt>
      <trkpt lat="43.96417" lon="5.27296">
        <ele>507.5</ele>
        <time>2019-09-14T13:26:04Z</time>
      </trkpt>
      <trkpt lat="43.96419" lon="5.27299">
        <ele>508.5</ele>
        <time>2019-09-14T13:26:09Z</time>
      </trkpt>
      <trkpt lat="43.96419" lon="5.27298">
        <ele>508.5</ele>
        <time>2019-09-14T13:26:14Z</time>
      </trkpt>
      <trkpt lat="43.96419" lon="5.27297">
        <ele>507.5</ele>
        <time>2019-09-14T13:26:20Z</time>
      </trkpt>
      <trkpt lat="43.9642" lon="5.27297">
        <ele>508.5</ele>
        <time>2019-09-14T13:26:25Z</time>
      </trkpt>
      <trkpt lat="43.9642" lon="5.27297">
        <ele>507.5</ele>
        <time>2019-09-14T13:26:30Z</time>
      </trkpt>
      <trkpt lat="43.9642" lon="5.27297">
        <ele>508.5</ele>
        <time>2019-09-14T13:26:36Z</time>
      </trkpt>
      <trkpt lat="43.9642" lon="5.27297">
        <ele>508.5</ele>
        <time>2019-09-14T13:26:42Z</time>
      </trkpt>
      <trkpt lat="43.9642" lon="5.27297">
        <ele>508.5</ele>
        <time>2019-09-14T13:26:48Z</time>
      </trkpt>
      <trkpt lat="43.9642" lon="5.27297">
        <ele>508.5</ele>
        <time>2019-09-14T13:26:54Z</time>
      </trkpt>
      <trkpt lat="43.9642" lon="5.27297">
        <ele>508.5</ele>
        <time>2019-09-14T13:27:00Z</time>
      </trkpt>
      <trkpt lat="43.9642" lon="5.27297">
        <ele>508.5</ele>
        <time>2019-09-14T13:27:05Z</time>
      </trkpt>
      <trkpt lat="43.9642" lon="5.27297">
        <ele>508.5</ele>
        <time>2019-09-14T13:27:11Z</time>
      </trkpt>
      <trkpt lat="43.9642" lon="5.27297">
        <ele>508.5</ele>
        <time>2019-09-14T13:27:16Z</time>
      </trkpt>
      <trkpt lat="43.9642" lon="5.27297">
        <ele>508.5</ele>
        <time>2019-09-14T13:27:22Z</time>
      </trkpt>
      <trkpt lat="43.9642" lon="5.27298">
        <ele>508.5</ele>
        <time>2019-09-14T13:27:27Z</time>
      </trkpt>
      <trkpt lat="43.96419" lon="5.273">
        <ele>509.5</ele>
        <time>2019-09-14T13:27:33Z</time>
      </trkpt>
      <trkpt lat="43.96419" lon="5.273">
        <ele>509.5</ele>
        <time>2019-09-14T13:27:38Z</time>
      </trkpt>
      <trkpt lat="43.96419" lon="5.273">
        <ele>509.5</ele>
        <time>2019-09-14T13:27:44Z</time>
      </trkpt>
      <trkpt lat="43.96419" lon="5.273">
        <ele>509.5</ele>
        <time>2019-09-14T13:27:49Z</time>
      </trkpt>
      <trkpt lat="43.96419" lon="5.273">
        <ele>509.5</ele>
        <time>2019-09-14T13:27:54Z</time>
      </trkpt>
      <trkpt lat="43.96419" lon="5.273">
        <ele>509.5</ele>
        <time>2019-09-14T13:28:00Z</time>
      </trkpt>
      <trkpt lat="43.96419" lon="5.27301">
        <ele>510.5</ele>
        <time>2019-09-14T13:28:06Z</time>
      </trkpt>
      <trkpt lat="43.96419" lon="5.27301">
        <ele>510.5</ele>
        <time>2019-09-14T13:28:12Z</time>
      </trkpt>
      <trkpt lat="43.96419" lon="5.27301">
        <ele>510.5</ele>
        <time>2019-09-14T13:28:17Z</time>
      </trkpt>
      <trkpt lat="43.96419" lon="5.27301">
        <ele>510.5</ele>
        <time>2019-09-14T13:28:23Z</time>
      </trkpt>
      <trkpt lat="43.96419" lon="5.27301">
        <ele>510.5</ele>
        <time>2019-09-14T13:28:29Z</time>
      </trkpt>
      <trkpt lat="43.96419" lon="5.27301">
        <ele>510.5</ele>
        <time>2019-09-14T13:28:34Z</time>
      </trkpt>
      <trkpt lat="43.96419" lon="5.27301">
        <ele>510.5</ele>
        <time>2019-09-14T13:28:39Z</time>
      </trkpt>
      <trkpt lat="43.96419" lon="5.27301">
        <ele>510.5</ele>
        <time>2019-09-14T13:28:44Z</time>
      </trkpt>
      <trkpt lat="43.96419" lon="5.27301">
        <ele>510.5</ele>
        <time>2019-09-14T13:28:49Z</time>
      </trkpt>
      <trkpt lat="43.96419" lon="5.27301">
        <ele>510.5</ele>
        <time>2019-09-14T13:28:55Z</time>
      </trkpt>
      <trkpt lat="43.96419" lon="5.27301">
        <ele>510.5</ele>
        <time>2019-09-14T13:29:00Z</time>
      </trkpt>
      <trkpt lat="43.96419" lon="5.27301">
        <ele>510.5</ele>
        <time>2019-09-14T13:29:07Z</time>
      </trkpt>
      <trkpt lat="43.96419" lon="5.27301">
        <ele>510.5</ele>
        <time>2019-09-14T13:29:12Z</time>
      </trkpt>
      <trkpt lat="43.96419" lon="5.27301">
        <ele>510.5</ele>
        <time>2019-09-14T13:29:17Z</time>
      </trkpt>
      <trkpt lat="43.96419" lon="5.27301">
        <ele>510.5</ele>
        <time>2019-09-14T13:29:23Z</time>
      </trkpt>
      <trkpt lat="43.96419" lon="5.27301">
        <ele>510.5</ele>
        <time>2019-09-14T13:29:28Z</time>
      </trkpt>
      <trkpt lat="43.96419" lon="5.27301">
        <ele>510.5</ele>
        <time>2019-09-14T13:29:34Z</time>
      </trkpt>
      <trkpt lat="43.96419" lon="5.27301">
        <ele>510.5</ele>
        <time>2019-09-14T13:29:40Z</time>
      </trkpt>
      <trkpt lat="43.96419" lon="5.27301">
        <ele>510.5</ele>
        <time>2019-09-14T13:29:45Z</time>
      </trkpt>
      <trkpt lat="43.96419" lon="5.27301">
        <ele>510.5</ele>
        <time>2019-09-14T13:29:50Z</time>
      </trkpt>
      <trkpt lat="43.96419" lon="5.27301">
        <ele>509.5</ele>
        <time>2019-09-14T13:29:56Z</time>
      </trkpt>
      <trkpt lat="43.96416" lon="5.27298">
        <ele>505.5</ele>
        <time>2019-09-14T13:30:01Z</time>
      </trkpt>
      <trkpt lat="43.96416" lon="5.27299">
        <ele>505.5</ele>
        <time>2019-09-14T13:30:06Z</time>
      </trkpt>
      <trkpt lat="43.9641" lon="5.27304">
        <ele>509.5</ele>
        <time>2019-09-14T13:30:12Z</time>
      </trkpt>
      <trkpt lat="43.96404" lon="5.2731">
        <ele>511.5</ele>
        <time>2019-09-14T13:30:18Z</time>
      </trkpt>
      <trkpt lat="43.96403" lon="5.27309">
        <ele>510.5</ele>
        <time>2019-09-14T13:30:24Z</time>
      </trkpt>
      <trkpt lat="43.96398" lon="5.27307">
        <ele>508.5</ele>
        <time>2019-09-14T13:30:30Z</time>
      </trkpt>
      <trkpt lat="43.9639" lon="5.27305">
        <ele>510.5</ele>
        <time>2019-09-14T13:30:36Z</time>
      </trkpt>
      <trkpt lat="43.96385" lon="5.27302">
        <ele>511.5</ele>
        <time>2019-09-14T13:30:42Z</time>
      </trkpt>
      <trkpt lat="43.96384" lon="5.27297">
        <ele>508.5</ele>
        <time>2019-09-14T13:30:48Z</time>
      </trkpt>
      <trkpt lat="43.9638" lon="5.27288">
        <ele>508.5</ele>
        <time>2019-09-14T13:30:53Z</time>
      </trkpt>
      <trkpt lat="43.96377" lon="5.27282">
        <ele>509.5</ele>
        <time>2019-09-14T13:30:59Z</time>
      </trkpt>
      <trkpt lat="43.96375" lon="5.27276">
        <ele>509.5</ele>
        <time>2019-09-14T13:31:05Z</time>
      </trkpt>
      <trkpt lat="43.96374" lon="5.27274">
        <ele>509.5</ele>
        <time>2019-09-14T13:31:10Z</time>
      </trkpt>
      <trkpt lat="43.96372" lon="5.27266">
        <ele>509.5</ele>
        <time>2019-09-14T13:31:16Z</time>
      </trkpt>
      <trkpt lat="43.96372" lon="5.27255">
        <ele>510.5</ele>
        <time>2019-09-14T13:31:22Z</time>
      </trkpt>
      <trkpt lat="43.96369" lon="5.27249">
        <ele>511.5</ele>
        <time>2019-09-14T13:31:27Z</time>
      </trkpt>
      <trkpt lat="43.96366" lon="5.27245">
        <ele>511.5</ele>
        <time>2019-09-14T13:31:32Z</time>
      </trkpt>
      <trkpt lat="43.96361" lon="5.2724">
        <ele>511.5</ele>
        <time>2019-09-14T13:31:38Z</time>
      </trkpt>
      <trkpt lat="43.96356" lon="5.27239">
        <ele>510.5</ele>
        <time>2019-09-14T13:31:43Z</time>
      </trkpt>
      <trkpt lat="43.96351" lon="5.27243">
        <ele>513.5</ele>
        <time>2019-09-14T13:31:49Z</time>
      </trkpt>
      <trkpt lat="43.96344" lon="5.27246">
        <ele>514.5</ele>
        <time>2019-09-14T13:31:54Z</time>
      </trkpt>
      <trkpt lat="43.9634" lon="5.27248">
        <ele>511.5</ele>
        <time>2019-09-14T13:32:00Z</time>
      </trkpt>
      <trkpt lat="43.96337" lon="5.27249">
        <ele>511.5</ele>
        <time>2019-09-14T13:32:06Z</time>
      </trkpt>
      <trkpt lat="43.96336" lon="5.27249">
        <ele>510.5</ele>
        <time>2019-09-14T13:32:12Z</time>
      </trkpt>
      <trkpt lat="43.96336" lon="5.2725">
        <ele>511.5</ele>
        <time>2019-09-14T13:32:18Z</time>
      </trkpt>
      <trkpt lat="43.96336" lon="5.2725">
        <ele>511.5</ele>
        <time>2019-09-14T13:32:24Z</time>
      </trkpt>
      <trkpt lat="43.96336" lon="5.2725">
        <ele>511.5</ele>
        <time>2019-09-14T13:32:30Z</time>
      </trkpt>
      <trkpt lat="43.96336" lon="5.2725">
        <ele>511.5</ele>
        <time>2019-09-14T13:32:35Z</time>
      </trkpt>
      <trkpt lat="43.96336" lon="5.2725">
        <ele>511.5</ele>
        <time>2019-09-14T13:32:40Z</time>
      </trkpt>
      <trkpt lat="43.96336" lon="5.2725">
        <ele>511.5</ele>
        <time>2019-09-14T13:32:46Z</time>
      </trkpt>
      <trkpt lat="43.96336" lon="5.2725">
        <ele>511.5</ele>
        <time>2019-09-14T13:32:52Z</time>
      </trkpt>
      <trkpt lat="43.96336" lon="5.2725">
        <ele>511.5</ele>
        <time>2019-09-14T13:32:57Z</time>
      </trkpt>
      <trkpt lat="43.96329" lon="5.27251">
        <ele>511.5</ele>
        <time>2019-09-14T13:33:03Z</time>
      </trkpt>
      <trkpt lat="43.96314" lon="5.27247">
        <ele>510.5</ele>
        <time>2019-09-14T13:33:08Z</time>
      </trkpt>
      <trkpt lat="43.96308" lon="5.27237">
        <ele>512.5</ele>
        <time>2019-09-14T13:33:13Z</time>
      </trkpt>
      <trkpt lat="43.96315" lon="5.27249">
        <ele>510.5</ele>
        <time>2019-09-14T13:33:19Z</time>
      </trkpt>
      <trkpt lat="43.96312" lon="5.27231">
        <ele>513.5</ele>
        <time>2019-09-14T13:33:25Z</time>
      </trkpt>
      <trkpt lat="43.96295" lon="5.27251">
        <ele>513.5</ele>
        <time>2019-09-14T13:33:31Z</time>
      </trkpt>
      <trkpt lat="43.96301" lon="5.27256">
        <ele>514.5</ele>
        <time>2019-09-14T13:33:37Z</time>
      </trkpt>
      <trkpt lat="43.96307" lon="5.27248">
        <ele>510.5</ele>
        <time>2019-09-14T13:33:43Z</time>
      </trkpt>
      <trkpt lat="43.96308" lon="5.27244">
        <ele>510.5</ele>
        <time>2019-09-14T13:33:48Z</time>
      </trkpt>
      <trkpt lat="43.96309" lon="5.27247">
        <ele>514.5</ele>
        <time>2019-09-14T13:33:53Z</time>
      </trkpt>
      <trkpt lat="43.96297" lon="5.27239">
        <ele>514.5</ele>
        <time>2019-09-14T13:33:59Z</time>
      </trkpt>
      <trkpt lat="43.963" lon="5.27239">
        <ele>517.5</ele>
        <time>2019-09-14T13:34:07Z</time>
      </trkpt>
      <trkpt lat="43.96306" lon="5.27242">
        <ele>520.5</ele>
        <time>2019-09-14T13:34:13Z</time>
      </trkpt>
      <trkpt lat="43.96303" lon="5.2724">
        <ele>518.5</ele>
        <time>2019-09-14T13:34:18Z</time>
      </trkpt>
      <trkpt lat="43.96311" lon="5.27245">
        <ele>512.5</ele>
        <time>2019-09-14T13:34:24Z</time>
      </trkpt>
      <trkpt lat="43.96312" lon="5.27249">
        <ele>512.5</ele>
        <time>2019-09-14T13:34:29Z</time>
      </trkpt>
      <trkpt lat="43.96312" lon="5.2725">
        <ele>512.5</ele>
        <time>2019-09-14T13:34:35Z</time>
      </trkpt>
      <trkpt lat="43.96312" lon="5.27251">
        <ele>512.5</ele>
        <time>2019-09-14T13:34:40Z</time>
      </trkpt>
      <trkpt lat="43.96313" lon="5.27252">
        <ele>512.5</ele>
        <time>2019-09-14T13:34:46Z</time>
      </trkpt>
      <trkpt lat="43.96313" lon="5.27252">
        <ele>512.5</ele>
        <time>2019-09-14T13:34:52Z</time>
      </trkpt>
      <trkpt lat="43.96315" lon="5.27252">
        <ele>510.5</ele>
        <time>2019-09-14T13:34:58Z</time>
      </trkpt>
      <trkpt lat="43.96315" lon="5.27252">
        <ele>511.5</ele>
        <time>2019-09-14T13:35:04Z</time>
      </trkpt>
      <trkpt lat="43.96315" lon="5.27252">
        <ele>511.5</ele>
        <time>2019-09-14T13:35:10Z</time>
      </trkpt>
      <trkpt lat="43.96315" lon="5.27252">
        <ele>511.5</ele>
        <time>2019-09-14T13:35:15Z</time>
      </trkpt>
      <trkpt lat="43.96315" lon="5.27252">
        <ele>511.5</ele>
        <time>2019-09-14T13:35:21Z</time>
      </trkpt>
      <trkpt lat="43.96315" lon="5.27252">
        <ele>511.5</ele>
        <time>2019-09-14T13:35:26Z</time>
      </trkpt>
      <trkpt lat="43.96315" lon="5.27252">
        <ele>511.5</ele>
        <time>2019-09-14T13:35:32Z</time>
      </trkpt>
      <trkpt lat="43.96315" lon="5.27252">
        <ele>511.5</ele>
        <time>2019-09-14T13:35:37Z</time>
      </trkpt>
      <trkpt lat="43.96315" lon="5.27252">
        <ele>511.5</ele>
        <time>2019-09-14T13:35:42Z</time>
      </trkpt>
      <trkpt lat="43.96315" lon="5.27252">
        <ele>511.5</ele>
        <time>2019-09-14T13:35:48Z</time>
      </trkpt>
      <trkpt lat="43.96315" lon="5.27252">
        <ele>511.5</ele>
        <time>2019-09-14T13:35:54Z</time>
      </trkpt>
      <trkpt lat="43.96315" lon="5.27252">
        <ele>511.5</ele>
        <time>2019-09-14T13:35:59Z</time>
      </trkpt>
      <trkpt lat="43.96315" lon="5.27252">
        <ele>511.5</ele>
        <time>2019-09-14T13:36:05Z</time>
      </trkpt>
      <trkpt lat="43.96315" lon="5.27252">
        <ele>511.5</ele>
        <time>2019-09-14T13:36:10Z</time>
      </trkpt>
      <trkpt lat="43.96315" lon="5.27252">
        <ele>511.5</ele>
        <time>2019-09-14T13:36:16Z</time>
      </trkpt>
      <trkpt lat="43.96315" lon="5.27252">
        <ele>511.5</ele>
        <time>2019-09-14T13:36:22Z</time>
      </trkpt>
      <trkpt lat="43.96315" lon="5.27252">
        <ele>511.5</ele>
        <time>2019-09-14T13:36:27Z</time>
      </trkpt>
      <trkpt lat="43.96315" lon="5.27252">
        <ele>511.5</ele>
        <time>2019-09-14T13:36:32Z</time>
      </trkpt>
      <trkpt lat="43.96315" lon="5.27252">
        <ele>511.5</ele>
        <time>2019-09-14T13:36:38Z</time>
      </trkpt>
      <trkpt lat="43.96315" lon="5.27252">
        <ele>511.5</ele>
        <time>2019-09-14T13:36:44Z</time>
      </trkpt>
      <trkpt lat="43.96315" lon="5.27252">
        <ele>511.5</ele>
        <time>2019-09-14T13:36:50Z</time>
      </trkpt>
      <trkpt lat="43.96315" lon="5.27252">
        <ele>510.5</ele>
        <time>2019-09-14T13:36:55Z</time>
      </trkpt>
      <trkpt lat="43.96315" lon="5.27252">
        <ele>510.5</ele>
        <time>2019-09-14T13:37:01Z</time>
      </trkpt>
      <trkpt lat="43.96315" lon="5.27252">
        <ele>510.5</ele>
        <time>2019-09-14T13:37:07Z</time>
      </trkpt>
      <trkpt lat="43.96315" lon="5.27252">
        <ele>510.5</ele>
        <time>2019-09-14T13:37:13Z</time>
      </trkpt>
      <trkpt lat="43.96315" lon="5.27252">
        <ele>510.5</ele>
        <time>2019-09-14T13:37:19Z</time>
      </trkpt>
      <trkpt lat="43.96315" lon="5.27252">
        <ele>510.5</ele>
        <time>2019-09-14T13:37:25Z</time>
      </trkpt>
      <trkpt lat="43.96315" lon="5.27252">
        <ele>510.5</ele>
        <time>2019-09-14T13:37:31Z</time>
      </trkpt>
      <trkpt lat="43.96315" lon="5.27252">
        <ele>510.5</ele>
        <time>2019-09-14T13:37:36Z</time>
      </trkpt>
      <trkpt lat="43.96315" lon="5.27252">
        <ele>510.5</ele>
        <time>2019-09-14T13:37:41Z</time>
      </trkpt>
      <trkpt lat="43.96315" lon="5.27252">
        <ele>510.5</ele>
        <time>2019-09-14T13:37:47Z</time>
      </trkpt>
      <trkpt lat="43.96315" lon="5.27252">
        <ele>510.5</ele>
        <time>2019-09-14T13:37:52Z</time>
      </trkpt>
      <trkpt lat="43.96315" lon="5.27252">
        <ele>510.5</ele>
        <time>2019-09-14T13:37:58Z</time>
      </trkpt>
      <trkpt lat="43.96315" lon="5.27252">
        <ele>510.5</ele>
        <time>2019-09-14T13:38:03Z</time>
      </trkpt>
      <trkpt lat="43.96315" lon="5.27252">
        <ele>510.5</ele>
        <time>2019-09-14T13:38:09Z</time>
      </trkpt>
      <trkpt lat="43.96315" lon="5.27252">
        <ele>510.5</ele>
        <time>2019-09-14T13:38:15Z</time>
      </trkpt>
      <trkpt lat="43.96315" lon="5.27252">
        <ele>510.5</ele>
        <time>2019-09-14T13:38:21Z</time>
      </trkpt>
      <trkpt lat="43.96315" lon="5.27252">
        <ele>510.5</ele>
        <time>2019-09-14T13:38:27Z</time>
      </trkpt>
      <trkpt lat="43.96315" lon="5.27252">
        <ele>510.5</ele>
        <time>2019-09-14T13:38:32Z</time>
      </trkpt>
      <trkpt lat="43.96315" lon="5.27252">
        <ele>510.5</ele>
        <time>2019-09-14T13:38:38Z</time>
      </trkpt>
      <trkpt lat="43.96315" lon="5.27252">
        <ele>510.5</ele>
        <time>2019-09-14T13:38:43Z</time>
      </trkpt>
      <trkpt lat="43.96315" lon="5.27252">
        <ele>510.5</ele>
        <time>2019-09-14T13:38:49Z</time>
      </trkpt>
      <trkpt lat="43.96315" lon="5.27252">
        <ele>510.5</ele>
        <time>2019-09-14T13:38:54Z</time>
      </trkpt>
      <trkpt lat="43.96315" lon="5.27252">
        <ele>510.5</ele>
        <time>2019-09-14T13:38:59Z</time>
      </trkpt>
      <trkpt lat="43.96315" lon="5.27252">
        <ele>510.5</ele>
        <time>2019-09-14T13:39:05Z</time>
      </trkpt>
      <trkpt lat="43.96315" lon="5.27252">
        <ele>510.5</ele>
        <time>2019-09-14T13:39:11Z</time>
      </trkpt>
      <trkpt lat="43.96315" lon="5.27252">
        <ele>510.5</ele>
        <time>2019-09-14T13:39:16Z</time>
      </trkpt>
      <trkpt lat="43.96315" lon="5.27252">
        <ele>510.5</ele>
        <time>2019-09-14T13:39:22Z</time>
      </trkpt>
      <trkpt lat="43.96315" lon="5.27257">
        <ele>494.5</ele>
        <time>2019-09-14T13:39:28Z</time>
      </trkpt>
      <trkpt lat="43.96315" lon="5.27252">
        <ele>510.5</ele>
        <time>2019-09-14T13:39:34Z</time>
      </trkpt>
      <trkpt lat="43.96315" lon="5.27252">
        <ele>510.5</ele>
        <time>2019-09-14T13:39:40Z</time>
      </trkpt>
      <trkpt lat="43.96315" lon="5.27252">
        <ele>510.5</ele>
        <time>2019-09-14T13:39:46Z</time>
      </trkpt>
      <trkpt lat="43.96315" lon="5.27252">
        <ele>510.5</ele>
        <time>2019-09-14T13:39:51Z</time>
      </trkpt>
      <trkpt lat="43.96315" lon="5.27252">
        <ele>510.5</ele>
        <time>2019-09-14T13:39:57Z</time>
      </trkpt>
      <trkpt lat="43.96315" lon="5.27252">
        <ele>510.5</ele>
        <time>2019-09-14T13:40:02Z</time>
      </trkpt>
      <trkpt lat="43.96315" lon="5.27252">
        <ele>510.5</ele>
        <time>2019-09-14T13:40:08Z</time>
      </trkpt>
      <trkpt lat="43.96315" lon="5.27252">
        <ele>510.5</ele>
        <time>2019-09-14T13:40:14Z</time>
      </trkpt>
      <trkpt lat="43.96315" lon="5.27252">
        <ele>510.5</ele>
        <time>2019-09-14T13:40:20Z</time>
      </trkpt>
      <trkpt lat="43.96315" lon="5.27252">
        <ele>511.5</ele>
        <time>2019-09-14T13:40:25Z</time>
      </trkpt>
      <trkpt lat="43.96315" lon="5.27252">
        <ele>511.5</ele>
        <time>2019-09-14T13:40:30Z</time>
      </trkpt>
      <trkpt lat="43.96315" lon="5.27252">
        <ele>511.5</ele>
        <time>2019-09-14T13:40:35Z</time>
      </trkpt>
      <trkpt lat="43.96315" lon="5.27252">
        <ele>511.5</ele>
        <time>2019-09-14T13:40:41Z</time>
      </trkpt>
      <trkpt lat="43.96314" lon="5.27252">
        <ele>511.5</ele>
        <time>2019-09-14T13:40:46Z</time>
      </trkpt>
      <trkpt lat="43.96314" lon="5.27252">
        <ele>511.5</ele>
        <time>2019-09-14T13:40:52Z</time>
      </trkpt>
      <trkpt lat="43.96314" lon="5.27252">
        <ele>511.5</ele>
        <time>2019-09-14T13:40:57Z</time>
      </trkpt>
      <trkpt lat="43.96314" lon="5.27252">
        <ele>511.5</ele>
        <time>2019-09-14T13:41:03Z</time>
      </trkpt>
      <trkpt lat="43.96314" lon="5.27252">
        <ele>511.5</ele>
        <time>2019-09-14T13:41:09Z</time>
      </trkpt>
      <trkpt lat="43.96314" lon="5.27252">
        <ele>511.5</ele>
        <time>2019-09-14T13:41:15Z</time>
      </trkpt>
      <trkpt lat="43.96315" lon="5.27252">
        <ele>511.5</ele>
        <time>2019-09-14T13:41:20Z</time>
      </trkpt>
      <trkpt lat="43.96315" lon="5.27252">
        <ele>511.5</ele>
        <time>2019-09-14T13:41:26Z</time>
      </trkpt>
      <trkpt lat="43.96315" lon="5.27252">
        <ele>511.5</ele>
        <time>2019-09-14T13:41:32Z</time>
      </trkpt>
      <trkpt lat="43.96315" lon="5.27252">
        <ele>511.5</ele>
        <time>2019-09-14T13:41:37Z</time>
      </trkpt>
      <trkpt lat="43.96315" lon="5.27252">
        <ele>511.5</ele>
        <time>2019-09-14T13:41:42Z</time>
      </trkpt>
      <trkpt lat="43.96315" lon="5.27252">
        <ele>511.5</ele>
        <time>2019-09-14T13:41:48Z</time>
      </trkpt>
      <trkpt lat="43.96314" lon="5.27252">
        <ele>511.5</ele>
        <time>2019-09-14T13:41:54Z</time>
      </trkpt>
      <trkpt lat="43.96314" lon="5.27252">
        <ele>511.5</ele>
        <time>2019-09-14T13:41:59Z</time>
      </trkpt>
      <trkpt lat="43.96314" lon="5.27252">
        <ele>511.5</ele>
        <time>2019-09-14T13:42:05Z</time>
      </trkpt>
      <trkpt lat="43.96314" lon="5.27251">
        <ele>511.5</ele>
        <time>2019-09-14T13:42:10Z</time>
      </trkpt>
      <trkpt lat="43.96314" lon="5.27251">
        <ele>511.5</ele>
        <time>2019-09-14T13:42:16Z</time>
      </trkpt>
      <trkpt lat="43.96318" lon="5.2725">
        <ele>511.5</ele>
        <time>2019-09-14T13:42:22Z</time>
      </trkpt>
      <trkpt lat="43.96319" lon="5.2725">
        <ele>510.5</ele>
        <time>2019-09-14T13:42:27Z</time>
      </trkpt>
      <trkpt lat="43.96318" lon="5.2725">
        <ele>511.5</ele>
        <time>2019-09-14T13:42:33Z</time>
      </trkpt>
      <trkpt lat="43.96317" lon="5.2725">
        <ele>511.5</ele>
        <time>2019-09-14T13:42:39Z</time>
      </trkpt>
      <trkpt lat="43.96317" lon="5.2725">
        <ele>511.5</ele>
        <time>2019-09-14T13:42:44Z</time>
      </trkpt>
      <trkpt lat="43.96318" lon="5.2725">
        <ele>510.5</ele>
        <time>2019-09-14T13:42:49Z</time>
      </trkpt>
      <trkpt lat="43.96317" lon="5.27248">
        <ele>510.5</ele>
        <time>2019-09-14T13:42:54Z</time>
      </trkpt>
      <trkpt lat="43.96317" lon="5.27249">
        <ele>510.5</ele>
        <time>2019-09-14T13:43:00Z</time>
      </trkpt>
      <trkpt lat="43.96317" lon="5.27249">
        <ele>510.5</ele>
        <time>2019-09-14T13:43:06Z</time>
      </trkpt>
      <trkpt lat="43.96317" lon="5.27249">
        <ele>510.5</ele>
        <time>2019-09-14T13:43:12Z</time>
      </trkpt>
      <trkpt lat="43.96317" lon="5.27249">
        <ele>510.5</ele>
        <time>2019-09-14T13:43:18Z</time>
      </trkpt>
      <trkpt lat="43.96317" lon="5.27249">
        <ele>510.5</ele>
        <time>2019-09-14T13:43:23Z</time>
      </trkpt>
      <trkpt lat="43.96317" lon="5.27248">
        <ele>510.5</ele>
        <time>2019-09-14T13:43:28Z</time>
      </trkpt>
      <trkpt lat="43.96317" lon="5.27249">
        <ele>510.5</ele>
        <time>2019-09-14T13:43:33Z</time>
      </trkpt>
      <trkpt lat="43.96317" lon="5.27248">
        <ele>510.5</ele>
        <time>2019-09-14T13:43:38Z</time>
      </trkpt>
      <trkpt lat="43.96317" lon="5.27249">
        <ele>510.5</ele>
        <time>2019-09-14T13:43:44Z</time>
      </trkpt>
      <trkpt lat="43.96317" lon="5.27249">
        <ele>510.5</ele>
        <time>2019-09-14T13:43:49Z</time>
      </trkpt>
      <trkpt lat="43.96317" lon="5.27249">
        <ele>510.5</ele>
        <time>2019-09-14T13:43:55Z</time>
      </trkpt>
      <trkpt lat="43.96317" lon="5.27249">
        <ele>510.5</ele>
        <time>2019-09-14T13:44:00Z</time>
      </trkpt>
      <trkpt lat="43.96317" lon="5.27249">
        <ele>510.5</ele>
        <time>2019-09-14T13:44:06Z</time>
      </trkpt>
      <trkpt lat="43.96317" lon="5.27249">
        <ele>510.5</ele>
        <time>2019-09-14T13:44:11Z</time>
      </trkpt>
      <trkpt lat="43.96317" lon="5.27249">
        <ele>510.5</ele>
        <time>2019-09-14T13:44:16Z</time>
      </trkpt>
      <trkpt lat="43.96318" lon="5.27249">
        <ele>510.5</ele>
        <time>2019-09-14T13:44:22Z</time>
      </trkpt>
      <trkpt lat="43.96316" lon="5.27253">
        <ele>509.5</ele>
        <time>2019-09-14T13:44:27Z</time>
      </trkpt>
      <trkpt lat="43.96312" lon="5.27257">
        <ele>510.5</ele>
        <time>2019-09-14T13:44:33Z</time>
      </trkpt>
      <trkpt lat="43.9631" lon="5.27262">
        <ele>506.5</ele>
        <time>2019-09-14T13:44:38Z</time>
      </trkpt>
      <trkpt lat="43.96309" lon="5.27262">
        <ele>505.5</ele>
        <time>2019-09-14T13:44:44Z</time>
      </trkpt>
      <trkpt lat="43.96306" lon="5.27264">
        <ele>507.5</ele>
        <time>2019-09-14T13:44:50Z</time>
      </trkpt>
      <trkpt lat="43.96295" lon="5.2727">
        <ele>506.5</ele>
        <time>2019-09-14T13:44:56Z</time>
      </trkpt>
      <trkpt lat="43.96287" lon="5.27274">
        <ele>508.5</ele>
        <time>2019-09-14T13:45:01Z</time>
      </trkpt>
      <trkpt lat="43.96282" lon="5.27275">
        <ele>507.5</ele>
        <time>2019-09-14T13:45:06Z</time>
      </trkpt>
      <trkpt lat="43.96276" lon="5.27279">
        <ele>508.5</ele>
        <time>2019-09-14T13:45:12Z</time>
      </trkpt>
      <trkpt lat="43.9627" lon="5.2728">
        <ele>508.5</ele>
        <time>2019-09-14T13:45:18Z</time>
      </trkpt>
      <trkpt lat="43.9627" lon="5.27276">
        <ele>504.5</ele>
        <time>2019-09-14T13:45:24Z</time>
      </trkpt>
      <trkpt lat="43.96268" lon="5.27285">
        <ele>505.5</ele>
        <time>2019-09-14T13:45:29Z</time>
      </trkpt>
      <trkpt lat="43.96265" lon="5.27285">
        <ele>506.5</ele>
        <time>2019-09-14T13:45:37Z</time>
      </trkpt>
      <trkpt lat="43.9626" lon="5.27293">
        <ele>503.5</ele>
        <time>2019-09-14T13:45:43Z</time>
      </trkpt>
      <trkpt lat="43.96259" lon="5.27293">
        <ele>501.5</ele>
        <time>2019-09-14T13:45:49Z</time>
      </trkpt>
      <trkpt lat="43.96259" lon="5.27293">
        <ele>502.5</ele>
        <time>2019-09-14T13:45:54Z</time>
      </trkpt>
      <trkpt lat="43.96259" lon="5.27292">
        <ele>502.5</ele>
        <time>2019-09-14T13:46:00Z</time>
      </trkpt>
      <trkpt lat="43.96259" lon="5.27292">
        <ele>502.5</ele>
        <time>2019-09-14T13:46:05Z</time>
      </trkpt>
      <trkpt lat="43.96259" lon="5.27292">
        <ele>502.5</ele>
        <time>2019-09-14T13:46:11Z</time>
      </trkpt>
      <trkpt lat="43.9626" lon="5.27292">
        <ele>501.5</ele>
        <time>2019-09-14T13:46:17Z</time>
      </trkpt>
      <trkpt lat="43.96259" lon="5.27292">
        <ele>501.5</ele>
        <time>2019-09-14T13:46:22Z</time>
      </trkpt>
      <trkpt lat="43.9626" lon="5.27292">
        <ele>502.5</ele>
        <time>2019-09-14T13:46:28Z</time>
      </trkpt>
      <trkpt lat="43.9626" lon="5.27292">
        <ele>502.5</ele>
        <time>2019-09-14T13:46:34Z</time>
      </trkpt>
      <trkpt lat="43.9626" lon="5.27292">
        <ele>502.5</ele>
        <time>2019-09-14T13:46:39Z</time>
      </trkpt>
      <trkpt lat="43.9626" lon="5.27292">
        <ele>502.5</ele>
        <time>2019-09-14T13:46:44Z</time>
      </trkpt>
      <trkpt lat="43.9626" lon="5.27292">
        <ele>502.5</ele>
        <time>2019-09-14T13:46:50Z</time>
      </trkpt>
      <trkpt lat="43.9626" lon="5.27291">
        <ele>502.5</ele>
        <time>2019-09-14T13:46:56Z</time>
      </trkpt>
      <trkpt lat="43.9626" lon="5.27291">
        <ele>502.5</ele>
        <time>2019-09-14T13:47:01Z</time>
      </trkpt>
      <trkpt lat="43.9626" lon="5.27291">
        <ele>502.5</ele>
        <time>2019-09-14T13:47:07Z</time>
      </trkpt>
      <trkpt lat="43.9626" lon="5.27291">
        <ele>503.5</ele>
        <time>2019-09-14T13:47:13Z</time>
      </trkpt>
      <trkpt lat="43.9626" lon="5.27291">
        <ele>503.5</ele>
        <time>2019-09-14T13:47:18Z</time>
      </trkpt>
      <trkpt lat="43.9626" lon="5.27291">
        <ele>503.5</ele>
        <time>2019-09-14T13:47:24Z</time>
      </trkpt>
      <trkpt lat="43.9626" lon="5.27291">
        <ele>503.5</ele>
        <time>2019-09-14T13:47:30Z</time>
      </trkpt>
      <trkpt lat="43.96249" lon="5.2729">
        <ele>502.5</ele>
        <time>2019-09-14T13:47:35Z</time>
      </trkpt>
      <trkpt lat="43.96243" lon="5.27292">
        <ele>502.5</ele>
        <time>2019-09-14T13:47:41Z</time>
      </trkpt>
      <trkpt lat="43.96235" lon="5.27298">
        <ele>502.5</ele>
        <time>2019-09-14T13:47:46Z</time>
      </trkpt>
      <trkpt lat="43.96222" lon="5.27308">
        <ele>502.5</ele>
        <time>2019-09-14T13:47:52Z</time>
      </trkpt>
      <trkpt lat="43.9622" lon="5.27307">
        <ele>497.5</ele>
        <time>2019-09-14T13:47:57Z</time>
      </trkpt>
      <trkpt lat="43.96219" lon="5.27311">
        <ele>496.5</ele>
        <time>2019-09-14T13:48:03Z</time>
      </trkpt>
      <trkpt lat="43.96215" lon="5.27311">
        <ele>498.5</ele>
        <time>2019-09-14T13:48:08Z</time>
      </trkpt>
      <trkpt lat="43.96212" lon="5.27313">
        <ele>499.5</ele>
        <time>2019-09-14T13:48:14Z</time>
      </trkpt>
      <trkpt lat="43.9621" lon="5.27315">
        <ele>499.5</ele>
        <time>2019-09-14T13:48:20Z</time>
      </trkpt>
      <trkpt lat="43.96209" lon="5.27315">
        <ele>499.5</ele>
        <time>2019-09-14T13:48:26Z</time>
      </trkpt>
      <trkpt lat="43.96194" lon="5.27323">
        <ele>504.5</ele>
        <time>2019-09-14T13:48:32Z</time>
      </trkpt>
      <trkpt lat="43.96182" lon="5.27331">
        <ele>503.5</ele>
        <time>2019-09-14T13:48:38Z</time>
      </trkpt>
      <trkpt lat="43.96178" lon="5.27333">
        <ele>504.5</ele>
        <time>2019-09-14T13:48:43Z</time>
      </trkpt>
      <trkpt lat="43.96171" lon="5.27345">
        <ele>505.5</ele>
        <time>2019-09-14T13:48:54Z</time>
      </trkpt>
      <trkpt lat="43.96167" lon="5.27349">
        <ele>505.5</ele>
        <time>2019-09-14T13:49:00Z</time>
      </trkpt>
      <trkpt lat="43.96169" lon="5.27356">
        <ele>506.5</ele>
        <time>2019-09-14T13:49:06Z</time>
      </trkpt>
      <trkpt lat="43.96168" lon="5.27364">
        <ele>503.5</ele>
        <time>2019-09-14T13:49:13Z</time>
      </trkpt>
      <trkpt lat="43.96166" lon="5.27369">
        <ele>503.5</ele>
        <time>2019-09-14T13:49:19Z</time>
      </trkpt>
      <trkpt lat="43.96164" lon="5.27371">
        <ele>500.5</ele>
        <time>2019-09-14T13:49:25Z</time>
      </trkpt>
      <trkpt lat="43.96163" lon="5.27377">
        <ele>500.5</ele>
        <time>2019-09-14T13:49:30Z</time>
      </trkpt>
      <trkpt lat="43.96159" lon="5.27388">
        <ele>504.5</ele>
        <time>2019-09-14T13:49:36Z</time>
      </trkpt>
      <trkpt lat="43.96153" lon="5.274">
        <ele>507.5</ele>
        <time>2019-09-14T13:49:42Z</time>
      </trkpt>
      <trkpt lat="43.96149" lon="5.27408">
        <ele>506.5</ele>
        <time>2019-09-14T13:49:48Z</time>
      </trkpt>
      <trkpt lat="43.96143" lon="5.2741">
        <ele>503.5</ele>
        <time>2019-09-14T13:49:54Z</time>
      </trkpt>
      <trkpt lat="43.96137" lon="5.27424">
        <ele>502.5</ele>
        <time>2019-09-14T13:50:11Z</time>
      </trkpt>
      <trkpt lat="43.96135" lon="5.27429">
        <ele>501.5</ele>
        <time>2019-09-14T13:50:17Z</time>
      </trkpt>
      <trkpt lat="43.96132" lon="5.27436">
        <ele>505.5</ele>
        <time>2019-09-14T13:50:23Z</time>
      </trkpt>
      <trkpt lat="43.96126" lon="5.27442">
        <ele>506.5</ele>
        <time>2019-09-14T13:50:29Z</time>
      </trkpt>
      <trkpt lat="43.96124" lon="5.27449">
        <ele>506.5</ele>
        <time>2019-09-14T13:50:34Z</time>
      </trkpt>
      <trkpt lat="43.96121" lon="5.27452">
        <ele>504.5</ele>
        <time>2019-09-14T13:50:40Z</time>
      </trkpt>
      <trkpt lat="43.96118" lon="5.27462">
        <ele>503.5</ele>
        <time>2019-09-14T13:50:46Z</time>
      </trkpt>
      <trkpt lat="43.96114" lon="5.27466">
        <ele>503.5</ele>
        <time>2019-09-14T13:50:51Z</time>
      </trkpt>
      <trkpt lat="43.96113" lon="5.27472">
        <ele>501.5</ele>
        <time>2019-09-14T13:50:57Z</time>
      </trkpt>
      <trkpt lat="43.96109" lon="5.27483">
        <ele>502.5</ele>
        <time>2019-09-14T13:51:03Z</time>
      </trkpt>
      <trkpt lat="43.96104" lon="5.2749">
        <ele>503.5</ele>
        <time>2019-09-14T13:51:09Z</time>
      </trkpt>
      <trkpt lat="43.96101" lon="5.27501">
        <ele>506.5</ele>
        <time>2019-09-14T13:51:14Z</time>
      </trkpt>
      <trkpt lat="43.96099" lon="5.27504">
        <ele>508.5</ele>
        <time>2019-09-14T13:51:20Z</time>
      </trkpt>
      <trkpt lat="43.96099" lon="5.27504">
        <ele>509.5</ele>
        <time>2019-09-14T13:51:25Z</time>
      </trkpt>
      <trkpt lat="43.961" lon="5.27504">
        <ele>509.5</ele>
        <time>2019-09-14T13:51:30Z</time>
      </trkpt>
      <trkpt lat="43.961" lon="5.27504">
        <ele>509.5</ele>
        <time>2019-09-14T13:51:36Z</time>
      </trkpt>
      <trkpt lat="43.961" lon="5.27504">
        <ele>509.5</ele>
        <time>2019-09-14T13:51:41Z</time>
      </trkpt>
      <trkpt lat="43.961" lon="5.27504">
        <ele>509.5</ele>
        <time>2019-09-14T13:51:47Z</time>
      </trkpt>
      <trkpt lat="43.961" lon="5.27504">
        <ele>509.5</ele>
        <time>2019-09-14T13:51:52Z</time>
      </trkpt>
      <trkpt lat="43.961" lon="5.27504">
        <ele>509.5</ele>
        <time>2019-09-14T13:51:58Z</time>
      </trkpt>
      <trkpt lat="43.961" lon="5.27504">
        <ele>509.5</ele>
        <time>2019-09-14T13:52:04Z</time>
      </trkpt>
      <trkpt lat="43.961" lon="5.27504">
        <ele>509.5</ele>
        <time>2019-09-14T13:52:09Z</time>
      </trkpt>
      <trkpt lat="43.961" lon="5.27504">
        <ele>509.5</ele>
        <time>2019-09-14T13:52:14Z</time>
      </trkpt>
      <trkpt lat="43.961" lon="5.27504">
        <ele>509.5</ele>
        <time>2019-09-14T13:52:20Z</time>
      </trkpt>
      <trkpt lat="43.961" lon="5.27504">
        <ele>509.5</ele>
        <time>2019-09-14T13:52:25Z</time>
      </trkpt>
      <trkpt lat="43.961" lon="5.27504">
        <ele>509.5</ele>
        <time>2019-09-14T13:52:31Z</time>
      </trkpt>
      <trkpt lat="43.961" lon="5.27504">
        <ele>509.5</ele>
        <time>2019-09-14T13:52:36Z</time>
      </trkpt>
      <trkpt lat="43.961" lon="5.27504">
        <ele>509.5</ele>
        <time>2019-09-14T13:52:41Z</time>
      </trkpt>
      <trkpt lat="43.96095" lon="5.27518">
        <ele>511.5</ele>
        <time>2019-09-14T13:52:46Z</time>
      </trkpt>
      <trkpt lat="43.9609" lon="5.27527">
        <ele>513.5</ele>
        <time>2019-09-14T13:52:52Z</time>
      </trkpt>
      <trkpt lat="43.96088" lon="5.27536">
        <ele>514.5</ele>
        <time>2019-09-14T13:52:57Z</time>
      </trkpt>
      <trkpt lat="43.96087" lon="5.27543">
        <ele>512.5</ele>
        <time>2019-09-14T13:53:02Z</time>
      </trkpt>
      <trkpt lat="43.96083" lon="5.27549">
        <ele>512.5</ele>
        <time>2019-09-14T13:53:08Z</time>
      </trkpt>
      <trkpt lat="43.96079" lon="5.27553">
        <ele>512.5</ele>
        <time>2019-09-14T13:53:13Z</time>
      </trkpt>
      <trkpt lat="43.96073" lon="5.27559">
        <ele>512.5</ele>
        <time>2019-09-14T13:53:19Z</time>
      </trkpt>
      <trkpt lat="43.96068" lon="5.27566">
        <ele>513.5</ele>
        <time>2019-09-14T13:53:24Z</time>
      </trkpt>
      <trkpt lat="43.96064" lon="5.2757">
        <ele>511.5</ele>
        <time>2019-09-14T13:53:30Z</time>
      </trkpt>
      <trkpt lat="43.96061" lon="5.2758">
        <ele>509.5</ele>
        <time>2019-09-14T13:53:36Z</time>
      </trkpt>
      <trkpt lat="43.9606" lon="5.2759">
        <ele>507.5</ele>
        <time>2019-09-14T13:53:42Z</time>
      </trkpt>
      <trkpt lat="43.96058" lon="5.27598">
        <ele>510.5</ele>
        <time>2019-09-14T13:53:47Z</time>
      </trkpt>
      <trkpt lat="43.96053" lon="5.27603">
        <ele>510.5</ele>
        <time>2019-09-14T13:53:53Z</time>
      </trkpt>
      <trkpt lat="43.96049" lon="5.2761">
        <ele>512.5</ele>
        <time>2019-09-14T13:53:59Z</time>
      </trkpt>
      <trkpt lat="43.96045" lon="5.27613">
        <ele>511.5</ele>
        <time>2019-09-14T13:54:04Z</time>
      </trkpt>
      <trkpt lat="43.9604" lon="5.27618">
        <ele>510.5</ele>
        <time>2019-09-14T13:54:10Z</time>
      </trkpt>
      <trkpt lat="43.96037" lon="5.2762">
        <ele>508.5</ele>
        <time>2019-09-14T13:54:15Z</time>
      </trkpt>
      <trkpt lat="43.96032" lon="5.27622">
        <ele>506.5</ele>
        <time>2019-09-14T13:54:21Z</time>
      </trkpt>
      <trkpt lat="43.96026" lon="5.27625">
        <ele>506.5</ele>
        <time>2019-09-14T13:54:27Z</time>
      </trkpt>
      <trkpt lat="43.96021" lon="5.27629">
        <ele>506.5</ele>
        <time>2019-09-14T13:54:33Z</time>
      </trkpt>
      <trkpt lat="43.96016" lon="5.27631">
        <ele>506.5</ele>
        <time>2019-09-14T13:54:38Z</time>
      </trkpt>
      <trkpt lat="43.96011" lon="5.27635">
        <ele>505.5</ele>
        <time>2019-09-14T13:54:44Z</time>
      </trkpt>
      <trkpt lat="43.96006" lon="5.27639">
        <ele>505.5</ele>
        <time>2019-09-14T13:54:49Z</time>
      </trkpt>
      <trkpt lat="43.96002" lon="5.27642">
        <ele>504.5</ele>
        <time>2019-09-14T13:54:54Z</time>
      </trkpt>
      <trkpt lat="43.95996" lon="5.27648">
        <ele>506.5</ele>
        <time>2019-09-14T13:55:00Z</time>
      </trkpt>
      <trkpt lat="43.95991" lon="5.27654">
        <ele>505.5</ele>
        <time>2019-09-14T13:55:06Z</time>
      </trkpt>
      <trkpt lat="43.95987" lon="5.27657">
        <ele>504.5</ele>
        <time>2019-09-14T13:55:11Z</time>
      </trkpt>
      <trkpt lat="43.95984" lon="5.27659">
        <ele>504.5</ele>
        <time>2019-09-14T13:55:16Z</time>
      </trkpt>
      <trkpt lat="43.95979" lon="5.27663">
        <ele>504.5</ele>
        <time>2019-09-14T13:55:22Z</time>
      </trkpt>
      <trkpt lat="43.95978" lon="5.27666">
        <ele>504.5</ele>
        <time>2019-09-14T13:55:28Z</time>
      </trkpt>
      <trkpt lat="43.95978" lon="5.27667">
        <ele>506.5</ele>
        <time>2019-09-14T13:55:33Z</time>
      </trkpt>
      <trkpt lat="43.95976" lon="5.27669">
        <ele>505.5</ele>
        <time>2019-09-14T13:55:38Z</time>
      </trkpt>
      <trkpt lat="43.95975" lon="5.27672">
        <ele>504.5</ele>
        <time>2019-09-14T13:55:44Z</time>
      </trkpt>
      <trkpt lat="43.95975" lon="5.27677">
        <ele>504.5</ele>
        <time>2019-09-14T13:55:50Z</time>
      </trkpt>
      <trkpt lat="43.95971" lon="5.2768">
        <ele>499.5</ele>
        <time>2019-09-14T13:55:55Z</time>
      </trkpt>
      <trkpt lat="43.95966" lon="5.27686">
        <ele>498.5</ele>
        <time>2019-09-14T13:56:01Z</time>
      </trkpt>
      <trkpt lat="43.95962" lon="5.27691">
        <ele>500.5</ele>
        <time>2019-09-14T13:56:07Z</time>
      </trkpt>
      <trkpt lat="43.95958" lon="5.27696">
        <ele>502.5</ele>
        <time>2019-09-14T13:56:13Z</time>
      </trkpt>
      <trkpt lat="43.95952" lon="5.27702">
        <ele>502.5</ele>
        <time>2019-09-14T13:56:19Z</time>
      </trkpt>
      <trkpt lat="43.9595" lon="5.27709">
        <ele>501.5</ele>
        <time>2019-09-14T13:56:24Z</time>
      </trkpt>
      <trkpt lat="43.95947" lon="5.27715">
        <ele>501.5</ele>
        <time>2019-09-14T13:56:30Z</time>
      </trkpt>
      <trkpt lat="43.95944" lon="5.27721">
        <ele>499.5</ele>
        <time>2019-09-14T13:56:36Z</time>
      </trkpt>
      <trkpt lat="43.95941" lon="5.27729">
        <ele>502.5</ele>
        <time>2019-09-14T13:56:41Z</time>
      </trkpt>
      <trkpt lat="43.95937" lon="5.27735">
        <ele>500.5</ele>
        <time>2019-09-14T13:56:46Z</time>
      </trkpt>
      <trkpt lat="43.95933" lon="5.27739">
        <ele>495.5</ele>
        <time>2019-09-14T13:56:51Z</time>
      </trkpt>
      <trkpt lat="43.9593" lon="5.27745">
        <ele>495.5</ele>
        <time>2019-09-14T13:56:56Z</time>
      </trkpt>
      <trkpt lat="43.95926" lon="5.27751">
        <ele>494.5</ele>
        <time>2019-09-14T13:57:02Z</time>
      </trkpt>
      <trkpt lat="43.95922" lon="5.27756">
        <ele>495.5</ele>
        <time>2019-09-14T13:57:07Z</time>
      </trkpt>
      <trkpt lat="43.95918" lon="5.27761">
        <ele>496.5</ele>
        <time>2019-09-14T13:57:13Z</time>
      </trkpt>
      <trkpt lat="43.95915" lon="5.27768">
        <ele>497.5</ele>
        <time>2019-09-14T13:57:18Z</time>
      </trkpt>
      <trkpt lat="43.95913" lon="5.27773">
        <ele>495.5</ele>
        <time>2019-09-14T13:57:23Z</time>
      </trkpt>
      <trkpt lat="43.95909" lon="5.27779">
        <ele>495.5</ele>
        <time>2019-09-14T13:57:29Z</time>
      </trkpt>
      <trkpt lat="43.95906" lon="5.27784">
        <ele>495.5</ele>
        <time>2019-09-14T13:57:34Z</time>
      </trkpt>
      <trkpt lat="43.95902" lon="5.27791">
        <ele>493.5</ele>
        <time>2019-09-14T13:57:40Z</time>
      </trkpt>
      <trkpt lat="43.95899" lon="5.27797">
        <ele>493.5</ele>
        <time>2019-09-14T13:57:45Z</time>
      </trkpt>
      <trkpt lat="43.95896" lon="5.27802">
        <ele>492.5</ele>
        <time>2019-09-14T13:57:50Z</time>
      </trkpt>
      <trkpt lat="43.95893" lon="5.27811">
        <ele>492.5</ele>
        <time>2019-09-14T13:57:55Z</time>
      </trkpt>
      <trkpt lat="43.9589" lon="5.27815">
        <ele>491.5</ele>
        <time>2019-09-14T13:58:02Z</time>
      </trkpt>
      <trkpt lat="43.95888" lon="5.27826">
        <ele>492.5</ele>
        <time>2019-09-14T13:58:08Z</time>
      </trkpt>
      <trkpt lat="43.95885" lon="5.27833">
        <ele>491.5</ele>
        <time>2019-09-14T13:58:14Z</time>
      </trkpt>
      <trkpt lat="43.95883" lon="5.27839">
        <ele>490.5</ele>
        <time>2019-09-14T13:58:19Z</time>
      </trkpt>
      <trkpt lat="43.95881" lon="5.27844">
        <ele>490.5</ele>
        <time>2019-09-14T13:58:24Z</time>
      </trkpt>
      <trkpt lat="43.95878" lon="5.27855">
        <ele>490.5</ele>
        <time>2019-09-14T13:58:30Z</time>
      </trkpt>
      <trkpt lat="43.95875" lon="5.27864">
        <ele>492.5</ele>
        <time>2019-09-14T13:58:36Z</time>
      </trkpt>
      <trkpt lat="43.95875" lon="5.27871">
        <ele>491.5</ele>
        <time>2019-09-14T13:58:41Z</time>
      </trkpt>
      <trkpt lat="43.95874" lon="5.27878">
        <ele>493.5</ele>
        <time>2019-09-14T13:58:47Z</time>
      </trkpt>
      <trkpt lat="43.95873" lon="5.27885">
        <ele>494.5</ele>
        <time>2019-09-14T13:58:52Z</time>
      </trkpt>
      <trkpt lat="43.95872" lon="5.27889">
        <ele>495.5</ele>
        <time>2019-09-14T13:58:58Z</time>
      </trkpt>
      <trkpt lat="43.95872" lon="5.27896">
        <ele>494.5</ele>
        <time>2019-09-14T13:59:03Z</time>
      </trkpt>
      <trkpt lat="43.95872" lon="5.27907">
        <ele>495.5</ele>
        <time>2019-09-14T13:59:09Z</time>
      </trkpt>
      <trkpt lat="43.95872" lon="5.27917">
        <ele>494.5</ele>
        <time>2019-09-14T13:59:14Z</time>
      </trkpt>
      <trkpt lat="43.95872" lon="5.27923">
        <ele>494.5</ele>
        <time>2019-09-14T13:59:19Z</time>
      </trkpt>
      <trkpt lat="43.95871" lon="5.2793">
        <ele>494.5</ele>
        <time>2019-09-14T13:59:25Z</time>
      </trkpt>
      <trkpt lat="43.95871" lon="5.2794">
        <ele>495.5</ele>
        <time>2019-09-14T13:59:31Z</time>
      </trkpt>
      <trkpt lat="43.95872" lon="5.27948">
        <ele>496.5</ele>
        <time>2019-09-14T13:59:37Z</time>
      </trkpt>
      <trkpt lat="43.95871" lon="5.27955">
        <ele>494.5</ele>
        <time>2019-09-14T13:59:42Z</time>
      </trkpt>
      <trkpt lat="43.9587" lon="5.27964">
        <ele>495.5</ele>
        <time>2019-09-14T13:59:47Z</time>
      </trkpt>
      <trkpt lat="43.95869" lon="5.27971">
        <ele>494.5</ele>
        <time>2019-09-14T13:59:53Z</time>
      </trkpt>
      <trkpt lat="43.95868" lon="5.27981">
        <ele>496.5</ele>
        <time>2019-09-14T13:59:59Z</time>
      </trkpt>
      <trkpt lat="43.95868" lon="5.2799">
        <ele>495.5</ele>
        <time>2019-09-14T14:00:05Z</time>
      </trkpt>
      <trkpt lat="43.95867" lon="5.28">
        <ele>495.5</ele>
        <time>2019-09-14T14:00:11Z</time>
      </trkpt>
      <trkpt lat="43.95867" lon="5.28006">
        <ele>495.5</ele>
        <time>2019-09-14T14:00:16Z</time>
      </trkpt>
      <trkpt lat="43.95866" lon="5.28014">
        <ele>494.5</ele>
        <time>2019-09-14T14:00:22Z</time>
      </trkpt>
      <trkpt lat="43.95866" lon="5.2802">
        <ele>494.5</ele>
        <time>2019-09-14T14:00:27Z</time>
      </trkpt>
      <trkpt lat="43.95864" lon="5.28028">
        <ele>494.5</ele>
        <time>2019-09-14T14:00:32Z</time>
      </trkpt>
      <trkpt lat="43.95862" lon="5.28036">
        <ele>493.5</ele>
        <time>2019-09-14T14:00:38Z</time>
      </trkpt>
      <trkpt lat="43.9586" lon="5.28043">
        <ele>493.5</ele>
        <time>2019-09-14T14:00:43Z</time>
      </trkpt>
      <trkpt lat="43.95856" lon="5.28047">
        <ele>491.5</ele>
        <time>2019-09-14T14:00:49Z</time>
      </trkpt>
      <trkpt lat="43.95856" lon="5.28049">
        <ele>491.5</ele>
        <time>2019-09-14T14:00:55Z</time>
      </trkpt>
      <trkpt lat="43.95856" lon="5.28053">
        <ele>491.5</ele>
        <time>2019-09-14T14:01:00Z</time>
      </trkpt>
      <trkpt lat="43.95856" lon="5.28052">
        <ele>491.5</ele>
        <time>2019-09-14T14:01:06Z</time>
      </trkpt>
      <trkpt lat="43.95857" lon="5.28051">
        <ele>491.5</ele>
        <time>2019-09-14T14:01:11Z</time>
      </trkpt>
      <trkpt lat="43.95857" lon="5.28051">
        <ele>491.5</ele>
        <time>2019-09-14T14:01:17Z</time>
      </trkpt>
      <trkpt lat="43.95857" lon="5.28051">
        <ele>491.5</ele>
        <time>2019-09-14T14:01:22Z</time>
      </trkpt>
      <trkpt lat="43.95857" lon="5.28051">
        <ele>491.5</ele>
        <time>2019-09-14T14:01:28Z</time>
      </trkpt>
      <trkpt lat="43.95857" lon="5.28051">
        <ele>491.5</ele>
        <time>2019-09-14T14:01:35Z</time>
      </trkpt>
      <trkpt lat="43.95857" lon="5.28051">
        <ele>491.5</ele>
        <time>2019-09-14T14:01:42Z</time>
      </trkpt>
      <trkpt lat="43.95857" lon="5.28051">
        <ele>491.5</ele>
        <time>2019-09-14T14:01:47Z</time>
      </trkpt>
      <trkpt lat="43.95857" lon="5.28051">
        <ele>491.5</ele>
        <time>2019-09-14T14:01:53Z</time>
      </trkpt>
      <trkpt lat="43.95857" lon="5.28051">
        <ele>491.5</ele>
        <time>2019-09-14T14:01:59Z</time>
      </trkpt>
      <trkpt lat="43.95857" lon="5.28051">
        <ele>491.5</ele>
        <time>2019-09-14T14:02:04Z</time>
      </trkpt>
      <trkpt lat="43.95857" lon="5.28051">
        <ele>491.5</ele>
        <time>2019-09-14T14:02:09Z</time>
      </trkpt>
      <trkpt lat="43.95857" lon="5.28051">
        <ele>491.5</ele>
        <time>2019-09-14T14:02:15Z</time>
      </trkpt>
      <trkpt lat="43.95857" lon="5.28051">
        <ele>491.5</ele>
        <time>2019-09-14T14:02:21Z</time>
      </trkpt>
      <trkpt lat="43.95857" lon="5.28051">
        <ele>491.5</ele>
        <time>2019-09-14T14:02:27Z</time>
      </trkpt>
      <trkpt lat="43.95857" lon="5.28051">
        <ele>491.5</ele>
        <time>2019-09-14T14:02:33Z</time>
      </trkpt>
      <trkpt lat="43.95862" lon="5.28055">
        <ele>492.5</ele>
        <time>2019-09-14T14:02:39Z</time>
      </trkpt>
      <trkpt lat="43.95868" lon="5.28064">
        <ele>495.5</ele>
        <time>2019-09-14T14:02:44Z</time>
      </trkpt>
      <trkpt lat="43.95872" lon="5.28073">
        <ele>495.5</ele>
        <time>2019-09-14T14:02:49Z</time>
      </trkpt>
      <trkpt lat="43.95874" lon="5.28078">
        <ele>495.5</ele>
        <time>2019-09-14T14:02:55Z</time>
      </trkpt>
      <trkpt lat="43.95875" lon="5.2808">
        <ele>495.5</ele>
        <time>2019-09-14T14:03:00Z</time>
      </trkpt>
      <trkpt lat="43.95875" lon="5.2808">
        <ele>495.5</ele>
        <time>2019-09-14T14:03:05Z</time>
      </trkpt>
      <trkpt lat="43.95868" lon="5.2808">
        <ele>495.5</ele>
        <time>2019-09-14T14:03:10Z</time>
      </trkpt>
      <trkpt lat="43.95863" lon="5.28079">
        <ele>494.5</ele>
        <time>2019-09-14T14:03:16Z</time>
      </trkpt>
      <trkpt lat="43.95859" lon="5.28081">
        <ele>491.5</ele>
        <time>2019-09-14T14:03:21Z</time>
      </trkpt>
      <trkpt lat="43.95853" lon="5.28087">
        <ele>492.5</ele>
        <time>2019-09-14T14:03:27Z</time>
      </trkpt>
      <trkpt lat="43.95851" lon="5.28091">
        <ele>489.5</ele>
        <time>2019-09-14T14:03:33Z</time>
      </trkpt>
      <trkpt lat="43.95848" lon="5.28095">
        <ele>488.5</ele>
        <time>2019-09-14T14:03:39Z</time>
      </trkpt>
      <trkpt lat="43.95846" lon="5.28093">
        <ele>488.5</ele>
        <time>2019-09-14T14:03:44Z</time>
      </trkpt>
      <trkpt lat="43.95849" lon="5.28091">
        <ele>496.5</ele>
        <time>2019-09-14T14:03:50Z</time>
      </trkpt>
      <trkpt lat="43.95855" lon="5.28095">
        <ele>492.5</ele>
        <time>2019-09-14T14:03:56Z</time>
      </trkpt>
      <trkpt lat="43.95866" lon="5.28094">
        <ele>491.5</ele>
        <time>2019-09-14T14:04:02Z</time>
      </trkpt>
      <trkpt lat="43.9587" lon="5.28101">
        <ele>491.5</ele>
        <time>2019-09-14T14:04:08Z</time>
      </trkpt>
      <trkpt lat="43.95876" lon="5.28108">
        <ele>491.5</ele>
        <time>2019-09-14T14:04:14Z</time>
      </trkpt>
      <trkpt lat="43.9588" lon="5.28111">
        <ele>490.5</ele>
        <time>2019-09-14T14:04:19Z</time>
      </trkpt>
      <trkpt lat="43.95882" lon="5.28119">
        <ele>492.5</ele>
        <time>2019-09-14T14:04:25Z</time>
      </trkpt>
      <trkpt lat="43.95886" lon="5.28138">
        <ele>493.5</ele>
        <time>2019-09-14T14:04:33Z</time>
      </trkpt>
      <trkpt lat="43.95887" lon="5.28145">
        <ele>490.5</ele>
        <time>2019-09-14T14:04:39Z</time>
      </trkpt>
      <trkpt lat="43.95888" lon="5.28153">
        <ele>493.5</ele>
        <time>2019-09-14T14:04:44Z</time>
      </trkpt>
      <trkpt lat="43.95889" lon="5.28151">
        <ele>493.5</ele>
        <time>2019-09-14T14:04:49Z</time>
      </trkpt>
      <trkpt lat="43.95892" lon="5.28152">
        <ele>493.5</ele>
        <time>2019-09-14T14:04:55Z</time>
      </trkpt>
      <trkpt lat="43.95895" lon="5.28155">
        <ele>493.5</ele>
        <time>2019-09-14T14:05:01Z</time>
      </trkpt>
      <trkpt lat="43.95899" lon="5.28161">
        <ele>491.5</ele>
        <time>2019-09-14T14:05:06Z</time>
      </trkpt>
      <trkpt lat="43.95904" lon="5.28167">
        <ele>494.5</ele>
        <time>2019-09-14T14:05:11Z</time>
      </trkpt>
      <trkpt lat="43.95906" lon="5.2817">
        <ele>492.5</ele>
        <time>2019-09-14T14:05:16Z</time>
      </trkpt>
      <trkpt lat="43.95909" lon="5.28176">
        <ele>493.5</ele>
        <time>2019-09-14T14:05:22Z</time>
      </trkpt>
      <trkpt lat="43.9591" lon="5.28182">
        <ele>494.5</ele>
        <time>2019-09-14T14:05:28Z</time>
      </trkpt>
      <trkpt lat="43.95913" lon="5.28187">
        <ele>495.5</ele>
        <time>2019-09-14T14:05:33Z</time>
      </trkpt>
      <trkpt lat="43.95918" lon="5.28193">
        <ele>493.5</ele>
        <time>2019-09-14T14:05:39Z</time>
      </trkpt>
      <trkpt lat="43.9592" lon="5.282">
        <ele>493.5</ele>
        <time>2019-09-14T14:05:44Z</time>
      </trkpt>
      <trkpt lat="43.95925" lon="5.28206">
        <ele>501.5</ele>
        <time>2019-09-14T14:05:50Z</time>
      </trkpt>
      <trkpt lat="43.95931" lon="5.28211">
        <ele>497.5</ele>
        <time>2019-09-14T14:05:56Z</time>
      </trkpt>
      <trkpt lat="43.95935" lon="5.28217">
        <ele>495.5</ele>
        <time>2019-09-14T14:06:01Z</time>
      </trkpt>
      <trkpt lat="43.9594" lon="5.28218">
        <ele>497.5</ele>
        <time>2019-09-14T14:06:06Z</time>
      </trkpt>
      <trkpt lat="43.95942" lon="5.28221">
        <ele>497.5</ele>
        <time>2019-09-14T14:06:12Z</time>
      </trkpt>
      <trkpt lat="43.95943" lon="5.28221">
        <ele>496.5</ele>
        <time>2019-09-14T14:06:18Z</time>
      </trkpt>
      <trkpt lat="43.95943" lon="5.28222">
        <ele>496.5</ele>
        <time>2019-09-14T14:06:24Z</time>
      </trkpt>
      <trkpt lat="43.95946" lon="5.2823">
        <ele>497.5</ele>
        <time>2019-09-14T14:06:30Z</time>
      </trkpt>
      <trkpt lat="43.95955" lon="5.28244">
        <ele>504.5</ele>
        <time>2019-09-14T14:06:36Z</time>
      </trkpt>
      <trkpt lat="43.95958" lon="5.28242">
        <ele>503.5</ele>
        <time>2019-09-14T14:06:41Z</time>
      </trkpt>
      <trkpt lat="43.95959" lon="5.2825">
        <ele>502.5</ele>
        <time>2019-09-14T14:06:47Z</time>
      </trkpt>
      <trkpt lat="43.95959" lon="5.28257">
        <ele>500.5</ele>
        <time>2019-09-14T14:06:53Z</time>
      </trkpt>
      <trkpt lat="43.95961" lon="5.28266">
        <ele>500.5</ele>
        <time>2019-09-14T14:06:58Z</time>
      </trkpt>
      <trkpt lat="43.95963" lon="5.28269">
        <ele>500.5</ele>
        <time>2019-09-14T14:07:03Z</time>
      </trkpt>
      <trkpt lat="43.95968" lon="5.28273">
        <ele>503.5</ele>
        <time>2019-09-14T14:07:09Z</time>
      </trkpt>
      <trkpt lat="43.95971" lon="5.28278">
        <ele>503.5</ele>
        <time>2019-09-14T14:07:14Z</time>
      </trkpt>
      <trkpt lat="43.95977" lon="5.28284">
        <ele>506.5</ele>
        <time>2019-09-14T14:07:20Z</time>
      </trkpt>
      <trkpt lat="43.95978" lon="5.28285">
        <ele>503.5</ele>
        <time>2019-09-14T14:07:26Z</time>
      </trkpt>
      <trkpt lat="43.9598" lon="5.28287">
        <ele>503.5</ele>
        <time>2019-09-14T14:07:31Z</time>
      </trkpt>
      <trkpt lat="43.95989" lon="5.28289">
        <ele>500.5</ele>
        <time>2019-09-14T14:07:37Z</time>
      </trkpt>
      <trkpt lat="43.95995" lon="5.28291">
        <ele>497.5</ele>
        <time>2019-09-14T14:07:43Z</time>
      </trkpt>
      <trkpt lat="43.96003" lon="5.28292">
        <ele>500.5</ele>
        <time>2019-09-14T14:07:49Z</time>
      </trkpt>
      <trkpt lat="43.96009" lon="5.28294">
        <ele>503.5</ele>
        <time>2019-09-14T14:07:54Z</time>
      </trkpt>
      <trkpt lat="43.96013" lon="5.28294">
        <ele>505.5</ele>
        <time>2019-09-14T14:08:00Z</time>
      </trkpt>
      <trkpt lat="43.96016" lon="5.28295">
        <ele>503.5</ele>
        <time>2019-09-14T14:08:05Z</time>
      </trkpt>
      <trkpt lat="43.9602" lon="5.28299">
        <ele>501.5</ele>
        <time>2019-09-14T14:08:11Z</time>
      </trkpt>
      <trkpt lat="43.96023" lon="5.28297">
        <ele>500.5</ele>
        <time>2019-09-14T14:08:17Z</time>
      </trkpt>
      <trkpt lat="43.96029" lon="5.28301">
        <ele>504.5</ele>
        <time>2019-09-14T14:08:22Z</time>
      </trkpt>
      <trkpt lat="43.96036" lon="5.28304">
        <ele>507.5</ele>
        <time>2019-09-14T14:08:28Z</time>
      </trkpt>
      <trkpt lat="43.96043" lon="5.28307">
        <ele>512.5</ele>
        <time>2019-09-14T14:08:34Z</time>
      </trkpt>
      <trkpt lat="43.96048" lon="5.28308">
        <ele>511.5</ele>
        <time>2019-09-14T14:08:39Z</time>
      </trkpt>
      <trkpt lat="43.96053" lon="5.28311">
        <ele>509.5</ele>
        <time>2019-09-14T14:08:45Z</time>
      </trkpt>
      <trkpt lat="43.9606" lon="5.28314">
        <ele>508.5</ele>
        <time>2019-09-14T14:08:51Z</time>
      </trkpt>
      <trkpt lat="43.96068" lon="5.28318">
        <ele>512.5</ele>
        <time>2019-09-14T14:08:57Z</time>
      </trkpt>
      <trkpt lat="43.96073" lon="5.28319">
        <ele>512.5</ele>
        <time>2019-09-14T14:09:02Z</time>
      </trkpt>
      <trkpt lat="43.96077" lon="5.28319">
        <ele>514.5</ele>
        <time>2019-09-14T14:09:07Z</time>
      </trkpt>
      <trkpt lat="43.9608" lon="5.28318">
        <ele>511.5</ele>
        <time>2019-09-14T14:09:12Z</time>
      </trkpt>
      <trkpt lat="43.96084" lon="5.28318">
        <ele>511.5</ele>
        <time>2019-09-14T14:09:18Z</time>
      </trkpt>
      <trkpt lat="43.96089" lon="5.28317">
        <ele>513.5</ele>
        <time>2019-09-14T14:09:23Z</time>
      </trkpt>
      <trkpt lat="43.96099" lon="5.28316">
        <ele>516.5</ele>
        <time>2019-09-14T14:09:28Z</time>
      </trkpt>
      <trkpt lat="43.96099" lon="5.28318">
        <ele>512.5</ele>
        <time>2019-09-14T14:09:34Z</time>
      </trkpt>
      <trkpt lat="43.96104" lon="5.2832">
        <ele>512.5</ele>
        <time>2019-09-14T14:09:39Z</time>
      </trkpt>
      <trkpt lat="43.96108" lon="5.28318">
        <ele>511.5</ele>
        <time>2019-09-14T14:09:44Z</time>
      </trkpt>
      <trkpt lat="43.96115" lon="5.28318">
        <ele>511.5</ele>
        <time>2019-09-14T14:09:49Z</time>
      </trkpt>
      <trkpt lat="43.96119" lon="5.28315">
        <ele>510.5</ele>
        <time>2019-09-14T14:09:55Z</time>
      </trkpt>
      <trkpt lat="43.96123" lon="5.28321">
        <ele>517.5</ele>
        <time>2019-09-14T14:10:01Z</time>
      </trkpt>
      <trkpt lat="43.96126" lon="5.2832">
        <ele>516.5</ele>
        <time>2019-09-14T14:10:06Z</time>
      </trkpt>
      <trkpt lat="43.96127" lon="5.28322">
        <ele>512.5</ele>
        <time>2019-09-14T14:10:12Z</time>
      </trkpt>
      <trkpt lat="43.96135" lon="5.28322">
        <ele>515.5</ele>
        <time>2019-09-14T14:10:17Z</time>
      </trkpt>
      <trkpt lat="43.96141" lon="5.28322">
        <ele>516.5</ele>
        <time>2019-09-14T14:10:22Z</time>
      </trkpt>
      <trkpt lat="43.96147" lon="5.28323">
        <ele>514.5</ele>
        <time>2019-09-14T14:10:28Z</time>
      </trkpt>
      <trkpt lat="43.9615" lon="5.28326">
        <ele>517.5</ele>
        <time>2019-09-14T14:10:34Z</time>
      </trkpt>
      <trkpt lat="43.96156" lon="5.28325">
        <ele>520.5</ele>
        <time>2019-09-14T14:10:39Z</time>
      </trkpt>
      <trkpt lat="43.9616" lon="5.28329">
        <ele>519.5</ele>
        <time>2019-09-14T14:10:44Z</time>
      </trkpt>
      <trkpt lat="43.96163" lon="5.28331">
        <ele>518.5</ele>
        <time>2019-09-14T14:10:50Z</time>
      </trkpt>
      <trkpt lat="43.96168" lon="5.28333">
        <ele>518.5</ele>
        <time>2019-09-14T14:10:56Z</time>
      </trkpt>
      <trkpt lat="43.96171" lon="5.28339">
        <ele>518.5</ele>
        <time>2019-09-14T14:11:01Z</time>
      </trkpt>
      <trkpt lat="43.9617" lon="5.28346">
        <ele>514.5</ele>
        <time>2019-09-14T14:11:07Z</time>
      </trkpt>
      <trkpt lat="43.96173" lon="5.28354">
        <ele>516.5</ele>
        <time>2019-09-14T14:11:12Z</time>
      </trkpt>
      <trkpt lat="43.96179" lon="5.28367">
        <ele>515.5</ele>
        <time>2019-09-14T14:11:18Z</time>
      </trkpt>
      <trkpt lat="43.96183" lon="5.28373">
        <ele>514.5</ele>
        <time>2019-09-14T14:11:24Z</time>
      </trkpt>
      <trkpt lat="43.96184" lon="5.28382">
        <ele>515.5</ele>
        <time>2019-09-14T14:11:30Z</time>
      </trkpt>
      <trkpt lat="43.96184" lon="5.28389">
        <ele>516.5</ele>
        <time>2019-09-14T14:11:35Z</time>
      </trkpt>
      <trkpt lat="43.96188" lon="5.28391">
        <ele>516.5</ele>
        <time>2019-09-14T14:11:40Z</time>
      </trkpt>
      <trkpt lat="43.96188" lon="5.28398">
        <ele>514.5</ele>
        <time>2019-09-14T14:11:46Z</time>
      </trkpt>
      <trkpt lat="43.96191" lon="5.28404">
        <ele>511.5</ele>
        <time>2019-09-14T14:11:51Z</time>
      </trkpt>
      <trkpt lat="43.96194" lon="5.2841">
        <ele>513.5</ele>
        <time>2019-09-14T14:11:56Z</time>
      </trkpt>
      <trkpt lat="43.96196" lon="5.28419">
        <ele>516.5</ele>
        <time>2019-09-14T14:12:01Z</time>
      </trkpt>
      <trkpt lat="43.96197" lon="5.28432">
        <ele>517.5</ele>
        <time>2019-09-14T14:12:06Z</time>
      </trkpt>
      <trkpt lat="43.96198" lon="5.28439">
        <ele>518.5</ele>
        <time>2019-09-14T14:12:12Z</time>
      </trkpt>
      <trkpt lat="43.96198" lon="5.28438">
        <ele>515.5</ele>
        <time>2019-09-14T14:12:18Z</time>
      </trkpt>
      <trkpt lat="43.96197" lon="5.28437">
        <ele>513.5</ele>
        <time>2019-09-14T14:12:23Z</time>
      </trkpt>
      <trkpt lat="43.96198" lon="5.28438">
        <ele>513.5</ele>
        <time>2019-09-14T14:12:28Z</time>
      </trkpt>
      <trkpt lat="43.962" lon="5.28438">
        <ele>515.5</ele>
        <time>2019-09-14T14:12:33Z</time>
      </trkpt>
      <trkpt lat="43.962" lon="5.28438">
        <ele>516.5</ele>
        <time>2019-09-14T14:12:39Z</time>
      </trkpt>
      <trkpt lat="43.962" lon="5.28439">
        <ele>516.5</ele>
        <time>2019-09-14T14:12:45Z</time>
      </trkpt>
      <trkpt lat="43.962" lon="5.28439">
        <ele>516.5</ele>
        <time>2019-09-14T14:12:50Z</time>
      </trkpt>
      <trkpt lat="43.962" lon="5.28439">
        <ele>516.5</ele>
        <time>2019-09-14T14:12:55Z</time>
      </trkpt>
      <trkpt lat="43.96198" lon="5.28442">
        <ele>516.5</ele>
        <time>2019-09-14T14:13:00Z</time>
      </trkpt>
      <trkpt lat="43.96198" lon="5.28445">
        <ele>518.5</ele>
        <time>2019-09-14T14:13:05Z</time>
      </trkpt>
      <trkpt lat="43.96197" lon="5.28445">
        <ele>519.5</ele>
        <time>2019-09-14T14:13:11Z</time>
      </trkpt>
      <trkpt lat="43.96197" lon="5.28445">
        <ele>519.5</ele>
        <time>2019-09-14T14:13:16Z</time>
      </trkpt>
      <trkpt lat="43.96197" lon="5.28445">
        <ele>519.5</ele>
        <time>2019-09-14T14:13:22Z</time>
      </trkpt>
      <trkpt lat="43.96197" lon="5.28445">
        <ele>519.5</ele>
        <time>2019-09-14T14:13:28Z</time>
      </trkpt>
      <trkpt lat="43.96197" lon="5.28445">
        <ele>519.5</ele>
        <time>2019-09-14T14:13:33Z</time>
      </trkpt>
      <trkpt lat="43.96197" lon="5.28445">
        <ele>519.5</ele>
        <time>2019-09-14T14:13:38Z</time>
      </trkpt>
      <trkpt lat="43.96197" lon="5.28445">
        <ele>519.5</ele>
        <time>2019-09-14T14:13:43Z</time>
      </trkpt>
      <trkpt lat="43.96204" lon="5.28447">
        <ele>520.5</ele>
        <time>2019-09-14T14:13:48Z</time>
      </trkpt>
      <trkpt lat="43.96213" lon="5.28452">
        <ele>523.5</ele>
        <time>2019-09-14T14:13:54Z</time>
      </trkpt>
      <trkpt lat="43.96215" lon="5.28458">
        <ele>523.5</ele>
        <time>2019-09-14T14:13:59Z</time>
      </trkpt>
      <trkpt lat="43.96223" lon="5.28463">
        <ele>523.5</ele>
        <time>2019-09-14T14:14:05Z</time>
      </trkpt>
      <trkpt lat="43.96225" lon="5.28469">
        <ele>523.5</ele>
        <time>2019-09-14T14:14:11Z</time>
      </trkpt>
      <trkpt lat="43.9623" lon="5.28473">
        <ele>524.5</ele>
        <time>2019-09-14T14:14:16Z</time>
      </trkpt>
      <trkpt lat="43.96233" lon="5.28479">
        <ele>522.5</ele>
        <time>2019-09-14T14:14:22Z</time>
      </trkpt>
      <trkpt lat="43.96234" lon="5.28485">
        <ele>522.5</ele>
        <time>2019-09-14T14:14:28Z</time>
      </trkpt>
      <trkpt lat="43.96232" lon="5.28491">
        <ele>526.5</ele>
        <time>2019-09-14T14:14:33Z</time>
      </trkpt>
      <trkpt lat="43.96234" lon="5.28497">
        <ele>526.5</ele>
        <time>2019-09-14T14:14:39Z</time>
      </trkpt>
      <trkpt lat="43.96233" lon="5.28504">
        <ele>525.5</ele>
        <time>2019-09-14T14:14:45Z</time>
      </trkpt>
      <trkpt lat="43.96234" lon="5.28511">
        <ele>528.5</ele>
        <time>2019-09-14T14:14:51Z</time>
      </trkpt>
      <trkpt lat="43.96232" lon="5.28516">
        <ele>527.5</ele>
        <time>2019-09-14T14:14:56Z</time>
      </trkpt>
      <trkpt lat="43.96234" lon="5.28527">
        <ele>531.5</ele>
        <time>2019-09-14T14:15:02Z</time>
      </trkpt>
      <trkpt lat="43.96231" lon="5.2853">
        <ele>531.5</ele>
        <time>2019-09-14T14:15:08Z</time>
      </trkpt>
      <trkpt lat="43.96232" lon="5.28535">
        <ele>531.5</ele>
        <time>2019-09-14T14:15:14Z</time>
      </trkpt>
      <trkpt lat="43.96235" lon="5.28538">
        <ele>533.5</ele>
        <time>2019-09-14T14:15:19Z</time>
      </trkpt>
      <trkpt lat="43.96238" lon="5.28546">
        <ele>534.5</ele>
        <time>2019-09-14T14:15:25Z</time>
      </trkpt>
      <trkpt lat="43.9624" lon="5.2855">
        <ele>535.5</ele>
        <time>2019-09-14T14:15:31Z</time>
      </trkpt>
      <trkpt lat="43.96242" lon="5.28556">
        <ele>535.5</ele>
        <time>2019-09-14T14:15:36Z</time>
      </trkpt>
      <trkpt lat="43.9625" lon="5.2856">
        <ele>534.5</ele>
        <time>2019-09-14T14:15:42Z</time>
      </trkpt>
      <trkpt lat="43.96254" lon="5.2856">
        <ele>535.5</ele>
        <time>2019-09-14T14:15:47Z</time>
      </trkpt>
      <trkpt lat="43.96257" lon="5.2856">
        <ele>537.5</ele>
        <time>2019-09-14T14:15:52Z</time>
      </trkpt>
      <trkpt lat="43.9626" lon="5.28563">
        <ele>539.5</ele>
        <time>2019-09-14T14:15:58Z</time>
      </trkpt>
      <trkpt lat="43.96275" lon="5.28558">
        <ele>539.5</ele>
        <time>2019-09-14T14:16:04Z</time>
      </trkpt>
      <trkpt lat="43.96273" lon="5.28561">
        <ele>542.5</ele>
        <time>2019-09-14T14:16:09Z</time>
      </trkpt>
      <trkpt lat="43.9628" lon="5.28558">
        <ele>544.5</ele>
        <time>2019-09-14T14:16:15Z</time>
      </trkpt>
      <trkpt lat="43.96284" lon="5.28559">
        <ele>546.5</ele>
        <time>2019-09-14T14:16:21Z</time>
      </trkpt>
      <trkpt lat="43.96289" lon="5.28557">
        <ele>548.5</ele>
        <time>2019-09-14T14:16:26Z</time>
      </trkpt>
      <trkpt lat="43.96295" lon="5.28553">
        <ele>545.5</ele>
        <time>2019-09-14T14:16:32Z</time>
      </trkpt>
      <trkpt lat="43.96302" lon="5.28549">
        <ele>544.5</ele>
        <time>2019-09-14T14:16:38Z</time>
      </trkpt>
      <trkpt lat="43.96303" lon="5.28551">
        <ele>543.5</ele>
        <time>2019-09-14T14:16:43Z</time>
      </trkpt>
      <trkpt lat="43.96307" lon="5.28551">
        <ele>546.5</ele>
        <time>2019-09-14T14:16:48Z</time>
      </trkpt>
      <trkpt lat="43.96312" lon="5.28549">
        <ele>544.5</ele>
        <time>2019-09-14T14:16:54Z</time>
      </trkpt>
      <trkpt lat="43.96314" lon="5.28548">
        <ele>542.5</ele>
        <time>2019-09-14T14:16:59Z</time>
      </trkpt>
      <trkpt lat="43.96317" lon="5.28547">
        <ele>544.5</ele>
        <time>2019-09-14T14:17:05Z</time>
      </trkpt>
      <trkpt lat="43.96321" lon="5.28547">
        <ele>545.5</ele>
        <time>2019-09-14T14:17:10Z</time>
      </trkpt>
      <trkpt lat="43.96326" lon="5.28544">
        <ele>546.5</ele>
        <time>2019-09-14T14:17:16Z</time>
      </trkpt>
      <trkpt lat="43.96328" lon="5.28545">
        <ele>546.5</ele>
        <time>2019-09-14T14:17:21Z</time>
      </trkpt>
      <trkpt lat="43.96334" lon="5.28544">
        <ele>545.5</ele>
        <time>2019-09-14T14:17:27Z</time>
      </trkpt>
      <trkpt lat="43.9634" lon="5.28542">
        <ele>545.5</ele>
        <time>2019-09-14T14:17:33Z</time>
      </trkpt>
      <trkpt lat="43.9634" lon="5.28542">
        <ele>546.5</ele>
        <time>2019-09-14T14:17:39Z</time>
      </trkpt>
      <trkpt lat="43.96342" lon="5.28541">
        <ele>547.5</ele>
        <time>2019-09-14T14:17:45Z</time>
      </trkpt>
      <trkpt lat="43.96343" lon="5.28541">
        <ele>547.5</ele>
        <time>2019-09-14T14:17:50Z</time>
      </trkpt>
      <trkpt lat="43.96347" lon="5.28536">
        <ele>547.5</ele>
        <time>2019-09-14T14:17:56Z</time>
      </trkpt>
      <trkpt lat="43.9635" lon="5.28531">
        <ele>548.5</ele>
        <time>2019-09-14T14:18:01Z</time>
      </trkpt>
      <trkpt lat="43.96357" lon="5.28521">
        <ele>551.5</ele>
        <time>2019-09-14T14:18:07Z</time>
      </trkpt>
      <trkpt lat="43.96358" lon="5.28515">
        <ele>553.5</ele>
        <time>2019-09-14T14:18:12Z</time>
      </trkpt>
      <trkpt lat="43.96359" lon="5.28507">
        <ele>553.5</ele>
        <time>2019-09-14T14:18:18Z</time>
      </trkpt>
      <trkpt lat="43.9636" lon="5.28499">
        <ele>553.5</ele>
        <time>2019-09-14T14:18:23Z</time>
      </trkpt>
      <trkpt lat="43.96359" lon="5.28493">
        <ele>552.5</ele>
        <time>2019-09-14T14:18:28Z</time>
      </trkpt>
      <trkpt lat="43.9636" lon="5.28488">
        <ele>554.5</ele>
        <time>2019-09-14T14:18:34Z</time>
      </trkpt>
      <trkpt lat="43.96357" lon="5.2848">
        <ele>555.5</ele>
        <time>2019-09-14T14:18:39Z</time>
      </trkpt>
      <trkpt lat="43.96359" lon="5.28474">
        <ele>555.5</ele>
        <time>2019-09-14T14:18:44Z</time>
      </trkpt>
      <trkpt lat="43.96362" lon="5.28467">
        <ele>556.5</ele>
        <time>2019-09-14T14:18:50Z</time>
      </trkpt>
      <trkpt lat="43.96365" lon="5.2846">
        <ele>561.5</ele>
        <time>2019-09-14T14:18:56Z</time>
      </trkpt>
      <trkpt lat="43.9637" lon="5.28454">
        <ele>560.5</ele>
        <time>2019-09-14T14:19:02Z</time>
      </trkpt>
      <trkpt lat="43.96374" lon="5.28448">
        <ele>559.5</ele>
        <time>2019-09-14T14:19:07Z</time>
      </trkpt>
      <trkpt lat="43.96379" lon="5.28446">
        <ele>563.5</ele>
        <time>2019-09-14T14:19:13Z</time>
      </trkpt>
      <trkpt lat="43.96387" lon="5.28445">
        <ele>559.5</ele>
        <time>2019-09-14T14:19:19Z</time>
      </trkpt>
      <trkpt lat="43.96391" lon="5.2844">
        <ele>558.5</ele>
        <time>2019-09-14T14:19:24Z</time>
      </trkpt>
      <trkpt lat="43.96393" lon="5.28441">
        <ele>559.5</ele>
        <time>2019-09-14T14:19:30Z</time>
      </trkpt>
      <trkpt lat="43.96396" lon="5.2844">
        <ele>560.5</ele>
        <time>2019-09-14T14:19:35Z</time>
      </trkpt>
      <trkpt lat="43.96399" lon="5.28438">
        <ele>561.5</ele>
        <time>2019-09-14T14:19:41Z</time>
      </trkpt>
      <trkpt lat="43.96406" lon="5.28435">
        <ele>558.5</ele>
        <time>2019-09-14T14:19:46Z</time>
      </trkpt>
      <trkpt lat="43.96413" lon="5.28432">
        <ele>557.5</ele>
        <time>2019-09-14T14:19:52Z</time>
      </trkpt>
      <trkpt lat="43.96418" lon="5.28426">
        <ele>561.5</ele>
        <time>2019-09-14T14:19:58Z</time>
      </trkpt>
      <trkpt lat="43.9642" lon="5.28423">
        <ele>561.5</ele>
        <time>2019-09-14T14:20:04Z</time>
      </trkpt>
      <trkpt lat="43.96422" lon="5.28417">
        <ele>560.5</ele>
        <time>2019-09-14T14:20:09Z</time>
      </trkpt>
      <trkpt lat="43.96427" lon="5.28408">
        <ele>562.5</ele>
        <time>2019-09-14T14:20:15Z</time>
      </trkpt>
      <trkpt lat="43.96434" lon="5.28404">
        <ele>559.5</ele>
        <time>2019-09-14T14:20:20Z</time>
      </trkpt>
      <trkpt lat="43.96442" lon="5.28402">
        <ele>564.5</ele>
        <time>2019-09-14T14:20:26Z</time>
      </trkpt>
      <trkpt lat="43.96445" lon="5.28401">
        <ele>563.5</ele>
        <time>2019-09-14T14:20:31Z</time>
      </trkpt>
      <trkpt lat="43.96453" lon="5.28396">
        <ele>565.5</ele>
        <time>2019-09-14T14:20:37Z</time>
      </trkpt>
      <trkpt lat="43.96459" lon="5.28397">
        <ele>566.5</ele>
        <time>2019-09-14T14:20:43Z</time>
      </trkpt>
      <trkpt lat="43.96464" lon="5.28398">
        <ele>565.5</ele>
        <time>2019-09-14T14:20:48Z</time>
      </trkpt>
      <trkpt lat="43.96469" lon="5.28398">
        <ele>567.5</ele>
        <time>2019-09-14T14:20:54Z</time>
      </trkpt>
      <trkpt lat="43.96474" lon="5.28397">
        <ele>568.5</ele>
        <time>2019-09-14T14:20:59Z</time>
      </trkpt>
      <trkpt lat="43.96478" lon="5.28395">
        <ele>567.5</ele>
        <time>2019-09-14T14:21:05Z</time>
      </trkpt>
      <trkpt lat="43.96483" lon="5.28395">
        <ele>569.5</ele>
        <time>2019-09-14T14:21:10Z</time>
      </trkpt>
      <trkpt lat="43.96488" lon="5.28395">
        <ele>565.5</ele>
        <time>2019-09-14T14:21:16Z</time>
      </trkpt>
      <trkpt lat="43.96492" lon="5.28394">
        <ele>566.5</ele>
        <time>2019-09-14T14:21:22Z</time>
      </trkpt>
      <trkpt lat="43.96498" lon="5.28394">
        <ele>566.5</ele>
        <time>2019-09-14T14:21:28Z</time>
      </trkpt>
      <trkpt lat="43.96504" lon="5.28394">
        <ele>566.5</ele>
        <time>2019-09-14T14:21:33Z</time>
      </trkpt>
      <trkpt lat="43.9651" lon="5.28394">
        <ele>563.5</ele>
        <time>2019-09-14T14:21:38Z</time>
      </trkpt>
      <trkpt lat="43.96515" lon="5.28395">
        <ele>561.5</ele>
        <time>2019-09-14T14:21:44Z</time>
      </trkpt>
      <trkpt lat="43.96519" lon="5.28397">
        <ele>562.5</ele>
        <time>2019-09-14T14:21:50Z</time>
      </trkpt>
      <trkpt lat="43.96525" lon="5.28396">
        <ele>567.5</ele>
        <time>2019-09-14T14:21:55Z</time>
      </trkpt>
      <trkpt lat="43.9653" lon="5.28396">
        <ele>565.5</ele>
        <time>2019-09-14T14:22:01Z</time>
      </trkpt>
      <trkpt lat="43.96535" lon="5.28397">
        <ele>567.5</ele>
        <time>2019-09-14T14:22:07Z</time>
      </trkpt>
      <trkpt lat="43.9654" lon="5.2839">
        <ele>568.5</ele>
        <time>2019-09-14T14:22:12Z</time>
      </trkpt>
      <trkpt lat="43.96542" lon="5.28393">
        <ele>567.5</ele>
        <time>2019-09-14T14:22:17Z</time>
      </trkpt>
      <trkpt lat="43.96551" lon="5.28393">
        <ele>568.5</ele>
        <time>2019-09-14T14:22:23Z</time>
      </trkpt>
      <trkpt lat="43.96557" lon="5.28394">
        <ele>568.5</ele>
        <time>2019-09-14T14:22:28Z</time>
      </trkpt>
      <trkpt lat="43.96562" lon="5.28393">
        <ele>567.5</ele>
        <time>2019-09-14T14:22:33Z</time>
      </trkpt>
      <trkpt lat="43.96571" lon="5.28393">
        <ele>569.5</ele>
        <time>2019-09-14T14:22:39Z</time>
      </trkpt>
      <trkpt lat="43.96575" lon="5.28393">
        <ele>569.5</ele>
        <time>2019-09-14T14:22:44Z</time>
      </trkpt>
      <trkpt lat="43.9658" lon="5.28394">
        <ele>570.5</ele>
        <time>2019-09-14T14:22:49Z</time>
      </trkpt>
      <trkpt lat="43.96584" lon="5.28393">
        <ele>569.5</ele>
        <time>2019-09-14T14:22:55Z</time>
      </trkpt>
      <trkpt lat="43.96591" lon="5.28392">
        <ele>567.5</ele>
        <time>2019-09-14T14:23:00Z</time>
      </trkpt>
      <trkpt lat="43.96594" lon="5.28396">
        <ele>568.5</ele>
        <time>2019-09-14T14:23:06Z</time>
      </trkpt>
      <trkpt lat="43.96601" lon="5.28393">
        <ele>569.5</ele>
        <time>2019-09-14T14:23:11Z</time>
      </trkpt>
      <trkpt lat="43.96606" lon="5.28394">
        <ele>567.5</ele>
        <time>2019-09-14T14:23:17Z</time>
      </trkpt>
      <trkpt lat="43.96613" lon="5.28394">
        <ele>570.5</ele>
        <time>2019-09-14T14:23:23Z</time>
      </trkpt>
      <trkpt lat="43.96618" lon="5.28395">
        <ele>569.5</ele>
        <time>2019-09-14T14:23:28Z</time>
      </trkpt>
      <trkpt lat="43.96622" lon="5.28395">
        <ele>569.5</ele>
        <time>2019-09-14T14:23:33Z</time>
      </trkpt>
      <trkpt lat="43.96628" lon="5.28392">
        <ele>570.5</ele>
        <time>2019-09-14T14:23:39Z</time>
      </trkpt>
      <trkpt lat="43.96633" lon="5.28391">
        <ele>570.5</ele>
        <time>2019-09-14T14:23:45Z</time>
      </trkpt>
      <trkpt lat="43.96636" lon="5.2839">
        <ele>569.5</ele>
        <time>2019-09-14T14:23:51Z</time>
      </trkpt>
      <trkpt lat="43.96642" lon="5.28385">
        <ele>570.5</ele>
        <time>2019-09-14T14:23:57Z</time>
      </trkpt>
      <trkpt lat="43.96647" lon="5.28378">
        <ele>569.5</ele>
        <time>2019-09-14T14:24:03Z</time>
      </trkpt>
      <trkpt lat="43.96652" lon="5.28378">
        <ele>568.5</ele>
        <time>2019-09-14T14:24:08Z</time>
      </trkpt>
      <trkpt lat="43.96659" lon="5.28375">
        <ele>568.5</ele>
        <time>2019-09-14T14:24:14Z</time>
      </trkpt>
      <trkpt lat="43.96663" lon="5.2837">
        <ele>566.5</ele>
        <time>2019-09-14T14:24:19Z</time>
      </trkpt>
      <trkpt lat="43.96665" lon="5.28368">
        <ele>564.5</ele>
        <time>2019-09-14T14:24:24Z</time>
      </trkpt>
      <trkpt lat="43.96671" lon="5.28368">
        <ele>564.5</ele>
        <time>2019-09-14T14:24:30Z</time>
      </trkpt>
      <trkpt lat="43.96678" lon="5.28363">
        <ele>563.5</ele>
        <time>2019-09-14T14:24:36Z</time>
      </trkpt>
      <trkpt lat="43.96685" lon="5.28361">
        <ele>565.5</ele>
        <time>2019-09-14T14:24:41Z</time>
      </trkpt>
      <trkpt lat="43.96689" lon="5.28359">
        <ele>565.5</ele>
        <time>2019-09-14T14:24:46Z</time>
      </trkpt>
      <trkpt lat="43.96688" lon="5.28361">
        <ele>563.5</ele>
        <time>2019-09-14T14:24:52Z</time>
      </trkpt>
      <trkpt lat="43.96692" lon="5.28358">
        <ele>563.5</ele>
        <time>2019-09-14T14:24:57Z</time>
      </trkpt>
      <trkpt lat="43.96695" lon="5.28356">
        <ele>562.5</ele>
        <time>2019-09-14T14:25:03Z</time>
      </trkpt>
      <trkpt lat="43.96697" lon="5.28354">
        <ele>559.5</ele>
        <time>2019-09-14T14:25:09Z</time>
      </trkpt>
      <trkpt lat="43.96707" lon="5.28347">
        <ele>559.5</ele>
        <time>2019-09-14T14:25:15Z</time>
      </trkpt>
      <trkpt lat="43.96719" lon="5.28341">
        <ele>561.5</ele>
        <time>2019-09-14T14:25:20Z</time>
      </trkpt>
      <trkpt lat="43.96724" lon="5.28341">
        <ele>561.5</ele>
        <time>2019-09-14T14:25:26Z</time>
      </trkpt>
      <trkpt lat="43.96726" lon="5.28341">
        <ele>560.5</ele>
        <time>2019-09-14T14:25:31Z</time>
      </trkpt>
      <trkpt lat="43.96728" lon="5.2834">
        <ele>560.5</ele>
        <time>2019-09-14T14:25:36Z</time>
      </trkpt>
      <trkpt lat="43.96734" lon="5.28334">
        <ele>562.5</ele>
        <time>2019-09-14T14:25:41Z</time>
      </trkpt>
      <trkpt lat="43.96741" lon="5.28334">
        <ele>563.5</ele>
        <time>2019-09-14T14:25:47Z</time>
      </trkpt>
      <trkpt lat="43.96746" lon="5.2833">
        <ele>563.5</ele>
        <time>2019-09-14T14:25:52Z</time>
      </trkpt>
      <trkpt lat="43.96751" lon="5.28329">
        <ele>565.5</ele>
        <time>2019-09-14T14:25:57Z</time>
      </trkpt>
      <trkpt lat="43.96755" lon="5.28324">
        <ele>565.5</ele>
        <time>2019-09-14T14:26:03Z</time>
      </trkpt>
      <trkpt lat="43.96763" lon="5.28323">
        <ele>566.5</ele>
        <time>2019-09-14T14:26:09Z</time>
      </trkpt>
      <trkpt lat="43.96768" lon="5.28322">
        <ele>567.5</ele>
        <time>2019-09-14T14:26:14Z</time>
      </trkpt>
      <trkpt lat="43.96772" lon="5.28321">
        <ele>568.5</ele>
        <time>2019-09-14T14:26:20Z</time>
      </trkpt>
      <trkpt lat="43.9678" lon="5.28319">
        <ele>566.5</ele>
        <time>2019-09-14T14:26:25Z</time>
      </trkpt>
      <trkpt lat="43.96788" lon="5.28315">
        <ele>567.5</ele>
        <time>2019-09-14T14:26:31Z</time>
      </trkpt>
      <trkpt lat="43.9679" lon="5.28321">
        <ele>567.5</ele>
        <time>2019-09-14T14:26:37Z</time>
      </trkpt>
      <trkpt lat="43.96797" lon="5.28321">
        <ele>569.5</ele>
        <time>2019-09-14T14:26:43Z</time>
      </trkpt>
      <trkpt lat="43.96802" lon="5.28323">
        <ele>569.5</ele>
        <time>2019-09-14T14:26:49Z</time>
      </trkpt>
      <trkpt lat="43.96809" lon="5.28328">
        <ele>569.5</ele>
        <time>2019-09-14T14:26:55Z</time>
      </trkpt>
      <trkpt lat="43.96815" lon="5.28328">
        <ele>570.5</ele>
        <time>2019-09-14T14:27:00Z</time>
      </trkpt>
      <trkpt lat="43.96818" lon="5.28332">
        <ele>568.5</ele>
        <time>2019-09-14T14:27:06Z</time>
      </trkpt>
      <trkpt lat="43.96822" lon="5.28335">
        <ele>565.5</ele>
        <time>2019-09-14T14:27:12Z</time>
      </trkpt>
      <trkpt lat="43.9683" lon="5.28334">
        <ele>564.5</ele>
        <time>2019-09-14T14:27:17Z</time>
      </trkpt>
      <trkpt lat="43.96835" lon="5.28339">
        <ele>564.5</ele>
        <time>2019-09-14T14:27:22Z</time>
      </trkpt>
      <trkpt lat="43.96838" lon="5.28344">
        <ele>565.5</ele>
        <time>2019-09-14T14:27:27Z</time>
      </trkpt>
      <trkpt lat="43.9684" lon="5.28348">
        <ele>564.5</ele>
        <time>2019-09-14T14:27:33Z</time>
      </trkpt>
      <trkpt lat="43.96841" lon="5.28354">
        <ele>564.5</ele>
        <time>2019-09-14T14:27:39Z</time>
      </trkpt>
      <trkpt lat="43.96847" lon="5.28361">
        <ele>563.5</ele>
        <time>2019-09-14T14:27:45Z</time>
      </trkpt>
      <trkpt lat="43.96849" lon="5.28369">
        <ele>564.5</ele>
        <time>2019-09-14T14:27:51Z</time>
      </trkpt>
      <trkpt lat="43.96856" lon="5.28371">
        <ele>564.5</ele>
        <time>2019-09-14T14:27:57Z</time>
      </trkpt>
      <trkpt lat="43.9686" lon="5.28378">
        <ele>564.5</ele>
        <time>2019-09-14T14:28:02Z</time>
      </trkpt>
      <trkpt lat="43.96866" lon="5.28384">
        <ele>564.5</ele>
        <time>2019-09-14T14:28:08Z</time>
      </trkpt>
      <trkpt lat="43.96868" lon="5.2839">
        <ele>564.5</ele>
        <time>2019-09-14T14:28:13Z</time>
      </trkpt>
      <trkpt lat="43.9687" lon="5.28392">
        <ele>567.5</ele>
        <time>2019-09-14T14:28:19Z</time>
      </trkpt>
      <trkpt lat="43.96868" lon="5.28406">
        <ele>566.5</ele>
        <time>2019-09-14T14:28:25Z</time>
      </trkpt>
      <trkpt lat="43.96874" lon="5.28414">
        <ele>566.5</ele>
        <time>2019-09-14T14:28:31Z</time>
      </trkpt>
      <trkpt lat="43.96875" lon="5.28424">
        <ele>565.5</ele>
        <time>2019-09-14T14:28:36Z</time>
      </trkpt>
      <trkpt lat="43.9688" lon="5.28424">
        <ele>564.5</ele>
        <time>2019-09-14T14:28:42Z</time>
      </trkpt>
      <trkpt lat="43.96887" lon="5.28426">
        <ele>566.5</ele>
        <time>2019-09-14T14:28:47Z</time>
      </trkpt>
      <trkpt lat="43.96888" lon="5.2843">
        <ele>566.5</ele>
        <time>2019-09-14T14:28:53Z</time>
      </trkpt>
      <trkpt lat="43.96889" lon="5.28438">
        <ele>568.5</ele>
        <time>2019-09-14T14:28:58Z</time>
      </trkpt>
      <trkpt lat="43.96891" lon="5.2844">
        <ele>569.5</ele>
        <time>2019-09-14T14:29:04Z</time>
      </trkpt>
      <trkpt lat="43.96895" lon="5.28451">
        <ele>569.5</ele>
        <time>2019-09-14T14:29:10Z</time>
      </trkpt>
      <trkpt lat="43.969" lon="5.28463">
        <ele>566.5</ele>
        <time>2019-09-14T14:29:16Z</time>
      </trkpt>
      <trkpt lat="43.96904" lon="5.2847">
        <ele>566.5</ele>
        <time>2019-09-14T14:29:22Z</time>
      </trkpt>
      <trkpt lat="43.96902" lon="5.28475">
        <ele>567.5</ele>
        <time>2019-09-14T14:29:28Z</time>
      </trkpt>
      <trkpt lat="43.96905" lon="5.2848">
        <ele>565.5</ele>
        <time>2019-09-14T14:29:34Z</time>
      </trkpt>
      <trkpt lat="43.96913" lon="5.28492">
        <ele>563.5</ele>
        <time>2019-09-14T14:29:39Z</time>
      </trkpt>
      <trkpt lat="43.96912" lon="5.28501">
        <ele>562.5</ele>
        <time>2019-09-14T14:29:45Z</time>
      </trkpt>
      <trkpt lat="43.96914" lon="5.28508">
        <ele>564.5</ele>
        <time>2019-09-14T14:29:51Z</time>
      </trkpt>
      <trkpt lat="43.96916" lon="5.28519">
        <ele>567.5</ele>
        <time>2019-09-14T14:29:56Z</time>
      </trkpt>
      <trkpt lat="43.96919" lon="5.28515">
        <ele>566.5</ele>
        <time>2019-09-14T14:30:01Z</time>
      </trkpt>
      <trkpt lat="43.96919" lon="5.28526">
        <ele>566.5</ele>
        <time>2019-09-14T14:30:07Z</time>
      </trkpt>
      <trkpt lat="43.96922" lon="5.28534">
        <ele>568.5</ele>
        <time>2019-09-14T14:30:13Z</time>
      </trkpt>
      <trkpt lat="43.96923" lon="5.28544">
        <ele>568.5</ele>
        <time>2019-09-14T14:30:18Z</time>
      </trkpt>
      <trkpt lat="43.96923" lon="5.28554">
        <ele>571.5</ele>
        <time>2019-09-14T14:30:23Z</time>
      </trkpt>
      <trkpt lat="43.96923" lon="5.28561">
        <ele>576.5</ele>
        <time>2019-09-14T14:30:29Z</time>
      </trkpt>
      <trkpt lat="43.96925" lon="5.28568">
        <ele>576.5</ele>
        <time>2019-09-14T14:30:34Z</time>
      </trkpt>
      <trkpt lat="43.96926" lon="5.28572">
        <ele>575.5</ele>
        <time>2019-09-14T14:30:40Z</time>
      </trkpt>
      <trkpt lat="43.96928" lon="5.28577">
        <ele>575.5</ele>
        <time>2019-09-14T14:30:45Z</time>
      </trkpt>
      <trkpt lat="43.9693" lon="5.28587">
        <ele>574.5</ele>
        <time>2019-09-14T14:30:51Z</time>
      </trkpt>
      <trkpt lat="43.96933" lon="5.28593">
        <ele>575.5</ele>
        <time>2019-09-14T14:30:56Z</time>
      </trkpt>
      <trkpt lat="43.96934" lon="5.28614">
        <ele>572.5</ele>
        <time>2019-09-14T14:31:11Z</time>
      </trkpt>
      <trkpt lat="43.96935" lon="5.28614">
        <ele>570.5</ele>
        <time>2019-09-14T14:31:17Z</time>
      </trkpt>
      <trkpt lat="43.96935" lon="5.28614">
        <ele>570.5</ele>
        <time>2019-09-14T14:31:23Z</time>
      </trkpt>
      <trkpt lat="43.96936" lon="5.28615">
        <ele>571.5</ele>
        <time>2019-09-14T14:31:28Z</time>
      </trkpt>
      <trkpt lat="43.96935" lon="5.28617">
        <ele>571.5</ele>
        <time>2019-09-14T14:31:34Z</time>
      </trkpt>
      <trkpt lat="43.96943" lon="5.28632">
        <ele>572.5</ele>
        <time>2019-09-14T14:31:40Z</time>
      </trkpt>
      <trkpt lat="43.96949" lon="5.28644">
        <ele>575.5</ele>
        <time>2019-09-14T14:31:46Z</time>
      </trkpt>
      <trkpt lat="43.96951" lon="5.28655">
        <ele>574.5</ele>
        <time>2019-09-14T14:31:51Z</time>
      </trkpt>
      <trkpt lat="43.96956" lon="5.28663">
        <ele>573.5</ele>
        <time>2019-09-14T14:31:57Z</time>
      </trkpt>
      <trkpt lat="43.96956" lon="5.28669">
        <ele>569.5</ele>
        <time>2019-09-14T14:32:02Z</time>
      </trkpt>
      <trkpt lat="43.96964" lon="5.28677">
        <ele>573.5</ele>
        <time>2019-09-14T14:32:08Z</time>
      </trkpt>
      <trkpt lat="43.96963" lon="5.28687">
        <ele>572.5</ele>
        <time>2019-09-14T14:32:14Z</time>
      </trkpt>
      <trkpt lat="43.96966" lon="5.28691">
        <ele>572.5</ele>
        <time>2019-09-14T14:32:20Z</time>
      </trkpt>
      <trkpt lat="43.96967" lon="5.28701">
        <ele>569.5</ele>
        <time>2019-09-14T14:32:26Z</time>
      </trkpt>
      <trkpt lat="43.96971" lon="5.28706">
        <ele>569.5</ele>
        <time>2019-09-14T14:32:32Z</time>
      </trkpt>
      <trkpt lat="43.96974" lon="5.28715">
        <ele>571.5</ele>
        <time>2019-09-14T14:32:37Z</time>
      </trkpt>
      <trkpt lat="43.96976" lon="5.28723">
        <ele>573.5</ele>
        <time>2019-09-14T14:32:43Z</time>
      </trkpt>
      <trkpt lat="43.9698" lon="5.28731">
        <ele>576.5</ele>
        <time>2019-09-14T14:32:48Z</time>
      </trkpt>
      <trkpt lat="43.96983" lon="5.28738">
        <ele>576.5</ele>
        <time>2019-09-14T14:32:54Z</time>
      </trkpt>
      <trkpt lat="43.96987" lon="5.28743">
        <ele>574.5</ele>
        <time>2019-09-14T14:32:59Z</time>
      </trkpt>
      <trkpt lat="43.96993" lon="5.2875">
        <ele>574.5</ele>
        <time>2019-09-14T14:33:05Z</time>
      </trkpt>
      <trkpt lat="43.96996" lon="5.28754">
        <ele>573.5</ele>
        <time>2019-09-14T14:33:10Z</time>
      </trkpt>
      <trkpt lat="43.96997" lon="5.28763">
        <ele>575.5</ele>
        <time>2019-09-14T14:33:15Z</time>
      </trkpt>
      <trkpt lat="43.96999" lon="5.28763">
        <ele>574.5</ele>
        <time>2019-09-14T14:33:21Z</time>
      </trkpt>
      <trkpt lat="43.97" lon="5.28768">
        <ele>574.5</ele>
        <time>2019-09-14T14:33:27Z</time>
      </trkpt>
      <trkpt lat="43.96999" lon="5.2877">
        <ele>575.5</ele>
        <time>2019-09-14T14:33:32Z</time>
      </trkpt>
      <trkpt lat="43.96998" lon="5.2877">
        <ele>574.5</ele>
        <time>2019-09-14T14:33:37Z</time>
      </trkpt>
      <trkpt lat="43.96998" lon="5.28769">
        <ele>574.5</ele>
        <time>2019-09-14T14:33:43Z</time>
      </trkpt>
      <trkpt lat="43.96995" lon="5.2877">
        <ele>574.5</ele>
        <time>2019-09-14T14:33:49Z</time>
      </trkpt>
      <trkpt lat="43.96989" lon="5.28781">
        <ele>573.5</ele>
        <time>2019-09-14T14:33:55Z</time>
      </trkpt>
      <trkpt lat="43.96983" lon="5.28787">
        <ele>576.5</ele>
        <time>2019-09-14T14:34:00Z</time>
      </trkpt>
      <trkpt lat="43.96983" lon="5.28781">
        <ele>577.5</ele>
        <time>2019-09-14T14:34:06Z</time>
      </trkpt>
      <trkpt lat="43.96979" lon="5.28781">
        <ele>577.5</ele>
        <time>2019-09-14T14:34:12Z</time>
      </trkpt>
      <trkpt lat="43.96977" lon="5.28784">
        <ele>576.5</ele>
        <time>2019-09-14T14:34:18Z</time>
      </trkpt>
      <trkpt lat="43.96978" lon="5.28785">
        <ele>576.5</ele>
        <time>2019-09-14T14:34:23Z</time>
      </trkpt>
      <trkpt lat="43.96977" lon="5.28786">
        <ele>576.5</ele>
        <time>2019-09-14T14:34:28Z</time>
      </trkpt>
      <trkpt lat="43.96978" lon="5.28786">
        <ele>575.5</ele>
        <time>2019-09-14T14:34:33Z</time>
      </trkpt>
      <trkpt lat="43.96984" lon="5.2879">
        <ele>567.5</ele>
        <time>2019-09-14T14:34:39Z</time>
      </trkpt>
      <trkpt lat="43.96991" lon="5.28787">
        <ele>569.5</ele>
        <time>2019-09-14T14:34:44Z</time>
      </trkpt>
      <trkpt lat="43.96995" lon="5.28789">
        <ele>572.5</ele>
        <time>2019-09-14T14:34:50Z</time>
      </trkpt>
      <trkpt lat="43.96998" lon="5.28789">
        <ele>575.5</ele>
        <time>2019-09-14T14:34:56Z</time>
      </trkpt>
      <trkpt lat="43.96999" lon="5.28788">
        <ele>573.5</ele>
        <time>2019-09-14T14:35:03Z</time>
      </trkpt>
      <trkpt lat="43.97004" lon="5.28788">
        <ele>573.5</ele>
        <time>2019-09-14T14:35:09Z</time>
      </trkpt>
      <trkpt lat="43.97006" lon="5.28788">
        <ele>576.5</ele>
        <time>2019-09-14T14:35:14Z</time>
      </trkpt>
      <trkpt lat="43.97006" lon="5.2879">
        <ele>572.5</ele>
        <time>2019-09-14T14:35:20Z</time>
      </trkpt>
      <trkpt lat="43.97008" lon="5.28791">
        <ele>573.5</ele>
        <time>2019-09-14T14:35:26Z</time>
      </trkpt>
      <trkpt lat="43.97008" lon="5.28792">
        <ele>574.5</ele>
        <time>2019-09-14T14:35:31Z</time>
      </trkpt>
      <trkpt lat="43.97007" lon="5.28792">
        <ele>574.5</ele>
        <time>2019-09-14T14:35:37Z</time>
      </trkpt>
      <trkpt lat="43.97007" lon="5.28792">
        <ele>574.5</ele>
        <time>2019-09-14T14:35:43Z</time>
      </trkpt>
      <trkpt lat="43.97007" lon="5.28792">
        <ele>574.5</ele>
        <time>2019-09-14T14:35:48Z</time>
      </trkpt>
      <trkpt lat="43.97007" lon="5.28792">
        <ele>574.5</ele>
        <time>2019-09-14T14:35:54Z</time>
      </trkpt>
      <trkpt lat="43.97007" lon="5.28792">
        <ele>574.5</ele>
        <time>2019-09-14T14:35:59Z</time>
      </trkpt>
      <trkpt lat="43.97007" lon="5.28793">
        <ele>574.5</ele>
        <time>2019-09-14T14:36:05Z</time>
      </trkpt>
      <trkpt lat="43.97007" lon="5.28792">
        <ele>574.5</ele>
        <time>2019-09-14T14:36:11Z</time>
      </trkpt>
      <trkpt lat="43.97007" lon="5.28792">
        <ele>574.5</ele>
        <time>2019-09-14T14:36:16Z</time>
      </trkpt>
      <trkpt lat="43.97007" lon="5.28792">
        <ele>574.5</ele>
        <time>2019-09-14T14:36:22Z</time>
      </trkpt>
      <trkpt lat="43.97007" lon="5.28792">
        <ele>574.5</ele>
        <time>2019-09-14T14:36:27Z</time>
      </trkpt>
      <trkpt lat="43.97007" lon="5.28792">
        <ele>574.5</ele>
        <time>2019-09-14T14:36:33Z</time>
      </trkpt>
      <trkpt lat="43.97007" lon="5.28792">
        <ele>574.5</ele>
        <time>2019-09-14T14:36:39Z</time>
      </trkpt>
      <trkpt lat="43.97007" lon="5.28792">
        <ele>574.5</ele>
        <time>2019-09-14T14:36:44Z</time>
      </trkpt>
      <trkpt lat="43.97007" lon="5.28792">
        <ele>574.5</ele>
        <time>2019-09-14T14:36:50Z</time>
      </trkpt>
      <trkpt lat="43.97007" lon="5.28792">
        <ele>574.5</ele>
        <time>2019-09-14T14:36:55Z</time>
      </trkpt>
      <trkpt lat="43.97007" lon="5.28792">
        <ele>574.5</ele>
        <time>2019-09-14T14:37:01Z</time>
      </trkpt>
      <trkpt lat="43.97007" lon="5.28792">
        <ele>574.5</ele>
        <time>2019-09-14T14:37:07Z</time>
      </trkpt>
      <trkpt lat="43.97007" lon="5.28792">
        <ele>574.5</ele>
        <time>2019-09-14T14:37:14Z</time>
      </trkpt>
      <trkpt lat="43.97007" lon="5.28792">
        <ele>574.5</ele>
        <time>2019-09-14T14:37:19Z</time>
      </trkpt>
      <trkpt lat="43.97007" lon="5.28792">
        <ele>574.5</ele>
        <time>2019-09-14T14:37:24Z</time>
      </trkpt>
      <trkpt lat="43.97007" lon="5.28792">
        <ele>574.5</ele>
        <time>2019-09-14T14:37:30Z</time>
      </trkpt>
      <trkpt lat="43.97007" lon="5.28792">
        <ele>574.5</ele>
        <time>2019-09-14T14:37:36Z</time>
      </trkpt>
      <trkpt lat="43.97007" lon="5.28792">
        <ele>574.5</ele>
        <time>2019-09-14T14:37:42Z</time>
      </trkpt>
      <trkpt lat="43.97007" lon="5.28792">
        <ele>574.5</ele>
        <time>2019-09-14T14:37:47Z</time>
      </trkpt>
      <trkpt lat="43.97007" lon="5.28792">
        <ele>574.5</ele>
        <time>2019-09-14T14:37:53Z</time>
      </trkpt>
      <trkpt lat="43.97007" lon="5.28792">
        <ele>574.5</ele>
        <time>2019-09-14T14:37:58Z</time>
      </trkpt>
      <trkpt lat="43.97007" lon="5.28792">
        <ele>574.5</ele>
        <time>2019-09-14T14:38:03Z</time>
      </trkpt>
      <trkpt lat="43.97007" lon="5.28792">
        <ele>574.5</ele>
        <time>2019-09-14T14:38:09Z</time>
      </trkpt>
      <trkpt lat="43.97007" lon="5.28792">
        <ele>574.5</ele>
        <time>2019-09-14T14:38:15Z</time>
      </trkpt>
      <trkpt lat="43.97007" lon="5.28792">
        <ele>574.5</ele>
        <time>2019-09-14T14:38:21Z</time>
      </trkpt>
      <trkpt lat="43.97007" lon="5.28792">
        <ele>574.5</ele>
        <time>2019-09-14T14:38:26Z</time>
      </trkpt>
      <trkpt lat="43.97007" lon="5.28792">
        <ele>574.5</ele>
        <time>2019-09-14T14:38:32Z</time>
      </trkpt>
      <trkpt lat="43.97007" lon="5.28792">
        <ele>574.5</ele>
        <time>2019-09-14T14:38:38Z</time>
      </trkpt>
      <trkpt lat="43.97007" lon="5.28792">
        <ele>574.5</ele>
        <time>2019-09-14T14:38:43Z</time>
      </trkpt>
      <trkpt lat="43.97007" lon="5.28792">
        <ele>574.5</ele>
        <time>2019-09-14T14:38:49Z</time>
      </trkpt>
      <trkpt lat="43.97007" lon="5.28792">
        <ele>574.5</ele>
        <time>2019-09-14T14:38:55Z</time>
      </trkpt>
      <trkpt lat="43.97013" lon="5.28806">
        <ele>570.5</ele>
        <time>2019-09-14T14:39:00Z</time>
      </trkpt>
      <trkpt lat="43.97015" lon="5.28815">
        <ele>566.5</ele>
        <time>2019-09-14T14:39:06Z</time>
      </trkpt>
      <trkpt lat="43.97022" lon="5.28825">
        <ele>564.5</ele>
        <time>2019-09-14T14:39:11Z</time>
      </trkpt>
      <trkpt lat="43.97024" lon="5.28829">
        <ele>569.5</ele>
        <time>2019-09-14T14:39:17Z</time>
      </trkpt>
      <trkpt lat="43.97024" lon="5.28829">
        <ele>568.5</ele>
        <time>2019-09-14T14:39:22Z</time>
      </trkpt>
      <trkpt lat="43.97023" lon="5.28831">
        <ele>568.5</ele>
        <time>2019-09-14T14:39:28Z</time>
      </trkpt>
      <trkpt lat="43.97023" lon="5.28831">
        <ele>569.5</ele>
        <time>2019-09-14T14:39:33Z</time>
      </trkpt>
      <trkpt lat="43.97023" lon="5.28831">
        <ele>569.5</ele>
        <time>2019-09-14T14:39:39Z</time>
      </trkpt>
      <trkpt lat="43.97023" lon="5.28831">
        <ele>569.5</ele>
        <time>2019-09-14T14:39:45Z</time>
      </trkpt>
      <trkpt lat="43.97022" lon="5.28825">
        <ele>570.5</ele>
        <time>2019-09-14T14:39:51Z</time>
      </trkpt>
      <trkpt lat="43.97016" lon="5.28813">
        <ele>571.5</ele>
        <time>2019-09-14T14:39:57Z</time>
      </trkpt>
      <trkpt lat="43.97011" lon="5.28812">
        <ele>571.5</ele>
        <time>2019-09-14T14:40:02Z</time>
      </trkpt>
      <trkpt lat="43.97006" lon="5.28815">
        <ele>572.5</ele>
        <time>2019-09-14T14:40:08Z</time>
      </trkpt>
      <trkpt lat="43.97007" lon="5.28816">
        <ele>573.5</ele>
        <time>2019-09-14T14:40:13Z</time>
      </trkpt>
      <trkpt lat="43.97007" lon="5.28818">
        <ele>574.5</ele>
        <time>2019-09-14T14:40:18Z</time>
      </trkpt>
      <trkpt lat="43.97007" lon="5.28821">
        <ele>575.5</ele>
        <time>2019-09-14T14:40:24Z</time>
      </trkpt>
      <trkpt lat="43.97007" lon="5.28829">
        <ele>574.5</ele>
        <time>2019-09-14T14:40:30Z</time>
      </trkpt>
      <trkpt lat="43.97004" lon="5.2885">
        <ele>572.5</ele>
        <time>2019-09-14T14:40:36Z</time>
      </trkpt>
      <trkpt lat="43.97002" lon="5.28855">
        <ele>573.5</ele>
        <time>2019-09-14T14:40:41Z</time>
      </trkpt>
      <trkpt lat="43.96997" lon="5.28861">
        <ele>574.5</ele>
        <time>2019-09-14T14:40:47Z</time>
      </trkpt>
      <trkpt lat="43.96995" lon="5.28865">
        <ele>571.5</ele>
        <time>2019-09-14T14:40:53Z</time>
      </trkpt>
      <trkpt lat="43.96991" lon="5.28868">
        <ele>570.5</ele>
        <time>2019-09-14T14:40:58Z</time>
      </trkpt>
      <trkpt lat="43.96987" lon="5.28874">
        <ele>570.5</ele>
        <time>2019-09-14T14:41:04Z</time>
      </trkpt>
      <trkpt lat="43.96984" lon="5.28882">
        <ele>572.5</ele>
        <time>2019-09-14T14:41:09Z</time>
      </trkpt>
      <trkpt lat="43.9698" lon="5.2889">
        <ele>573.5</ele>
        <time>2019-09-14T14:41:15Z</time>
      </trkpt>
      <trkpt lat="43.96976" lon="5.28898">
        <ele>575.5</ele>
        <time>2019-09-14T14:41:20Z</time>
      </trkpt>
      <trkpt lat="43.96973" lon="5.28905">
        <ele>573.5</ele>
        <time>2019-09-14T14:41:26Z</time>
      </trkpt>
      <trkpt lat="43.96971" lon="5.28906">
        <ele>573.5</ele>
        <time>2019-09-14T14:41:31Z</time>
      </trkpt>
      <trkpt lat="43.96969" lon="5.28913">
        <ele>569.5</ele>
        <time>2019-09-14T14:41:37Z</time>
      </trkpt>
      <trkpt lat="43.96966" lon="5.28917">
        <ele>567.5</ele>
        <time>2019-09-14T14:41:42Z</time>
      </trkpt>
      <trkpt lat="43.96961" lon="5.28924">
        <ele>564.5</ele>
        <time>2019-09-14T14:41:48Z</time>
      </trkpt>
      <trkpt lat="43.96958" lon="5.28928">
        <ele>563.5</ele>
        <time>2019-09-14T14:41:53Z</time>
      </trkpt>
      <trkpt lat="43.96955" lon="5.28932">
        <ele>562.5</ele>
        <time>2019-09-14T14:41:59Z</time>
      </trkpt>
      <trkpt lat="43.9695" lon="5.28936">
        <ele>564.5</ele>
        <time>2019-09-14T14:42:04Z</time>
      </trkpt>
      <trkpt lat="43.96944" lon="5.28942">
        <ele>569.5</ele>
        <time>2019-09-14T14:42:10Z</time>
      </trkpt>
      <trkpt lat="43.96941" lon="5.28952">
        <ele>568.5</ele>
        <time>2019-09-14T14:42:16Z</time>
      </trkpt>
      <trkpt lat="43.96937" lon="5.28957">
        <ele>569.5</ele>
        <time>2019-09-14T14:42:22Z</time>
      </trkpt>
      <trkpt lat="43.96935" lon="5.28958">
        <ele>569.5</ele>
        <time>2019-09-14T14:42:28Z</time>
      </trkpt>
      <trkpt lat="43.96933" lon="5.28969">
        <ele>568.5</ele>
        <time>2019-09-14T14:42:34Z</time>
      </trkpt>
      <trkpt lat="43.9693" lon="5.28976">
        <ele>569.5</ele>
        <time>2019-09-14T14:42:39Z</time>
      </trkpt>
      <trkpt lat="43.96926" lon="5.28978">
        <ele>570.5</ele>
        <time>2019-09-14T14:42:45Z</time>
      </trkpt>
      <trkpt lat="43.96924" lon="5.28985">
        <ele>573.5</ele>
        <time>2019-09-14T14:42:51Z</time>
      </trkpt>
      <trkpt lat="43.96921" lon="5.28989">
        <ele>575.5</ele>
        <time>2019-09-14T14:42:56Z</time>
      </trkpt>
      <trkpt lat="43.96912" lon="5.28994">
        <ele>573.5</ele>
        <time>2019-09-14T14:43:01Z</time>
      </trkpt>
      <trkpt lat="43.96897" lon="5.28994">
        <ele>576.5</ele>
        <time>2019-09-14T14:43:07Z</time>
      </trkpt>
      <trkpt lat="43.96892" lon="5.28993">
        <ele>580.5</ele>
        <time>2019-09-14T14:43:13Z</time>
      </trkpt>
      <trkpt lat="43.96896" lon="5.28989">
        <ele>583.5</ele>
        <time>2019-09-14T14:43:18Z</time>
      </trkpt>
      <trkpt lat="43.96895" lon="5.28993">
        <ele>582.5</ele>
        <time>2019-09-14T14:43:25Z</time>
      </trkpt>
      <trkpt lat="43.96893" lon="5.28994">
        <ele>582.5</ele>
        <time>2019-09-14T14:43:31Z</time>
      </trkpt>
      <trkpt lat="43.96891" lon="5.29001">
        <ele>586.5</ele>
        <time>2019-09-14T14:43:37Z</time>
      </trkpt>
      <trkpt lat="43.96887" lon="5.29007">
        <ele>587.5</ele>
        <time>2019-09-14T14:43:43Z</time>
      </trkpt>
      <trkpt lat="43.96883" lon="5.29012">
        <ele>587.5</ele>
        <time>2019-09-14T14:43:49Z</time>
      </trkpt>
      <trkpt lat="43.96881" lon="5.29016">
        <ele>587.5</ele>
        <time>2019-09-14T14:43:54Z</time>
      </trkpt>
      <trkpt lat="43.96878" lon="5.29024">
        <ele>590.5</ele>
        <time>2019-09-14T14:44:00Z</time>
      </trkpt>
      <trkpt lat="43.96877" lon="5.29027">
        <ele>588.5</ele>
        <time>2019-09-14T14:44:05Z</time>
      </trkpt>
      <trkpt lat="43.9688" lon="5.29029">
        <ele>589.5</ele>
        <time>2019-09-14T14:44:10Z</time>
      </trkpt>
      <trkpt lat="43.96877" lon="5.29034">
        <ele>588.5</ele>
        <time>2019-09-14T14:44:16Z</time>
      </trkpt>
      <trkpt lat="43.96877" lon="5.29042">
        <ele>590.5</ele>
        <time>2019-09-14T14:44:22Z</time>
      </trkpt>
      <trkpt lat="43.96872" lon="5.29043">
        <ele>589.5</ele>
        <time>2019-09-14T14:44:28Z</time>
      </trkpt>
      <trkpt lat="43.96867" lon="5.29042">
        <ele>589.5</ele>
        <time>2019-09-14T14:44:33Z</time>
      </trkpt>
      <trkpt lat="43.96866" lon="5.29047">
        <ele>586.5</ele>
        <time>2019-09-14T14:44:38Z</time>
      </trkpt>
      <trkpt lat="43.96861" lon="5.29058">
        <ele>585.5</ele>
        <time>2019-09-14T14:44:44Z</time>
      </trkpt>
      <trkpt lat="43.96863" lon="5.29063">
        <ele>586.5</ele>
        <time>2019-09-14T14:44:50Z</time>
      </trkpt>
      <trkpt lat="43.96867" lon="5.29067">
        <ele>588.5</ele>
        <time>2019-09-14T14:44:55Z</time>
      </trkpt>
      <trkpt lat="43.96863" lon="5.29077">
        <ele>590.5</ele>
        <time>2019-09-14T14:45:06Z</time>
      </trkpt>
      <trkpt lat="43.96861" lon="5.29082">
        <ele>592.5</ele>
        <time>2019-09-14T14:45:11Z</time>
      </trkpt>
      <trkpt lat="43.96859" lon="5.29089">
        <ele>593.5</ele>
        <time>2019-09-14T14:45:17Z</time>
      </trkpt>
      <trkpt lat="43.96862" lon="5.29093">
        <ele>595.5</ele>
        <time>2019-09-14T14:45:23Z</time>
      </trkpt>
      <trkpt lat="43.9686" lon="5.291">
        <ele>592.5</ele>
        <time>2019-09-14T14:45:28Z</time>
      </trkpt>
      <trkpt lat="43.96857" lon="5.29103">
        <ele>591.5</ele>
        <time>2019-09-14T14:45:34Z</time>
      </trkpt>
      <trkpt lat="43.96859" lon="5.29109">
        <ele>590.5</ele>
        <time>2019-09-14T14:45:39Z</time>
      </trkpt>
      <trkpt lat="43.96856" lon="5.29115">
        <ele>591.5</ele>
        <time>2019-09-14T14:45:45Z</time>
      </trkpt>
      <trkpt lat="43.96858" lon="5.29121">
        <ele>593.5</ele>
        <time>2019-09-14T14:45:50Z</time>
      </trkpt>
      <trkpt lat="43.96855" lon="5.29128">
        <ele>595.5</ele>
        <time>2019-09-14T14:45:56Z</time>
      </trkpt>
      <trkpt lat="43.96855" lon="5.2913">
        <ele>593.5</ele>
        <time>2019-09-14T14:46:02Z</time>
      </trkpt>
      <trkpt lat="43.96854" lon="5.29131">
        <ele>595.5</ele>
        <time>2019-09-14T14:46:08Z</time>
      </trkpt>
      <trkpt lat="43.96854" lon="5.29131">
        <ele>595.5</ele>
        <time>2019-09-14T14:46:14Z</time>
      </trkpt>
      <trkpt lat="43.96854" lon="5.29132">
        <ele>595.5</ele>
        <time>2019-09-14T14:46:20Z</time>
      </trkpt>
      <trkpt lat="43.9684" lon="5.29138">
        <ele>598.5</ele>
        <time>2019-09-14T14:46:26Z</time>
      </trkpt>
      <trkpt lat="43.96834" lon="5.29148">
        <ele>582.5</ele>
        <time>2019-09-14T14:46:32Z</time>
      </trkpt>
      <trkpt lat="43.96834" lon="5.29152">
        <ele>584.5</ele>
        <time>2019-09-14T14:46:38Z</time>
      </trkpt>
      <trkpt lat="43.96834" lon="5.29154">
        <ele>588.5</ele>
        <time>2019-09-14T14:46:44Z</time>
      </trkpt>
      <trkpt lat="43.96827" lon="5.29156">
        <ele>592.5</ele>
        <time>2019-09-14T14:46:49Z</time>
      </trkpt>
      <trkpt lat="43.96826" lon="5.29156">
        <ele>588.5</ele>
        <time>2019-09-14T14:46:54Z</time>
      </trkpt>
      <trkpt lat="43.96826" lon="5.29158">
        <ele>591.5</ele>
        <time>2019-09-14T14:47:00Z</time>
      </trkpt>
      <trkpt lat="43.96826" lon="5.2916">
        <ele>592.5</ele>
        <time>2019-09-14T14:47:05Z</time>
      </trkpt>
      <trkpt lat="43.96824" lon="5.29162">
        <ele>595.5</ele>
        <time>2019-09-14T14:47:10Z</time>
      </trkpt>
      <trkpt lat="43.96824" lon="5.29163">
        <ele>596.5</ele>
        <time>2019-09-14T14:47:16Z</time>
      </trkpt>
      <trkpt lat="43.96826" lon="5.29175">
        <ele>598.5</ele>
        <time>2019-09-14T14:47:22Z</time>
      </trkpt>
      <trkpt lat="43.96824" lon="5.29183">
        <ele>601.5</ele>
        <time>2019-09-14T14:47:27Z</time>
      </trkpt>
      <trkpt lat="43.96824" lon="5.29191">
        <ele>608.5</ele>
        <time>2019-09-14T14:47:32Z</time>
      </trkpt>
      <trkpt lat="43.96831" lon="5.29196">
        <ele>596.5</ele>
        <time>2019-09-14T14:47:38Z</time>
      </trkpt>
      <trkpt lat="43.96829" lon="5.292">
        <ele>608.5</ele>
        <time>2019-09-14T14:47:44Z</time>
      </trkpt>
      <trkpt lat="43.9683" lon="5.2921">
        <ele>609.5</ele>
        <time>2019-09-14T14:47:50Z</time>
      </trkpt>
      <trkpt lat="43.96828" lon="5.29215">
        <ele>611.5</ele>
        <time>2019-09-14T14:47:55Z</time>
      </trkpt>
      <trkpt lat="43.96829" lon="5.29216">
        <ele>615.5</ele>
        <time>2019-09-14T14:48:01Z</time>
      </trkpt>
      <trkpt lat="43.9683" lon="5.29223">
        <ele>607.5</ele>
        <time>2019-09-14T14:48:07Z</time>
      </trkpt>
      <trkpt lat="43.96829" lon="5.29224">
        <ele>611.5</ele>
        <time>2019-09-14T14:48:12Z</time>
      </trkpt>
      <trkpt lat="43.96829" lon="5.29224">
        <ele>615.5</ele>
        <time>2019-09-14T14:48:18Z</time>
      </trkpt>
      <trkpt lat="43.96829" lon="5.29223">
        <ele>615.5</ele>
        <time>2019-09-14T14:48:24Z</time>
      </trkpt>
      <trkpt lat="43.96829" lon="5.29223">
        <ele>616.5</ele>
        <time>2019-09-14T14:48:30Z</time>
      </trkpt>
      <trkpt lat="43.96829" lon="5.29223">
        <ele>616.5</ele>
        <time>2019-09-14T14:48:36Z</time>
      </trkpt>
      <trkpt lat="43.96829" lon="5.29223">
        <ele>616.5</ele>
        <time>2019-09-14T14:48:42Z</time>
      </trkpt>
      <trkpt lat="43.96829" lon="5.29223">
        <ele>616.5</ele>
        <time>2019-09-14T14:48:48Z</time>
      </trkpt>
      <trkpt lat="43.96829" lon="5.29223">
        <ele>616.5</ele>
        <time>2019-09-14T14:48:53Z</time>
      </trkpt>
      <trkpt lat="43.96829" lon="5.29223">
        <ele>616.5</ele>
        <time>2019-09-14T14:48:58Z</time>
      </trkpt>
      <trkpt lat="43.96829" lon="5.29223">
        <ele>616.5</ele>
        <time>2019-09-14T14:49:04Z</time>
      </trkpt>
      <trkpt lat="43.96829" lon="5.29223">
        <ele>616.5</ele>
        <time>2019-09-14T14:49:09Z</time>
      </trkpt>
      <trkpt lat="43.96829" lon="5.29223">
        <ele>616.5</ele>
        <time>2019-09-14T14:49:15Z</time>
      </trkpt>
      <trkpt lat="43.9683" lon="5.29223">
        <ele>617.5</ele>
        <time>2019-09-14T14:49:21Z</time>
      </trkpt>
      <trkpt lat="43.9683" lon="5.29223">
        <ele>618.5</ele>
        <time>2019-09-14T14:49:27Z</time>
      </trkpt>
      <trkpt lat="43.9683" lon="5.29223">
        <ele>618.5</ele>
        <time>2019-09-14T14:49:32Z</time>
      </trkpt>
      <trkpt lat="43.9683" lon="5.29223">
        <ele>617.5</ele>
        <time>2019-09-14T14:49:38Z</time>
      </trkpt>
      <trkpt lat="43.9683" lon="5.29223">
        <ele>617.5</ele>
        <time>2019-09-14T14:49:44Z</time>
      </trkpt>
      <trkpt lat="43.9683" lon="5.29223">
        <ele>617.5</ele>
        <time>2019-09-14T14:49:49Z</time>
      </trkpt>
      <trkpt lat="43.9683" lon="5.29223">
        <ele>617.5</ele>
        <time>2019-09-14T14:49:55Z</time>
      </trkpt>
      <trkpt lat="43.9683" lon="5.29223">
        <ele>617.5</ele>
        <time>2019-09-14T14:50:00Z</time>
      </trkpt>
      <trkpt lat="43.9683" lon="5.29223">
        <ele>617.5</ele>
        <time>2019-09-14T14:50:06Z</time>
      </trkpt>
      <trkpt lat="43.9683" lon="5.29223">
        <ele>616.5</ele>
        <time>2019-09-14T14:50:12Z</time>
      </trkpt>
      <trkpt lat="43.9683" lon="5.29223">
        <ele>616.5</ele>
        <time>2019-09-14T14:50:17Z</time>
      </trkpt>
      <trkpt lat="43.9683" lon="5.29223">
        <ele>616.5</ele>
        <time>2019-09-14T14:50:23Z</time>
      </trkpt>
      <trkpt lat="43.9683" lon="5.29223">
        <ele>617.5</ele>
        <time>2019-09-14T14:50:29Z</time>
      </trkpt>
      <trkpt lat="43.9683" lon="5.29223">
        <ele>617.5</ele>
        <time>2019-09-14T14:50:34Z</time>
      </trkpt>
      <trkpt lat="43.9683" lon="5.29223">
        <ele>617.5</ele>
        <time>2019-09-14T14:50:39Z</time>
      </trkpt>
      <trkpt lat="43.9683" lon="5.29223">
        <ele>617.5</ele>
        <time>2019-09-14T14:50:45Z</time>
      </trkpt>
      <trkpt lat="43.9683" lon="5.29223">
        <ele>617.5</ele>
        <time>2019-09-14T14:50:51Z</time>
      </trkpt>
      <trkpt lat="43.9683" lon="5.29223">
        <ele>617.5</ele>
        <time>2019-09-14T14:50:56Z</time>
      </trkpt>
      <trkpt lat="43.9683" lon="5.29223">
        <ele>617.5</ele>
        <time>2019-09-14T14:51:01Z</time>
      </trkpt>
      <trkpt lat="43.9683" lon="5.29223">
        <ele>616.5</ele>
        <time>2019-09-14T14:51:07Z</time>
      </trkpt>
      <trkpt lat="43.9683" lon="5.29223">
        <ele>617.5</ele>
        <time>2019-09-14T14:51:12Z</time>
      </trkpt>
      <trkpt lat="43.9683" lon="5.29223">
        <ele>617.5</ele>
        <time>2019-09-14T14:51:18Z</time>
      </trkpt>
      <trkpt lat="43.9683" lon="5.29223">
        <ele>617.5</ele>
        <time>2019-09-14T14:51:25Z</time>
      </trkpt>
      <trkpt lat="43.9683" lon="5.29223">
        <ele>617.5</ele>
        <time>2019-09-14T14:51:30Z</time>
      </trkpt>
      <trkpt lat="43.9683" lon="5.29223">
        <ele>617.5</ele>
        <time>2019-09-14T14:51:37Z</time>
      </trkpt>
      <trkpt lat="43.9683" lon="5.29223">
        <ele>617.5</ele>
        <time>2019-09-14T14:51:43Z</time>
      </trkpt>
      <trkpt lat="43.9683" lon="5.29223">
        <ele>617.5</ele>
        <time>2019-09-14T14:51:48Z</time>
      </trkpt>
      <trkpt lat="43.9683" lon="5.29223">
        <ele>617.5</ele>
        <time>2019-09-14T14:51:53Z</time>
      </trkpt>
      <trkpt lat="43.9683" lon="5.29223">
        <ele>617.5</ele>
        <time>2019-09-14T14:51:59Z</time>
      </trkpt>
      <trkpt lat="43.9683" lon="5.29223">
        <ele>617.5</ele>
        <time>2019-09-14T14:52:04Z</time>
      </trkpt>
      <trkpt lat="43.9683" lon="5.29223">
        <ele>617.5</ele>
        <time>2019-09-14T14:52:09Z</time>
      </trkpt>
      <trkpt lat="43.9683" lon="5.29223">
        <ele>617.5</ele>
        <time>2019-09-14T14:52:14Z</time>
      </trkpt>
      <trkpt lat="43.9683" lon="5.29223">
        <ele>617.5</ele>
        <time>2019-09-14T14:52:20Z</time>
      </trkpt>
      <trkpt lat="43.9683" lon="5.29223">
        <ele>617.5</ele>
        <time>2019-09-14T14:52:26Z</time>
      </trkpt>
      <trkpt lat="43.9683" lon="5.29223">
        <ele>617.5</ele>
        <time>2019-09-14T14:52:31Z</time>
      </trkpt>
      <trkpt lat="43.9683" lon="5.29223">
        <ele>617.5</ele>
        <time>2019-09-14T14:52:37Z</time>
      </trkpt>
      <trkpt lat="43.9683" lon="5.29223">
        <ele>617.5</ele>
        <time>2019-09-14T14:52:42Z</time>
      </trkpt>
      <trkpt lat="43.9683" lon="5.29223">
        <ele>617.5</ele>
        <time>2019-09-14T14:52:47Z</time>
      </trkpt>
      <trkpt lat="43.9683" lon="5.29223">
        <ele>617.5</ele>
        <time>2019-09-14T14:52:52Z</time>
      </trkpt>
      <trkpt lat="43.9683" lon="5.29223">
        <ele>617.5</ele>
        <time>2019-09-14T14:52:59Z</time>
      </trkpt>
      <trkpt lat="43.9683" lon="5.29223">
        <ele>617.5</ele>
        <time>2019-09-14T14:53:05Z</time>
      </trkpt>
      <trkpt lat="43.9683" lon="5.29223">
        <ele>617.5</ele>
        <time>2019-09-14T14:53:10Z</time>
      </trkpt>
      <trkpt lat="43.9683" lon="5.29223">
        <ele>617.5</ele>
        <time>2019-09-14T14:53:15Z</time>
      </trkpt>
      <trkpt lat="43.9683" lon="5.29223">
        <ele>617.5</ele>
        <time>2019-09-14T14:53:20Z</time>
      </trkpt>
      <trkpt lat="43.9683" lon="5.29223">
        <ele>617.5</ele>
        <time>2019-09-14T14:53:26Z</time>
      </trkpt>
      <trkpt lat="43.96837" lon="5.29227">
        <ele>617.5</ele>
        <time>2019-09-14T14:53:32Z</time>
      </trkpt>
      <trkpt lat="43.96841" lon="5.29228">
        <ele>618.5</ele>
        <time>2019-09-14T14:53:37Z</time>
      </trkpt>
      <trkpt lat="43.96843" lon="5.29232">
        <ele>621.5</ele>
        <time>2019-09-14T14:53:42Z</time>
      </trkpt>
      <trkpt lat="43.96845" lon="5.29236">
        <ele>622.5</ele>
        <time>2019-09-14T14:53:47Z</time>
      </trkpt>
      <trkpt lat="43.96846" lon="5.29237">
        <ele>622.5</ele>
        <time>2019-09-14T14:53:53Z</time>
      </trkpt>
      <trkpt lat="43.96846" lon="5.29237">
        <ele>622.5</ele>
        <time>2019-09-14T14:53:58Z</time>
      </trkpt>
      <trkpt lat="43.96846" lon="5.29238">
        <ele>622.5</ele>
        <time>2019-09-14T14:54:04Z</time>
      </trkpt>
      <trkpt lat="43.96846" lon="5.29238">
        <ele>622.5</ele>
        <time>2019-09-14T14:54:09Z</time>
      </trkpt>
      <trkpt lat="43.96846" lon="5.29238">
        <ele>622.5</ele>
        <time>2019-09-14T14:54:15Z</time>
      </trkpt>
      <trkpt lat="43.96846" lon="5.29238">
        <ele>622.5</ele>
        <time>2019-09-14T14:54:20Z</time>
      </trkpt>
      <trkpt lat="43.96846" lon="5.29238">
        <ele>622.5</ele>
        <time>2019-09-14T14:54:26Z</time>
      </trkpt>
      <trkpt lat="43.96846" lon="5.29238">
        <ele>622.5</ele>
        <time>2019-09-14T14:54:31Z</time>
      </trkpt>
      <trkpt lat="43.96846" lon="5.29238">
        <ele>622.5</ele>
        <time>2019-09-14T14:54:37Z</time>
      </trkpt>
      <trkpt lat="43.96847" lon="5.29238">
        <ele>622.5</ele>
        <time>2019-09-14T14:54:42Z</time>
      </trkpt>
      <trkpt lat="43.96847" lon="5.29238">
        <ele>622.5</ele>
        <time>2019-09-14T14:54:48Z</time>
      </trkpt>
      <trkpt lat="43.96847" lon="5.29238">
        <ele>622.5</ele>
        <time>2019-09-14T14:54:54Z</time>
      </trkpt>
      <trkpt lat="43.96847" lon="5.29238">
        <ele>610.5</ele>
        <time>2019-09-14T14:55:00Z</time>
      </trkpt>
      <trkpt lat="43.96847" lon="5.29238">
        <ele>617.5</ele>
        <time>2019-09-14T14:55:05Z</time>
      </trkpt>
      <trkpt lat="43.96847" lon="5.29238">
        <ele>619.5</ele>
        <time>2019-09-14T14:55:11Z</time>
      </trkpt>
      <trkpt lat="43.96847" lon="5.29238">
        <ele>620.5</ele>
        <time>2019-09-14T14:55:17Z</time>
      </trkpt>
      <trkpt lat="43.96846" lon="5.29238">
        <ele>620.5</ele>
        <time>2019-09-14T14:55:23Z</time>
      </trkpt>
      <trkpt lat="43.96846" lon="5.29238">
        <ele>621.5</ele>
        <time>2019-09-14T14:55:28Z</time>
      </trkpt>
      <trkpt lat="43.96845" lon="5.29226">
        <ele>627.5</ele>
        <time>2019-09-14T14:55:34Z</time>
      </trkpt>
      <trkpt lat="43.96844" lon="5.29223">
        <ele>628.5</ele>
        <time>2019-09-14T14:55:40Z</time>
      </trkpt>
      <trkpt lat="43.96841" lon="5.29223">
        <ele>621.5</ele>
        <time>2019-09-14T14:55:46Z</time>
      </trkpt>
      <trkpt lat="43.9684" lon="5.29223">
        <ele>619.5</ele>
        <time>2019-09-14T14:55:51Z</time>
      </trkpt>
      <trkpt lat="43.9684" lon="5.29223">
        <ele>619.5</ele>
        <time>2019-09-14T14:55:57Z</time>
      </trkpt>
      <trkpt lat="43.9684" lon="5.29223">
        <ele>619.5</ele>
        <time>2019-09-14T14:56:02Z</time>
      </trkpt>
      <trkpt lat="43.9684" lon="5.29223">
        <ele>619.5</ele>
        <time>2019-09-14T14:56:07Z</time>
      </trkpt>
      <trkpt lat="43.9684" lon="5.29223">
        <ele>619.5</ele>
        <time>2019-09-14T14:56:13Z</time>
      </trkpt>
      <trkpt lat="43.9684" lon="5.29223">
        <ele>619.5</ele>
        <time>2019-09-14T14:56:19Z</time>
      </trkpt>
      <trkpt lat="43.9684" lon="5.29223">
        <ele>619.5</ele>
        <time>2019-09-14T14:56:24Z</time>
      </trkpt>
      <trkpt lat="43.9684" lon="5.29223">
        <ele>619.5</ele>
        <time>2019-09-14T14:56:29Z</time>
      </trkpt>
      <trkpt lat="43.9684" lon="5.29223">
        <ele>619.5</ele>
        <time>2019-09-14T14:56:35Z</time>
      </trkpt>
      <trkpt lat="43.9684" lon="5.29223">
        <ele>619.5</ele>
        <time>2019-09-14T14:56:41Z</time>
      </trkpt>
      <trkpt lat="43.9684" lon="5.29223">
        <ele>619.5</ele>
        <time>2019-09-14T14:56:47Z</time>
      </trkpt>
      <trkpt lat="43.9684" lon="5.29223">
        <ele>619.5</ele>
        <time>2019-09-14T14:56:52Z</time>
      </trkpt>
      <trkpt lat="43.9684" lon="5.29223">
        <ele>619.5</ele>
        <time>2019-09-14T14:56:58Z</time>
      </trkpt>
      <trkpt lat="43.9684" lon="5.29223">
        <ele>619.5</ele>
        <time>2019-09-14T14:57:04Z</time>
      </trkpt>
      <trkpt lat="43.9684" lon="5.29223">
        <ele>619.5</ele>
        <time>2019-09-14T14:57:09Z</time>
      </trkpt>
      <trkpt lat="43.9684" lon="5.29223">
        <ele>619.5</ele>
        <time>2019-09-14T14:57:15Z</time>
      </trkpt>
      <trkpt lat="43.9684" lon="5.29223">
        <ele>619.5</ele>
        <time>2019-09-14T14:57:20Z</time>
      </trkpt>
      <trkpt lat="43.96839" lon="5.29223">
        <ele>619.5</ele>
        <time>2019-09-14T14:57:26Z</time>
      </trkpt>
      <trkpt lat="43.96839" lon="5.29223">
        <ele>619.5</ele>
        <time>2019-09-14T14:57:32Z</time>
      </trkpt>
      <trkpt lat="43.96839" lon="5.29223">
        <ele>619.5</ele>
        <time>2019-09-14T14:57:37Z</time>
      </trkpt>
      <trkpt lat="43.96839" lon="5.29223">
        <ele>619.5</ele>
        <time>2019-09-14T14:57:43Z</time>
      </trkpt>
      <trkpt lat="43.96839" lon="5.29223">
        <ele>619.5</ele>
        <time>2019-09-14T14:57:48Z</time>
      </trkpt>
      <trkpt lat="43.96839" lon="5.29223">
        <ele>619.5</ele>
        <time>2019-09-14T14:57:54Z</time>
      </trkpt>
      <trkpt lat="43.96839" lon="5.29223">
        <ele>619.5</ele>
        <time>2019-09-14T14:58:00Z</time>
      </trkpt>
      <trkpt lat="43.96839" lon="5.29223">
        <ele>619.5</ele>
        <time>2019-09-14T14:58:05Z</time>
      </trkpt>
      <trkpt lat="43.96839" lon="5.29223">
        <ele>619.5</ele>
        <time>2019-09-14T14:58:10Z</time>
      </trkpt>
      <trkpt lat="43.96839" lon="5.29223">
        <ele>619.5</ele>
        <time>2019-09-14T14:58:16Z</time>
      </trkpt>
      <trkpt lat="43.96839" lon="5.29223">
        <ele>619.5</ele>
        <time>2019-09-14T14:58:21Z</time>
      </trkpt>
      <trkpt lat="43.96839" lon="5.29223">
        <ele>619.5</ele>
        <time>2019-09-14T14:58:26Z</time>
      </trkpt>
      <trkpt lat="43.96839" lon="5.29223">
        <ele>619.5</ele>
        <time>2019-09-14T14:58:32Z</time>
      </trkpt>
      <trkpt lat="43.96839" lon="5.29223">
        <ele>619.5</ele>
        <time>2019-09-14T14:58:38Z</time>
      </trkpt>
      <trkpt lat="43.96839" lon="5.29223">
        <ele>619.5</ele>
        <time>2019-09-14T14:58:44Z</time>
      </trkpt>
      <trkpt lat="43.96839" lon="5.29223">
        <ele>618.5</ele>
        <time>2019-09-14T14:58:49Z</time>
      </trkpt>
      <trkpt lat="43.96839" lon="5.29223">
        <ele>619.5</ele>
        <time>2019-09-14T14:58:54Z</time>
      </trkpt>
      <trkpt lat="43.9684" lon="5.29223">
        <ele>620.5</ele>
        <time>2019-09-14T14:59:00Z</time>
      </trkpt>
      <trkpt lat="43.9684" lon="5.29223">
        <ele>620.5</ele>
        <time>2019-09-14T14:59:05Z</time>
      </trkpt>
      <trkpt lat="43.9684" lon="5.29223">
        <ele>620.5</ele>
        <time>2019-09-14T14:59:11Z</time>
      </trkpt>
      <trkpt lat="43.9684" lon="5.29223">
        <ele>620.5</ele>
        <time>2019-09-14T14:59:16Z</time>
      </trkpt>
      <trkpt lat="43.9684" lon="5.29223">
        <ele>620.5</ele>
        <time>2019-09-14T14:59:22Z</time>
      </trkpt>
      <trkpt lat="43.9684" lon="5.29223">
        <ele>620.5</ele>
        <time>2019-09-14T14:59:28Z</time>
      </trkpt>
      <trkpt lat="43.9684" lon="5.29223">
        <ele>620.5</ele>
        <time>2019-09-14T14:59:33Z</time>
      </trkpt>
      <trkpt lat="43.96839" lon="5.29223">
        <ele>619.5</ele>
        <time>2019-09-14T14:59:38Z</time>
      </trkpt>
      <trkpt lat="43.9684" lon="5.29223">
        <ele>619.5</ele>
        <time>2019-09-14T14:59:44Z</time>
      </trkpt>
      <trkpt lat="43.96839" lon="5.29223">
        <ele>619.5</ele>
        <time>2019-09-14T14:59:49Z</time>
      </trkpt>
      <trkpt lat="43.96839" lon="5.29223">
        <ele>619.5</ele>
        <time>2019-09-14T14:59:54Z</time>
      </trkpt>
      <trkpt lat="43.96839" lon="5.29223">
        <ele>619.5</ele>
        <time>2019-09-14T15:00:00Z</time>
      </trkpt>
      <trkpt lat="43.96839" lon="5.29223">
        <ele>619.5</ele>
        <time>2019-09-14T15:00:05Z</time>
      </trkpt>
      <trkpt lat="43.96839" lon="5.29223">
        <ele>619.5</ele>
        <time>2019-09-14T15:00:11Z</time>
      </trkpt>
      <trkpt lat="43.96839" lon="5.29223">
        <ele>619.5</ele>
        <time>2019-09-14T15:00:17Z</time>
      </trkpt>
      <trkpt lat="43.96839" lon="5.29223">
        <ele>619.5</ele>
        <time>2019-09-14T15:00:22Z</time>
      </trkpt>
      <trkpt lat="43.96839" lon="5.29223">
        <ele>619.5</ele>
        <time>2019-09-14T15:00:28Z</time>
      </trkpt>
      <trkpt lat="43.96839" lon="5.29223">
        <ele>619.5</ele>
        <time>2019-09-14T15:00:33Z</time>
      </trkpt>
      <trkpt lat="43.96839" lon="5.29223">
        <ele>619.5</ele>
        <time>2019-09-14T15:00:39Z</time>
      </trkpt>
      <trkpt lat="43.96839" lon="5.29223">
        <ele>619.5</ele>
        <time>2019-09-14T15:00:45Z</time>
      </trkpt>
      <trkpt lat="43.96839" lon="5.29223">
        <ele>619.5</ele>
        <time>2019-09-14T15:00:51Z</time>
      </trkpt>
      <trkpt lat="43.96839" lon="5.29223">
        <ele>619.5</ele>
        <time>2019-09-14T15:00:56Z</time>
      </trkpt>
      <trkpt lat="43.96839" lon="5.29223">
        <ele>618.5</ele>
        <time>2019-09-14T15:01:01Z</time>
      </trkpt>
      <trkpt lat="43.96839" lon="5.29223">
        <ele>618.5</ele>
        <time>2019-09-14T15:01:07Z</time>
      </trkpt>
      <trkpt lat="43.96839" lon="5.29223">
        <ele>618.5</ele>
        <time>2019-09-14T15:01:12Z</time>
      </trkpt>
      <trkpt lat="43.96839" lon="5.29223">
        <ele>618.5</ele>
        <time>2019-09-14T15:01:17Z</time>
      </trkpt>
      <trkpt lat="43.96839" lon="5.29223">
        <ele>618.5</ele>
        <time>2019-09-14T15:01:23Z</time>
      </trkpt>
      <trkpt lat="43.96839" lon="5.29223">
        <ele>618.5</ele>
        <time>2019-09-14T15:01:28Z</time>
      </trkpt>
      <trkpt lat="43.96839" lon="5.29223">
        <ele>618.5</ele>
        <time>2019-09-14T15:01:33Z</time>
      </trkpt>
      <trkpt lat="43.96839" lon="5.29224">
        <ele>618.5</ele>
        <time>2019-09-14T15:01:39Z</time>
      </trkpt>
      <trkpt lat="43.96839" lon="5.29224">
        <ele>618.5</ele>
        <time>2019-09-14T15:01:44Z</time>
      </trkpt>
      <trkpt lat="43.96839" lon="5.29224">
        <ele>618.5</ele>
        <time>2019-09-14T15:01:50Z</time>
      </trkpt>
      <trkpt lat="43.96839" lon="5.29224">
        <ele>618.5</ele>
        <time>2019-09-14T15:01:55Z</time>
      </trkpt>
      <trkpt lat="43.96839" lon="5.29224">
        <ele>618.5</ele>
        <time>2019-09-14T15:02:00Z</time>
      </trkpt>
      <trkpt lat="43.96839" lon="5.29224">
        <ele>618.5</ele>
        <time>2019-09-14T15:02:05Z</time>
      </trkpt>
      <trkpt lat="43.96839" lon="5.29224">
        <ele>618.5</ele>
        <time>2019-09-14T15:02:11Z</time>
      </trkpt>
      <trkpt lat="43.96838" lon="5.29224">
        <ele>618.5</ele>
        <time>2019-09-14T15:02:17Z</time>
      </trkpt>
      <trkpt lat="43.96838" lon="5.29224">
        <ele>618.5</ele>
        <time>2019-09-14T15:02:22Z</time>
      </trkpt>
      <trkpt lat="43.96838" lon="5.29224">
        <ele>618.5</ele>
        <time>2019-09-14T15:02:27Z</time>
      </trkpt>
      <trkpt lat="43.96838" lon="5.29224">
        <ele>618.5</ele>
        <time>2019-09-14T15:02:33Z</time>
      </trkpt>
      <trkpt lat="43.96838" lon="5.29224">
        <ele>618.5</ele>
        <time>2019-09-14T15:02:39Z</time>
      </trkpt>
      <trkpt lat="43.96838" lon="5.29224">
        <ele>618.5</ele>
        <time>2019-09-14T15:02:44Z</time>
      </trkpt>
      <trkpt lat="43.96838" lon="5.29224">
        <ele>618.5</ele>
        <time>2019-09-14T15:02:50Z</time>
      </trkpt>
      <trkpt lat="43.96838" lon="5.29224">
        <ele>618.5</ele>
        <time>2019-09-14T15:02:55Z</time>
      </trkpt>
      <trkpt lat="43.96838" lon="5.29224">
        <ele>618.5</ele>
        <time>2019-09-14T15:03:00Z</time>
      </trkpt>
      <trkpt lat="43.96838" lon="5.29224">
        <ele>618.5</ele>
        <time>2019-09-14T15:03:06Z</time>
      </trkpt>
      <trkpt lat="43.96838" lon="5.29224">
        <ele>618.5</ele>
        <time>2019-09-14T15:03:12Z</time>
      </trkpt>
      <trkpt lat="43.96838" lon="5.29224">
        <ele>618.5</ele>
        <time>2019-09-14T15:03:18Z</time>
      </trkpt>
      <trkpt lat="43.96838" lon="5.29224">
        <ele>618.5</ele>
        <time>2019-09-14T15:03:24Z</time>
      </trkpt>
      <trkpt lat="43.96837" lon="5.29224">
        <ele>618.5</ele>
        <time>2019-09-14T15:03:30Z</time>
      </trkpt>
      <trkpt lat="43.96837" lon="5.29224">
        <ele>618.5</ele>
        <time>2019-09-14T15:03:35Z</time>
      </trkpt>
      <trkpt lat="43.96837" lon="5.29223">
        <ele>618.5</ele>
        <time>2019-09-14T15:03:41Z</time>
      </trkpt>
      <trkpt lat="43.96837" lon="5.29223">
        <ele>618.5</ele>
        <time>2019-09-14T15:03:47Z</time>
      </trkpt>
      <trkpt lat="43.96837" lon="5.29223">
        <ele>618.5</ele>
        <time>2019-09-14T15:03:53Z</time>
      </trkpt>
      <trkpt lat="43.96837" lon="5.29223">
        <ele>618.5</ele>
        <time>2019-09-14T15:03:58Z</time>
      </trkpt>
      <trkpt lat="43.96837" lon="5.29223">
        <ele>618.5</ele>
        <time>2019-09-14T15:04:03Z</time>
      </trkpt>
      <trkpt lat="43.96837" lon="5.29223">
        <ele>618.5</ele>
        <time>2019-09-14T15:04:09Z</time>
      </trkpt>
      <trkpt lat="43.96837" lon="5.29223">
        <ele>618.5</ele>
        <time>2019-09-14T15:04:15Z</time>
      </trkpt>
      <trkpt lat="43.96837" lon="5.29223">
        <ele>618.5</ele>
        <time>2019-09-14T15:04:21Z</time>
      </trkpt>
      <trkpt lat="43.96837" lon="5.29223">
        <ele>618.5</ele>
        <time>2019-09-14T15:04:27Z</time>
      </trkpt>
      <trkpt lat="43.96837" lon="5.29223">
        <ele>618.5</ele>
        <time>2019-09-14T15:04:32Z</time>
      </trkpt>
      <trkpt lat="43.96837" lon="5.29223">
        <ele>618.5</ele>
        <time>2019-09-14T15:04:38Z</time>
      </trkpt>
      <trkpt lat="43.96837" lon="5.29223">
        <ele>618.5</ele>
        <time>2019-09-14T15:04:44Z</time>
      </trkpt>
      <trkpt lat="43.96837" lon="5.29223">
        <ele>618.5</ele>
        <time>2019-09-14T15:04:50Z</time>
      </trkpt>
      <trkpt lat="43.96837" lon="5.29224">
        <ele>618.5</ele>
        <time>2019-09-14T15:04:56Z</time>
      </trkpt>
      <trkpt lat="43.96837" lon="5.29224">
        <ele>618.5</ele>
        <time>2019-09-14T15:05:02Z</time>
      </trkpt>
      <trkpt lat="43.96837" lon="5.29224">
        <ele>618.5</ele>
        <time>2019-09-14T15:05:08Z</time>
      </trkpt>
      <trkpt lat="43.96837" lon="5.29224">
        <ele>618.5</ele>
        <time>2019-09-14T15:05:15Z</time>
      </trkpt>
      <trkpt lat="43.96836" lon="5.29224">
        <ele>618.5</ele>
        <time>2019-09-14T15:05:21Z</time>
      </trkpt>
      <trkpt lat="43.96836" lon="5.29224">
        <ele>618.5</ele>
        <time>2019-09-14T15:05:27Z</time>
      </trkpt>
      <trkpt lat="43.96836" lon="5.29224">
        <ele>618.5</ele>
        <time>2019-09-14T15:05:33Z</time>
      </trkpt>
      <trkpt lat="43.96836" lon="5.29224">
        <ele>618.5</ele>
        <time>2019-09-14T15:05:39Z</time>
      </trkpt>
      <trkpt lat="43.96836" lon="5.29224">
        <ele>618.5</ele>
        <time>2019-09-14T15:05:45Z</time>
      </trkpt>
      <trkpt lat="43.96836" lon="5.29224">
        <ele>618.5</ele>
        <time>2019-09-14T15:05:50Z</time>
      </trkpt>
      <trkpt lat="43.96836" lon="5.29224">
        <ele>617.5</ele>
        <time>2019-09-14T15:05:56Z</time>
      </trkpt>
      <trkpt lat="43.96836" lon="5.29224">
        <ele>617.5</ele>
        <time>2019-09-14T15:06:01Z</time>
      </trkpt>
      <trkpt lat="43.96836" lon="5.29224">
        <ele>617.5</ele>
        <time>2019-09-14T15:06:07Z</time>
      </trkpt>
      <trkpt lat="43.96836" lon="5.29224">
        <ele>617.5</ele>
        <time>2019-09-14T15:06:12Z</time>
      </trkpt>
      <trkpt lat="43.96836" lon="5.29224">
        <ele>618.5</ele>
        <time>2019-09-14T15:06:18Z</time>
      </trkpt>
      <trkpt lat="43.96836" lon="5.29224">
        <ele>617.5</ele>
        <time>2019-09-14T15:06:23Z</time>
      </trkpt>
      <trkpt lat="43.96836" lon="5.29224">
        <ele>617.5</ele>
        <time>2019-09-14T15:06:29Z</time>
      </trkpt>
      <trkpt lat="43.96836" lon="5.29224">
        <ele>618.5</ele>
        <time>2019-09-14T15:06:34Z</time>
      </trkpt>
      <trkpt lat="43.96836" lon="5.29224">
        <ele>618.5</ele>
        <time>2019-09-14T15:06:40Z</time>
      </trkpt>
      <trkpt lat="43.96836" lon="5.29224">
        <ele>618.5</ele>
        <time>2019-09-14T15:06:45Z</time>
      </trkpt>
      <trkpt lat="43.96836" lon="5.29224">
        <ele>618.5</ele>
        <time>2019-09-14T15:06:50Z</time>
      </trkpt>
      <trkpt lat="43.96836" lon="5.29224">
        <ele>618.5</ele>
        <time>2019-09-14T15:06:56Z</time>
      </trkpt>
      <trkpt lat="43.96836" lon="5.29224">
        <ele>618.5</ele>
        <time>2019-09-14T15:07:01Z</time>
      </trkpt>
      <trkpt lat="43.96836" lon="5.29224">
        <ele>618.5</ele>
        <time>2019-09-14T15:07:06Z</time>
      </trkpt>
      <trkpt lat="43.96836" lon="5.29224">
        <ele>618.5</ele>
        <time>2019-09-14T15:07:12Z</time>
      </trkpt>
      <trkpt lat="43.96836" lon="5.29224">
        <ele>618.5</ele>
        <time>2019-09-14T15:07:17Z</time>
      </trkpt>
      <trkpt lat="43.96836" lon="5.29224">
        <ele>618.5</ele>
        <time>2019-09-14T15:07:22Z</time>
      </trkpt>
      <trkpt lat="43.96836" lon="5.29224">
        <ele>618.5</ele>
        <time>2019-09-14T15:07:27Z</time>
      </trkpt>
      <trkpt lat="43.96836" lon="5.29224">
        <ele>618.5</ele>
        <time>2019-09-14T15:07:33Z</time>
      </trkpt>
      <trkpt lat="43.96836" lon="5.29224">
        <ele>618.5</ele>
        <time>2019-09-14T15:07:39Z</time>
      </trkpt>
      <trkpt lat="43.96836" lon="5.29224">
        <ele>618.5</ele>
        <time>2019-09-14T15:07:49Z</time>
      </trkpt>
      <trkpt lat="43.96836" lon="5.29224">
        <ele>618.5</ele>
        <time>2019-09-14T15:07:54Z</time>
      </trkpt>
      <trkpt lat="43.96836" lon="5.29224">
        <ele>618.5</ele>
        <time>2019-09-14T15:08:00Z</time>
      </trkpt>
      <trkpt lat="43.96836" lon="5.29224">
        <ele>618.5</ele>
        <time>2019-09-14T15:08:05Z</time>
      </trkpt>
      <trkpt lat="43.96836" lon="5.29224">
        <ele>618.5</ele>
        <time>2019-09-14T15:08:11Z</time>
      </trkpt>
      <trkpt lat="43.96836" lon="5.29224">
        <ele>617.5</ele>
        <time>2019-09-14T15:08:16Z</time>
      </trkpt>
      <trkpt lat="43.96836" lon="5.29224">
        <ele>617.5</ele>
        <time>2019-09-14T15:08:22Z</time>
      </trkpt>
      <trkpt lat="43.96836" lon="5.29224">
        <ele>617.5</ele>
        <time>2019-09-14T15:08:27Z</time>
      </trkpt>
      <trkpt lat="43.96836" lon="5.29224">
        <ele>618.5</ele>
        <time>2019-09-14T15:08:33Z</time>
      </trkpt>
      <trkpt lat="43.96836" lon="5.29224">
        <ele>618.5</ele>
        <time>2019-09-14T15:08:38Z</time>
      </trkpt>
      <trkpt lat="43.96836" lon="5.29224">
        <ele>618.5</ele>
        <time>2019-09-14T15:08:44Z</time>
      </trkpt>
      <trkpt lat="43.96836" lon="5.29224">
        <ele>618.5</ele>
        <time>2019-09-14T15:08:49Z</time>
      </trkpt>
      <trkpt lat="43.96836" lon="5.29224">
        <ele>618.5</ele>
        <time>2019-09-14T15:08:54Z</time>
      </trkpt>
      <trkpt lat="43.96836" lon="5.29224">
        <ele>618.5</ele>
        <time>2019-09-14T15:08:59Z</time>
      </trkpt>
      <trkpt lat="43.96836" lon="5.29224">
        <ele>618.5</ele>
        <time>2019-09-14T15:09:05Z</time>
      </trkpt>
      <trkpt lat="43.96836" lon="5.29224">
        <ele>618.5</ele>
        <time>2019-09-14T15:09:11Z</time>
      </trkpt>
      <trkpt lat="43.96836" lon="5.29224">
        <ele>618.5</ele>
        <time>2019-09-14T15:09:17Z</time>
      </trkpt>
      <trkpt lat="43.96836" lon="5.29224">
        <ele>618.5</ele>
        <time>2019-09-14T15:09:23Z</time>
      </trkpt>
      <trkpt lat="43.96836" lon="5.29224">
        <ele>618.5</ele>
        <time>2019-09-14T15:09:28Z</time>
      </trkpt>
      <trkpt lat="43.96836" lon="5.29224">
        <ele>618.5</ele>
        <time>2019-09-14T15:09:34Z</time>
      </trkpt>
      <trkpt lat="43.96836" lon="5.29224">
        <ele>618.5</ele>
        <time>2019-09-14T15:09:39Z</time>
      </trkpt>
      <trkpt lat="43.96836" lon="5.29224">
        <ele>618.5</ele>
        <time>2019-09-14T15:09:45Z</time>
      </trkpt>
      <trkpt lat="43.96836" lon="5.29224">
        <ele>618.5</ele>
        <time>2019-09-14T15:09:51Z</time>
      </trkpt>
      <trkpt lat="43.96836" lon="5.29224">
        <ele>618.5</ele>
        <time>2019-09-14T15:09:57Z</time>
      </trkpt>
      <trkpt lat="43.96836" lon="5.29224">
        <ele>618.5</ele>
        <time>2019-09-14T15:10:02Z</time>
      </trkpt>
      <trkpt lat="43.96836" lon="5.29224">
        <ele>618.5</ele>
        <time>2019-09-14T15:10:08Z</time>
      </trkpt>
      <trkpt lat="43.96836" lon="5.29224">
        <ele>618.5</ele>
        <time>2019-09-14T15:10:14Z</time>
      </trkpt>
      <trkpt lat="43.96835" lon="5.29224">
        <ele>618.5</ele>
        <time>2019-09-14T15:10:19Z</time>
      </trkpt>
      <trkpt lat="43.96835" lon="5.29224">
        <ele>617.5</ele>
        <time>2019-09-14T15:10:25Z</time>
      </trkpt>
      <trkpt lat="43.96835" lon="5.29224">
        <ele>617.5</ele>
        <time>2019-09-14T15:10:31Z</time>
      </trkpt>
      <trkpt lat="43.96835" lon="5.29224">
        <ele>617.5</ele>
        <time>2019-09-14T15:10:37Z</time>
      </trkpt>
      <trkpt lat="43.96835" lon="5.29224">
        <ele>617.5</ele>
        <time>2019-09-14T15:10:43Z</time>
      </trkpt>
      <trkpt lat="43.96835" lon="5.29224">
        <ele>617.5</ele>
        <time>2019-09-14T15:10:48Z</time>
      </trkpt>
      <trkpt lat="43.96835" lon="5.29224">
        <ele>617.5</ele>
        <time>2019-09-14T15:10:53Z</time>
      </trkpt>
      <trkpt lat="43.96835" lon="5.29224">
        <ele>617.5</ele>
        <time>2019-09-14T15:10:59Z</time>
      </trkpt>
      <trkpt lat="43.96835" lon="5.29224">
        <ele>617.5</ele>
        <time>2019-09-14T15:11:04Z</time>
      </trkpt>
      <trkpt lat="43.96835" lon="5.29224">
        <ele>617.5</ele>
        <time>2019-09-14T15:11:10Z</time>
      </trkpt>
      <trkpt lat="43.96835" lon="5.29224">
        <ele>617.5</ele>
        <time>2019-09-14T15:11:15Z</time>
      </trkpt>
      <trkpt lat="43.96835" lon="5.29224">
        <ele>617.5</ele>
        <time>2019-09-14T15:11:21Z</time>
      </trkpt>
      <trkpt lat="43.96835" lon="5.29224">
        <ele>617.5</ele>
        <time>2019-09-14T15:11:27Z</time>
      </trkpt>
      <trkpt lat="43.96835" lon="5.29224">
        <ele>617.5</ele>
        <time>2019-09-14T15:11:33Z</time>
      </trkpt>
      <trkpt lat="43.96835" lon="5.29224">
        <ele>617.5</ele>
        <time>2019-09-14T15:11:38Z</time>
      </trkpt>
      <trkpt lat="43.96835" lon="5.29224">
        <ele>617.5</ele>
        <time>2019-09-14T15:11:43Z</time>
      </trkpt>
      <trkpt lat="43.96835" lon="5.29224">
        <ele>617.5</ele>
        <time>2019-09-14T15:11:48Z</time>
      </trkpt>
      <trkpt lat="43.96835" lon="5.29224">
        <ele>617.5</ele>
        <time>2019-09-14T15:11:54Z</time>
      </trkpt>
      <trkpt lat="43.96835" lon="5.29224">
        <ele>617.5</ele>
        <time>2019-09-14T15:12:00Z</time>
      </trkpt>
      <trkpt lat="43.96835" lon="5.29224">
        <ele>617.5</ele>
        <time>2019-09-14T15:12:05Z</time>
      </trkpt>
      <trkpt lat="43.96835" lon="5.29224">
        <ele>617.5</ele>
        <time>2019-09-14T15:12:11Z</time>
      </trkpt>
      <trkpt lat="43.96835" lon="5.29224">
        <ele>617.5</ele>
        <time>2019-09-14T15:12:17Z</time>
      </trkpt>
      <trkpt lat="43.96835" lon="5.29223">
        <ele>617.5</ele>
        <time>2019-09-14T15:12:23Z</time>
      </trkpt>
      <trkpt lat="43.96835" lon="5.29223">
        <ele>617.5</ele>
        <time>2019-09-14T15:12:28Z</time>
      </trkpt>
      <trkpt lat="43.96835" lon="5.29223">
        <ele>616.5</ele>
        <time>2019-09-14T15:12:34Z</time>
      </trkpt>
      <trkpt lat="43.96835" lon="5.29223">
        <ele>616.5</ele>
        <time>2019-09-14T15:12:39Z</time>
      </trkpt>
      <trkpt lat="43.96835" lon="5.29223">
        <ele>616.5</ele>
        <time>2019-09-14T15:12:45Z</time>
      </trkpt>
      <trkpt lat="43.96835" lon="5.29223">
        <ele>616.5</ele>
        <time>2019-09-14T15:12:50Z</time>
      </trkpt>
      <trkpt lat="43.96835" lon="5.29223">
        <ele>616.5</ele>
        <time>2019-09-14T15:12:56Z</time>
      </trkpt>
      <trkpt lat="43.96835" lon="5.29223">
        <ele>616.5</ele>
        <time>2019-09-14T15:13:01Z</time>
      </trkpt>
      <trkpt lat="43.96835" lon="5.29223">
        <ele>616.5</ele>
        <time>2019-09-14T15:13:07Z</time>
      </trkpt>
      <trkpt lat="43.96835" lon="5.29223">
        <ele>616.5</ele>
        <time>2019-09-14T15:13:13Z</time>
      </trkpt>
      <trkpt lat="43.96835" lon="5.29223">
        <ele>616.5</ele>
        <time>2019-09-14T15:13:18Z</time>
      </trkpt>
      <trkpt lat="43.96835" lon="5.29223">
        <ele>616.5</ele>
        <time>2019-09-14T15:13:23Z</time>
      </trkpt>
      <trkpt lat="43.96835" lon="5.29223">
        <ele>616.5</ele>
        <time>2019-09-14T15:13:29Z</time>
      </trkpt>
      <trkpt lat="43.96835" lon="5.29223">
        <ele>616.5</ele>
        <time>2019-09-14T15:13:34Z</time>
      </trkpt>
      <trkpt lat="43.96835" lon="5.29223">
        <ele>616.5</ele>
        <time>2019-09-14T15:13:40Z</time>
      </trkpt>
      <trkpt lat="43.96835" lon="5.29223">
        <ele>616.5</ele>
        <time>2019-09-14T15:13:45Z</time>
      </trkpt>
      <trkpt lat="43.96835" lon="5.29223">
        <ele>616.5</ele>
        <time>2019-09-14T15:13:51Z</time>
      </trkpt>
      <trkpt lat="43.96835" lon="5.29223">
        <ele>616.5</ele>
        <time>2019-09-14T15:13:57Z</time>
      </trkpt>
      <trkpt lat="43.96835" lon="5.29223">
        <ele>616.5</ele>
        <time>2019-09-14T15:14:03Z</time>
      </trkpt>
      <trkpt lat="43.96835" lon="5.29223">
        <ele>616.5</ele>
        <time>2019-09-14T15:14:08Z</time>
      </trkpt>
      <trkpt lat="43.96835" lon="5.29223">
        <ele>616.5</ele>
        <time>2019-09-14T15:14:13Z</time>
      </trkpt>
      <trkpt lat="43.96835" lon="5.29223">
        <ele>616.5</ele>
        <time>2019-09-14T15:14:18Z</time>
      </trkpt>
      <trkpt lat="43.96835" lon="5.29223">
        <ele>616.5</ele>
        <time>2019-09-14T15:14:24Z</time>
      </trkpt>
      <trkpt lat="43.96835" lon="5.29223">
        <ele>616.5</ele>
        <time>2019-09-14T15:14:30Z</time>
      </trkpt>
      <trkpt lat="43.96835" lon="5.29223">
        <ele>616.5</ele>
        <time>2019-09-14T15:14:35Z</time>
      </trkpt>
      <trkpt lat="43.96835" lon="5.29223">
        <ele>616.5</ele>
        <time>2019-09-14T15:14:41Z</time>
      </trkpt>
      <trkpt lat="43.96835" lon="5.29223">
        <ele>616.5</ele>
        <time>2019-09-14T15:14:46Z</time>
      </trkpt>
      <trkpt lat="43.96835" lon="5.29223">
        <ele>616.5</ele>
        <time>2019-09-14T15:14:52Z</time>
      </trkpt>
      <trkpt lat="43.96835" lon="5.29223">
        <ele>616.5</ele>
        <time>2019-09-14T15:14:57Z</time>
      </trkpt>
      <trkpt lat="43.96835" lon="5.29223">
        <ele>616.5</ele>
        <time>2019-09-14T15:15:02Z</time>
      </trkpt>
      <trkpt lat="43.96835" lon="5.29223">
        <ele>616.5</ele>
        <time>2019-09-14T15:15:08Z</time>
      </trkpt>
      <trkpt lat="43.96835" lon="5.29223">
        <ele>616.5</ele>
        <time>2019-09-14T15:15:13Z</time>
      </trkpt>
      <trkpt lat="43.96835" lon="5.29223">
        <ele>616.5</ele>
        <time>2019-09-14T15:15:19Z</time>
      </trkpt>
      <trkpt lat="43.96835" lon="5.29223">
        <ele>616.5</ele>
        <time>2019-09-14T15:15:24Z</time>
      </trkpt>
      <trkpt lat="43.96835" lon="5.29223">
        <ele>616.5</ele>
        <time>2019-09-14T15:15:30Z</time>
      </trkpt>
      <trkpt lat="43.96835" lon="5.29223">
        <ele>616.5</ele>
        <time>2019-09-14T15:15:35Z</time>
      </trkpt>
      <trkpt lat="43.96835" lon="5.29223">
        <ele>616.5</ele>
        <time>2019-09-14T15:15:41Z</time>
      </trkpt>
      <trkpt lat="43.96835" lon="5.29223">
        <ele>616.5</ele>
        <time>2019-09-14T15:15:47Z</time>
      </trkpt>
      <trkpt lat="43.96835" lon="5.29223">
        <ele>616.5</ele>
        <time>2019-09-14T15:15:53Z</time>
      </trkpt>
      <trkpt lat="43.96835" lon="5.29223">
        <ele>616.5</ele>
        <time>2019-09-14T15:15:58Z</time>
      </trkpt>
      <trkpt lat="43.96835" lon="5.29223">
        <ele>616.5</ele>
        <time>2019-09-14T15:16:03Z</time>
      </trkpt>
      <trkpt lat="43.96835" lon="5.29223">
        <ele>616.5</ele>
        <time>2019-09-14T15:16:08Z</time>
      </trkpt>
      <trkpt lat="43.96835" lon="5.29223">
        <ele>616.5</ele>
        <time>2019-09-14T15:16:14Z</time>
      </trkpt>
      <trkpt lat="43.96835" lon="5.29223">
        <ele>616.5</ele>
        <time>2019-09-14T15:16:19Z</time>
      </trkpt>
      <trkpt lat="43.96835" lon="5.29223">
        <ele>616.5</ele>
        <time>2019-09-14T15:16:24Z</time>
      </trkpt>
      <trkpt lat="43.96835" lon="5.29223">
        <ele>616.5</ele>
        <time>2019-09-14T15:16:30Z</time>
      </trkpt>
      <trkpt lat="43.96835" lon="5.29223">
        <ele>616.5</ele>
        <time>2019-09-14T15:16:36Z</time>
      </trkpt>
      <trkpt lat="43.96835" lon="5.29223">
        <ele>616.5</ele>
        <time>2019-09-14T15:16:41Z</time>
      </trkpt>
      <trkpt lat="43.96835" lon="5.29223">
        <ele>616.5</ele>
        <time>2019-09-14T15:16:46Z</time>
      </trkpt>
      <trkpt lat="43.96835" lon="5.29223">
        <ele>616.5</ele>
        <time>2019-09-14T15:16:52Z</time>
      </trkpt>
      <trkpt lat="43.96835" lon="5.29223">
        <ele>616.5</ele>
        <time>2019-09-14T15:16:58Z</time>
      </trkpt>
      <trkpt lat="43.96835" lon="5.29223">
        <ele>616.5</ele>
        <time>2019-09-14T15:17:04Z</time>
      </trkpt>
      <trkpt lat="43.96835" lon="5.29223">
        <ele>616.5</ele>
        <time>2019-09-14T15:17:10Z</time>
      </trkpt>
      <trkpt lat="43.96835" lon="5.29223">
        <ele>616.5</ele>
        <time>2019-09-14T15:17:17Z</time>
      </trkpt>
      <trkpt lat="43.96835" lon="5.29223">
        <ele>616.5</ele>
        <time>2019-09-14T15:17:22Z</time>
      </trkpt>
      <trkpt lat="43.96834" lon="5.29223">
        <ele>616.5</ele>
        <time>2019-09-14T15:17:27Z</time>
      </trkpt>
      <trkpt lat="43.96834" lon="5.29223">
        <ele>616.5</ele>
        <time>2019-09-14T15:17:32Z</time>
      </trkpt>
      <trkpt lat="43.96834" lon="5.29223">
        <ele>616.5</ele>
        <time>2019-09-14T15:17:38Z</time>
      </trkpt>
      <trkpt lat="43.96834" lon="5.29223">
        <ele>616.5</ele>
        <time>2019-09-14T15:17:44Z</time>
      </trkpt>
      <trkpt lat="43.96834" lon="5.29223">
        <ele>616.5</ele>
        <time>2019-09-14T15:17:49Z</time>
      </trkpt>
      <trkpt lat="43.96834" lon="5.29223">
        <ele>616.5</ele>
        <time>2019-09-14T15:17:55Z</time>
      </trkpt>
      <trkpt lat="43.96834" lon="5.29223">
        <ele>616.5</ele>
        <time>2019-09-14T15:18:00Z</time>
      </trkpt>
      <trkpt lat="43.96834" lon="5.29223">
        <ele>616.5</ele>
        <time>2019-09-14T15:18:06Z</time>
      </trkpt>
      <trkpt lat="43.96834" lon="5.29223">
        <ele>616.5</ele>
        <time>2019-09-14T15:18:12Z</time>
      </trkpt>
      <trkpt lat="43.96834" lon="5.29223">
        <ele>616.5</ele>
        <time>2019-09-14T15:18:17Z</time>
      </trkpt>
      <trkpt lat="43.96834" lon="5.29223">
        <ele>616.5</ele>
        <time>2019-09-14T15:18:22Z</time>
      </trkpt>
      <trkpt lat="43.96834" lon="5.29223">
        <ele>616.5</ele>
        <time>2019-09-14T15:18:28Z</time>
      </trkpt>
      <trkpt lat="43.96834" lon="5.29223">
        <ele>616.5</ele>
        <time>2019-09-14T15:18:33Z</time>
      </trkpt>
      <trkpt lat="43.96834" lon="5.29223">
        <ele>616.5</ele>
        <time>2019-09-14T15:18:39Z</time>
      </trkpt>
      <trkpt lat="43.96834" lon="5.29223">
        <ele>616.5</ele>
        <time>2019-09-14T15:18:45Z</time>
      </trkpt>
      <trkpt lat="43.96834" lon="5.29223">
        <ele>616.5</ele>
        <time>2019-09-14T15:18:51Z</time>
      </trkpt>
      <trkpt lat="43.96834" lon="5.29223">
        <ele>616.5</ele>
        <time>2019-09-14T15:18:56Z</time>
      </trkpt>
      <trkpt lat="43.96834" lon="5.29223">
        <ele>615.5</ele>
        <time>2019-09-14T15:19:01Z</time>
      </trkpt>
      <trkpt lat="43.96834" lon="5.29223">
        <ele>615.5</ele>
        <time>2019-09-14T15:19:07Z</time>
      </trkpt>
      <trkpt lat="43.96834" lon="5.29223">
        <ele>615.5</ele>
        <time>2019-09-14T15:19:12Z</time>
      </trkpt>
      <trkpt lat="43.96834" lon="5.29223">
        <ele>615.5</ele>
        <time>2019-09-14T15:19:17Z</time>
      </trkpt>
      <trkpt lat="43.96834" lon="5.29223">
        <ele>615.5</ele>
        <time>2019-09-14T15:19:23Z</time>
      </trkpt>
      <trkpt lat="43.96834" lon="5.29223">
        <ele>615.5</ele>
        <time>2019-09-14T15:19:28Z</time>
      </trkpt>
      <trkpt lat="43.96834" lon="5.29223">
        <ele>615.5</ele>
        <time>2019-09-14T15:19:34Z</time>
      </trkpt>
      <trkpt lat="43.96834" lon="5.29223">
        <ele>615.5</ele>
        <time>2019-09-14T15:19:40Z</time>
      </trkpt>
      <trkpt lat="43.96834" lon="5.29223">
        <ele>615.5</ele>
        <time>2019-09-14T15:19:45Z</time>
      </trkpt>
      <trkpt lat="43.96834" lon="5.29223">
        <ele>615.5</ele>
        <time>2019-09-14T15:20:00Z</time>
      </trkpt>
      <trkpt lat="43.96834" lon="5.29223">
        <ele>615.5</ele>
        <time>2019-09-14T15:20:05Z</time>
      </trkpt>
      <trkpt lat="43.96834" lon="5.29223">
        <ele>615.5</ele>
        <time>2019-09-14T15:20:11Z</time>
      </trkpt>
      <trkpt lat="43.96834" lon="5.29223">
        <ele>615.5</ele>
        <time>2019-09-14T15:20:16Z</time>
      </trkpt>
      <trkpt lat="43.96834" lon="5.29223">
        <ele>615.5</ele>
        <time>2019-09-14T15:20:22Z</time>
      </trkpt>
      <trkpt lat="43.96834" lon="5.29223">
        <ele>615.5</ele>
        <time>2019-09-14T15:20:28Z</time>
      </trkpt>
      <trkpt lat="43.96834" lon="5.29223">
        <ele>615.5</ele>
        <time>2019-09-14T15:20:33Z</time>
      </trkpt>
      <trkpt lat="43.96834" lon="5.29223">
        <ele>615.5</ele>
        <time>2019-09-14T15:20:39Z</time>
      </trkpt>
      <trkpt lat="43.96834" lon="5.29223">
        <ele>615.5</ele>
        <time>2019-09-14T15:20:45Z</time>
      </trkpt>
      <trkpt lat="43.96834" lon="5.29223">
        <ele>615.5</ele>
        <time>2019-09-14T15:20:51Z</time>
      </trkpt>
      <trkpt lat="43.96834" lon="5.29223">
        <ele>615.5</ele>
        <time>2019-09-14T15:20:57Z</time>
      </trkpt>
      <trkpt lat="43.96834" lon="5.29223">
        <ele>615.5</ele>
        <time>2019-09-14T15:21:02Z</time>
      </trkpt>
      <trkpt lat="43.96834" lon="5.29223">
        <ele>615.5</ele>
        <time>2019-09-14T15:21:08Z</time>
      </trkpt>
      <trkpt lat="43.96834" lon="5.29223">
        <ele>615.5</ele>
        <time>2019-09-14T15:21:13Z</time>
      </trkpt>
      <trkpt lat="43.96834" lon="5.29223">
        <ele>615.5</ele>
        <time>2019-09-14T15:21:19Z</time>
      </trkpt>
      <trkpt lat="43.96834" lon="5.29223">
        <ele>615.5</ele>
        <time>2019-09-14T15:21:25Z</time>
      </trkpt>
      <trkpt lat="43.96834" lon="5.29223">
        <ele>615.5</ele>
        <time>2019-09-14T15:21:31Z</time>
      </trkpt>
      <trkpt lat="43.96834" lon="5.29223">
        <ele>615.5</ele>
        <time>2019-09-14T15:21:37Z</time>
      </trkpt>
      <trkpt lat="43.96834" lon="5.29223">
        <ele>615.5</ele>
        <time>2019-09-14T15:21:43Z</time>
      </trkpt>
      <trkpt lat="43.96834" lon="5.29223">
        <ele>615.5</ele>
        <time>2019-09-14T15:21:49Z</time>
      </trkpt>
      <trkpt lat="43.96834" lon="5.29223">
        <ele>615.5</ele>
        <time>2019-09-14T15:21:54Z</time>
      </trkpt>
      <trkpt lat="43.96834" lon="5.29223">
        <ele>615.5</ele>
        <time>2019-09-14T15:22:00Z</time>
      </trkpt>
      <trkpt lat="43.96834" lon="5.29223">
        <ele>615.5</ele>
        <time>2019-09-14T15:22:06Z</time>
      </trkpt>
      <trkpt lat="43.96834" lon="5.29223">
        <ele>615.5</ele>
        <time>2019-09-14T15:22:12Z</time>
      </trkpt>
      <trkpt lat="43.96834" lon="5.29223">
        <ele>615.5</ele>
        <time>2019-09-14T15:22:17Z</time>
      </trkpt>
      <trkpt lat="43.96834" lon="5.29223">
        <ele>615.5</ele>
        <time>2019-09-14T15:22:23Z</time>
      </trkpt>
      <trkpt lat="43.96834" lon="5.29223">
        <ele>615.5</ele>
        <time>2019-09-14T15:22:29Z</time>
      </trkpt>
      <trkpt lat="43.96834" lon="5.29223">
        <ele>615.5</ele>
        <time>2019-09-14T15:22:34Z</time>
      </trkpt>
      <trkpt lat="43.96834" lon="5.29223">
        <ele>615.5</ele>
        <time>2019-09-14T15:22:40Z</time>
      </trkpt>
      <trkpt lat="43.96834" lon="5.29223">
        <ele>615.5</ele>
        <time>2019-09-14T15:22:45Z</time>
      </trkpt>
      <trkpt lat="43.96834" lon="5.29223">
        <ele>615.5</ele>
        <time>2019-09-14T15:22:50Z</time>
      </trkpt>
      <trkpt lat="43.96834" lon="5.29223">
        <ele>615.5</ele>
        <time>2019-09-14T15:22:56Z</time>
      </trkpt>
      <trkpt lat="43.96834" lon="5.29223">
        <ele>615.5</ele>
        <time>2019-09-14T15:23:01Z</time>
      </trkpt>
      <trkpt lat="43.96834" lon="5.29223">
        <ele>615.5</ele>
        <time>2019-09-14T15:23:07Z</time>
      </trkpt>
      <trkpt lat="43.96834" lon="5.29223">
        <ele>615.5</ele>
        <time>2019-09-14T15:23:12Z</time>
      </trkpt>
      <trkpt lat="43.96834" lon="5.29223">
        <ele>615.5</ele>
        <time>2019-09-14T15:23:18Z</time>
      </trkpt>
      <trkpt lat="43.96834" lon="5.29223">
        <ele>615.5</ele>
        <time>2019-09-14T15:23:23Z</time>
      </trkpt>
      <trkpt lat="43.96834" lon="5.29223">
        <ele>615.5</ele>
        <time>2019-09-14T15:23:28Z</time>
      </trkpt>
      <trkpt lat="43.96834" lon="5.29223">
        <ele>615.5</ele>
        <time>2019-09-14T15:23:33Z</time>
      </trkpt>
      <trkpt lat="43.96834" lon="5.29223">
        <ele>615.5</ele>
        <time>2019-09-14T15:23:39Z</time>
      </trkpt>
      <trkpt lat="43.96834" lon="5.29223">
        <ele>615.5</ele>
        <time>2019-09-14T15:23:44Z</time>
      </trkpt>
      <trkpt lat="43.96834" lon="5.29223">
        <ele>615.5</ele>
        <time>2019-09-14T15:23:50Z</time>
      </trkpt>
      <trkpt lat="43.96834" lon="5.29223">
        <ele>615.5</ele>
        <time>2019-09-14T15:23:56Z</time>
      </trkpt>
      <trkpt lat="43.96834" lon="5.29223">
        <ele>615.5</ele>
        <time>2019-09-14T15:24:01Z</time>
      </trkpt>
      <trkpt lat="43.96834" lon="5.29223">
        <ele>615.5</ele>
        <time>2019-09-14T15:24:06Z</time>
      </trkpt>
      <trkpt lat="43.96834" lon="5.29223">
        <ele>615.5</ele>
        <time>2019-09-14T15:24:12Z</time>
      </trkpt>
      <trkpt lat="43.96834" lon="5.29223">
        <ele>615.5</ele>
        <time>2019-09-14T15:24:18Z</time>
      </trkpt>
      <trkpt lat="43.96834" lon="5.29223">
        <ele>615.5</ele>
        <time>2019-09-14T15:24:23Z</time>
      </trkpt>
      <trkpt lat="43.96834" lon="5.29223">
        <ele>615.5</ele>
        <time>2019-09-14T15:24:29Z</time>
      </trkpt>
      <trkpt lat="43.96834" lon="5.29223">
        <ele>614.5</ele>
        <time>2019-09-14T15:24:34Z</time>
      </trkpt>
      <trkpt lat="43.96834" lon="5.29223">
        <ele>614.5</ele>
        <time>2019-09-14T15:24:39Z</time>
      </trkpt>
      <trkpt lat="43.96834" lon="5.29223">
        <ele>614.5</ele>
        <time>2019-09-14T15:24:45Z</time>
      </trkpt>
      <trkpt lat="43.96834" lon="5.29223">
        <ele>614.5</ele>
        <time>2019-09-14T15:24:50Z</time>
      </trkpt>
      <trkpt lat="43.96834" lon="5.29223">
        <ele>614.5</ele>
        <time>2019-09-14T15:24:55Z</time>
      </trkpt>
      <trkpt lat="43.96834" lon="5.29223">
        <ele>614.5</ele>
        <time>2019-09-14T15:25:00Z</time>
      </trkpt>
      <trkpt lat="43.96834" lon="5.29223">
        <ele>614.5</ele>
        <time>2019-09-14T15:25:06Z</time>
      </trkpt>
      <trkpt lat="43.96834" lon="5.29223">
        <ele>614.5</ele>
        <time>2019-09-14T15:25:11Z</time>
      </trkpt>
      <trkpt lat="43.96834" lon="5.29223">
        <ele>614.5</ele>
        <time>2019-09-14T15:25:17Z</time>
      </trkpt>
      <trkpt lat="43.96834" lon="5.29223">
        <ele>614.5</ele>
        <time>2019-09-14T15:25:23Z</time>
      </trkpt>
      <trkpt lat="43.96834" lon="5.29223">
        <ele>614.5</ele>
        <time>2019-09-14T15:25:29Z</time>
      </trkpt>
      <trkpt lat="43.96834" lon="5.29223">
        <ele>614.5</ele>
        <time>2019-09-14T15:25:34Z</time>
      </trkpt>
      <trkpt lat="43.96834" lon="5.29223">
        <ele>614.5</ele>
        <time>2019-09-14T15:25:40Z</time>
      </trkpt>
      <trkpt lat="43.96834" lon="5.29223">
        <ele>614.5</ele>
        <time>2019-09-14T15:25:46Z</time>
      </trkpt>
      <trkpt lat="43.96834" lon="5.29223">
        <ele>614.5</ele>
        <time>2019-09-14T15:25:52Z</time>
      </trkpt>
      <trkpt lat="43.96834" lon="5.29223">
        <ele>614.5</ele>
        <time>2019-09-14T15:25:58Z</time>
      </trkpt>
      <trkpt lat="43.96834" lon="5.29223">
        <ele>614.5</ele>
        <time>2019-09-14T15:26:04Z</time>
      </trkpt>
      <trkpt lat="43.96834" lon="5.29223">
        <ele>614.5</ele>
        <time>2019-09-14T15:26:09Z</time>
      </trkpt>
      <trkpt lat="43.96834" lon="5.29223">
        <ele>614.5</ele>
        <time>2019-09-14T15:26:15Z</time>
      </trkpt>
      <trkpt lat="43.96834" lon="5.29223">
        <ele>614.5</ele>
        <time>2019-09-14T15:26:20Z</time>
      </trkpt>
      <trkpt lat="43.96834" lon="5.29223">
        <ele>614.5</ele>
        <time>2019-09-14T15:26:26Z</time>
      </trkpt>
      <trkpt lat="43.96834" lon="5.29223">
        <ele>614.5</ele>
        <time>2019-09-14T15:26:31Z</time>
      </trkpt>
      <trkpt lat="43.96834" lon="5.29223">
        <ele>614.5</ele>
        <time>2019-09-14T15:26:37Z</time>
      </trkpt>
      <trkpt lat="43.96834" lon="5.29223">
        <ele>614.5</ele>
        <time>2019-09-14T15:26:42Z</time>
      </trkpt>
      <trkpt lat="43.96834" lon="5.29223">
        <ele>614.5</ele>
        <time>2019-09-14T15:26:48Z</time>
      </trkpt>
      <trkpt lat="43.96834" lon="5.29223">
        <ele>614.5</ele>
        <time>2019-09-14T15:26:54Z</time>
      </trkpt>
      <trkpt lat="43.96834" lon="5.29223">
        <ele>614.5</ele>
        <time>2019-09-14T15:26:59Z</time>
      </trkpt>
      <trkpt lat="43.96834" lon="5.29223">
        <ele>614.5</ele>
        <time>2019-09-14T15:27:05Z</time>
      </trkpt>
      <trkpt lat="43.96834" lon="5.29223">
        <ele>614.5</ele>
        <time>2019-09-14T15:27:11Z</time>
      </trkpt>
      <trkpt lat="43.96834" lon="5.29223">
        <ele>614.5</ele>
        <time>2019-09-14T15:27:16Z</time>
      </trkpt>
      <trkpt lat="43.96834" lon="5.29223">
        <ele>614.5</ele>
        <time>2019-09-14T15:27:21Z</time>
      </trkpt>
      <trkpt lat="43.96834" lon="5.29223">
        <ele>614.5</ele>
        <time>2019-09-14T15:27:26Z</time>
      </trkpt>
      <trkpt lat="43.96834" lon="5.29223">
        <ele>614.5</ele>
        <time>2019-09-14T15:27:32Z</time>
      </trkpt>
      <trkpt lat="43.96834" lon="5.29223">
        <ele>614.5</ele>
        <time>2019-09-14T15:27:38Z</time>
      </trkpt>
      <trkpt lat="43.96834" lon="5.29223">
        <ele>614.5</ele>
        <time>2019-09-14T15:27:43Z</time>
      </trkpt>
      <trkpt lat="43.96834" lon="5.29223">
        <ele>614.5</ele>
        <time>2019-09-14T15:27:49Z</time>
      </trkpt>
      <trkpt lat="43.96834" lon="5.29223">
        <ele>614.5</ele>
        <time>2019-09-14T15:27:54Z</time>
      </trkpt>
      <trkpt lat="43.96834" lon="5.29223">
        <ele>614.5</ele>
        <time>2019-09-14T15:28:00Z</time>
      </trkpt>
      <trkpt lat="43.96834" lon="5.29223">
        <ele>614.5</ele>
        <time>2019-09-14T15:28:05Z</time>
      </trkpt>
      <trkpt lat="43.96834" lon="5.29223">
        <ele>614.5</ele>
        <time>2019-09-14T15:28:11Z</time>
      </trkpt>
      <trkpt lat="43.96834" lon="5.29223">
        <ele>614.5</ele>
        <time>2019-09-14T15:28:17Z</time>
      </trkpt>
      <trkpt lat="43.96834" lon="5.29223">
        <ele>614.5</ele>
        <time>2019-09-14T15:28:22Z</time>
      </trkpt>
      <trkpt lat="43.96834" lon="5.29223">
        <ele>614.5</ele>
        <time>2019-09-14T15:28:28Z</time>
      </trkpt>
      <trkpt lat="43.96834" lon="5.29223">
        <ele>614.5</ele>
        <time>2019-09-14T15:28:34Z</time>
      </trkpt>
      <trkpt lat="43.96834" lon="5.29223">
        <ele>614.5</ele>
        <time>2019-09-14T15:28:40Z</time>
      </trkpt>
      <trkpt lat="43.96834" lon="5.29223">
        <ele>614.5</ele>
        <time>2019-09-14T15:28:45Z</time>
      </trkpt>
      <trkpt lat="43.96834" lon="5.29223">
        <ele>614.5</ele>
        <time>2019-09-14T15:28:50Z</time>
      </trkpt>
      <trkpt lat="43.96834" lon="5.29223">
        <ele>614.5</ele>
        <time>2019-09-14T15:28:56Z</time>
      </trkpt>
      <trkpt lat="43.96834" lon="5.29223">
        <ele>614.5</ele>
        <time>2019-09-14T15:29:02Z</time>
      </trkpt>
      <trkpt lat="43.96834" lon="5.29223">
        <ele>614.5</ele>
        <time>2019-09-14T15:29:07Z</time>
      </trkpt>
      <trkpt lat="43.96834" lon="5.29223">
        <ele>614.5</ele>
        <time>2019-09-14T15:29:12Z</time>
      </trkpt>
      <trkpt lat="43.96834" lon="5.29223">
        <ele>614.5</ele>
        <time>2019-09-14T15:29:18Z</time>
      </trkpt>
      <trkpt lat="43.96832" lon="5.29213">
        <ele>615.5</ele>
        <time>2019-09-14T15:29:23Z</time>
      </trkpt>
      <trkpt lat="43.96825" lon="5.29205">
        <ele>610.5</ele>
        <time>2019-09-14T15:29:29Z</time>
      </trkpt>
      <trkpt lat="43.96825" lon="5.29199">
        <ele>609.5</ele>
        <time>2019-09-14T15:29:34Z</time>
      </trkpt>
      <trkpt lat="43.96822" lon="5.29193">
        <ele>607.5</ele>
        <time>2019-09-14T15:29:40Z</time>
      </trkpt>
      <trkpt lat="43.9682" lon="5.29187">
        <ele>604.5</ele>
        <time>2019-09-14T15:29:45Z</time>
      </trkpt>
      <trkpt lat="43.96818" lon="5.29182">
        <ele>605.5</ele>
        <time>2019-09-14T15:29:51Z</time>
      </trkpt>
      <trkpt lat="43.96817" lon="5.29171">
        <ele>608.5</ele>
        <time>2019-09-14T15:29:57Z</time>
      </trkpt>
      <trkpt lat="43.96818" lon="5.29169">
        <ele>599.5</ele>
        <time>2019-09-14T15:30:03Z</time>
      </trkpt>
      <trkpt lat="43.96821" lon="5.2917">
        <ele>601.5</ele>
        <time>2019-09-14T15:30:09Z</time>
      </trkpt>
      <trkpt lat="43.96823" lon="5.29167">
        <ele>601.5</ele>
        <time>2019-09-14T15:30:14Z</time>
      </trkpt>
      <trkpt lat="43.96826" lon="5.29158">
        <ele>599.5</ele>
        <time>2019-09-14T15:30:20Z</time>
      </trkpt>
      <trkpt lat="43.9683" lon="5.29154">
        <ele>600.5</ele>
        <time>2019-09-14T15:30:25Z</time>
      </trkpt>
      <trkpt lat="43.96831" lon="5.29151">
        <ele>604.5</ele>
        <time>2019-09-14T15:30:31Z</time>
      </trkpt>
      <trkpt lat="43.96832" lon="5.29149">
        <ele>604.5</ele>
        <time>2019-09-14T15:30:36Z</time>
      </trkpt>
      <trkpt lat="43.96835" lon="5.29147">
        <ele>603.5</ele>
        <time>2019-09-14T15:30:41Z</time>
      </trkpt>
      <trkpt lat="43.96836" lon="5.29142">
        <ele>600.5</ele>
        <time>2019-09-14T15:30:47Z</time>
      </trkpt>
      <trkpt lat="43.96842" lon="5.29142">
        <ele>598.5</ele>
        <time>2019-09-14T15:30:52Z</time>
      </trkpt>
      <trkpt lat="43.96844" lon="5.29137">
        <ele>601.5</ele>
        <time>2019-09-14T15:30:57Z</time>
      </trkpt>
      <trkpt lat="43.96847" lon="5.29135">
        <ele>602.5</ele>
        <time>2019-09-14T15:31:03Z</time>
      </trkpt>
      <trkpt lat="43.96852" lon="5.29137">
        <ele>583.5</ele>
        <time>2019-09-14T15:31:09Z</time>
      </trkpt>
      <trkpt lat="43.96854" lon="5.29135">
        <ele>593.5</ele>
        <time>2019-09-14T15:31:14Z</time>
      </trkpt>
      <trkpt lat="43.96853" lon="5.29135">
        <ele>585.5</ele>
        <time>2019-09-14T15:31:20Z</time>
      </trkpt>
      <trkpt lat="43.96852" lon="5.29128">
        <ele>583.5</ele>
        <time>2019-09-14T15:31:26Z</time>
      </trkpt>
      <trkpt lat="43.96852" lon="5.29126">
        <ele>588.5</ele>
        <time>2019-09-14T15:31:31Z</time>
      </trkpt>
      <trkpt lat="43.96856" lon="5.29124">
        <ele>590.5</ele>
        <time>2019-09-14T15:31:37Z</time>
      </trkpt>
      <trkpt lat="43.96859" lon="5.29114">
        <ele>588.5</ele>
        <time>2019-09-14T15:31:43Z</time>
      </trkpt>
      <trkpt lat="43.96864" lon="5.291">
        <ele>591.5</ele>
        <time>2019-09-14T15:31:49Z</time>
      </trkpt>
      <trkpt lat="43.96868" lon="5.29101">
        <ele>590.5</ele>
        <time>2019-09-14T15:31:55Z</time>
      </trkpt>
      <trkpt lat="43.96862" lon="5.29091">
        <ele>589.5</ele>
        <time>2019-09-14T15:32:01Z</time>
      </trkpt>
      <trkpt lat="43.96862" lon="5.29092">
        <ele>587.5</ele>
        <time>2019-09-14T15:32:07Z</time>
      </trkpt>
      <trkpt lat="43.9686" lon="5.2909">
        <ele>588.5</ele>
        <time>2019-09-14T15:32:13Z</time>
      </trkpt>
      <trkpt lat="43.96856" lon="5.29087">
        <ele>587.5</ele>
        <time>2019-09-14T15:32:19Z</time>
      </trkpt>
      <trkpt lat="43.96859" lon="5.29082">
        <ele>588.5</ele>
        <time>2019-09-14T15:32:24Z</time>
      </trkpt>
      <trkpt lat="43.96861" lon="5.29074">
        <ele>584.5</ele>
        <time>2019-09-14T15:32:30Z</time>
      </trkpt>
      <trkpt lat="43.96858" lon="5.29072">
        <ele>584.5</ele>
        <time>2019-09-14T15:32:35Z</time>
      </trkpt>
      <trkpt lat="43.96859" lon="5.29067">
        <ele>585.5</ele>
        <time>2019-09-14T15:32:41Z</time>
      </trkpt>
      <trkpt lat="43.9686" lon="5.29062">
        <ele>585.5</ele>
        <time>2019-09-14T15:32:46Z</time>
      </trkpt>
      <trkpt lat="43.96864" lon="5.29053">
        <ele>581.5</ele>
        <time>2019-09-14T15:32:51Z</time>
      </trkpt>
      <trkpt lat="43.96865" lon="5.29055">
        <ele>578.5</ele>
        <time>2019-09-14T15:32:57Z</time>
      </trkpt>
      <trkpt lat="43.96871" lon="5.29053">
        <ele>578.5</ele>
        <time>2019-09-14T15:33:02Z</time>
      </trkpt>
      <trkpt lat="43.96877" lon="5.29048">
        <ele>579.5</ele>
        <time>2019-09-14T15:33:07Z</time>
      </trkpt>
      <trkpt lat="43.96877" lon="5.29045">
        <ele>580.5</ele>
        <time>2019-09-14T15:33:13Z</time>
      </trkpt>
      <trkpt lat="43.96876" lon="5.29044">
        <ele>578.5</ele>
        <time>2019-09-14T15:33:19Z</time>
      </trkpt>
      <trkpt lat="43.96876" lon="5.29043">
        <ele>579.5</ele>
        <time>2019-09-14T15:33:24Z</time>
      </trkpt>
      <trkpt lat="43.96876" lon="5.29043">
        <ele>579.5</ele>
        <time>2019-09-14T15:33:30Z</time>
      </trkpt>
      <trkpt lat="43.96876" lon="5.29042">
        <ele>579.5</ele>
        <time>2019-09-14T15:33:36Z</time>
      </trkpt>
      <trkpt lat="43.96881" lon="5.29033">
        <ele>571.5</ele>
        <time>2019-09-14T15:33:42Z</time>
      </trkpt>
      <trkpt lat="43.96885" lon="5.29025">
        <ele>571.5</ele>
        <time>2019-09-14T15:33:47Z</time>
      </trkpt>
      <trkpt lat="43.96889" lon="5.29016">
        <ele>570.5</ele>
        <time>2019-09-14T15:33:53Z</time>
      </trkpt>
      <trkpt lat="43.96892" lon="5.29011">
        <ele>568.5</ele>
        <time>2019-09-14T15:33:58Z</time>
      </trkpt>
      <trkpt lat="43.96894" lon="5.29007">
        <ele>573.5</ele>
        <time>2019-09-14T15:34:03Z</time>
      </trkpt>
      <trkpt lat="43.96893" lon="5.29003">
        <ele>578.5</ele>
        <time>2019-09-14T15:34:09Z</time>
      </trkpt>
      <trkpt lat="43.96895" lon="5.28999">
        <ele>579.5</ele>
        <time>2019-09-14T15:34:15Z</time>
      </trkpt>
      <trkpt lat="43.96895" lon="5.28998">
        <ele>580.5</ele>
        <time>2019-09-14T15:34:20Z</time>
      </trkpt>
      <trkpt lat="43.96895" lon="5.28998">
        <ele>580.5</ele>
        <time>2019-09-14T15:34:26Z</time>
      </trkpt>
      <trkpt lat="43.96896" lon="5.28998">
        <ele>580.5</ele>
        <time>2019-09-14T15:34:32Z</time>
      </trkpt>
      <trkpt lat="43.96896" lon="5.28998">
        <ele>580.5</ele>
        <time>2019-09-14T15:34:37Z</time>
      </trkpt>
      <trkpt lat="43.96898" lon="5.28994">
        <ele>581.5</ele>
        <time>2019-09-14T15:34:43Z</time>
      </trkpt>
      <trkpt lat="43.96908" lon="5.28992">
        <ele>578.5</ele>
        <time>2019-09-14T15:34:49Z</time>
      </trkpt>
      <trkpt lat="43.96909" lon="5.28991">
        <ele>575.5</ele>
        <time>2019-09-14T15:34:54Z</time>
      </trkpt>
      <trkpt lat="43.96908" lon="5.2899">
        <ele>574.5</ele>
        <time>2019-09-14T15:35:00Z</time>
      </trkpt>
      <trkpt lat="43.96908" lon="5.28991">
        <ele>575.5</ele>
        <time>2019-09-14T15:35:05Z</time>
      </trkpt>
      <trkpt lat="43.96908" lon="5.28991">
        <ele>575.5</ele>
        <time>2019-09-14T15:35:11Z</time>
      </trkpt>
      <trkpt lat="43.96908" lon="5.28991">
        <ele>575.5</ele>
        <time>2019-09-14T15:35:16Z</time>
      </trkpt>
      <trkpt lat="43.96908" lon="5.28991">
        <ele>574.5</ele>
        <time>2019-09-14T15:35:21Z</time>
      </trkpt>
      <trkpt lat="43.96908" lon="5.28992">
        <ele>574.5</ele>
        <time>2019-09-14T15:35:27Z</time>
      </trkpt>
      <trkpt lat="43.96908" lon="5.28992">
        <ele>574.5</ele>
        <time>2019-09-14T15:35:33Z</time>
      </trkpt>
      <trkpt lat="43.96908" lon="5.28992">
        <ele>574.5</ele>
        <time>2019-09-14T15:35:39Z</time>
      </trkpt>
      <trkpt lat="43.96908" lon="5.28992">
        <ele>574.5</ele>
        <time>2019-09-14T15:35:44Z</time>
      </trkpt>
      <trkpt lat="43.96908" lon="5.28992">
        <ele>574.5</ele>
        <time>2019-09-14T15:35:49Z</time>
      </trkpt>
      <trkpt lat="43.96908" lon="5.28992">
        <ele>574.5</ele>
        <time>2019-09-14T15:35:54Z</time>
      </trkpt>
      <trkpt lat="43.96908" lon="5.28992">
        <ele>574.5</ele>
        <time>2019-09-14T15:36:00Z</time>
      </trkpt>
      <trkpt lat="43.96908" lon="5.28992">
        <ele>574.5</ele>
        <time>2019-09-14T15:36:05Z</time>
      </trkpt>
      <trkpt lat="43.96908" lon="5.28992">
        <ele>574.5</ele>
        <time>2019-09-14T15:36:11Z</time>
      </trkpt>
      <trkpt lat="43.96908" lon="5.28992">
        <ele>574.5</ele>
        <time>2019-09-14T15:36:16Z</time>
      </trkpt>
      <trkpt lat="43.96908" lon="5.28992">
        <ele>574.5</ele>
        <time>2019-09-14T15:36:22Z</time>
      </trkpt>
      <trkpt lat="43.96908" lon="5.28992">
        <ele>574.5</ele>
        <time>2019-09-14T15:36:27Z</time>
      </trkpt>
      <trkpt lat="43.96908" lon="5.28992">
        <ele>574.5</ele>
        <time>2019-09-14T15:36:33Z</time>
      </trkpt>
      <trkpt lat="43.96908" lon="5.28992">
        <ele>574.5</ele>
        <time>2019-09-14T15:36:39Z</time>
      </trkpt>
      <trkpt lat="43.96908" lon="5.28992">
        <ele>574.5</ele>
        <time>2019-09-14T15:36:44Z</time>
      </trkpt>
      <trkpt lat="43.96908" lon="5.28992">
        <ele>574.5</ele>
        <time>2019-09-14T15:36:50Z</time>
      </trkpt>
      <trkpt lat="43.96908" lon="5.28992">
        <ele>574.5</ele>
        <time>2019-09-14T15:36:56Z</time>
      </trkpt>
      <trkpt lat="43.96908" lon="5.28992">
        <ele>574.5</ele>
        <time>2019-09-14T15:37:02Z</time>
      </trkpt>
      <trkpt lat="43.96908" lon="5.28992">
        <ele>574.5</ele>
        <time>2019-09-14T15:37:07Z</time>
      </trkpt>
      <trkpt lat="43.96908" lon="5.28992">
        <ele>574.5</ele>
        <time>2019-09-14T15:37:13Z</time>
      </trkpt>
      <trkpt lat="43.96908" lon="5.28992">
        <ele>574.5</ele>
        <time>2019-09-14T15:37:18Z</time>
      </trkpt>
      <trkpt lat="43.96908" lon="5.28992">
        <ele>574.5</ele>
        <time>2019-09-14T15:37:24Z</time>
      </trkpt>
      <trkpt lat="43.96908" lon="5.28992">
        <ele>574.5</ele>
        <time>2019-09-14T15:37:30Z</time>
      </trkpt>
      <trkpt lat="43.96908" lon="5.28992">
        <ele>574.5</ele>
        <time>2019-09-14T15:37:36Z</time>
      </trkpt>
      <trkpt lat="43.96908" lon="5.28992">
        <ele>574.5</ele>
        <time>2019-09-14T15:37:42Z</time>
      </trkpt>
      <trkpt lat="43.96908" lon="5.28991">
        <ele>574.5</ele>
        <time>2019-09-14T15:37:48Z</time>
      </trkpt>
      <trkpt lat="43.96915" lon="5.28982">
        <ele>575.5</ele>
        <time>2019-09-14T15:37:53Z</time>
      </trkpt>
      <trkpt lat="43.96921" lon="5.28972">
        <ele>573.5</ele>
        <time>2019-09-14T15:37:59Z</time>
      </trkpt>
      <trkpt lat="43.96929" lon="5.28963">
        <ele>574.5</ele>
        <time>2019-09-14T15:38:05Z</time>
      </trkpt>
      <trkpt lat="43.96932" lon="5.28957">
        <ele>573.5</ele>
        <time>2019-09-14T15:38:11Z</time>
      </trkpt>
      <trkpt lat="43.96939" lon="5.28952">
        <ele>573.5</ele>
        <time>2019-09-14T15:38:16Z</time>
      </trkpt>
      <trkpt lat="43.96941" lon="5.28947">
        <ele>575.5</ele>
        <time>2019-09-14T15:38:22Z</time>
      </trkpt>
      <trkpt lat="43.96945" lon="5.28942">
        <ele>574.5</ele>
        <time>2019-09-14T15:38:27Z</time>
      </trkpt>
      <trkpt lat="43.96943" lon="5.28931">
        <ele>575.5</ele>
        <time>2019-09-14T15:38:32Z</time>
      </trkpt>
      <trkpt lat="43.96946" lon="5.28931">
        <ele>575.5</ele>
        <time>2019-09-14T15:38:37Z</time>
      </trkpt>
      <trkpt lat="43.96947" lon="5.28924">
        <ele>574.5</ele>
        <time>2019-09-14T15:38:42Z</time>
      </trkpt>
      <trkpt lat="43.96952" lon="5.28918">
        <ele>572.5</ele>
        <time>2019-09-14T15:38:48Z</time>
      </trkpt>
      <trkpt lat="43.96958" lon="5.28917">
        <ele>573.5</ele>
        <time>2019-09-14T15:38:54Z</time>
      </trkpt>
      <trkpt lat="43.96963" lon="5.28905">
        <ele>573.5</ele>
        <time>2019-09-14T15:38:59Z</time>
      </trkpt>
      <trkpt lat="43.96969" lon="5.28905">
        <ele>573.5</ele>
        <time>2019-09-14T15:39:05Z</time>
      </trkpt>
      <trkpt lat="43.96974" lon="5.28899">
        <ele>573.5</ele>
        <time>2019-09-14T15:39:11Z</time>
      </trkpt>
      <trkpt lat="43.96974" lon="5.28891">
        <ele>572.5</ele>
        <time>2019-09-14T15:39:17Z</time>
      </trkpt>
      <trkpt lat="43.96979" lon="5.28884">
        <ele>572.5</ele>
        <time>2019-09-14T15:39:23Z</time>
      </trkpt>
      <trkpt lat="43.96981" lon="5.2888">
        <ele>570.5</ele>
        <time>2019-09-14T15:39:29Z</time>
      </trkpt>
      <trkpt lat="43.96982" lon="5.28872">
        <ele>568.5</ele>
        <time>2019-09-14T15:39:35Z</time>
      </trkpt>
      <trkpt lat="43.9699" lon="5.28868">
        <ele>565.5</ele>
        <time>2019-09-14T15:39:41Z</time>
      </trkpt>
      <trkpt lat="43.96995" lon="5.28857">
        <ele>568.5</ele>
        <time>2019-09-14T15:39:47Z</time>
      </trkpt>
      <trkpt lat="43.97" lon="5.28851">
        <ele>571.5</ele>
        <time>2019-09-14T15:39:52Z</time>
      </trkpt>
      <trkpt lat="43.97" lon="5.28839">
        <ele>573.5</ele>
        <time>2019-09-14T15:39:58Z</time>
      </trkpt>
      <trkpt lat="43.96998" lon="5.28832">
        <ele>574.5</ele>
        <time>2019-09-14T15:40:04Z</time>
      </trkpt>
      <trkpt lat="43.96999" lon="5.28829">
        <ele>573.5</ele>
        <time>2019-09-14T15:40:09Z</time>
      </trkpt>
      <trkpt lat="43.97" lon="5.28819">
        <ele>573.5</ele>
        <time>2019-09-14T15:40:15Z</time>
      </trkpt>
      <trkpt lat="43.97002" lon="5.2882">
        <ele>576.5</ele>
        <time>2019-09-14T15:40:20Z</time>
      </trkpt>
      <trkpt lat="43.97002" lon="5.2882">
        <ele>574.5</ele>
        <time>2019-09-14T15:40:25Z</time>
      </trkpt>
      <trkpt lat="43.97004" lon="5.28819">
        <ele>574.5</ele>
        <time>2019-09-14T15:40:31Z</time>
      </trkpt>
      <trkpt lat="43.97004" lon="5.28819">
        <ele>574.5</ele>
        <time>2019-09-14T15:40:36Z</time>
      </trkpt>
      <trkpt lat="43.97004" lon="5.28819">
        <ele>574.5</ele>
        <time>2019-09-14T15:40:41Z</time>
      </trkpt>
      <trkpt lat="43.97004" lon="5.28819">
        <ele>574.5</ele>
        <time>2019-09-14T15:40:47Z</time>
      </trkpt>
      <trkpt lat="43.97004" lon="5.28815">
        <ele>573.5</ele>
        <time>2019-09-14T15:40:52Z</time>
      </trkpt>
      <trkpt lat="43.97009" lon="5.28818">
        <ele>574.5</ele>
        <time>2019-09-14T15:40:57Z</time>
      </trkpt>
      <trkpt lat="43.97014" lon="5.28825">
        <ele>575.5</ele>
        <time>2019-09-14T15:41:03Z</time>
      </trkpt>
      <trkpt lat="43.97021" lon="5.28833">
        <ele>573.5</ele>
        <time>2019-09-14T15:41:08Z</time>
      </trkpt>
      <trkpt lat="43.97026" lon="5.2884">
        <ele>577.5</ele>
        <time>2019-09-14T15:41:14Z</time>
      </trkpt>
      <trkpt lat="43.97032" lon="5.28846">
        <ele>575.5</ele>
        <time>2019-09-14T15:41:20Z</time>
      </trkpt>
      <trkpt lat="43.9703" lon="5.28843">
        <ele>574.5</ele>
        <time>2019-09-14T15:41:25Z</time>
      </trkpt>
      <trkpt lat="43.97042" lon="5.28857">
        <ele>577.5</ele>
        <time>2019-09-14T15:41:31Z</time>
      </trkpt>
      <trkpt lat="43.97043" lon="5.28862">
        <ele>576.5</ele>
        <time>2019-09-14T15:41:36Z</time>
      </trkpt>
      <trkpt lat="43.97044" lon="5.28867">
        <ele>576.5</ele>
        <time>2019-09-14T15:41:42Z</time>
      </trkpt>
      <trkpt lat="43.97048" lon="5.28874">
        <ele>573.5</ele>
        <time>2019-09-14T15:41:48Z</time>
      </trkpt>
      <trkpt lat="43.97048" lon="5.28877">
        <ele>573.5</ele>
        <time>2019-09-14T15:41:54Z</time>
      </trkpt>
      <trkpt lat="43.97048" lon="5.28879">
        <ele>573.5</ele>
        <time>2019-09-14T15:42:00Z</time>
      </trkpt>
      <trkpt lat="43.97058" lon="5.28894">
        <ele>574.5</ele>
        <time>2019-09-14T15:42:06Z</time>
      </trkpt>
      <trkpt lat="43.97065" lon="5.28906">
        <ele>573.5</ele>
        <time>2019-09-14T15:42:12Z</time>
      </trkpt>
      <trkpt lat="43.97069" lon="5.28923">
        <ele>572.5</ele>
        <time>2019-09-14T15:42:18Z</time>
      </trkpt>
      <trkpt lat="43.97074" lon="5.28924">
        <ele>572.5</ele>
        <time>2019-09-14T15:42:24Z</time>
      </trkpt>
      <trkpt lat="43.97076" lon="5.28928">
        <ele>571.5</ele>
        <time>2019-09-14T15:42:29Z</time>
      </trkpt>
      <trkpt lat="43.97079" lon="5.28932">
        <ele>571.5</ele>
        <time>2019-09-14T15:42:35Z</time>
      </trkpt>
      <trkpt lat="43.97083" lon="5.28938">
        <ele>572.5</ele>
        <time>2019-09-14T15:42:41Z</time>
      </trkpt>
      <trkpt lat="43.97084" lon="5.28943">
        <ele>572.5</ele>
        <time>2019-09-14T15:42:46Z</time>
      </trkpt>
      <trkpt lat="43.97087" lon="5.28948">
        <ele>570.5</ele>
        <time>2019-09-14T15:42:52Z</time>
      </trkpt>
      <trkpt lat="43.97088" lon="5.2895">
        <ele>571.5</ele>
        <time>2019-09-14T15:42:57Z</time>
      </trkpt>
      <trkpt lat="43.97093" lon="5.28956">
        <ele>568.5</ele>
        <time>2019-09-14T15:43:02Z</time>
      </trkpt>
      <trkpt lat="43.97096" lon="5.28964">
        <ele>564.5</ele>
        <time>2019-09-14T15:43:08Z</time>
      </trkpt>
      <trkpt lat="43.971" lon="5.28974">
        <ele>560.5</ele>
        <time>2019-09-14T15:43:14Z</time>
      </trkpt>
      <trkpt lat="43.97104" lon="5.28982">
        <ele>561.5</ele>
        <time>2019-09-14T15:43:19Z</time>
      </trkpt>
      <trkpt lat="43.97109" lon="5.28991">
        <ele>563.5</ele>
        <time>2019-09-14T15:43:25Z</time>
      </trkpt>
      <trkpt lat="43.97107" lon="5.28999">
        <ele>565.5</ele>
        <time>2019-09-14T15:43:31Z</time>
      </trkpt>
      <trkpt lat="43.97109" lon="5.29006">
        <ele>562.5</ele>
        <time>2019-09-14T15:43:36Z</time>
      </trkpt>
      <trkpt lat="43.97114" lon="5.29013">
        <ele>562.5</ele>
        <time>2019-09-14T15:43:42Z</time>
      </trkpt>
      <trkpt lat="43.97113" lon="5.29018">
        <ele>566.5</ele>
        <time>2019-09-14T15:43:49Z</time>
      </trkpt>
      <trkpt lat="43.97117" lon="5.29026">
        <ele>566.5</ele>
        <time>2019-09-14T15:43:54Z</time>
      </trkpt>
      <trkpt lat="43.97121" lon="5.29031">
        <ele>566.5</ele>
        <time>2019-09-14T15:43:59Z</time>
      </trkpt>
      <trkpt lat="43.97124" lon="5.29035">
        <ele>561.5</ele>
        <time>2019-09-14T15:44:05Z</time>
      </trkpt>
      <trkpt lat="43.97133" lon="5.29045">
        <ele>562.5</ele>
        <time>2019-09-14T15:44:11Z</time>
      </trkpt>
      <trkpt lat="43.97134" lon="5.29044">
        <ele>565.5</ele>
        <time>2019-09-14T15:44:18Z</time>
      </trkpt>
      <trkpt lat="43.97137" lon="5.2905">
        <ele>567.5</ele>
        <time>2019-09-14T15:44:23Z</time>
      </trkpt>
      <trkpt lat="43.97137" lon="5.29054">
        <ele>567.5</ele>
        <time>2019-09-14T15:44:28Z</time>
      </trkpt>
      <trkpt lat="43.97143" lon="5.29058">
        <ele>564.5</ele>
        <time>2019-09-14T15:44:33Z</time>
      </trkpt>
      <trkpt lat="43.97144" lon="5.29058">
        <ele>562.5</ele>
        <time>2019-09-14T15:44:39Z</time>
      </trkpt>
      <trkpt lat="43.97148" lon="5.29059">
        <ele>564.5</ele>
        <time>2019-09-14T15:44:44Z</time>
      </trkpt>
      <trkpt lat="43.97156" lon="5.29062">
        <ele>560.5</ele>
        <time>2019-09-14T15:44:49Z</time>
      </trkpt>
      <trkpt lat="43.9716" lon="5.29065">
        <ele>558.5</ele>
        <time>2019-09-14T15:44:54Z</time>
      </trkpt>
      <trkpt lat="43.97168" lon="5.2907">
        <ele>555.5</ele>
        <time>2019-09-14T15:45:00Z</time>
      </trkpt>
      <trkpt lat="43.97174" lon="5.29073">
        <ele>554.5</ele>
        <time>2019-09-14T15:45:06Z</time>
      </trkpt>
      <trkpt lat="43.97187" lon="5.29079">
        <ele>553.5</ele>
        <time>2019-09-14T15:45:11Z</time>
      </trkpt>
      <trkpt lat="43.97188" lon="5.29084">
        <ele>556.5</ele>
        <time>2019-09-14T15:45:16Z</time>
      </trkpt>
      <trkpt lat="43.97189" lon="5.29091">
        <ele>555.5</ele>
        <time>2019-09-14T15:45:22Z</time>
      </trkpt>
      <trkpt lat="43.97196" lon="5.29098">
        <ele>553.5</ele>
        <time>2019-09-14T15:45:28Z</time>
      </trkpt>
      <trkpt lat="43.972" lon="5.29106">
        <ele>552.5</ele>
        <time>2019-09-14T15:45:34Z</time>
      </trkpt>
      <trkpt lat="43.97203" lon="5.29117">
        <ele>552.5</ele>
        <time>2019-09-14T15:45:40Z</time>
      </trkpt>
      <trkpt lat="43.97204" lon="5.29115">
        <ele>554.5</ele>
        <time>2019-09-14T15:45:45Z</time>
      </trkpt>
      <trkpt lat="43.97202" lon="5.29125">
        <ele>554.5</ele>
        <time>2019-09-14T15:45:51Z</time>
      </trkpt>
      <trkpt lat="43.97196" lon="5.29125">
        <ele>553.5</ele>
        <time>2019-09-14T15:45:56Z</time>
      </trkpt>
      <trkpt lat="43.97201" lon="5.29141">
        <ele>548.5</ele>
        <time>2019-09-14T15:46:04Z</time>
      </trkpt>
      <trkpt lat="43.97204" lon="5.2915">
        <ele>549.5</ele>
        <time>2019-09-14T15:46:09Z</time>
      </trkpt>
      <trkpt lat="43.97207" lon="5.29154">
        <ele>551.5</ele>
        <time>2019-09-14T15:46:15Z</time>
      </trkpt>
      <trkpt lat="43.97207" lon="5.2916">
        <ele>547.5</ele>
        <time>2019-09-14T15:46:21Z</time>
      </trkpt>
      <trkpt lat="43.97209" lon="5.29166">
        <ele>541.5</ele>
        <time>2019-09-14T15:46:27Z</time>
      </trkpt>
      <trkpt lat="43.97202" lon="5.2917">
        <ele>543.5</ele>
        <time>2019-09-14T15:46:32Z</time>
      </trkpt>
      <trkpt lat="43.97201" lon="5.29175">
        <ele>543.5</ele>
        <time>2019-09-14T15:46:38Z</time>
      </trkpt>
      <trkpt lat="43.97199" lon="5.29185">
        <ele>546.5</ele>
        <time>2019-09-14T15:46:44Z</time>
      </trkpt>
      <trkpt lat="43.97196" lon="5.29193">
        <ele>547.5</ele>
        <time>2019-09-14T15:46:50Z</time>
      </trkpt>
      <trkpt lat="43.97195" lon="5.29197">
        <ele>549.5</ele>
        <time>2019-09-14T15:46:55Z</time>
      </trkpt>
      <trkpt lat="43.97195" lon="5.29206">
        <ele>552.5</ele>
        <time>2019-09-14T15:47:06Z</time>
      </trkpt>
      <trkpt lat="43.97196" lon="5.29207">
        <ele>551.5</ele>
        <time>2019-09-14T15:47:12Z</time>
      </trkpt>
      <trkpt lat="43.97195" lon="5.29208">
        <ele>552.5</ele>
        <time>2019-09-14T15:47:17Z</time>
      </trkpt>
      <trkpt lat="43.97195" lon="5.29208">
        <ele>552.5</ele>
        <time>2019-09-14T15:47:22Z</time>
      </trkpt>
      <trkpt lat="43.97195" lon="5.29208">
        <ele>552.5</ele>
        <time>2019-09-14T15:47:28Z</time>
      </trkpt>
      <trkpt lat="43.97195" lon="5.29208">
        <ele>551.5</ele>
        <time>2019-09-14T15:47:34Z</time>
      </trkpt>
      <trkpt lat="43.97195" lon="5.29208">
        <ele>551.5</ele>
        <time>2019-09-14T15:47:40Z</time>
      </trkpt>
      <trkpt lat="43.97194" lon="5.29216">
        <ele>550.5</ele>
        <time>2019-09-14T15:47:46Z</time>
      </trkpt>
      <trkpt lat="43.97191" lon="5.29237">
        <ele>550.5</ele>
        <time>2019-09-14T15:47:52Z</time>
      </trkpt>
      <trkpt lat="43.97191" lon="5.29253">
        <ele>548.5</ele>
        <time>2019-09-14T15:47:58Z</time>
      </trkpt>
      <trkpt lat="43.97192" lon="5.29263">
        <ele>546.5</ele>
        <time>2019-09-14T15:48:03Z</time>
      </trkpt>
      <trkpt lat="43.97189" lon="5.29265">
        <ele>545.5</ele>
        <time>2019-09-14T15:48:09Z</time>
      </trkpt>
      <trkpt lat="43.97191" lon="5.29273">
        <ele>544.5</ele>
        <time>2019-09-14T15:48:14Z</time>
      </trkpt>
      <trkpt lat="43.97197" lon="5.29283">
        <ele>540.5</ele>
        <time>2019-09-14T15:48:20Z</time>
      </trkpt>
      <trkpt lat="43.97203" lon="5.29297">
        <ele>539.5</ele>
        <time>2019-09-14T15:48:26Z</time>
      </trkpt>
      <trkpt lat="43.972" lon="5.29297">
        <ele>542.5</ele>
        <time>2019-09-14T15:48:31Z</time>
      </trkpt>
      <trkpt lat="43.97215" lon="5.29313">
        <ele>540.5</ele>
        <time>2019-09-14T15:48:37Z</time>
      </trkpt>
      <trkpt lat="43.97206" lon="5.2931">
        <ele>539.5</ele>
        <time>2019-09-14T15:48:42Z</time>
      </trkpt>
      <trkpt lat="43.97212" lon="5.29313">
        <ele>538.5</ele>
        <time>2019-09-14T15:48:47Z</time>
      </trkpt>
      <trkpt lat="43.97223" lon="5.29317">
        <ele>533.5</ele>
        <time>2019-09-14T15:48:53Z</time>
      </trkpt>
      <trkpt lat="43.97228" lon="5.2932">
        <ele>529.5</ele>
        <time>2019-09-14T15:48:58Z</time>
      </trkpt>
      <trkpt lat="43.97228" lon="5.29321">
        <ele>530.5</ele>
        <time>2019-09-14T15:49:03Z</time>
      </trkpt>
      <trkpt lat="43.97234" lon="5.29325">
        <ele>529.5</ele>
        <time>2019-09-14T15:49:09Z</time>
      </trkpt>
      <trkpt lat="43.97237" lon="5.29324">
        <ele>528.5</ele>
        <time>2019-09-14T15:49:14Z</time>
      </trkpt>
      <trkpt lat="43.97238" lon="5.29328">
        <ele>529.5</ele>
        <time>2019-09-14T15:49:19Z</time>
      </trkpt>
      <trkpt lat="43.97243" lon="5.29332">
        <ele>528.5</ele>
        <time>2019-09-14T15:49:24Z</time>
      </trkpt>
      <trkpt lat="43.9725" lon="5.29335">
        <ele>528.5</ele>
        <time>2019-09-14T15:49:30Z</time>
      </trkpt>
      <trkpt lat="43.97253" lon="5.29343">
        <ele>528.5</ele>
        <time>2019-09-14T15:49:35Z</time>
      </trkpt>
      <trkpt lat="43.97251" lon="5.29346">
        <ele>528.5</ele>
        <time>2019-09-14T15:49:40Z</time>
      </trkpt>
      <trkpt lat="43.97251" lon="5.29353">
        <ele>529.5</ele>
        <time>2019-09-14T15:49:46Z</time>
      </trkpt>
      <trkpt lat="43.97251" lon="5.29362">
        <ele>525.5</ele>
        <time>2019-09-14T15:49:51Z</time>
      </trkpt>
      <trkpt lat="43.97252" lon="5.29366">
        <ele>525.5</ele>
        <time>2019-09-14T15:49:57Z</time>
      </trkpt>
      <trkpt lat="43.97251" lon="5.29365">
        <ele>524.5</ele>
        <time>2019-09-14T15:50:02Z</time>
      </trkpt>
      <trkpt lat="43.9725" lon="5.29378">
        <ele>521.5</ele>
        <time>2019-09-14T15:50:08Z</time>
      </trkpt>
      <trkpt lat="43.97245" lon="5.29379">
        <ele>519.5</ele>
        <time>2019-09-14T15:50:14Z</time>
      </trkpt>
      <trkpt lat="43.9724" lon="5.29384">
        <ele>522.5</ele>
        <time>2019-09-14T15:50:20Z</time>
      </trkpt>
      <trkpt lat="43.97239" lon="5.29395">
        <ele>525.5</ele>
        <time>2019-09-14T15:50:25Z</time>
      </trkpt>
      <trkpt lat="43.97236" lon="5.29399">
        <ele>523.5</ele>
        <time>2019-09-14T15:50:31Z</time>
      </trkpt>
      <trkpt lat="43.97234" lon="5.29403">
        <ele>523.5</ele>
        <time>2019-09-14T15:50:36Z</time>
      </trkpt>
      <trkpt lat="43.97233" lon="5.2941">
        <ele>523.5</ele>
        <time>2019-09-14T15:50:42Z</time>
      </trkpt>
      <trkpt lat="43.9723" lon="5.29416">
        <ele>522.5</ele>
        <time>2019-09-14T15:50:47Z</time>
      </trkpt>
      <trkpt lat="43.97224" lon="5.29423">
        <ele>523.5</ele>
        <time>2019-09-14T15:50:52Z</time>
      </trkpt>
      <trkpt lat="43.9722" lon="5.29431">
        <ele>520.5</ele>
        <time>2019-09-14T15:50:58Z</time>
      </trkpt>
      <trkpt lat="43.97213" lon="5.29441">
        <ele>519.5</ele>
        <time>2019-09-14T15:51:04Z</time>
      </trkpt>
      <trkpt lat="43.97207" lon="5.29455">
        <ele>521.5</ele>
        <time>2019-09-14T15:51:10Z</time>
      </trkpt>
      <trkpt lat="43.97207" lon="5.2946">
        <ele>519.5</ele>
        <time>2019-09-14T15:51:15Z</time>
      </trkpt>
      <trkpt lat="43.97205" lon="5.29475">
        <ele>517.5</ele>
        <time>2019-09-14T15:51:20Z</time>
      </trkpt>
      <trkpt lat="43.97204" lon="5.29477">
        <ele>519.5</ele>
        <time>2019-09-14T15:51:26Z</time>
      </trkpt>
      <trkpt lat="43.97195" lon="5.29479">
        <ele>522.5</ele>
        <time>2019-09-14T15:51:32Z</time>
      </trkpt>
      <trkpt lat="43.97191" lon="5.29473">
        <ele>522.5</ele>
        <time>2019-09-14T15:51:38Z</time>
      </trkpt>
      <trkpt lat="43.97185" lon="5.29477">
        <ele>520.5</ele>
        <time>2019-09-14T15:51:43Z</time>
      </trkpt>
      <trkpt lat="43.9718" lon="5.29484">
        <ele>520.5</ele>
        <time>2019-09-14T15:51:49Z</time>
      </trkpt>
      <trkpt lat="43.97177" lon="5.29484">
        <ele>518.5</ele>
        <time>2019-09-14T15:51:55Z</time>
      </trkpt>
      <trkpt lat="43.97178" lon="5.29495">
        <ele>519.5</ele>
        <time>2019-09-14T15:52:00Z</time>
      </trkpt>
      <trkpt lat="43.97174" lon="5.29504">
        <ele>521.5</ele>
        <time>2019-09-14T15:52:05Z</time>
      </trkpt>
      <trkpt lat="43.97172" lon="5.2951">
        <ele>522.5</ele>
        <time>2019-09-14T15:52:11Z</time>
      </trkpt>
      <trkpt lat="43.97169" lon="5.29507">
        <ele>528.5</ele>
        <time>2019-09-14T15:52:17Z</time>
      </trkpt>
      <trkpt lat="43.97169" lon="5.29506">
        <ele>527.5</ele>
        <time>2019-09-14T15:52:23Z</time>
      </trkpt>
      <trkpt lat="43.9717" lon="5.29507">
        <ele>527.5</ele>
        <time>2019-09-14T15:52:28Z</time>
      </trkpt>
      <trkpt lat="43.97171" lon="5.29507">
        <ele>527.5</ele>
        <time>2019-09-14T15:52:34Z</time>
      </trkpt>
      <trkpt lat="43.97171" lon="5.29507">
        <ele>527.5</ele>
        <time>2019-09-14T15:52:40Z</time>
      </trkpt>
      <trkpt lat="43.97171" lon="5.29507">
        <ele>527.5</ele>
        <time>2019-09-14T15:52:45Z</time>
      </trkpt>
      <trkpt lat="43.9717" lon="5.29507">
        <ele>527.5</ele>
        <time>2019-09-14T15:52:51Z</time>
      </trkpt>
      <trkpt lat="43.97171" lon="5.29507">
        <ele>527.5</ele>
        <time>2019-09-14T15:52:56Z</time>
      </trkpt>
      <trkpt lat="43.97171" lon="5.29507">
        <ele>527.5</ele>
        <time>2019-09-14T15:53:01Z</time>
      </trkpt>
      <trkpt lat="43.97171" lon="5.29507">
        <ele>527.5</ele>
        <time>2019-09-14T15:53:07Z</time>
      </trkpt>
      <trkpt lat="43.97171" lon="5.29507">
        <ele>527.5</ele>
        <time>2019-09-14T15:53:13Z</time>
      </trkpt>
      <trkpt lat="43.9717" lon="5.29507">
        <ele>527.5</ele>
        <time>2019-09-14T15:53:18Z</time>
      </trkpt>
      <trkpt lat="43.9717" lon="5.29507">
        <ele>527.5</ele>
        <time>2019-09-14T15:53:23Z</time>
      </trkpt>
      <trkpt lat="43.9717" lon="5.29507">
        <ele>527.5</ele>
        <time>2019-09-14T15:53:28Z</time>
      </trkpt>
      <trkpt lat="43.97175" lon="5.29532">
        <ele>528.5</ele>
        <time>2019-09-14T15:53:35Z</time>
      </trkpt>
      <trkpt lat="43.97177" lon="5.29537">
        <ele>526.5</ele>
        <time>2019-09-14T15:53:40Z</time>
      </trkpt>
      <trkpt lat="43.97179" lon="5.29545">
        <ele>521.5</ele>
        <time>2019-09-14T15:53:46Z</time>
      </trkpt>
      <trkpt lat="43.97185" lon="5.29554">
        <ele>518.5</ele>
        <time>2019-09-14T15:53:51Z</time>
      </trkpt>
      <trkpt lat="43.97189" lon="5.29563">
        <ele>511.5</ele>
        <time>2019-09-14T15:53:57Z</time>
      </trkpt>
      <trkpt lat="43.97186" lon="5.2957">
        <ele>513.5</ele>
        <time>2019-09-14T15:54:03Z</time>
      </trkpt>
      <trkpt lat="43.97185" lon="5.29579">
        <ele>515.5</ele>
        <time>2019-09-14T15:54:09Z</time>
      </trkpt>
      <trkpt lat="43.97185" lon="5.29598">
        <ele>516.5</ele>
        <time>2019-09-14T15:54:15Z</time>
      </trkpt>
      <trkpt lat="43.97188" lon="5.29603">
        <ele>513.5</ele>
        <time>2019-09-14T15:54:20Z</time>
      </trkpt>
      <trkpt lat="43.97188" lon="5.29607">
        <ele>511.5</ele>
        <time>2019-09-14T15:54:26Z</time>
      </trkpt>
      <trkpt lat="43.97202" lon="5.29617">
        <ele>506.5</ele>
        <time>2019-09-14T15:54:31Z</time>
      </trkpt>
      <trkpt lat="43.97203" lon="5.29621">
        <ele>506.5</ele>
        <time>2019-09-14T15:54:37Z</time>
      </trkpt>
      <trkpt lat="43.97204" lon="5.29627">
        <ele>507.5</ele>
        <time>2019-09-14T15:54:43Z</time>
      </trkpt>
      <trkpt lat="43.97205" lon="5.29632">
        <ele>508.5</ele>
        <time>2019-09-14T15:54:49Z</time>
      </trkpt>
      <trkpt lat="43.97213" lon="5.29638">
        <ele>512.5</ele>
        <time>2019-09-14T15:54:54Z</time>
      </trkpt>
      <trkpt lat="43.97219" lon="5.29647">
        <ele>510.5</ele>
        <time>2019-09-14T15:55:00Z</time>
      </trkpt>
      <trkpt lat="43.97222" lon="5.29653">
        <ele>506.5</ele>
        <time>2019-09-14T15:55:06Z</time>
      </trkpt>
      <trkpt lat="43.97225" lon="5.29654">
        <ele>509.5</ele>
        <time>2019-09-14T15:55:11Z</time>
      </trkpt>
      <trkpt lat="43.97227" lon="5.29655">
        <ele>509.5</ele>
        <time>2019-09-14T15:55:18Z</time>
      </trkpt>
      <trkpt lat="43.97233" lon="5.29656">
        <ele>509.5</ele>
        <time>2019-09-14T15:55:23Z</time>
      </trkpt>
      <trkpt lat="43.97238" lon="5.29659">
        <ele>508.5</ele>
        <time>2019-09-14T15:55:28Z</time>
      </trkpt>
      <trkpt lat="43.97236" lon="5.29663">
        <ele>509.5</ele>
        <time>2019-09-14T15:55:34Z</time>
      </trkpt>
      <trkpt lat="43.97239" lon="5.29662">
        <ele>510.5</ele>
        <time>2019-09-14T15:55:40Z</time>
      </trkpt>
      <trkpt lat="43.9724" lon="5.29663">
        <ele>511.5</ele>
        <time>2019-09-14T15:55:46Z</time>
      </trkpt>
      <trkpt lat="43.97241" lon="5.29663">
        <ele>512.5</ele>
        <time>2019-09-14T15:55:52Z</time>
      </trkpt>
      <trkpt lat="43.97241" lon="5.29663">
        <ele>512.5</ele>
        <time>2019-09-14T15:55:58Z</time>
      </trkpt>
      <trkpt lat="43.97247" lon="5.29663">
        <ele>515.5</ele>
        <time>2019-09-14T15:56:03Z</time>
      </trkpt>
      <trkpt lat="43.97257" lon="5.29664">
        <ele>510.5</ele>
        <time>2019-09-14T15:56:08Z</time>
      </trkpt>
      <trkpt lat="43.97267" lon="5.29661">
        <ele>508.5</ele>
        <time>2019-09-14T15:56:13Z</time>
      </trkpt>
      <trkpt lat="43.97271" lon="5.29656">
        <ele>506.5</ele>
        <time>2019-09-14T15:56:19Z</time>
      </trkpt>
      <trkpt lat="43.97274" lon="5.29657">
        <ele>505.5</ele>
        <time>2019-09-14T15:56:25Z</time>
      </trkpt>
      <trkpt lat="43.97274" lon="5.29658">
        <ele>508.5</ele>
        <time>2019-09-14T15:56:31Z</time>
      </trkpt>
      <trkpt lat="43.97277" lon="5.29657">
        <ele>507.5</ele>
        <time>2019-09-14T15:56:37Z</time>
      </trkpt>
      <trkpt lat="43.97283" lon="5.2966">
        <ele>507.5</ele>
        <time>2019-09-14T15:56:42Z</time>
      </trkpt>
      <trkpt lat="43.97303" lon="5.29659">
        <ele>498.5</ele>
        <time>2019-09-14T15:56:47Z</time>
      </trkpt>
      <trkpt lat="43.97312" lon="5.29658">
        <ele>498.5</ele>
        <time>2019-09-14T15:56:53Z</time>
      </trkpt>
      <trkpt lat="43.97312" lon="5.29657">
        <ele>502.5</ele>
        <time>2019-09-14T15:56:59Z</time>
      </trkpt>
      <trkpt lat="43.97315" lon="5.29654">
        <ele>503.5</ele>
        <time>2019-09-14T15:57:04Z</time>
      </trkpt>
      <trkpt lat="43.97317" lon="5.29653">
        <ele>503.5</ele>
        <time>2019-09-14T15:57:09Z</time>
      </trkpt>
      <trkpt lat="43.97317" lon="5.29654">
        <ele>504.5</ele>
        <time>2019-09-14T15:57:15Z</time>
      </trkpt>
      <trkpt lat="43.97317" lon="5.29654">
        <ele>504.5</ele>
        <time>2019-09-14T15:57:20Z</time>
      </trkpt>
      <trkpt lat="43.97317" lon="5.29654">
        <ele>504.5</ele>
        <time>2019-09-14T15:57:25Z</time>
      </trkpt>
      <trkpt lat="43.97313" lon="5.29659">
        <ele>509.5</ele>
        <time>2019-09-14T15:57:31Z</time>
      </trkpt>
      <trkpt lat="43.97307" lon="5.29665">
        <ele>515.5</ele>
        <time>2019-09-14T15:57:37Z</time>
      </trkpt>
      <trkpt lat="43.973" lon="5.29664">
        <ele>516.5</ele>
        <time>2019-09-14T15:57:43Z</time>
      </trkpt>
      <trkpt lat="43.97296" lon="5.2967">
        <ele>522.5</ele>
        <time>2019-09-14T15:57:49Z</time>
      </trkpt>
      <trkpt lat="43.97295" lon="5.29674">
        <ele>522.5</ele>
        <time>2019-09-14T15:57:54Z</time>
      </trkpt>
      <trkpt lat="43.97291" lon="5.29675">
        <ele>525.5</ele>
        <time>2019-09-14T15:58:00Z</time>
      </trkpt>
      <trkpt lat="43.97284" lon="5.29677">
        <ele>526.5</ele>
        <time>2019-09-14T15:58:06Z</time>
      </trkpt>
      <trkpt lat="43.97282" lon="5.29679">
        <ele>525.5</ele>
        <time>2019-09-14T15:58:12Z</time>
      </trkpt>
      <trkpt lat="43.9728" lon="5.29679">
        <ele>525.5</ele>
        <time>2019-09-14T15:58:18Z</time>
      </trkpt>
      <trkpt lat="43.97273" lon="5.29684">
        <ele>524.5</ele>
        <time>2019-09-14T15:58:23Z</time>
      </trkpt>
      <trkpt lat="43.97264" lon="5.29687">
        <ele>526.5</ele>
        <time>2019-09-14T15:58:29Z</time>
      </trkpt>
      <trkpt lat="43.97261" lon="5.29692">
        <ele>524.5</ele>
        <time>2019-09-14T15:58:35Z</time>
      </trkpt>
      <trkpt lat="43.97256" lon="5.29693">
        <ele>527.5</ele>
        <time>2019-09-14T15:58:40Z</time>
      </trkpt>
      <trkpt lat="43.97243" lon="5.29695">
        <ele>525.5</ele>
        <time>2019-09-14T15:58:46Z</time>
      </trkpt>
      <trkpt lat="43.97232" lon="5.29698">
        <ele>519.5</ele>
        <time>2019-09-14T15:58:52Z</time>
      </trkpt>
      <trkpt lat="43.97227" lon="5.29695">
        <ele>517.5</ele>
        <time>2019-09-14T15:58:57Z</time>
      </trkpt>
      <trkpt lat="43.97224" lon="5.29698">
        <ele>520.5</ele>
        <time>2019-09-14T15:59:03Z</time>
      </trkpt>
      <trkpt lat="43.97218" lon="5.29703">
        <ele>520.5</ele>
        <time>2019-09-14T15:59:09Z</time>
      </trkpt>
      <trkpt lat="43.97217" lon="5.29705">
        <ele>519.5</ele>
        <time>2019-09-14T15:59:14Z</time>
      </trkpt>
      <trkpt lat="43.97212" lon="5.29705">
        <ele>518.5</ele>
        <time>2019-09-14T15:59:19Z</time>
      </trkpt>
      <trkpt lat="43.97207" lon="5.297">
        <ele>517.5</ele>
        <time>2019-09-14T15:59:25Z</time>
      </trkpt>
      <trkpt lat="43.97207" lon="5.29701">
        <ele>518.5</ele>
        <time>2019-09-14T15:59:31Z</time>
      </trkpt>
      <trkpt lat="43.97208" lon="5.29703">
        <ele>518.5</ele>
        <time>2019-09-14T15:59:36Z</time>
      </trkpt>
      <trkpt lat="43.97208" lon="5.29703">
        <ele>518.5</ele>
        <time>2019-09-14T15:59:42Z</time>
      </trkpt>
      <trkpt lat="43.97195" lon="5.29693">
        <ele>514.5</ele>
        <time>2019-09-14T15:59:48Z</time>
      </trkpt>
      <trkpt lat="43.97193" lon="5.29691">
        <ele>513.5</ele>
        <time>2019-09-14T15:59:53Z</time>
      </trkpt>
      <trkpt lat="43.97189" lon="5.29688">
        <ele>513.5</ele>
        <time>2019-09-14T15:59:59Z</time>
      </trkpt>
      <trkpt lat="43.97187" lon="5.29685">
        <ele>512.5</ele>
        <time>2019-09-14T16:00:05Z</time>
      </trkpt>
      <trkpt lat="43.97185" lon="5.29684">
        <ele>513.5</ele>
        <time>2019-09-14T16:00:11Z</time>
      </trkpt>
      <trkpt lat="43.97184" lon="5.29684">
        <ele>513.5</ele>
        <time>2019-09-14T16:00:16Z</time>
      </trkpt>
      <trkpt lat="43.97184" lon="5.29684">
        <ele>513.5</ele>
        <time>2019-09-14T16:00:22Z</time>
      </trkpt>
      <trkpt lat="43.97184" lon="5.29684">
        <ele>513.5</ele>
        <time>2019-09-14T16:00:27Z</time>
      </trkpt>
      <trkpt lat="43.97176" lon="5.29684">
        <ele>510.5</ele>
        <time>2019-09-14T16:00:33Z</time>
      </trkpt>
      <trkpt lat="43.9717" lon="5.29665">
        <ele>506.5</ele>
        <time>2019-09-14T16:00:39Z</time>
      </trkpt>
      <trkpt lat="43.97171" lon="5.29659">
        <ele>507.5</ele>
        <time>2019-09-14T16:00:45Z</time>
      </trkpt>
      <trkpt lat="43.97169" lon="5.29657">
        <ele>509.5</ele>
        <time>2019-09-14T16:00:51Z</time>
      </trkpt>
      <trkpt lat="43.97173" lon="5.29646">
        <ele>507.5</ele>
        <time>2019-09-14T16:00:56Z</time>
      </trkpt>
      <trkpt lat="43.97134" lon="5.29653">
        <ele>496.5</ele>
        <time>2019-09-14T16:01:01Z</time>
      </trkpt>
      <trkpt lat="43.9714" lon="5.29637">
        <ele>496.5</ele>
        <time>2019-09-14T16:01:06Z</time>
      </trkpt>
      <trkpt lat="43.97143" lon="5.29618">
        <ele>491.5</ele>
        <time>2019-09-14T16:01:12Z</time>
      </trkpt>
      <trkpt lat="43.97139" lon="5.29606">
        <ele>497.5</ele>
        <time>2019-09-14T16:01:18Z</time>
      </trkpt>
      <trkpt lat="43.97135" lon="5.296">
        <ele>501.5</ele>
        <time>2019-09-14T16:01:23Z</time>
      </trkpt>
      <trkpt lat="43.97133" lon="5.29595">
        <ele>503.5</ele>
        <time>2019-09-14T16:01:28Z</time>
      </trkpt>
      <trkpt lat="43.97129" lon="5.29582">
        <ele>499.5</ele>
        <time>2019-09-14T16:01:34Z</time>
      </trkpt>
      <trkpt lat="43.97128" lon="5.29576">
        <ele>501.5</ele>
        <time>2019-09-14T16:01:39Z</time>
      </trkpt>
      <trkpt lat="43.97125" lon="5.2957">
        <ele>504.5</ele>
        <time>2019-09-14T16:01:45Z</time>
      </trkpt>
      <trkpt lat="43.9712" lon="5.29563">
        <ele>506.5</ele>
        <time>2019-09-14T16:01:51Z</time>
      </trkpt>
      <trkpt lat="43.97118" lon="5.29554">
        <ele>509.5</ele>
        <time>2019-09-14T16:01:56Z</time>
      </trkpt>
      <trkpt lat="43.97113" lon="5.29553">
        <ele>509.5</ele>
        <time>2019-09-14T16:02:02Z</time>
      </trkpt>
      <trkpt lat="43.97111" lon="5.29547">
        <ele>510.5</ele>
        <time>2019-09-14T16:02:07Z</time>
      </trkpt>
      <trkpt lat="43.97108" lon="5.29544">
        <ele>511.5</ele>
        <time>2019-09-14T16:02:12Z</time>
      </trkpt>
      <trkpt lat="43.97106" lon="5.29538">
        <ele>511.5</ele>
        <time>2019-09-14T16:02:17Z</time>
      </trkpt>
      <trkpt lat="43.97101" lon="5.29535">
        <ele>509.5</ele>
        <time>2019-09-14T16:02:22Z</time>
      </trkpt>
      <trkpt lat="43.97097" lon="5.29532">
        <ele>508.5</ele>
        <time>2019-09-14T16:02:28Z</time>
      </trkpt>
      <trkpt lat="43.97091" lon="5.29526">
        <ele>503.5</ele>
        <time>2019-09-14T16:02:34Z</time>
      </trkpt>
      <trkpt lat="43.97085" lon="5.29521">
        <ele>502.5</ele>
        <time>2019-09-14T16:02:40Z</time>
      </trkpt>
      <trkpt lat="43.97079" lon="5.29517">
        <ele>499.5</ele>
        <time>2019-09-14T16:02:46Z</time>
      </trkpt>
      <trkpt lat="43.97071" lon="5.29514">
        <ele>499.5</ele>
        <time>2019-09-14T16:02:51Z</time>
      </trkpt>
      <trkpt lat="43.97065" lon="5.29513">
        <ele>496.5</ele>
        <time>2019-09-14T16:02:56Z</time>
      </trkpt>
      <trkpt lat="43.97064" lon="5.29509">
        <ele>497.5</ele>
        <time>2019-09-14T16:03:02Z</time>
      </trkpt>
      <trkpt lat="43.97056" lon="5.29509">
        <ele>493.5</ele>
        <time>2019-09-14T16:03:08Z</time>
      </trkpt>
      <trkpt lat="43.97049" lon="5.2951">
        <ele>492.5</ele>
        <time>2019-09-14T16:03:14Z</time>
      </trkpt>
      <trkpt lat="43.97049" lon="5.29507">
        <ele>490.5</ele>
        <time>2019-09-14T16:03:20Z</time>
      </trkpt>
      <trkpt lat="43.97046" lon="5.29505">
        <ele>494.5</ele>
        <time>2019-09-14T16:03:25Z</time>
      </trkpt>
      <trkpt lat="43.97038" lon="5.29502">
        <ele>492.5</ele>
        <time>2019-09-14T16:03:31Z</time>
      </trkpt>
      <trkpt lat="43.97028" lon="5.295">
        <ele>490.5</ele>
        <time>2019-09-14T16:03:36Z</time>
      </trkpt>
      <trkpt lat="43.97023" lon="5.29499">
        <ele>490.5</ele>
        <time>2019-09-14T16:03:42Z</time>
      </trkpt>
      <trkpt lat="43.97019" lon="5.29495">
        <ele>488.5</ele>
        <time>2019-09-14T16:03:48Z</time>
      </trkpt>
      <trkpt lat="43.97021" lon="5.29491">
        <ele>489.5</ele>
        <time>2019-09-14T16:03:54Z</time>
      </trkpt>
      <trkpt lat="43.97012" lon="5.29491">
        <ele>491.5</ele>
        <time>2019-09-14T16:04:00Z</time>
      </trkpt>
      <trkpt lat="43.97008" lon="5.29488">
        <ele>487.5</ele>
        <time>2019-09-14T16:04:05Z</time>
      </trkpt>
      <trkpt lat="43.96998" lon="5.29484">
        <ele>485.5</ele>
        <time>2019-09-14T16:04:11Z</time>
      </trkpt>
      <trkpt lat="43.96993" lon="5.29486">
        <ele>485.5</ele>
        <time>2019-09-14T16:04:16Z</time>
      </trkpt>
      <trkpt lat="43.96993" lon="5.29483">
        <ele>490.5</ele>
        <time>2019-09-14T16:04:22Z</time>
      </trkpt>
      <trkpt lat="43.96992" lon="5.2948">
        <ele>490.5</ele>
        <time>2019-09-14T16:04:27Z</time>
      </trkpt>
      <trkpt lat="43.96986" lon="5.29476">
        <ele>490.5</ele>
        <time>2019-09-14T16:04:32Z</time>
      </trkpt>
      <trkpt lat="43.96978" lon="5.29471">
        <ele>490.5</ele>
        <time>2019-09-14T16:04:38Z</time>
      </trkpt>
      <trkpt lat="43.96969" lon="5.29463">
        <ele>488.5</ele>
        <time>2019-09-14T16:04:43Z</time>
      </trkpt>
      <trkpt lat="43.96967" lon="5.2946">
        <ele>485.5</ele>
        <time>2019-09-14T16:04:48Z</time>
      </trkpt>
      <trkpt lat="43.96965" lon="5.29457">
        <ele>484.5</ele>
        <time>2019-09-14T16:04:54Z</time>
      </trkpt>
      <trkpt lat="43.96956" lon="5.29458">
        <ele>486.5</ele>
        <time>2019-09-14T16:05:00Z</time>
      </trkpt>
      <trkpt lat="43.96947" lon="5.29456">
        <ele>491.5</ele>
        <time>2019-09-14T16:05:06Z</time>
      </trkpt>
      <trkpt lat="43.96937" lon="5.29456">
        <ele>489.5</ele>
        <time>2019-09-14T16:05:12Z</time>
      </trkpt>
      <trkpt lat="43.96932" lon="5.29456">
        <ele>494.5</ele>
        <time>2019-09-14T16:05:18Z</time>
      </trkpt>
      <trkpt lat="43.96929" lon="5.29454">
        <ele>496.5</ele>
        <time>2019-09-14T16:05:23Z</time>
      </trkpt>
      <trkpt lat="43.9692" lon="5.29459">
        <ele>494.5</ele>
        <time>2019-09-14T16:05:29Z</time>
      </trkpt>
      <trkpt lat="43.96912" lon="5.29459">
        <ele>494.5</ele>
        <time>2019-09-14T16:05:35Z</time>
      </trkpt>
      <trkpt lat="43.96911" lon="5.29455">
        <ele>492.5</ele>
        <time>2019-09-14T16:05:41Z</time>
      </trkpt>
      <trkpt lat="43.96904" lon="5.29444">
        <ele>492.5</ele>
        <time>2019-09-14T16:05:47Z</time>
      </trkpt>
      <trkpt lat="43.96911" lon="5.29459">
        <ele>495.5</ele>
        <time>2019-09-14T16:05:53Z</time>
      </trkpt>
      <trkpt lat="43.96908" lon="5.29465">
        <ele>496.5</ele>
        <time>2019-09-14T16:05:58Z</time>
      </trkpt>
      <trkpt lat="43.96903" lon="5.29467">
        <ele>496.5</ele>
        <time>2019-09-14T16:06:03Z</time>
      </trkpt>
      <trkpt lat="43.96896" lon="5.29469">
        <ele>496.5</ele>
        <time>2019-09-14T16:06:09Z</time>
      </trkpt>
      <trkpt lat="43.96887" lon="5.29473">
        <ele>494.5</ele>
        <time>2019-09-14T16:06:16Z</time>
      </trkpt>
      <trkpt lat="43.96883" lon="5.29472">
        <ele>492.5</ele>
        <time>2019-09-14T16:06:22Z</time>
      </trkpt>
      <trkpt lat="43.96886" lon="5.29481">
        <ele>494.5</ele>
        <time>2019-09-14T16:06:28Z</time>
      </trkpt>
      <trkpt lat="43.96886" lon="5.29483">
        <ele>494.5</ele>
        <time>2019-09-14T16:06:34Z</time>
      </trkpt>
      <trkpt lat="43.96886" lon="5.29484">
        <ele>494.5</ele>
        <time>2019-09-14T16:06:40Z</time>
      </trkpt>
      <trkpt lat="43.96886" lon="5.29484">
        <ele>494.5</ele>
        <time>2019-09-14T16:06:45Z</time>
      </trkpt>
      <trkpt lat="43.96886" lon="5.29484">
        <ele>494.5</ele>
        <time>2019-09-14T16:06:51Z</time>
      </trkpt>
      <trkpt lat="43.96886" lon="5.29484">
        <ele>494.5</ele>
        <time>2019-09-14T16:06:56Z</time>
      </trkpt>
      <trkpt lat="43.96879" lon="5.2948">
        <ele>496.5</ele>
        <time>2019-09-14T16:07:01Z</time>
      </trkpt>
      <trkpt lat="43.96871" lon="5.29475">
        <ele>494.5</ele>
        <time>2019-09-14T16:07:06Z</time>
      </trkpt>
      <trkpt lat="43.96865" lon="5.29479">
        <ele>494.5</ele>
        <time>2019-09-14T16:07:12Z</time>
      </trkpt>
      <trkpt lat="43.96861" lon="5.29475">
        <ele>494.5</ele>
        <time>2019-09-14T16:07:17Z</time>
      </trkpt>
      <trkpt lat="43.96853" lon="5.29473">
        <ele>496.5</ele>
        <time>2019-09-14T16:07:23Z</time>
      </trkpt>
      <trkpt lat="43.96847" lon="5.29478">
        <ele>496.5</ele>
        <time>2019-09-14T16:07:29Z</time>
      </trkpt>
      <trkpt lat="43.96843" lon="5.29477">
        <ele>498.5</ele>
        <time>2019-09-14T16:07:35Z</time>
      </trkpt>
      <trkpt lat="43.9684" lon="5.29473">
        <ele>500.5</ele>
        <time>2019-09-14T16:07:40Z</time>
      </trkpt>
      <trkpt lat="43.96833" lon="5.29469">
        <ele>499.5</ele>
        <time>2019-09-14T16:07:46Z</time>
      </trkpt>
      <trkpt lat="43.96825" lon="5.29465">
        <ele>495.5</ele>
        <time>2019-09-14T16:07:51Z</time>
      </trkpt>
      <trkpt lat="43.96822" lon="5.29465">
        <ele>497.5</ele>
        <time>2019-09-14T16:07:57Z</time>
      </trkpt>
      <trkpt lat="43.96818" lon="5.29462">
        <ele>499.5</ele>
        <time>2019-09-14T16:08:02Z</time>
      </trkpt>
      <trkpt lat="43.96815" lon="5.29459">
        <ele>501.5</ele>
        <time>2019-09-14T16:08:08Z</time>
      </trkpt>
      <trkpt lat="43.9681" lon="5.29456">
        <ele>499.5</ele>
        <time>2019-09-14T16:08:13Z</time>
      </trkpt>
      <trkpt lat="43.96805" lon="5.29459">
        <ele>496.5</ele>
        <time>2019-09-14T16:08:18Z</time>
      </trkpt>
      <trkpt lat="43.96797" lon="5.29454">
        <ele>496.5</ele>
        <time>2019-09-14T16:08:24Z</time>
      </trkpt>
      <trkpt lat="43.96797" lon="5.29452">
        <ele>492.5</ele>
        <time>2019-09-14T16:08:30Z</time>
      </trkpt>
      <trkpt lat="43.96792" lon="5.29451">
        <ele>493.5</ele>
        <time>2019-09-14T16:08:35Z</time>
      </trkpt>
      <trkpt lat="43.96781" lon="5.29446">
        <ele>494.5</ele>
        <time>2019-09-14T16:08:41Z</time>
      </trkpt>
      <trkpt lat="43.96778" lon="5.29442">
        <ele>493.5</ele>
        <time>2019-09-14T16:08:47Z</time>
      </trkpt>
      <trkpt lat="43.96772" lon="5.2944">
        <ele>493.5</ele>
        <time>2019-09-14T16:08:52Z</time>
      </trkpt>
      <trkpt lat="43.96765" lon="5.29438">
        <ele>488.5</ele>
        <time>2019-09-14T16:08:58Z</time>
      </trkpt>
      <trkpt lat="43.96761" lon="5.29442">
        <ele>486.5</ele>
        <time>2019-09-14T16:09:03Z</time>
      </trkpt>
      <trkpt lat="43.96756" lon="5.29443">
        <ele>485.5</ele>
        <time>2019-09-14T16:09:09Z</time>
      </trkpt>
      <trkpt lat="43.9675" lon="5.29444">
        <ele>484.5</ele>
        <time>2019-09-14T16:09:15Z</time>
      </trkpt>
      <trkpt lat="43.96744" lon="5.29447">
        <ele>481.5</ele>
        <time>2019-09-14T16:09:21Z</time>
      </trkpt>
      <trkpt lat="43.96737" lon="5.29452">
        <ele>482.5</ele>
        <time>2019-09-14T16:09:27Z</time>
      </trkpt>
      <trkpt lat="43.96733" lon="5.29457">
        <ele>479.5</ele>
        <time>2019-09-14T16:09:33Z</time>
      </trkpt>
      <trkpt lat="43.96728" lon="5.2946">
        <ele>481.5</ele>
        <time>2019-09-14T16:09:39Z</time>
      </trkpt>
      <trkpt lat="43.9673" lon="5.29468">
        <ele>481.5</ele>
        <time>2019-09-14T16:09:45Z</time>
      </trkpt>
      <trkpt lat="43.96732" lon="5.29474">
        <ele>483.5</ele>
        <time>2019-09-14T16:09:51Z</time>
      </trkpt>
      <trkpt lat="43.96728" lon="5.29474">
        <ele>482.5</ele>
        <time>2019-09-14T16:09:57Z</time>
      </trkpt>
      <trkpt lat="43.96727" lon="5.29478">
        <ele>483.5</ele>
        <time>2019-09-14T16:10:02Z</time>
      </trkpt>
      <trkpt lat="43.96731" lon="5.29486">
        <ele>484.5</ele>
        <time>2019-09-14T16:10:08Z</time>
      </trkpt>
      <trkpt lat="43.96729" lon="5.29486">
        <ele>483.5</ele>
        <time>2019-09-14T16:10:14Z</time>
      </trkpt>
      <trkpt lat="43.96731" lon="5.29482">
        <ele>472.5</ele>
        <time>2019-09-14T16:12:02Z</time>
      </trkpt>
      <trkpt lat="43.96727" lon="5.29481">
        <ele>472.5</ele>
        <time>2019-09-14T16:12:07Z</time>
      </trkpt>
      <trkpt lat="43.96724" lon="5.29475">
        <ele>465.5</ele>
        <time>2019-09-14T16:12:13Z</time>
      </trkpt>
      <trkpt lat="43.96713" lon="5.29474">
        <ele>467.5</ele>
        <time>2019-09-14T16:12:19Z</time>
      </trkpt>
      <trkpt lat="43.96711" lon="5.29472">
        <ele>467.5</ele>
        <time>2019-09-14T16:12:24Z</time>
      </trkpt>
      <trkpt lat="43.96704" lon="5.29478">
        <ele>470.5</ele>
        <time>2019-09-14T16:12:30Z</time>
      </trkpt>
      <trkpt lat="43.96699" lon="5.29474">
        <ele>476.5</ele>
        <time>2019-09-14T16:12:36Z</time>
      </trkpt>
      <trkpt lat="43.96698" lon="5.29473">
        <ele>475.5</ele>
        <time>2019-09-14T16:12:41Z</time>
      </trkpt>
      <trkpt lat="43.96691" lon="5.29477">
        <ele>475.5</ele>
        <time>2019-09-14T16:12:46Z</time>
      </trkpt>
      <trkpt lat="43.96684" lon="5.29477">
        <ele>478.5</ele>
        <time>2019-09-14T16:12:52Z</time>
      </trkpt>
      <trkpt lat="43.96677" lon="5.29483">
        <ele>476.5</ele>
        <time>2019-09-14T16:12:58Z</time>
      </trkpt>
      <trkpt lat="43.96671" lon="5.29481">
        <ele>477.5</ele>
        <time>2019-09-14T16:13:04Z</time>
      </trkpt>
      <trkpt lat="43.9667" lon="5.29486">
        <ele>476.5</ele>
        <time>2019-09-14T16:13:09Z</time>
      </trkpt>
      <trkpt lat="43.96665" lon="5.29489">
        <ele>477.5</ele>
        <time>2019-09-14T16:13:17Z</time>
      </trkpt>
      <trkpt lat="43.96658" lon="5.29491">
        <ele>476.5</ele>
        <time>2019-09-14T16:13:23Z</time>
      </trkpt>
      <trkpt lat="43.9665" lon="5.29492">
        <ele>468.5</ele>
        <time>2019-09-14T16:13:29Z</time>
      </trkpt>
      <trkpt lat="43.9665" lon="5.29492">
        <ele>468.5</ele>
        <time>2019-09-14T16:13:35Z</time>
      </trkpt>
      <trkpt lat="43.9665" lon="5.29492">
        <ele>468.5</ele>
        <time>2019-09-14T16:13:41Z</time>
      </trkpt>
      <trkpt lat="43.96642" lon="5.29492">
        <ele>469.5</ele>
        <time>2019-09-14T16:13:47Z</time>
      </trkpt>
      <trkpt lat="43.96639" lon="5.29498">
        <ele>467.5</ele>
        <time>2019-09-14T16:13:52Z</time>
      </trkpt>
      <trkpt lat="43.96634" lon="5.29501">
        <ele>467.5</ele>
        <time>2019-09-14T16:13:58Z</time>
      </trkpt>
      <trkpt lat="43.96631" lon="5.29502">
        <ele>468.5</ele>
        <time>2019-09-14T16:14:03Z</time>
      </trkpt>
      <trkpt lat="43.9663" lon="5.29502">
        <ele>470.5</ele>
        <time>2019-09-14T16:14:08Z</time>
      </trkpt>
      <trkpt lat="43.96622" lon="5.29498">
        <ele>469.5</ele>
        <time>2019-09-14T16:14:13Z</time>
      </trkpt>
      <trkpt lat="43.96621" lon="5.29501">
        <ele>469.5</ele>
        <time>2019-09-14T16:14:18Z</time>
      </trkpt>
      <trkpt lat="43.9662" lon="5.29501">
        <ele>468.5</ele>
        <time>2019-09-14T16:14:24Z</time>
      </trkpt>
      <trkpt lat="43.9662" lon="5.29501">
        <ele>468.5</ele>
        <time>2019-09-14T16:14:30Z</time>
      </trkpt>
      <trkpt lat="43.9662" lon="5.29501">
        <ele>468.5</ele>
        <time>2019-09-14T16:14:35Z</time>
      </trkpt>
      <trkpt lat="43.96608" lon="5.29496">
        <ele>464.5</ele>
        <time>2019-09-14T16:14:41Z</time>
      </trkpt>
      <trkpt lat="43.96606" lon="5.29497">
        <ele>461.5</ele>
        <time>2019-09-14T16:14:46Z</time>
      </trkpt>
      <trkpt lat="43.96605" lon="5.29497">
        <ele>461.5</ele>
        <time>2019-09-14T16:14:51Z</time>
      </trkpt>
      <trkpt lat="43.96603" lon="5.29496">
        <ele>461.5</ele>
        <time>2019-09-14T16:14:57Z</time>
      </trkpt>
      <trkpt lat="43.96603" lon="5.29498">
        <ele>462.5</ele>
        <time>2019-09-14T16:15:03Z</time>
      </trkpt>
      <trkpt lat="43.96603" lon="5.29501">
        <ele>460.5</ele>
        <time>2019-09-14T16:15:08Z</time>
      </trkpt>
      <trkpt lat="43.96603" lon="5.29501">
        <ele>461.5</ele>
        <time>2019-09-14T16:15:14Z</time>
      </trkpt>
      <trkpt lat="43.96603" lon="5.295">
        <ele>461.5</ele>
        <time>2019-09-14T16:15:20Z</time>
      </trkpt>
      <trkpt lat="43.96603" lon="5.295">
        <ele>461.5</ele>
        <time>2019-09-14T16:15:25Z</time>
      </trkpt>
      <trkpt lat="43.96603" lon="5.295">
        <ele>461.5</ele>
        <time>2019-09-14T16:15:30Z</time>
      </trkpt>
      <trkpt lat="43.96603" lon="5.295">
        <ele>461.5</ele>
        <time>2019-09-14T16:15:36Z</time>
      </trkpt>
      <trkpt lat="43.96603" lon="5.295">
        <ele>461.5</ele>
        <time>2019-09-14T16:15:41Z</time>
      </trkpt>
      <trkpt lat="43.96603" lon="5.295">
        <ele>461.5</ele>
        <time>2019-09-14T16:15:47Z</time>
      </trkpt>
      <trkpt lat="43.96603" lon="5.295">
        <ele>461.5</ele>
        <time>2019-09-14T16:15:52Z</time>
      </trkpt>
      <trkpt lat="43.96599" lon="5.29502">
        <ele>462.5</ele>
        <time>2019-09-14T16:15:58Z</time>
      </trkpt>
      <trkpt lat="43.96594" lon="5.29507">
        <ele>465.5</ele>
        <time>2019-09-14T16:16:04Z</time>
      </trkpt>
      <trkpt lat="43.9659" lon="5.29509">
        <ele>462.5</ele>
        <time>2019-09-14T16:16:10Z</time>
      </trkpt>
      <trkpt lat="43.96585" lon="5.29509">
        <ele>460.5</ele>
        <time>2019-09-14T16:16:16Z</time>
      </trkpt>
      <trkpt lat="43.96583" lon="5.29511">
        <ele>458.5</ele>
        <time>2019-09-14T16:16:22Z</time>
      </trkpt>
      <trkpt lat="43.96577" lon="5.2951">
        <ele>456.5</ele>
        <time>2019-09-14T16:16:27Z</time>
      </trkpt>
      <trkpt lat="43.96572" lon="5.29511">
        <ele>454.5</ele>
        <time>2019-09-14T16:16:33Z</time>
      </trkpt>
      <trkpt lat="43.9657" lon="5.29515">
        <ele>454.5</ele>
        <time>2019-09-14T16:16:39Z</time>
      </trkpt>
      <trkpt lat="43.96567" lon="5.29515">
        <ele>455.5</ele>
        <time>2019-09-14T16:16:45Z</time>
      </trkpt>
      <trkpt lat="43.96561" lon="5.29513">
        <ele>450.5</ele>
        <time>2019-09-14T16:16:51Z</time>
      </trkpt>
      <trkpt lat="43.96556" lon="5.29513">
        <ele>452.5</ele>
        <time>2019-09-14T16:16:57Z</time>
      </trkpt>
      <trkpt lat="43.96552" lon="5.29513">
        <ele>449.5</ele>
        <time>2019-09-14T16:17:03Z</time>
      </trkpt>
      <trkpt lat="43.96547" lon="5.29514">
        <ele>448.5</ele>
        <time>2019-09-14T16:17:09Z</time>
      </trkpt>
      <trkpt lat="43.96548" lon="5.29511">
        <ele>451.5</ele>
        <time>2019-09-14T16:17:14Z</time>
      </trkpt>
      <trkpt lat="43.96545" lon="5.29506">
        <ele>448.5</ele>
        <time>2019-09-14T16:17:19Z</time>
      </trkpt>
      <trkpt lat="43.96544" lon="5.29507">
        <ele>449.5</ele>
        <time>2019-09-14T16:17:24Z</time>
      </trkpt>
      <trkpt lat="43.96543" lon="5.29507">
        <ele>451.5</ele>
        <time>2019-09-14T16:17:30Z</time>
      </trkpt>
      <trkpt lat="43.96543" lon="5.29506">
        <ele>451.5</ele>
        <time>2019-09-14T16:17:36Z</time>
      </trkpt>
      <trkpt lat="43.96543" lon="5.29506">
        <ele>451.5</ele>
        <time>2019-09-14T16:17:42Z</time>
      </trkpt>
      <trkpt lat="43.96537" lon="5.29505">
        <ele>450.5</ele>
        <time>2019-09-14T16:17:48Z</time>
      </trkpt>
      <trkpt lat="43.96529" lon="5.295">
        <ele>449.5</ele>
        <time>2019-09-14T16:17:53Z</time>
      </trkpt>
      <trkpt lat="43.96527" lon="5.29495">
        <ele>446.5</ele>
        <time>2019-09-14T16:17:58Z</time>
      </trkpt>
      <trkpt lat="43.96521" lon="5.29495">
        <ele>445.5</ele>
        <time>2019-09-14T16:18:03Z</time>
      </trkpt>
      <trkpt lat="43.96515" lon="5.29494">
        <ele>449.5</ele>
        <time>2019-09-14T16:18:08Z</time>
      </trkpt>
      <trkpt lat="43.96511" lon="5.29489">
        <ele>448.5</ele>
        <time>2019-09-14T16:18:14Z</time>
      </trkpt>
      <trkpt lat="43.96514" lon="5.29483">
        <ele>446.5</ele>
        <time>2019-09-14T16:18:19Z</time>
      </trkpt>
      <trkpt lat="43.96511" lon="5.29481">
        <ele>448.5</ele>
        <time>2019-09-14T16:18:24Z</time>
      </trkpt>
      <trkpt lat="43.96506" lon="5.29479">
        <ele>445.5</ele>
        <time>2019-09-14T16:18:30Z</time>
      </trkpt>
      <trkpt lat="43.96504" lon="5.29475">
        <ele>444.5</ele>
        <time>2019-09-14T16:18:35Z</time>
      </trkpt>
      <trkpt lat="43.96504" lon="5.29472">
        <ele>442.5</ele>
        <time>2019-09-14T16:18:40Z</time>
      </trkpt>
      <trkpt lat="43.96496" lon="5.29473">
        <ele>437.5</ele>
        <time>2019-09-14T16:18:45Z</time>
      </trkpt>
      <trkpt lat="43.96495" lon="5.29474">
        <ele>436.5</ele>
        <time>2019-09-14T16:18:51Z</time>
      </trkpt>
      <trkpt lat="43.96493" lon="5.29474">
        <ele>437.5</ele>
        <time>2019-09-14T16:18:57Z</time>
      </trkpt>
      <trkpt lat="43.96492" lon="5.29474">
        <ele>437.5</ele>
        <time>2019-09-14T16:19:03Z</time>
      </trkpt>
      <trkpt lat="43.96485" lon="5.29469">
        <ele>440.5</ele>
        <time>2019-09-14T16:19:11Z</time>
      </trkpt>
      <trkpt lat="43.96477" lon="5.29466">
        <ele>444.5</ele>
        <time>2019-09-14T16:19:16Z</time>
      </trkpt>
      <trkpt lat="43.96472" lon="5.29463">
        <ele>438.5</ele>
        <time>2019-09-14T16:19:21Z</time>
      </trkpt>
      <trkpt lat="43.96468" lon="5.29459">
        <ele>437.5</ele>
        <time>2019-09-14T16:19:27Z</time>
      </trkpt>
      <trkpt lat="43.96469" lon="5.29457">
        <ele>436.5</ele>
        <time>2019-09-14T16:19:32Z</time>
      </trkpt>
      <trkpt lat="43.96468" lon="5.29457">
        <ele>436.5</ele>
        <time>2019-09-14T16:19:38Z</time>
      </trkpt>
      <trkpt lat="43.96468" lon="5.29457">
        <ele>436.5</ele>
        <time>2019-09-14T16:19:44Z</time>
      </trkpt>
      <trkpt lat="43.96468" lon="5.29457">
        <ele>436.5</ele>
        <time>2019-09-14T16:19:50Z</time>
      </trkpt>
      <trkpt lat="43.96468" lon="5.29457">
        <ele>436.5</ele>
        <time>2019-09-14T16:19:56Z</time>
      </trkpt>
      <trkpt lat="43.96468" lon="5.29457">
        <ele>436.5</ele>
        <time>2019-09-14T16:20:01Z</time>
      </trkpt>
      <trkpt lat="43.96459" lon="5.29455">
        <ele>436.5</ele>
        <time>2019-09-14T16:20:07Z</time>
      </trkpt>
      <trkpt lat="43.96452" lon="5.29456">
        <ele>437.5</ele>
        <time>2019-09-14T16:20:12Z</time>
      </trkpt>
      <trkpt lat="43.96443" lon="5.29465">
        <ele>436.5</ele>
        <time>2019-09-14T16:20:17Z</time>
      </trkpt>
      <trkpt lat="43.96443" lon="5.29462">
        <ele>434.5</ele>
        <time>2019-09-14T16:20:23Z</time>
      </trkpt>
      <trkpt lat="43.96442" lon="5.2946">
        <ele>434.5</ele>
        <time>2019-09-14T16:20:28Z</time>
      </trkpt>
      <trkpt lat="43.96442" lon="5.2946">
        <ele>434.5</ele>
        <time>2019-09-14T16:20:34Z</time>
      </trkpt>
      <trkpt lat="43.96442" lon="5.2946">
        <ele>434.5</ele>
        <time>2019-09-14T16:20:39Z</time>
      </trkpt>
      <trkpt lat="43.96442" lon="5.29459">
        <ele>434.5</ele>
        <time>2019-09-14T16:20:45Z</time>
      </trkpt>
      <trkpt lat="43.96442" lon="5.29459">
        <ele>434.5</ele>
        <time>2019-09-14T16:20:50Z</time>
      </trkpt>
      <trkpt lat="43.96442" lon="5.29459">
        <ele>434.5</ele>
        <time>2019-09-14T16:20:56Z</time>
      </trkpt>
      <trkpt lat="43.96442" lon="5.29459">
        <ele>434.5</ele>
        <time>2019-09-14T16:21:01Z</time>
      </trkpt>
      <trkpt lat="43.96442" lon="5.29459">
        <ele>434.5</ele>
        <time>2019-09-14T16:21:07Z</time>
      </trkpt>
      <trkpt lat="43.96442" lon="5.29459">
        <ele>434.5</ele>
        <time>2019-09-14T16:21:12Z</time>
      </trkpt>
      <trkpt lat="43.96442" lon="5.29459">
        <ele>434.5</ele>
        <time>2019-09-14T16:21:18Z</time>
      </trkpt>
      <trkpt lat="43.96442" lon="5.29459">
        <ele>434.5</ele>
        <time>2019-09-14T16:21:23Z</time>
      </trkpt>
      <trkpt lat="43.9641" lon="5.29451">
        <ele>416.5</ele>
        <time>2019-09-14T16:21:29Z</time>
      </trkpt>
      <trkpt lat="43.96415" lon="5.29438">
        <ele>415.5</ele>
        <time>2019-09-14T16:21:34Z</time>
      </trkpt>
      <trkpt lat="43.96414" lon="5.29431">
        <ele>416.5</ele>
        <time>2019-09-14T16:21:40Z</time>
      </trkpt>
      <trkpt lat="43.96408" lon="5.29425">
        <ele>418.5</ele>
        <time>2019-09-14T16:21:45Z</time>
      </trkpt>
      <trkpt lat="43.96407" lon="5.29411">
        <ele>420.5</ele>
        <time>2019-09-14T16:21:51Z</time>
      </trkpt>
      <trkpt lat="43.96406" lon="5.29403">
        <ele>420.5</ele>
        <time>2019-09-14T16:21:56Z</time>
      </trkpt>
      <trkpt lat="43.96405" lon="5.29402">
        <ele>420.5</ele>
        <time>2019-09-14T16:22:01Z</time>
      </trkpt>
      <trkpt lat="43.96398" lon="5.29403">
        <ele>421.5</ele>
        <time>2019-09-14T16:22:07Z</time>
      </trkpt>
      <trkpt lat="43.96392" lon="5.294">
        <ele>425.5</ele>
        <time>2019-09-14T16:22:13Z</time>
      </trkpt>
      <trkpt lat="43.96388" lon="5.29399">
        <ele>427.5</ele>
        <time>2019-09-14T16:22:19Z</time>
      </trkpt>
      <trkpt lat="43.96387" lon="5.29399">
        <ele>426.5</ele>
        <time>2019-09-14T16:22:24Z</time>
      </trkpt>
      <trkpt lat="43.96386" lon="5.294">
        <ele>427.5</ele>
        <time>2019-09-14T16:22:29Z</time>
      </trkpt>
      <trkpt lat="43.96383" lon="5.29401">
        <ele>428.5</ele>
        <time>2019-09-14T16:22:35Z</time>
      </trkpt>
      <trkpt lat="43.96376" lon="5.294">
        <ele>428.5</ele>
        <time>2019-09-14T16:22:40Z</time>
      </trkpt>
      <trkpt lat="43.96373" lon="5.29397">
        <ele>424.5</ele>
        <time>2019-09-14T16:22:46Z</time>
      </trkpt>
      <trkpt lat="43.96371" lon="5.29398">
        <ele>425.5</ele>
        <time>2019-09-14T16:22:52Z</time>
      </trkpt>
      <trkpt lat="43.96369" lon="5.29399">
        <ele>425.5</ele>
        <time>2019-09-14T16:22:57Z</time>
      </trkpt>
      <trkpt lat="43.96369" lon="5.29399">
        <ele>425.5</ele>
        <time>2019-09-14T16:23:02Z</time>
      </trkpt>
      <trkpt lat="43.96357" lon="5.29399">
        <ele>430.5</ele>
        <time>2019-09-14T16:23:07Z</time>
      </trkpt>
      <trkpt lat="43.9635" lon="5.29396">
        <ele>429.5</ele>
        <time>2019-09-14T16:23:12Z</time>
      </trkpt>
      <trkpt lat="43.96343" lon="5.29395">
        <ele>422.5</ele>
        <time>2019-09-14T16:23:18Z</time>
      </trkpt>
      <trkpt lat="43.96337" lon="5.29396">
        <ele>423.5</ele>
        <time>2019-09-14T16:23:24Z</time>
      </trkpt>
      <trkpt lat="43.96332" lon="5.29397">
        <ele>425.5</ele>
        <time>2019-09-14T16:23:29Z</time>
      </trkpt>
      <trkpt lat="43.96333" lon="5.29397">
        <ele>424.5</ele>
        <time>2019-09-14T16:23:35Z</time>
      </trkpt>
      <trkpt lat="43.96332" lon="5.29397">
        <ele>425.5</ele>
        <time>2019-09-14T16:23:40Z</time>
      </trkpt>
      <trkpt lat="43.96328" lon="5.29395">
        <ele>425.5</ele>
        <time>2019-09-14T16:23:45Z</time>
      </trkpt>
      <trkpt lat="43.9632" lon="5.29394">
        <ele>425.5</ele>
        <time>2019-09-14T16:23:51Z</time>
      </trkpt>
      <trkpt lat="43.96318" lon="5.29395">
        <ele>426.5</ele>
        <time>2019-09-14T16:23:57Z</time>
      </trkpt>
      <trkpt lat="43.96317" lon="5.29396">
        <ele>426.5</ele>
        <time>2019-09-14T16:24:03Z</time>
      </trkpt>
      <trkpt lat="43.96316" lon="5.29396">
        <ele>427.5</ele>
        <time>2019-09-14T16:24:09Z</time>
      </trkpt>
      <trkpt lat="43.96316" lon="5.29396">
        <ele>427.5</ele>
        <time>2019-09-14T16:24:14Z</time>
      </trkpt>
      <trkpt lat="43.96316" lon="5.29396">
        <ele>427.5</ele>
        <time>2019-09-14T16:24:23Z</time>
      </trkpt>
      <trkpt lat="43.96299" lon="5.29399">
        <ele>424.5</ele>
        <time>2019-09-14T16:24:29Z</time>
      </trkpt>
      <trkpt lat="43.96296" lon="5.29392">
        <ele>417.5</ele>
        <time>2019-09-14T16:24:34Z</time>
      </trkpt>
      <trkpt lat="43.9629" lon="5.29394">
        <ele>419.5</ele>
        <time>2019-09-14T16:24:40Z</time>
      </trkpt>
      <trkpt lat="43.96284" lon="5.29396">
        <ele>415.5</ele>
        <time>2019-09-14T16:24:45Z</time>
      </trkpt>
      <trkpt lat="43.96282" lon="5.29397">
        <ele>416.5</ele>
        <time>2019-09-14T16:24:50Z</time>
      </trkpt>
      <trkpt lat="43.96279" lon="5.29398">
        <ele>419.5</ele>
        <time>2019-09-14T16:24:56Z</time>
      </trkpt>
      <trkpt lat="43.96274" lon="5.294">
        <ele>418.5</ele>
        <time>2019-09-14T16:25:01Z</time>
      </trkpt>
      <trkpt lat="43.96267" lon="5.29399">
        <ele>420.5</ele>
        <time>2019-09-14T16:25:07Z</time>
      </trkpt>
      <trkpt lat="43.96263" lon="5.29401">
        <ele>421.5</ele>
        <time>2019-09-14T16:25:12Z</time>
      </trkpt>
      <trkpt lat="43.96259" lon="5.29399">
        <ele>422.5</ele>
        <time>2019-09-14T16:25:18Z</time>
      </trkpt>
      <trkpt lat="43.96256" lon="5.29399">
        <ele>425.5</ele>
        <time>2019-09-14T16:25:24Z</time>
      </trkpt>
      <trkpt lat="43.9625" lon="5.29402">
        <ele>423.5</ele>
        <time>2019-09-14T16:25:30Z</time>
      </trkpt>
      <trkpt lat="43.96245" lon="5.294">
        <ele>419.5</ele>
        <time>2019-09-14T16:25:36Z</time>
      </trkpt>
      <trkpt lat="43.96237" lon="5.29403">
        <ele>420.5</ele>
        <time>2019-09-14T16:25:41Z</time>
      </trkpt>
      <trkpt lat="43.96233" lon="5.29402">
        <ele>417.5</ele>
        <time>2019-09-14T16:25:46Z</time>
      </trkpt>
      <trkpt lat="43.9623" lon="5.29397">
        <ele>419.5</ele>
        <time>2019-09-14T16:25:51Z</time>
      </trkpt>
      <trkpt lat="43.96225" lon="5.29401">
        <ele>420.5</ele>
        <time>2019-09-14T16:25:57Z</time>
      </trkpt>
      <trkpt lat="43.9622" lon="5.29401">
        <ele>421.5</ele>
        <time>2019-09-14T16:26:02Z</time>
      </trkpt>
      <trkpt lat="43.96215" lon="5.29397">
        <ele>423.5</ele>
        <time>2019-09-14T16:26:07Z</time>
      </trkpt>
      <trkpt lat="43.96207" lon="5.29398">
        <ele>422.5</ele>
        <time>2019-09-14T16:26:13Z</time>
      </trkpt>
      <trkpt lat="43.96209" lon="5.29388">
        <ele>420.5</ele>
        <time>2019-09-14T16:26:19Z</time>
      </trkpt>
      <trkpt lat="43.96206" lon="5.2939">
        <ele>420.5</ele>
        <time>2019-09-14T16:26:24Z</time>
      </trkpt>
      <trkpt lat="43.96206" lon="5.29391">
        <ele>420.5</ele>
        <time>2019-09-14T16:26:29Z</time>
      </trkpt>
      <trkpt lat="43.96206" lon="5.2939">
        <ele>419.5</ele>
        <time>2019-09-14T16:26:35Z</time>
      </trkpt>
      <trkpt lat="43.96206" lon="5.2939">
        <ele>418.5</ele>
        <time>2019-09-14T16:26:40Z</time>
      </trkpt>
      <trkpt lat="43.96206" lon="5.2939">
        <ele>418.5</ele>
        <time>2019-09-14T16:26:45Z</time>
      </trkpt>
      <trkpt lat="43.96195" lon="5.29383">
        <ele>415.5</ele>
        <time>2019-09-14T16:26:51Z</time>
      </trkpt>
      <trkpt lat="43.96193" lon="5.29377">
        <ele>411.5</ele>
        <time>2019-09-14T16:26:56Z</time>
      </trkpt>
      <trkpt lat="43.96187" lon="5.29374">
        <ele>411.5</ele>
        <time>2019-09-14T16:27:02Z</time>
      </trkpt>
      <trkpt lat="43.96182" lon="5.2937">
        <ele>414.5</ele>
        <time>2019-09-14T16:27:08Z</time>
      </trkpt>
      <trkpt lat="43.96177" lon="5.29367">
        <ele>414.5</ele>
        <time>2019-09-14T16:27:14Z</time>
      </trkpt>
      <trkpt lat="43.96173" lon="5.29368">
        <ele>418.5</ele>
        <time>2019-09-14T16:27:19Z</time>
      </trkpt>
      <trkpt lat="43.9617" lon="5.2937">
        <ele>422.5</ele>
        <time>2019-09-14T16:27:25Z</time>
      </trkpt>
      <trkpt lat="43.96163" lon="5.29372">
        <ele>446.5</ele>
        <time>2019-09-14T16:27:31Z</time>
      </trkpt>
      <trkpt lat="43.96157" lon="5.29364">
        <ele>435.5</ele>
        <time>2019-09-14T16:27:37Z</time>
      </trkpt>
      <trkpt lat="43.96158" lon="5.29363">
        <ele>425.5</ele>
        <time>2019-09-14T16:27:42Z</time>
      </trkpt>
      <trkpt lat="43.96151" lon="5.2937">
        <ele>417.5</ele>
        <time>2019-09-14T16:27:47Z</time>
      </trkpt>
      <trkpt lat="43.96144" lon="5.29376">
        <ele>420.5</ele>
        <time>2019-09-14T16:27:53Z</time>
      </trkpt>
      <trkpt lat="43.96145" lon="5.29373">
        <ele>418.5</ele>
        <time>2019-09-14T16:27:59Z</time>
      </trkpt>
      <trkpt lat="43.96144" lon="5.29372">
        <ele>417.5</ele>
        <time>2019-09-14T16:28:05Z</time>
      </trkpt>
      <trkpt lat="43.96139" lon="5.29376">
        <ele>415.5</ele>
        <time>2019-09-14T16:28:11Z</time>
      </trkpt>
      <trkpt lat="43.96139" lon="5.29377">
        <ele>416.5</ele>
        <time>2019-09-14T16:28:17Z</time>
      </trkpt>
      <trkpt lat="43.96139" lon="5.29376">
        <ele>416.5</ele>
        <time>2019-09-14T16:28:23Z</time>
      </trkpt>
      <trkpt lat="43.96139" lon="5.29376">
        <ele>416.5</ele>
        <time>2019-09-14T16:28:29Z</time>
      </trkpt>
      <trkpt lat="43.96132" lon="5.29378">
        <ele>416.5</ele>
        <time>2019-09-14T16:28:35Z</time>
      </trkpt>
      <trkpt lat="43.96122" lon="5.29384">
        <ele>411.5</ele>
        <time>2019-09-14T16:28:41Z</time>
      </trkpt>
      <trkpt lat="43.96119" lon="5.29382">
        <ele>415.5</ele>
        <time>2019-09-14T16:28:47Z</time>
      </trkpt>
      <trkpt lat="43.96119" lon="5.29381">
        <ele>416.5</ele>
        <time>2019-09-14T16:28:52Z</time>
      </trkpt>
      <trkpt lat="43.9612" lon="5.29379">
        <ele>416.5</ele>
        <time>2019-09-14T16:28:58Z</time>
      </trkpt>
      <trkpt lat="43.96112" lon="5.29371">
        <ele>418.5</ele>
        <time>2019-09-14T16:29:04Z</time>
      </trkpt>
      <trkpt lat="43.96104" lon="5.29377">
        <ele>415.5</ele>
        <time>2019-09-14T16:29:10Z</time>
      </trkpt>
      <trkpt lat="43.961" lon="5.29375">
        <ele>412.5</ele>
        <time>2019-09-14T16:29:15Z</time>
      </trkpt>
      <trkpt lat="43.96091" lon="5.29372">
        <ele>415.5</ele>
        <time>2019-09-14T16:29:21Z</time>
      </trkpt>
      <trkpt lat="43.96091" lon="5.29369">
        <ele>410.5</ele>
        <time>2019-09-14T16:29:26Z</time>
      </trkpt>
      <trkpt lat="43.9609" lon="5.29372">
        <ele>409.5</ele>
        <time>2019-09-14T16:29:31Z</time>
      </trkpt>
      <trkpt lat="43.96089" lon="5.29371">
        <ele>411.5</ele>
        <time>2019-09-14T16:29:37Z</time>
      </trkpt>
      <trkpt lat="43.96089" lon="5.29371">
        <ele>410.5</ele>
        <time>2019-09-14T16:29:43Z</time>
      </trkpt>
      <trkpt lat="43.96089" lon="5.29371">
        <ele>411.5</ele>
        <time>2019-09-14T16:29:48Z</time>
      </trkpt>
      <trkpt lat="43.96089" lon="5.29371">
        <ele>411.5</ele>
        <time>2019-09-14T16:29:54Z</time>
      </trkpt>
      <trkpt lat="43.96089" lon="5.29371">
        <ele>410.5</ele>
        <time>2019-09-14T16:29:59Z</time>
      </trkpt>
      <trkpt lat="43.96088" lon="5.29371">
        <ele>409.5</ele>
        <time>2019-09-14T16:30:05Z</time>
      </trkpt>
      <trkpt lat="43.96088" lon="5.29371">
        <ele>409.5</ele>
        <time>2019-09-14T16:30:10Z</time>
      </trkpt>
      <trkpt lat="43.96088" lon="5.29371">
        <ele>409.5</ele>
        <time>2019-09-14T16:30:16Z</time>
      </trkpt>
      <trkpt lat="43.96083" lon="5.29374">
        <ele>406.5</ele>
        <time>2019-09-14T16:30:22Z</time>
      </trkpt>
      <trkpt lat="43.96069" lon="5.29378">
        <ele>402.5</ele>
        <time>2019-09-14T16:30:28Z</time>
      </trkpt>
      <trkpt lat="43.9606" lon="5.29379">
        <ele>401.5</ele>
        <time>2019-09-14T16:30:33Z</time>
      </trkpt>
      <trkpt lat="43.96056" lon="5.29378">
        <ele>405.5</ele>
        <time>2019-09-14T16:30:38Z</time>
      </trkpt>
      <trkpt lat="43.96056" lon="5.29376">
        <ele>402.5</ele>
        <time>2019-09-14T16:30:44Z</time>
      </trkpt>
      <trkpt lat="43.96053" lon="5.29378">
        <ele>402.5</ele>
        <time>2019-09-14T16:30:49Z</time>
      </trkpt>
      <trkpt lat="43.96051" lon="5.29382">
        <ele>403.5</ele>
        <time>2019-09-14T16:30:54Z</time>
      </trkpt>
      <trkpt lat="43.96045" lon="5.29383">
        <ele>400.5</ele>
        <time>2019-09-14T16:30:59Z</time>
      </trkpt>
      <trkpt lat="43.96035" lon="5.29389">
        <ele>407.5</ele>
        <time>2019-09-14T16:31:05Z</time>
      </trkpt>
      <trkpt lat="43.96029" lon="5.29393">
        <ele>409.5</ele>
        <time>2019-09-14T16:31:10Z</time>
      </trkpt>
      <trkpt lat="43.96026" lon="5.29393">
        <ele>408.5</ele>
        <time>2019-09-14T16:31:15Z</time>
      </trkpt>
      <trkpt lat="43.96025" lon="5.29393">
        <ele>409.5</ele>
        <time>2019-09-14T16:31:21Z</time>
      </trkpt>
      <trkpt lat="43.96024" lon="5.29394">
        <ele>409.5</ele>
        <time>2019-09-14T16:31:27Z</time>
      </trkpt>
      <trkpt lat="43.96024" lon="5.29394">
        <ele>409.5</ele>
        <time>2019-09-14T16:31:32Z</time>
      </trkpt>
      <trkpt lat="43.96021" lon="5.29391">
        <ele>411.5</ele>
        <time>2019-09-14T16:31:38Z</time>
      </trkpt>
      <trkpt lat="43.96014" lon="5.29385">
        <ele>411.5</ele>
        <time>2019-09-14T16:31:44Z</time>
      </trkpt>
      <trkpt lat="43.96007" lon="5.29386">
        <ele>411.5</ele>
        <time>2019-09-14T16:31:49Z</time>
      </trkpt>
      <trkpt lat="43.96001" lon="5.29385">
        <ele>409.5</ele>
        <time>2019-09-14T16:31:55Z</time>
      </trkpt>
      <trkpt lat="43.95998" lon="5.29386">
        <ele>410.5</ele>
        <time>2019-09-14T16:32:01Z</time>
      </trkpt>
      <trkpt lat="43.9599" lon="5.29383">
        <ele>408.5</ele>
        <time>2019-09-14T16:32:07Z</time>
      </trkpt>
      <trkpt lat="43.95978" lon="5.29388">
        <ele>410.5</ele>
        <time>2019-09-14T16:32:13Z</time>
      </trkpt>
      <trkpt lat="43.95969" lon="5.29399">
        <ele>412.5</ele>
        <time>2019-09-14T16:32:18Z</time>
      </trkpt>
      <trkpt lat="43.95973" lon="5.29396">
        <ele>409.5</ele>
        <time>2019-09-14T16:32:23Z</time>
      </trkpt>
      <trkpt lat="43.95968" lon="5.29385">
        <ele>409.5</ele>
        <time>2019-09-14T16:32:29Z</time>
      </trkpt>
      <trkpt lat="43.95979" lon="5.29374">
        <ele>407.5</ele>
        <time>2019-09-14T16:32:34Z</time>
      </trkpt>
      <trkpt lat="43.95973" lon="5.29383">
        <ele>407.5</ele>
        <time>2019-09-14T16:32:42Z</time>
      </trkpt>
      <trkpt lat="43.95959" lon="5.29386">
        <ele>409.5</ele>
        <time>2019-09-14T16:32:47Z</time>
      </trkpt>
      <trkpt lat="43.95956" lon="5.29389">
        <ele>413.5</ele>
        <time>2019-09-14T16:32:52Z</time>
      </trkpt>
      <trkpt lat="43.95952" lon="5.2939">
        <ele>409.5</ele>
        <time>2019-09-14T16:32:57Z</time>
      </trkpt>
      <trkpt lat="43.95955" lon="5.29385">
        <ele>405.5</ele>
        <time>2019-09-14T16:33:03Z</time>
      </trkpt>
      <trkpt lat="43.95952" lon="5.29387">
        <ele>405.5</ele>
        <time>2019-09-14T16:33:09Z</time>
      </trkpt>
      <trkpt lat="43.9595" lon="5.29388">
        <ele>407.5</ele>
        <time>2019-09-14T16:33:15Z</time>
      </trkpt>
      <trkpt lat="43.9595" lon="5.29388">
        <ele>407.5</ele>
        <time>2019-09-14T16:33:20Z</time>
      </trkpt>
      <trkpt lat="43.95949" lon="5.29388">
        <ele>407.5</ele>
        <time>2019-09-14T16:33:26Z</time>
      </trkpt>
      <trkpt lat="43.95937" lon="5.29398">
        <ele>407.5</ele>
        <time>2019-09-14T16:33:31Z</time>
      </trkpt>
      <trkpt lat="43.95931" lon="5.29402">
        <ele>409.5</ele>
        <time>2019-09-14T16:33:37Z</time>
      </trkpt>
      <trkpt lat="43.95928" lon="5.29405">
        <ele>409.5</ele>
        <time>2019-09-14T16:33:42Z</time>
      </trkpt>
      <trkpt lat="43.95927" lon="5.29405">
        <ele>409.5</ele>
        <time>2019-09-14T16:33:47Z</time>
      </trkpt>
      <trkpt lat="43.95917" lon="5.29412">
        <ele>408.5</ele>
        <time>2019-09-14T16:33:53Z</time>
      </trkpt>
      <trkpt lat="43.95903" lon="5.29423">
        <ele>406.5</ele>
        <time>2019-09-14T16:33:59Z</time>
      </trkpt>
      <trkpt lat="43.95903" lon="5.29422">
        <ele>404.5</ele>
        <time>2019-09-14T16:34:05Z</time>
      </trkpt>
      <trkpt lat="43.95902" lon="5.2942">
        <ele>404.5</ele>
        <time>2019-09-14T16:34:10Z</time>
      </trkpt>
      <trkpt lat="43.95902" lon="5.29421">
        <ele>404.5</ele>
        <time>2019-09-14T16:34:15Z</time>
      </trkpt>
      <trkpt lat="43.95902" lon="5.29421">
        <ele>404.5</ele>
        <time>2019-09-14T16:34:20Z</time>
      </trkpt>
      <trkpt lat="43.95902" lon="5.2942">
        <ele>404.5</ele>
        <time>2019-09-14T16:34:26Z</time>
      </trkpt>
      <trkpt lat="43.95902" lon="5.2942">
        <ele>404.5</ele>
        <time>2019-09-14T16:34:31Z</time>
      </trkpt>
      <trkpt lat="43.95902" lon="5.2942">
        <ele>405.5</ele>
        <time>2019-09-14T16:34:37Z</time>
      </trkpt>
      <trkpt lat="43.95891" lon="5.29416">
        <ele>410.5</ele>
        <time>2019-09-14T16:34:43Z</time>
      </trkpt>
      <trkpt lat="43.95888" lon="5.29416">
        <ele>409.5</ele>
        <time>2019-09-14T16:34:49Z</time>
      </trkpt>
      <trkpt lat="43.95884" lon="5.29419">
        <ele>409.5</ele>
        <time>2019-09-14T16:34:55Z</time>
      </trkpt>
      <trkpt lat="43.95882" lon="5.29421">
        <ele>410.5</ele>
        <time>2019-09-14T16:35:03Z</time>
      </trkpt>
      <trkpt lat="43.95882" lon="5.29421">
        <ele>410.5</ele>
        <time>2019-09-14T16:35:08Z</time>
      </trkpt>
      <trkpt lat="43.95882" lon="5.29421">
        <ele>409.5</ele>
        <time>2019-09-14T16:35:14Z</time>
      </trkpt>
      <trkpt lat="43.95882" lon="5.29422">
        <ele>409.5</ele>
        <time>2019-09-14T16:35:19Z</time>
      </trkpt>
      <trkpt lat="43.95882" lon="5.29422">
        <ele>409.5</ele>
        <time>2019-09-14T16:35:25Z</time>
      </trkpt>
      <trkpt lat="43.95882" lon="5.29422">
        <ele>409.5</ele>
        <time>2019-09-14T16:35:31Z</time>
      </trkpt>
      <trkpt lat="43.95882" lon="5.29422">
        <ele>409.5</ele>
        <time>2019-09-14T16:35:36Z</time>
      </trkpt>
      <trkpt lat="43.95862" lon="5.29432">
        <ele>407.5</ele>
        <time>2019-09-14T16:35:42Z</time>
      </trkpt>
      <trkpt lat="43.95836" lon="5.29445">
        <ele>401.5</ele>
        <time>2019-09-14T16:35:48Z</time>
      </trkpt>
      <trkpt lat="43.95834" lon="5.29461">
        <ele>401.5</ele>
        <time>2019-09-14T16:35:53Z</time>
      </trkpt>
      <trkpt lat="43.95829" lon="5.29469">
        <ele>398.5</ele>
        <time>2019-09-14T16:35:59Z</time>
      </trkpt>
      <trkpt lat="43.95823" lon="5.29469">
        <ele>404.5</ele>
        <time>2019-09-14T16:36:04Z</time>
      </trkpt>
      <trkpt lat="43.95818" lon="5.29469">
        <ele>401.5</ele>
        <time>2019-09-14T16:36:10Z</time>
      </trkpt>
      <trkpt lat="43.95817" lon="5.29469">
        <ele>401.5</ele>
        <time>2019-09-14T16:36:15Z</time>
      </trkpt>
      <trkpt lat="43.95807" lon="5.29471">
        <ele>404.5</ele>
        <time>2019-09-14T16:36:21Z</time>
      </trkpt>
      <trkpt lat="43.95807" lon="5.29466">
        <ele>402.5</ele>
        <time>2019-09-14T16:36:26Z</time>
      </trkpt>
      <trkpt lat="43.95803" lon="5.29467">
        <ele>404.5</ele>
        <time>2019-09-14T16:36:32Z</time>
      </trkpt>
      <trkpt lat="43.95798" lon="5.29461">
        <ele>403.5</ele>
        <time>2019-09-14T16:36:38Z</time>
      </trkpt>
      <trkpt lat="43.95795" lon="5.29458">
        <ele>401.5</ele>
        <time>2019-09-14T16:36:43Z</time>
      </trkpt>
      <trkpt lat="43.95795" lon="5.29453">
        <ele>401.5</ele>
        <time>2019-09-14T16:36:48Z</time>
      </trkpt>
      <trkpt lat="43.95793" lon="5.29451">
        <ele>400.5</ele>
        <time>2019-09-14T16:36:54Z</time>
      </trkpt>
      <trkpt lat="43.95793" lon="5.29449">
        <ele>400.5</ele>
        <time>2019-09-14T16:37:00Z</time>
      </trkpt>
      <trkpt lat="43.95792" lon="5.29449">
        <ele>400.5</ele>
        <time>2019-09-14T16:37:06Z</time>
      </trkpt>
      <trkpt lat="43.95792" lon="5.29449">
        <ele>400.5</ele>
        <time>2019-09-14T16:37:11Z</time>
      </trkpt>
      <trkpt lat="43.95792" lon="5.29449">
        <ele>400.5</ele>
        <time>2019-09-14T16:37:17Z</time>
      </trkpt>
      <trkpt lat="43.9578" lon="5.29443">
        <ele>398.5</ele>
        <time>2019-09-14T16:37:23Z</time>
      </trkpt>
      <trkpt lat="43.95767" lon="5.29434">
        <ele>391.5</ele>
        <time>2019-09-14T16:37:28Z</time>
      </trkpt>
      <trkpt lat="43.95764" lon="5.29429">
        <ele>390.5</ele>
        <time>2019-09-14T16:37:33Z</time>
      </trkpt>
      <trkpt lat="43.95758" lon="5.29423">
        <ele>386.5</ele>
        <time>2019-09-14T16:37:39Z</time>
      </trkpt>
      <trkpt lat="43.95748" lon="5.29412">
        <ele>386.5</ele>
        <time>2019-09-14T16:37:44Z</time>
      </trkpt>
      <trkpt lat="43.95749" lon="5.2941">
        <ele>390.5</ele>
        <time>2019-09-14T16:37:50Z</time>
      </trkpt>
      <trkpt lat="43.95747" lon="5.29416">
        <ele>390.5</ele>
        <time>2019-09-14T16:37:56Z</time>
      </trkpt>
      <trkpt lat="43.95746" lon="5.29415">
        <ele>390.5</ele>
        <time>2019-09-14T16:38:01Z</time>
      </trkpt>
      <trkpt lat="43.95746" lon="5.29415">
        <ele>391.5</ele>
        <time>2019-09-14T16:38:06Z</time>
      </trkpt>
      <trkpt lat="43.95745" lon="5.29416">
        <ele>392.5</ele>
        <time>2019-09-14T16:38:12Z</time>
      </trkpt>
      <trkpt lat="43.95731" lon="5.29425">
        <ele>399.5</ele>
        <time>2019-09-14T16:38:17Z</time>
      </trkpt>
      <trkpt lat="43.95723" lon="5.29432">
        <ele>397.5</ele>
        <time>2019-09-14T16:38:23Z</time>
      </trkpt>
      <trkpt lat="43.95721" lon="5.29433">
        <ele>395.5</ele>
        <time>2019-09-14T16:38:29Z</time>
      </trkpt>
      <trkpt lat="43.95721" lon="5.29433">
        <ele>396.5</ele>
        <time>2019-09-14T16:38:34Z</time>
      </trkpt>
      <trkpt lat="43.95712" lon="5.29437">
        <ele>396.5</ele>
        <time>2019-09-14T16:38:39Z</time>
      </trkpt>
      <trkpt lat="43.95703" lon="5.29443">
        <ele>395.5</ele>
        <time>2019-09-14T16:38:45Z</time>
      </trkpt>
      <trkpt lat="43.95697" lon="5.29445">
        <ele>397.5</ele>
        <time>2019-09-14T16:38:51Z</time>
      </trkpt>
      <trkpt lat="43.95694" lon="5.29447">
        <ele>397.5</ele>
        <time>2019-09-14T16:38:56Z</time>
      </trkpt>
      <trkpt lat="43.95693" lon="5.29448">
        <ele>394.5</ele>
        <time>2019-09-14T16:39:02Z</time>
      </trkpt>
      <trkpt lat="43.95692" lon="5.29447">
        <ele>395.5</ele>
        <time>2019-09-14T16:39:08Z</time>
      </trkpt>
      <trkpt lat="43.95692" lon="5.29447">
        <ele>395.5</ele>
        <time>2019-09-14T16:39:14Z</time>
      </trkpt>
      <trkpt lat="43.95692" lon="5.29447">
        <ele>395.5</ele>
        <time>2019-09-14T16:39:20Z</time>
      </trkpt>
      <trkpt lat="43.9568" lon="5.29431">
        <ele>395.5</ele>
        <time>2019-09-14T16:39:25Z</time>
      </trkpt>
      <trkpt lat="43.95669" lon="5.29442">
        <ele>392.5</ele>
        <time>2019-09-14T16:39:31Z</time>
      </trkpt>
      <trkpt lat="43.95664" lon="5.29441">
        <ele>386.5</ele>
        <time>2019-09-14T16:39:36Z</time>
      </trkpt>
      <trkpt lat="43.95661" lon="5.29434">
        <ele>385.5</ele>
        <time>2019-09-14T16:39:41Z</time>
      </trkpt>
      <trkpt lat="43.95651" lon="5.29428">
        <ele>381.5</ele>
        <time>2019-09-14T16:39:47Z</time>
      </trkpt>
      <trkpt lat="43.95646" lon="5.29426">
        <ele>382.5</ele>
        <time>2019-09-14T16:39:53Z</time>
      </trkpt>
      <trkpt lat="43.95645" lon="5.29423">
        <ele>382.5</ele>
        <time>2019-09-14T16:39:58Z</time>
      </trkpt>
      <trkpt lat="43.9564" lon="5.29427">
        <ele>384.5</ele>
        <time>2019-09-14T16:40:04Z</time>
      </trkpt>
      <trkpt lat="43.95632" lon="5.29423">
        <ele>385.5</ele>
        <time>2019-09-14T16:40:10Z</time>
      </trkpt>
      <trkpt lat="43.95631" lon="5.2942">
        <ele>385.5</ele>
        <time>2019-09-14T16:40:15Z</time>
      </trkpt>
      <trkpt lat="43.9563" lon="5.29417">
        <ele>384.5</ele>
        <time>2019-09-14T16:40:21Z</time>
      </trkpt>
      <trkpt lat="43.95622" lon="5.29418">
        <ele>383.5</ele>
        <time>2019-09-14T16:40:27Z</time>
      </trkpt>
      <trkpt lat="43.95619" lon="5.29413">
        <ele>381.5</ele>
        <time>2019-09-14T16:40:32Z</time>
      </trkpt>
      <trkpt lat="43.95616" lon="5.29417">
        <ele>376.5</ele>
        <time>2019-09-14T16:40:37Z</time>
      </trkpt>
      <trkpt lat="43.95615" lon="5.29414">
        <ele>376.5</ele>
        <time>2019-09-14T16:40:43Z</time>
      </trkpt>
      <trkpt lat="43.95607" lon="5.29418">
        <ele>376.5</ele>
        <time>2019-09-14T16:40:48Z</time>
      </trkpt>
      <trkpt lat="43.956" lon="5.2942">
        <ele>377.5</ele>
        <time>2019-09-14T16:40:54Z</time>
      </trkpt>
      <trkpt lat="43.95591" lon="5.29422">
        <ele>377.5</ele>
        <time>2019-09-14T16:41:00Z</time>
      </trkpt>
      <trkpt lat="43.95594" lon="5.29411">
        <ele>374.5</ele>
        <time>2019-09-14T16:41:05Z</time>
      </trkpt>
      <trkpt lat="43.95585" lon="5.29411">
        <ele>371.5</ele>
        <time>2019-09-14T16:41:11Z</time>
      </trkpt>
      <trkpt lat="43.95579" lon="5.29407">
        <ele>370.5</ele>
        <time>2019-09-14T16:41:16Z</time>
      </trkpt>
      <trkpt lat="43.95581" lon="5.29406">
        <ele>371.5</ele>
        <time>2019-09-14T16:41:22Z</time>
      </trkpt>
      <trkpt lat="43.95576" lon="5.29405">
        <ele>367.5</ele>
        <time>2019-09-14T16:41:27Z</time>
      </trkpt>
      <trkpt lat="43.95576" lon="5.29398">
        <ele>365.5</ele>
        <time>2019-09-14T16:41:33Z</time>
      </trkpt>
      <trkpt lat="43.95568" lon="5.29399">
        <ele>363.5</ele>
        <time>2019-09-14T16:41:39Z</time>
      </trkpt>
      <trkpt lat="43.95564" lon="5.29395">
        <ele>361.5</ele>
        <time>2019-09-14T16:41:44Z</time>
      </trkpt>
      <trkpt lat="43.95565" lon="5.29385">
        <ele>360.5</ele>
        <time>2019-09-14T16:41:50Z</time>
      </trkpt>
      <trkpt lat="43.95558" lon="5.29391">
        <ele>363.5</ele>
        <time>2019-09-14T16:41:55Z</time>
      </trkpt>
      <trkpt lat="43.95555" lon="5.29405">
        <ele>366.5</ele>
        <time>2019-09-14T16:42:00Z</time>
      </trkpt>
      <trkpt lat="43.95554" lon="5.29415">
        <ele>362.5</ele>
        <time>2019-09-14T16:42:06Z</time>
      </trkpt>
      <trkpt lat="43.95545" lon="5.29406">
        <ele>362.5</ele>
        <time>2019-09-14T16:42:12Z</time>
      </trkpt>
      <trkpt lat="43.95543" lon="5.29398">
        <ele>365.5</ele>
        <time>2019-09-14T16:42:17Z</time>
      </trkpt>
      <trkpt lat="43.95536" lon="5.29403">
        <ele>368.5</ele>
        <time>2019-09-14T16:42:23Z</time>
      </trkpt>
      <trkpt lat="43.95534" lon="5.29398">
        <ele>370.5</ele>
        <time>2019-09-14T16:42:28Z</time>
      </trkpt>
      <trkpt lat="43.95534" lon="5.29398">
        <ele>370.5</ele>
        <time>2019-09-14T16:42:33Z</time>
      </trkpt>
      <trkpt lat="43.95532" lon="5.29397">
        <ele>372.5</ele>
        <time>2019-09-14T16:42:39Z</time>
      </trkpt>
      <trkpt lat="43.95531" lon="5.29396">
        <ele>373.5</ele>
        <time>2019-09-14T16:42:44Z</time>
      </trkpt>
      <trkpt lat="43.95531" lon="5.29396">
        <ele>373.5</ele>
        <time>2019-09-14T16:42:50Z</time>
      </trkpt>
      <trkpt lat="43.95531" lon="5.29396">
        <ele>373.5</ele>
        <time>2019-09-14T16:42:56Z</time>
      </trkpt>
      <trkpt lat="43.95531" lon="5.29396">
        <ele>374.5</ele>
        <time>2019-09-14T16:43:02Z</time>
      </trkpt>
      <trkpt lat="43.95531" lon="5.29396">
        <ele>374.5</ele>
        <time>2019-09-14T16:43:08Z</time>
      </trkpt>
      <trkpt lat="43.95531" lon="5.29395">
        <ele>374.5</ele>
        <time>2019-09-14T16:43:14Z</time>
      </trkpt>
      <trkpt lat="43.95531" lon="5.29395">
        <ele>374.5</ele>
        <time>2019-09-14T16:43:20Z</time>
      </trkpt>
      <trkpt lat="43.95531" lon="5.29395">
        <ele>374.5</ele>
        <time>2019-09-14T16:43:25Z</time>
      </trkpt>
      <trkpt lat="43.95531" lon="5.29395">
        <ele>374.5</ele>
        <time>2019-09-14T16:43:40Z</time>
      </trkpt>
      <trkpt lat="43.95505" lon="5.2935">
        <ele>363.5</ele>
        <time>2019-09-14T16:43:46Z</time>
      </trkpt>
      <trkpt lat="43.95496" lon="5.29341">
        <ele>362.5</ele>
        <time>2019-09-14T16:43:52Z</time>
      </trkpt>
      <trkpt lat="43.95505" lon="5.29329">
        <ele>366.5</ele>
        <time>2019-09-14T16:43:59Z</time>
      </trkpt>
      <trkpt lat="43.95508" lon="5.29318">
        <ele>361.5</ele>
        <time>2019-09-14T16:44:04Z</time>
      </trkpt>
      <trkpt lat="43.95499" lon="5.29325">
        <ele>364.5</ele>
        <time>2019-09-14T16:44:10Z</time>
      </trkpt>
      <trkpt lat="43.95484" lon="5.29332">
        <ele>372.5</ele>
        <time>2019-09-14T16:44:16Z</time>
      </trkpt>
      <trkpt lat="43.95484" lon="5.29327">
        <ele>374.5</ele>
        <time>2019-09-14T16:44:22Z</time>
      </trkpt>
      <trkpt lat="43.95477" lon="5.29325">
        <ele>371.5</ele>
        <time>2019-09-14T16:44:28Z</time>
      </trkpt>
      <trkpt lat="43.95479" lon="5.29322">
        <ele>370.5</ele>
        <time>2019-09-14T16:44:34Z</time>
      </trkpt>
      <trkpt lat="43.95478" lon="5.29327">
        <ele>368.5</ele>
        <time>2019-09-14T16:44:39Z</time>
      </trkpt>
      <trkpt lat="43.95473" lon="5.29333">
        <ele>369.5</ele>
        <time>2019-09-14T16:44:45Z</time>
      </trkpt>
      <trkpt lat="43.95469" lon="5.2933">
        <ele>368.5</ele>
        <time>2019-09-14T16:44:50Z</time>
      </trkpt>
      <trkpt lat="43.95469" lon="5.29289">
        <ele>364.5</ele>
        <time>2019-09-14T16:44:55Z</time>
      </trkpt>
      <trkpt lat="43.95469" lon="5.29315">
        <ele>366.5</ele>
        <time>2019-09-14T16:45:00Z</time>
      </trkpt>
      <trkpt lat="43.95458" lon="5.29301">
        <ele>365.5</ele>
        <time>2019-09-14T16:45:05Z</time>
      </trkpt>
      <trkpt lat="43.95463" lon="5.29337">
        <ele>366.5</ele>
        <time>2019-09-14T16:45:11Z</time>
      </trkpt>
      <trkpt lat="43.95463" lon="5.29344">
        <ele>368.5</ele>
        <time>2019-09-14T16:45:16Z</time>
      </trkpt>
      <trkpt lat="43.95461" lon="5.29339">
        <ele>371.5</ele>
        <time>2019-09-14T16:45:21Z</time>
      </trkpt>
      <trkpt lat="43.95453" lon="5.2934">
        <ele>377.5</ele>
        <time>2019-09-14T16:45:27Z</time>
      </trkpt>
      <trkpt lat="43.95451" lon="5.29353">
        <ele>379.5</ele>
        <time>2019-09-14T16:45:36Z</time>
      </trkpt>
      <trkpt lat="43.95452" lon="5.29353">
        <ele>379.5</ele>
        <time>2019-09-14T16:45:41Z</time>
      </trkpt>
      <trkpt lat="43.95453" lon="5.2935">
        <ele>378.5</ele>
        <time>2019-09-14T16:45:47Z</time>
      </trkpt>
      <trkpt lat="43.95449" lon="5.2935">
        <ele>373.5</ele>
        <time>2019-09-14T16:45:53Z</time>
      </trkpt>
      <trkpt lat="43.95448" lon="5.29352">
        <ele>372.5</ele>
        <time>2019-09-14T16:45:58Z</time>
      </trkpt>
      <trkpt lat="43.95448" lon="5.29352">
        <ele>372.5</ele>
        <time>2019-09-14T16:46:04Z</time>
      </trkpt>
      <trkpt lat="43.95444" lon="5.29343">
        <ele>371.5</ele>
        <time>2019-09-14T16:46:09Z</time>
      </trkpt>
      <trkpt lat="43.95437" lon="5.29334">
        <ele>370.5</ele>
        <time>2019-09-14T16:46:15Z</time>
      </trkpt>
      <trkpt lat="43.95434" lon="5.29358">
        <ele>369.5</ele>
        <time>2019-09-14T16:46:20Z</time>
      </trkpt>
      <trkpt lat="43.95429" lon="5.29363">
        <ele>369.5</ele>
        <time>2019-09-14T16:46:26Z</time>
      </trkpt>
      <trkpt lat="43.95418" lon="5.2937">
        <ele>369.5</ele>
        <time>2019-09-14T16:46:31Z</time>
      </trkpt>
      <trkpt lat="43.95414" lon="5.29356">
        <ele>369.5</ele>
        <time>2019-09-14T16:46:36Z</time>
      </trkpt>
      <trkpt lat="43.95411" lon="5.29349">
        <ele>369.5</ele>
        <time>2019-09-14T16:46:42Z</time>
      </trkpt>
      <trkpt lat="43.95404" lon="5.29356">
        <ele>371.5</ele>
        <time>2019-09-14T16:46:47Z</time>
      </trkpt>
      <trkpt lat="43.95396" lon="5.29356">
        <ele>369.5</ele>
        <time>2019-09-14T16:46:53Z</time>
      </trkpt>
      <trkpt lat="43.95391" lon="5.29364">
        <ele>366.5</ele>
        <time>2019-09-14T16:46:59Z</time>
      </trkpt>
      <trkpt lat="43.95396" lon="5.29363">
        <ele>355.5</ele>
        <time>2019-09-14T16:47:04Z</time>
      </trkpt>
      <trkpt lat="43.95401" lon="5.29354">
        <ele>352.5</ele>
        <time>2019-09-14T16:47:10Z</time>
      </trkpt>
      <trkpt lat="43.95402" lon="5.29355">
        <ele>353.5</ele>
        <time>2019-09-14T16:47:15Z</time>
      </trkpt>
      <trkpt lat="43.95396" lon="5.29351">
        <ele>354.5</ele>
        <time>2019-09-14T16:47:21Z</time>
      </trkpt>
      <trkpt lat="43.9539" lon="5.29359">
        <ele>356.5</ele>
        <time>2019-09-14T16:47:27Z</time>
      </trkpt>
      <trkpt lat="43.95381" lon="5.29357">
        <ele>350.5</ele>
        <time>2019-09-14T16:47:32Z</time>
      </trkpt>
      <trkpt lat="43.95381" lon="5.29357">
        <ele>351.5</ele>
        <time>2019-09-14T16:47:37Z</time>
      </trkpt>
      <trkpt lat="43.95382" lon="5.29343">
        <ele>348.5</ele>
        <time>2019-09-14T16:47:43Z</time>
      </trkpt>
      <trkpt lat="43.95375" lon="5.29348">
        <ele>343.5</ele>
        <time>2019-09-14T16:47:48Z</time>
      </trkpt>
      <trkpt lat="43.95373" lon="5.29343">
        <ele>343.5</ele>
        <time>2019-09-14T16:47:54Z</time>
      </trkpt>
      <trkpt lat="43.9537" lon="5.29334">
        <ele>346.5</ele>
        <time>2019-09-14T16:48:00Z</time>
      </trkpt>
      <trkpt lat="43.95355" lon="5.29347">
        <ele>348.5</ele>
        <time>2019-09-14T16:48:05Z</time>
      </trkpt>
      <trkpt lat="43.95362" lon="5.29346">
        <ele>346.5</ele>
        <time>2019-09-14T16:48:11Z</time>
      </trkpt>
      <trkpt lat="43.95357" lon="5.2935">
        <ele>348.5</ele>
        <time>2019-09-14T16:48:17Z</time>
      </trkpt>
      <trkpt lat="43.9536" lon="5.29345">
        <ele>347.5</ele>
        <time>2019-09-14T16:48:22Z</time>
      </trkpt>
      <trkpt lat="43.95357" lon="5.29346">
        <ele>346.5</ele>
        <time>2019-09-14T16:48:28Z</time>
      </trkpt>
      <trkpt lat="43.95357" lon="5.29346">
        <ele>346.5</ele>
        <time>2019-09-14T16:48:33Z</time>
      </trkpt>
      <trkpt lat="43.95356" lon="5.29346">
        <ele>345.5</ele>
        <time>2019-09-14T16:48:39Z</time>
      </trkpt>
      <trkpt lat="43.95343" lon="5.2933">
        <ele>347.5</ele>
        <time>2019-09-14T16:48:45Z</time>
      </trkpt>
      <trkpt lat="43.95336" lon="5.29348">
        <ele>348.5</ele>
        <time>2019-09-14T16:48:50Z</time>
      </trkpt>
      <trkpt lat="43.95333" lon="5.29368">
        <ele>347.5</ele>
        <time>2019-09-14T16:48:56Z</time>
      </trkpt>
      <trkpt lat="43.95333" lon="5.29345">
        <ele>350.5</ele>
        <time>2019-09-14T16:49:02Z</time>
      </trkpt>
      <trkpt lat="43.95332" lon="5.29344">
        <ele>349.5</ele>
        <time>2019-09-14T16:49:08Z</time>
      </trkpt>
      <trkpt lat="43.95332" lon="5.29344">
        <ele>350.5</ele>
        <time>2019-09-14T16:49:14Z</time>
      </trkpt>
      <trkpt lat="43.95332" lon="5.29344">
        <ele>350.5</ele>
        <time>2019-09-14T16:49:19Z</time>
      </trkpt>
      <trkpt lat="43.95331" lon="5.29344">
        <ele>349.5</ele>
        <time>2019-09-14T16:49:25Z</time>
      </trkpt>
      <trkpt lat="43.95326" lon="5.29347">
        <ele>351.5</ele>
        <time>2019-09-14T16:49:31Z</time>
      </trkpt>
      <trkpt lat="43.95326" lon="5.29348">
        <ele>353.5</ele>
        <time>2019-09-14T16:49:36Z</time>
      </trkpt>
      <trkpt lat="43.95325" lon="5.29348">
        <ele>354.5</ele>
        <time>2019-09-14T16:49:42Z</time>
      </trkpt>
      <trkpt lat="43.95325" lon="5.29348">
        <ele>353.5</ele>
        <time>2019-09-14T16:49:48Z</time>
      </trkpt>
      <trkpt lat="43.95325" lon="5.29348">
        <ele>351.5</ele>
        <time>2019-09-14T16:49:53Z</time>
      </trkpt>
      <trkpt lat="43.95317" lon="5.29352">
        <ele>341.5</ele>
        <time>2019-09-14T16:49:59Z</time>
      </trkpt>
      <trkpt lat="43.95314" lon="5.29352">
        <ele>339.5</ele>
        <time>2019-09-14T16:50:04Z</time>
      </trkpt>
      <trkpt lat="43.95311" lon="5.29353">
        <ele>338.5</ele>
        <time>2019-09-14T16:50:10Z</time>
      </trkpt>
      <trkpt lat="43.95311" lon="5.29353">
        <ele>339.5</ele>
        <time>2019-09-14T16:50:16Z</time>
      </trkpt>
      <trkpt lat="43.95311" lon="5.29353">
        <ele>339.5</ele>
        <time>2019-09-14T16:50:21Z</time>
      </trkpt>
      <trkpt lat="43.95311" lon="5.29353">
        <ele>339.5</ele>
        <time>2019-09-14T16:50:26Z</time>
      </trkpt>
      <trkpt lat="43.95311" lon="5.29353">
        <ele>339.5</ele>
        <time>2019-09-14T16:50:31Z</time>
      </trkpt>
      <trkpt lat="43.95311" lon="5.29353">
        <ele>339.5</ele>
        <time>2019-09-14T16:50:37Z</time>
      </trkpt>
      <trkpt lat="43.95311" lon="5.29353">
        <ele>339.5</ele>
        <time>2019-09-14T16:50:43Z</time>
      </trkpt>
      <trkpt lat="43.9531" lon="5.29353">
        <ele>339.5</ele>
        <time>2019-09-14T16:50:49Z</time>
      </trkpt>
      <trkpt lat="43.9531" lon="5.29353">
        <ele>339.5</ele>
        <time>2019-09-14T16:50:54Z</time>
      </trkpt>
      <trkpt lat="43.95294" lon="5.29354">
        <ele>330.5</ele>
        <time>2019-09-14T16:51:00Z</time>
      </trkpt>
      <trkpt lat="43.95282" lon="5.29352">
        <ele>327.5</ele>
        <time>2019-09-14T16:51:05Z</time>
      </trkpt>
      <trkpt lat="43.95271" lon="5.29346">
        <ele>324.5</ele>
        <time>2019-09-14T16:51:10Z</time>
      </trkpt>
      <trkpt lat="43.95265" lon="5.2935">
        <ele>329.5</ele>
        <time>2019-09-14T16:51:16Z</time>
      </trkpt>
      <trkpt lat="43.95259" lon="5.29358">
        <ele>330.5</ele>
        <time>2019-09-14T16:51:21Z</time>
      </trkpt>
      <trkpt lat="43.9526" lon="5.2935">
        <ele>328.5</ele>
        <time>2019-09-14T16:51:27Z</time>
      </trkpt>
      <trkpt lat="43.95259" lon="5.2935">
        <ele>331.5</ele>
        <time>2019-09-14T16:51:32Z</time>
      </trkpt>
      <trkpt lat="43.95259" lon="5.29349">
        <ele>331.5</ele>
        <time>2019-09-14T16:51:38Z</time>
      </trkpt>
      <trkpt lat="43.95259" lon="5.29349">
        <ele>331.5</ele>
        <time>2019-09-14T16:51:43Z</time>
      </trkpt>
      <trkpt lat="43.95259" lon="5.29349">
        <ele>331.5</ele>
        <time>2019-09-14T16:51:49Z</time>
      </trkpt>
      <trkpt lat="43.95259" lon="5.29349">
        <ele>331.5</ele>
        <time>2019-09-14T16:51:55Z</time>
      </trkpt>
      <trkpt lat="43.95259" lon="5.29349">
        <ele>331.5</ele>
        <time>2019-09-14T16:52:00Z</time>
      </trkpt>
      <trkpt lat="43.95259" lon="5.29349">
        <ele>331.5</ele>
        <time>2019-09-14T16:52:06Z</time>
      </trkpt>
      <trkpt lat="43.95259" lon="5.29349">
        <ele>331.5</ele>
        <time>2019-09-14T16:52:11Z</time>
      </trkpt>
      <trkpt lat="43.95259" lon="5.29349">
        <ele>331.5</ele>
        <time>2019-09-14T16:52:17Z</time>
      </trkpt>
      <trkpt lat="43.95258" lon="5.2935">
        <ele>331.5</ele>
        <time>2019-09-14T16:52:22Z</time>
      </trkpt>
      <trkpt lat="43.95258" lon="5.2935">
        <ele>331.5</ele>
        <time>2019-09-14T16:52:28Z</time>
      </trkpt>
      <trkpt lat="43.95258" lon="5.2935">
        <ele>331.5</ele>
        <time>2019-09-14T16:52:34Z</time>
      </trkpt>
      <trkpt lat="43.95258" lon="5.2935">
        <ele>331.5</ele>
        <time>2019-09-14T16:52:39Z</time>
      </trkpt>
      <trkpt lat="43.95247" lon="5.29356">
        <ele>331.5</ele>
        <time>2019-09-14T16:52:45Z</time>
      </trkpt>
      <trkpt lat="43.9524" lon="5.29361">
        <ele>333.5</ele>
        <time>2019-09-14T16:52:51Z</time>
      </trkpt>
      <trkpt lat="43.95227" lon="5.29369">
        <ele>331.5</ele>
        <time>2019-09-14T16:52:57Z</time>
      </trkpt>
      <trkpt lat="43.95219" lon="5.29372">
        <ele>330.5</ele>
        <time>2019-09-14T16:53:03Z</time>
      </trkpt>
      <trkpt lat="43.95208" lon="5.29361">
        <ele>327.5</ele>
        <time>2019-09-14T16:53:08Z</time>
      </trkpt>
      <trkpt lat="43.952" lon="5.29367">
        <ele>324.5</ele>
        <time>2019-09-14T16:53:14Z</time>
      </trkpt>
      <trkpt lat="43.95195" lon="5.29369">
        <ele>325.5</ele>
        <time>2019-09-14T16:53:19Z</time>
      </trkpt>
      <trkpt lat="43.95194" lon="5.29368">
        <ele>329.5</ele>
        <time>2019-09-14T16:53:24Z</time>
      </trkpt>
      <trkpt lat="43.9519" lon="5.2937">
        <ele>330.5</ele>
        <time>2019-09-14T16:53:29Z</time>
      </trkpt>
      <trkpt lat="43.95191" lon="5.29371">
        <ele>333.5</ele>
        <time>2019-09-14T16:53:35Z</time>
      </trkpt>
      <trkpt lat="43.95188" lon="5.29371">
        <ele>334.5</ele>
        <time>2019-09-14T16:53:40Z</time>
      </trkpt>
      <trkpt lat="43.95188" lon="5.29371">
        <ele>333.5</ele>
        <time>2019-09-14T16:53:46Z</time>
      </trkpt>
      <trkpt lat="43.95188" lon="5.29371">
        <ele>333.5</ele>
        <time>2019-09-14T16:53:52Z</time>
      </trkpt>
      <trkpt lat="43.95188" lon="5.29371">
        <ele>333.5</ele>
        <time>2019-09-14T16:53:57Z</time>
      </trkpt>
      <trkpt lat="43.95188" lon="5.29371">
        <ele>333.5</ele>
        <time>2019-09-14T16:54:02Z</time>
      </trkpt>
      <trkpt lat="43.95188" lon="5.29371">
        <ele>333.5</ele>
        <time>2019-09-14T16:54:08Z</time>
      </trkpt>
      <trkpt lat="43.95188" lon="5.29371">
        <ele>333.5</ele>
        <time>2019-09-14T16:54:14Z</time>
      </trkpt>
      <trkpt lat="43.95188" lon="5.29371">
        <ele>333.5</ele>
        <time>2019-09-14T16:54:19Z</time>
      </trkpt>
      <trkpt lat="43.95188" lon="5.29371">
        <ele>333.5</ele>
        <time>2019-09-14T16:54:25Z</time>
      </trkpt>
      <trkpt lat="43.95188" lon="5.29371">
        <ele>333.5</ele>
        <time>2019-09-14T16:54:30Z</time>
      </trkpt>
      <trkpt lat="43.95188" lon="5.29371">
        <ele>333.5</ele>
        <time>2019-09-14T16:54:35Z</time>
      </trkpt>
      <trkpt lat="43.95188" lon="5.29371">
        <ele>333.5</ele>
        <time>2019-09-14T16:54:41Z</time>
      </trkpt>
      <trkpt lat="43.95186" lon="5.29367">
        <ele>335.5</ele>
        <time>2019-09-14T16:54:46Z</time>
      </trkpt>
      <trkpt lat="43.95168" lon="5.29369">
        <ele>321.5</ele>
        <time>2019-09-14T16:54:52Z</time>
      </trkpt>
      <trkpt lat="43.95154" lon="5.29369">
        <ele>324.5</ele>
        <time>2019-09-14T16:54:57Z</time>
      </trkpt>
      <trkpt lat="43.95151" lon="5.29371">
        <ele>325.5</ele>
        <time>2019-09-14T16:55:04Z</time>
      </trkpt>
      <trkpt lat="43.9515" lon="5.29371">
        <ele>326.5</ele>
        <time>2019-09-14T16:55:10Z</time>
      </trkpt>
      <trkpt lat="43.9515" lon="5.29371">
        <ele>326.5</ele>
        <time>2019-09-14T16:55:16Z</time>
      </trkpt>
      <trkpt lat="43.9515" lon="5.29371">
        <ele>327.5</ele>
        <time>2019-09-14T16:55:21Z</time>
      </trkpt>
      <trkpt lat="43.9515" lon="5.29371">
        <ele>327.5</ele>
        <time>2019-09-14T16:55:26Z</time>
      </trkpt>
      <trkpt lat="43.9515" lon="5.29371">
        <ele>327.5</ele>
        <time>2019-09-14T16:55:31Z</time>
      </trkpt>
      <trkpt lat="43.9515" lon="5.29371">
        <ele>327.5</ele>
        <time>2019-09-14T16:55:36Z</time>
      </trkpt>
      <trkpt lat="43.9515" lon="5.29371">
        <ele>327.5</ele>
        <time>2019-09-14T16:55:41Z</time>
      </trkpt>
      <trkpt lat="43.9515" lon="5.29371">
        <ele>327.5</ele>
        <time>2019-09-14T16:55:46Z</time>
      </trkpt>
      <trkpt lat="43.9515" lon="5.29371">
        <ele>327.5</ele>
        <time>2019-09-14T16:55:52Z</time>
      </trkpt>
      <trkpt lat="43.95149" lon="5.29371">
        <ele>327.5</ele>
        <time>2019-09-14T16:55:57Z</time>
      </trkpt>
      <trkpt lat="43.95149" lon="5.29371">
        <ele>327.5</ele>
        <time>2019-09-14T16:56:02Z</time>
      </trkpt>
      <trkpt lat="43.95149" lon="5.29371">
        <ele>327.5</ele>
        <time>2019-09-14T16:56:08Z</time>
      </trkpt>
      <trkpt lat="43.95149" lon="5.29371">
        <ele>327.5</ele>
        <time>2019-09-14T16:56:13Z</time>
      </trkpt>
      <trkpt lat="43.95149" lon="5.29371">
        <ele>327.5</ele>
        <time>2019-09-14T16:56:19Z</time>
      </trkpt>
      <trkpt lat="43.95149" lon="5.29371">
        <ele>327.5</ele>
        <time>2019-09-14T16:56:25Z</time>
      </trkpt>
      <trkpt lat="43.95149" lon="5.29371">
        <ele>327.5</ele>
        <time>2019-09-14T16:56:30Z</time>
      </trkpt>
      <trkpt lat="43.95149" lon="5.29371">
        <ele>327.5</ele>
        <time>2019-09-14T16:56:35Z</time>
      </trkpt>
      <trkpt lat="43.95133" lon="5.29346">
        <ele>319.5</ele>
        <time>2019-09-14T16:56:40Z</time>
      </trkpt>
      <trkpt lat="43.9512" lon="5.29367">
        <ele>313.5</ele>
        <time>2019-09-14T16:56:46Z</time>
      </trkpt>
      <trkpt lat="43.95098" lon="5.29381">
        <ele>308.5</ele>
        <time>2019-09-14T16:56:53Z</time>
      </trkpt>
      <trkpt lat="43.95078" lon="5.29371">
        <ele>313.5</ele>
        <time>2019-09-14T16:56:59Z</time>
      </trkpt>
      <trkpt lat="43.95065" lon="5.29373">
        <ele>312.5</ele>
        <time>2019-09-14T16:57:04Z</time>
      </trkpt>
      <trkpt lat="43.95062" lon="5.29369">
        <ele>316.5</ele>
        <time>2019-09-14T16:57:10Z</time>
      </trkpt>
      <trkpt lat="43.95059" lon="5.29365">
        <ele>318.5</ele>
        <time>2019-09-14T16:57:15Z</time>
      </trkpt>
      <trkpt lat="43.95057" lon="5.29366">
        <ele>320.5</ele>
        <time>2019-09-14T16:57:21Z</time>
      </trkpt>
      <trkpt lat="43.95057" lon="5.29366">
        <ele>322.5</ele>
        <time>2019-09-14T16:57:26Z</time>
      </trkpt>
      <trkpt lat="43.95057" lon="5.29366">
        <ele>322.5</ele>
        <time>2019-09-14T16:57:32Z</time>
      </trkpt>
      <trkpt lat="43.95057" lon="5.29366">
        <ele>322.5</ele>
        <time>2019-09-14T16:57:37Z</time>
      </trkpt>
      <trkpt lat="43.95057" lon="5.29366">
        <ele>322.5</ele>
        <time>2019-09-14T16:57:42Z</time>
      </trkpt>
      <trkpt lat="43.95041" lon="5.29374">
        <ele>319.5</ele>
        <time>2019-09-14T16:57:49Z</time>
      </trkpt>
      <trkpt lat="43.95037" lon="5.29375">
        <ele>319.5</ele>
        <time>2019-09-14T16:57:54Z</time>
      </trkpt>
      <trkpt lat="43.95027" lon="5.29374">
        <ele>308.5</ele>
        <time>2019-09-14T16:58:01Z</time>
      </trkpt>
      <trkpt lat="43.95023" lon="5.29368">
        <ele>314.5</ele>
        <time>2019-09-14T16:58:06Z</time>
      </trkpt>
      <trkpt lat="43.95018" lon="5.29358">
        <ele>314.5</ele>
        <time>2019-09-14T16:58:12Z</time>
      </trkpt>
      <trkpt lat="43.95018" lon="5.29356">
        <ele>316.5</ele>
        <time>2019-09-14T16:58:18Z</time>
      </trkpt>
      <trkpt lat="43.95016" lon="5.29354">
        <ele>318.5</ele>
        <time>2019-09-14T16:58:23Z</time>
      </trkpt>
      <trkpt lat="43.95015" lon="5.29358">
        <ele>313.5</ele>
        <time>2019-09-14T16:58:28Z</time>
      </trkpt>
      <trkpt lat="43.95006" lon="5.29359">
        <ele>315.5</ele>
        <time>2019-09-14T16:58:34Z</time>
      </trkpt>
      <trkpt lat="43.95003" lon="5.29358">
        <ele>317.5</ele>
        <time>2019-09-14T16:58:39Z</time>
      </trkpt>
      <trkpt lat="43.94999" lon="5.29358">
        <ele>315.5</ele>
        <time>2019-09-14T16:58:45Z</time>
      </trkpt>
      <trkpt lat="43.94994" lon="5.29359">
        <ele>314.5</ele>
        <time>2019-09-14T16:58:51Z</time>
      </trkpt>
      <trkpt lat="43.94991" lon="5.29366">
        <ele>315.5</ele>
        <time>2019-09-14T16:58:57Z</time>
      </trkpt>
      <trkpt lat="43.94991" lon="5.29366">
        <ele>316.5</ele>
        <time>2019-09-14T16:59:02Z</time>
      </trkpt>
      <trkpt lat="43.9499" lon="5.29365">
        <ele>311.5</ele>
        <time>2019-09-14T16:59:07Z</time>
      </trkpt>
      <trkpt lat="43.94989" lon="5.29364">
        <ele>311.5</ele>
        <time>2019-09-14T16:59:13Z</time>
      </trkpt>
      <trkpt lat="43.94987" lon="5.29357">
        <ele>313.5</ele>
        <time>2019-09-14T16:59:19Z</time>
      </trkpt>
      <trkpt lat="43.94983" lon="5.29353">
        <ele>314.5</ele>
        <time>2019-09-14T16:59:24Z</time>
      </trkpt>
      <trkpt lat="43.9498" lon="5.29354">
        <ele>314.5</ele>
        <time>2019-09-14T16:59:29Z</time>
      </trkpt>
      <trkpt lat="43.94978" lon="5.29357">
        <ele>315.5</ele>
        <time>2019-09-14T16:59:35Z</time>
      </trkpt>
      <trkpt lat="43.94976" lon="5.29362">
        <ele>313.5</ele>
        <time>2019-09-14T16:59:41Z</time>
      </trkpt>
      <trkpt lat="43.94975" lon="5.29363">
        <ele>314.5</ele>
        <time>2019-09-14T16:59:46Z</time>
      </trkpt>
      <trkpt lat="43.94974" lon="5.29362">
        <ele>314.5</ele>
        <time>2019-09-14T16:59:53Z</time>
      </trkpt>
      <trkpt lat="43.94974" lon="5.29362">
        <ele>314.5</ele>
        <time>2019-09-14T16:59:58Z</time>
      </trkpt>
      <trkpt lat="43.94974" lon="5.29363">
        <ele>314.5</ele>
        <time>2019-09-14T17:00:04Z</time>
      </trkpt>
      <trkpt lat="43.94974" lon="5.29363">
        <ele>314.5</ele>
        <time>2019-09-14T17:00:09Z</time>
      </trkpt>
      <trkpt lat="43.94974" lon="5.29363">
        <ele>314.5</ele>
        <time>2019-09-14T17:00:14Z</time>
      </trkpt>
      <trkpt lat="43.94974" lon="5.29363">
        <ele>314.5</ele>
        <time>2019-09-14T17:00:20Z</time>
      </trkpt>
      <trkpt lat="43.94974" lon="5.29363">
        <ele>314.5</ele>
        <time>2019-09-14T17:00:25Z</time>
      </trkpt>
      <trkpt lat="43.94974" lon="5.29363">
        <ele>314.5</ele>
        <time>2019-09-14T17:00:31Z</time>
      </trkpt>
      <trkpt lat="43.94974" lon="5.29363">
        <ele>314.5</ele>
        <time>2019-09-14T17:00:36Z</time>
      </trkpt>
      <trkpt lat="43.9497" lon="5.29363">
        <ele>312.5</ele>
        <time>2019-09-14T17:00:42Z</time>
      </trkpt>
      <trkpt lat="43.94963" lon="5.29364">
        <ele>301.5</ele>
        <time>2019-09-14T17:00:47Z</time>
      </trkpt>
      <trkpt lat="43.9496" lon="5.29364">
        <ele>301.5</ele>
        <time>2019-09-14T17:00:53Z</time>
      </trkpt>
      <trkpt lat="43.94955" lon="5.29361">
        <ele>305.5</ele>
        <time>2019-09-14T17:00:58Z</time>
      </trkpt>
      <trkpt lat="43.94949" lon="5.29361">
        <ele>306.5</ele>
        <time>2019-09-14T17:01:04Z</time>
      </trkpt>
      <trkpt lat="43.94943" lon="5.29362">
        <ele>305.5</ele>
        <time>2019-09-14T17:01:09Z</time>
      </trkpt>
      <trkpt lat="43.94939" lon="5.29361">
        <ele>303.5</ele>
        <time>2019-09-14T17:01:15Z</time>
      </trkpt>
      <trkpt lat="43.94931" lon="5.29364">
        <ele>310.5</ele>
        <time>2019-09-14T17:01:20Z</time>
      </trkpt>
      <trkpt lat="43.94925" lon="5.29362">
        <ele>308.5</ele>
        <time>2019-09-14T17:01:26Z</time>
      </trkpt>
      <trkpt lat="43.94919" lon="5.29364">
        <ele>301.5</ele>
        <time>2019-09-14T17:01:32Z</time>
      </trkpt>
      <trkpt lat="43.94918" lon="5.29366">
        <ele>300.5</ele>
        <time>2019-09-14T17:01:37Z</time>
      </trkpt>
      <trkpt lat="43.94917" lon="5.29365">
        <ele>299.5</ele>
        <time>2019-09-14T17:01:43Z</time>
      </trkpt>
      <trkpt lat="43.94918" lon="5.29365">
        <ele>298.5</ele>
        <time>2019-09-14T17:01:49Z</time>
      </trkpt>
      <trkpt lat="43.94916" lon="5.29365">
        <ele>298.5</ele>
        <time>2019-09-14T17:01:55Z</time>
      </trkpt>
      <trkpt lat="43.94911" lon="5.29368">
        <ele>298.5</ele>
        <time>2019-09-14T17:02:01Z</time>
      </trkpt>
      <trkpt lat="43.94911" lon="5.29368">
        <ele>296.5</ele>
        <time>2019-09-14T17:02:06Z</time>
      </trkpt>
      <trkpt lat="43.9491" lon="5.29366">
        <ele>297.5</ele>
        <time>2019-09-14T17:02:12Z</time>
      </trkpt>
      <trkpt lat="43.94908" lon="5.29365">
        <ele>297.5</ele>
        <time>2019-09-14T17:02:18Z</time>
      </trkpt>
      <trkpt lat="43.94903" lon="5.29357">
        <ele>302.5</ele>
        <time>2019-09-14T17:02:23Z</time>
      </trkpt>
      <trkpt lat="43.949" lon="5.29349">
        <ele>301.5</ele>
        <time>2019-09-14T17:02:29Z</time>
      </trkpt>
      <trkpt lat="43.94899" lon="5.29356">
        <ele>297.5</ele>
        <time>2019-09-14T17:02:34Z</time>
      </trkpt>
      <trkpt lat="43.94897" lon="5.29353">
        <ele>301.5</ele>
        <time>2019-09-14T17:02:39Z</time>
      </trkpt>
      <trkpt lat="43.94897" lon="5.29353">
        <ele>302.5</ele>
        <time>2019-09-14T17:02:45Z</time>
      </trkpt>
      <trkpt lat="43.94896" lon="5.29353">
        <ele>303.5</ele>
        <time>2019-09-14T17:02:50Z</time>
      </trkpt>
      <trkpt lat="43.94896" lon="5.29353">
        <ele>303.5</ele>
        <time>2019-09-14T17:02:56Z</time>
      </trkpt>
      <trkpt lat="43.94896" lon="5.29353">
        <ele>303.5</ele>
        <time>2019-09-14T17:03:01Z</time>
      </trkpt>
      <trkpt lat="43.94893" lon="5.29352">
        <ele>304.5</ele>
        <time>2019-09-14T17:03:07Z</time>
      </trkpt>
      <trkpt lat="43.94891" lon="5.29352">
        <ele>305.5</ele>
        <time>2019-09-14T17:03:12Z</time>
      </trkpt>
      <trkpt lat="43.9489" lon="5.29349">
        <ele>305.5</ele>
        <time>2019-09-14T17:03:17Z</time>
      </trkpt>
      <trkpt lat="43.94878" lon="5.29349">
        <ele>308.5</ele>
        <time>2019-09-14T17:03:23Z</time>
      </trkpt>
      <trkpt lat="43.94876" lon="5.29351">
        <ele>308.5</ele>
        <time>2019-09-14T17:03:28Z</time>
      </trkpt>
      <trkpt lat="43.94874" lon="5.29354">
        <ele>308.5</ele>
        <time>2019-09-14T17:03:33Z</time>
      </trkpt>
      <trkpt lat="43.94874" lon="5.29354">
        <ele>310.5</ele>
        <time>2019-09-14T17:03:38Z</time>
      </trkpt>
      <trkpt lat="43.94874" lon="5.29354">
        <ele>310.5</ele>
        <time>2019-09-14T17:03:44Z</time>
      </trkpt>
      <trkpt lat="43.94874" lon="5.29354">
        <ele>310.5</ele>
        <time>2019-09-14T17:03:49Z</time>
      </trkpt>
      <trkpt lat="43.94874" lon="5.29354">
        <ele>310.5</ele>
        <time>2019-09-14T17:03:54Z</time>
      </trkpt>
      <trkpt lat="43.94874" lon="5.29354">
        <ele>310.5</ele>
        <time>2019-09-14T17:04:00Z</time>
      </trkpt>
      <trkpt lat="43.94871" lon="5.29357">
        <ele>309.5</ele>
        <time>2019-09-14T17:04:05Z</time>
      </trkpt>
      <trkpt lat="43.94859" lon="5.2936">
        <ele>300.5</ele>
        <time>2019-09-14T17:04:11Z</time>
      </trkpt>
      <trkpt lat="43.94855" lon="5.29364">
        <ele>303.5</ele>
        <time>2019-09-14T17:04:16Z</time>
      </trkpt>
      <trkpt lat="43.94848" lon="5.29365">
        <ele>300.5</ele>
        <time>2019-09-14T17:04:21Z</time>
      </trkpt>
      <trkpt lat="43.94847" lon="5.29364">
        <ele>302.5</ele>
        <time>2019-09-14T17:04:27Z</time>
      </trkpt>
      <trkpt lat="43.94847" lon="5.29365">
        <ele>300.5</ele>
        <time>2019-09-14T17:04:32Z</time>
      </trkpt>
      <trkpt lat="43.94846" lon="5.29364">
        <ele>300.5</ele>
        <time>2019-09-14T17:04:38Z</time>
      </trkpt>
      <trkpt lat="43.94845" lon="5.29361">
        <ele>300.5</ele>
        <time>2019-09-14T17:04:44Z</time>
      </trkpt>
      <trkpt lat="43.94839" lon="5.29362">
        <ele>298.5</ele>
        <time>2019-09-14T17:04:49Z</time>
      </trkpt>
      <trkpt lat="43.94832" lon="5.29362">
        <ele>303.5</ele>
        <time>2019-09-14T17:04:54Z</time>
      </trkpt>
      <trkpt lat="43.94828" lon="5.29367">
        <ele>300.5</ele>
        <time>2019-09-14T17:04:59Z</time>
      </trkpt>
      <trkpt lat="43.94826" lon="5.29362">
        <ele>297.5</ele>
        <time>2019-09-14T17:05:05Z</time>
      </trkpt>
      <trkpt lat="43.94826" lon="5.2936">
        <ele>293.5</ele>
        <time>2019-09-14T17:05:10Z</time>
      </trkpt>
      <trkpt lat="43.94822" lon="5.29362">
        <ele>293.5</ele>
        <time>2019-09-14T17:05:15Z</time>
      </trkpt>
      <trkpt lat="43.94823" lon="5.29363">
        <ele>292.5</ele>
        <time>2019-09-14T17:05:21Z</time>
      </trkpt>
      <trkpt lat="43.94821" lon="5.29365">
        <ele>292.5</ele>
        <time>2019-09-14T17:05:27Z</time>
      </trkpt>
      <trkpt lat="43.94821" lon="5.29364">
        <ele>293.5</ele>
        <time>2019-09-14T17:05:32Z</time>
      </trkpt>
      <trkpt lat="43.94818" lon="5.29365">
        <ele>290.5</ele>
        <time>2019-09-14T17:05:39Z</time>
      </trkpt>
      <trkpt lat="43.94816" lon="5.29354">
        <ele>296.5</ele>
        <time>2019-09-14T17:05:44Z</time>
      </trkpt>
      <trkpt lat="43.94814" lon="5.29357">
        <ele>292.5</ele>
        <time>2019-09-14T17:05:49Z</time>
      </trkpt>
      <trkpt lat="43.9481" lon="5.29354">
        <ele>298.5</ele>
        <time>2019-09-14T17:05:55Z</time>
      </trkpt>
      <trkpt lat="43.94804" lon="5.29351">
        <ele>299.5</ele>
        <time>2019-09-14T17:06:01Z</time>
      </trkpt>
      <trkpt lat="43.94799" lon="5.29357">
        <ele>298.5</ele>
        <time>2019-09-14T17:06:06Z</time>
      </trkpt>
      <trkpt lat="43.94795" lon="5.29348">
        <ele>296.5</ele>
        <time>2019-09-14T17:06:12Z</time>
      </trkpt>
      <trkpt lat="43.9479" lon="5.29352">
        <ele>297.5</ele>
        <time>2019-09-14T17:06:17Z</time>
      </trkpt>
      <trkpt lat="43.94792" lon="5.2935">
        <ele>297.5</ele>
        <time>2019-09-14T17:06:24Z</time>
      </trkpt>
      <trkpt lat="43.94781" lon="5.29351">
        <ele>298.5</ele>
        <time>2019-09-14T17:06:29Z</time>
      </trkpt>
      <trkpt lat="43.94782" lon="5.29348">
        <ele>296.5</ele>
        <time>2019-09-14T17:06:34Z</time>
      </trkpt>
      <trkpt lat="43.94782" lon="5.29346">
        <ele>295.5</ele>
        <time>2019-09-14T17:06:39Z</time>
      </trkpt>
      <trkpt lat="43.94781" lon="5.29346">
        <ele>296.5</ele>
        <time>2019-09-14T17:06:45Z</time>
      </trkpt>
      <trkpt lat="43.94781" lon="5.29346">
        <ele>296.5</ele>
        <time>2019-09-14T17:06:51Z</time>
      </trkpt>
      <trkpt lat="43.94782" lon="5.29345">
        <ele>295.5</ele>
        <time>2019-09-14T17:06:57Z</time>
      </trkpt>
      <trkpt lat="43.94777" lon="5.29342">
        <ele>291.5</ele>
        <time>2019-09-14T17:07:02Z</time>
      </trkpt>
      <trkpt lat="43.94771" lon="5.29335">
        <ele>295.5</ele>
        <time>2019-09-14T17:07:08Z</time>
      </trkpt>
      <trkpt lat="43.94764" lon="5.29325">
        <ele>300.5</ele>
        <time>2019-09-14T17:07:14Z</time>
      </trkpt>
      <trkpt lat="43.94761" lon="5.29324">
        <ele>297.5</ele>
        <time>2019-09-14T17:07:19Z</time>
      </trkpt>
      <trkpt lat="43.94759" lon="5.29323">
        <ele>296.5</ele>
        <time>2019-09-14T17:07:24Z</time>
      </trkpt>
      <trkpt lat="43.94751" lon="5.2932">
        <ele>294.5</ele>
        <time>2019-09-14T17:07:30Z</time>
      </trkpt>
      <trkpt lat="43.94747" lon="5.29315">
        <ele>291.5</ele>
        <time>2019-09-14T17:07:36Z</time>
      </trkpt>
      <trkpt lat="43.94743" lon="5.29319">
        <ele>290.5</ele>
        <time>2019-09-14T17:07:42Z</time>
      </trkpt>
      <trkpt lat="43.94739" lon="5.29315">
        <ele>292.5</ele>
        <time>2019-09-14T17:07:47Z</time>
      </trkpt>
      <trkpt lat="43.94737" lon="5.29315">
        <ele>291.5</ele>
        <time>2019-09-14T17:07:53Z</time>
      </trkpt>
      <trkpt lat="43.94734" lon="5.29312">
        <ele>292.5</ele>
        <time>2019-09-14T17:07:58Z</time>
      </trkpt>
      <trkpt lat="43.94731" lon="5.29305">
        <ele>288.5</ele>
        <time>2019-09-14T17:08:04Z</time>
      </trkpt>
      <trkpt lat="43.94726" lon="5.29312">
        <ele>283.5</ele>
        <time>2019-09-14T17:08:10Z</time>
      </trkpt>
      <trkpt lat="43.94722" lon="5.29306">
        <ele>283.5</ele>
        <time>2019-09-14T17:08:15Z</time>
      </trkpt>
      <trkpt lat="43.94721" lon="5.29306">
        <ele>285.5</ele>
        <time>2019-09-14T17:08:21Z</time>
      </trkpt>
      <trkpt lat="43.94719" lon="5.29303">
        <ele>283.5</ele>
        <time>2019-09-14T17:08:27Z</time>
      </trkpt>
      <trkpt lat="43.94715" lon="5.29302">
        <ele>283.5</ele>
        <time>2019-09-14T17:08:32Z</time>
      </trkpt>
      <trkpt lat="43.9471" lon="5.29301">
        <ele>284.5</ele>
        <time>2019-09-14T17:08:37Z</time>
      </trkpt>
      <trkpt lat="43.94705" lon="5.293">
        <ele>283.5</ele>
        <time>2019-09-14T17:08:43Z</time>
      </trkpt>
      <trkpt lat="43.94699" lon="5.29301">
        <ele>283.5</ele>
        <time>2019-09-14T17:08:49Z</time>
      </trkpt>
      <trkpt lat="43.94696" lon="5.29297">
        <ele>285.5</ele>
        <time>2019-09-14T17:08:54Z</time>
      </trkpt>
      <trkpt lat="43.94692" lon="5.29294">
        <ele>286.5</ele>
        <time>2019-09-14T17:09:00Z</time>
      </trkpt>
      <trkpt lat="43.94688" lon="5.29288">
        <ele>292.5</ele>
        <time>2019-09-14T17:09:06Z</time>
      </trkpt>
      <trkpt lat="43.94683" lon="5.29289">
        <ele>293.5</ele>
        <time>2019-09-14T17:09:11Z</time>
      </trkpt>
      <trkpt lat="43.94676" lon="5.29286">
        <ele>293.5</ele>
        <time>2019-09-14T17:09:17Z</time>
      </trkpt>
      <trkpt lat="43.94674" lon="5.29283">
        <ele>291.5</ele>
        <time>2019-09-14T17:09:22Z</time>
      </trkpt>
      <trkpt lat="43.94675" lon="5.29282">
        <ele>289.5</ele>
        <time>2019-09-14T17:09:27Z</time>
      </trkpt>
      <trkpt lat="43.94674" lon="5.29283">
        <ele>288.5</ele>
        <time>2019-09-14T17:09:34Z</time>
      </trkpt>
      <trkpt lat="43.94674" lon="5.29283">
        <ele>288.5</ele>
        <time>2019-09-14T17:09:39Z</time>
      </trkpt>
      <trkpt lat="43.94671" lon="5.29284">
        <ele>288.5</ele>
        <time>2019-09-14T17:09:44Z</time>
      </trkpt>
      <trkpt lat="43.94667" lon="5.29287">
        <ele>289.5</ele>
        <time>2019-09-14T17:09:50Z</time>
      </trkpt>
      <trkpt lat="43.94664" lon="5.2929">
        <ele>292.5</ele>
        <time>2019-09-14T17:09:56Z</time>
      </trkpt>
      <trkpt lat="43.94664" lon="5.2929">
        <ele>291.5</ele>
        <time>2019-09-14T17:10:01Z</time>
      </trkpt>
      <trkpt lat="43.94664" lon="5.2929">
        <ele>292.5</ele>
        <time>2019-09-14T17:10:06Z</time>
      </trkpt>
      <trkpt lat="43.94664" lon="5.2929">
        <ele>292.5</ele>
        <time>2019-09-14T17:10:11Z</time>
      </trkpt>
      <trkpt lat="43.94664" lon="5.2929">
        <ele>292.5</ele>
        <time>2019-09-14T17:10:16Z</time>
      </trkpt>
      <trkpt lat="43.94664" lon="5.2929">
        <ele>292.5</ele>
        <time>2019-09-14T17:10:22Z</time>
      </trkpt>
      <trkpt lat="43.94664" lon="5.2929">
        <ele>292.5</ele>
        <time>2019-09-14T17:10:27Z</time>
      </trkpt>
      <trkpt lat="43.94664" lon="5.2929">
        <ele>292.5</ele>
        <time>2019-09-14T17:10:32Z</time>
      </trkpt>
      <trkpt lat="43.94664" lon="5.2929">
        <ele>292.5</ele>
        <time>2019-09-14T17:10:37Z</time>
      </trkpt>
      <trkpt lat="43.94665" lon="5.29291">
        <ele>291.5</ele>
        <time>2019-09-14T17:10:42Z</time>
      </trkpt>
      <trkpt lat="43.94668" lon="5.29301">
        <ele>296.5</ele>
        <time>2019-09-14T17:10:47Z</time>
      </trkpt>
      <trkpt lat="43.94668" lon="5.29309">
        <ele>295.5</ele>
        <time>2019-09-14T17:10:53Z</time>
      </trkpt>
      <trkpt lat="43.94669" lon="5.29316">
        <ele>296.5</ele>
        <time>2019-09-14T17:10:59Z</time>
      </trkpt>
      <trkpt lat="43.94667" lon="5.29319">
        <ele>296.5</ele>
        <time>2019-09-14T17:11:04Z</time>
      </trkpt>
      <trkpt lat="43.94668" lon="5.29327">
        <ele>294.5</ele>
        <time>2019-09-14T17:11:10Z</time>
      </trkpt>
      <trkpt lat="43.94667" lon="5.29335">
        <ele>295.5</ele>
        <time>2019-09-14T17:11:15Z</time>
      </trkpt>
      <trkpt lat="43.94667" lon="5.29343">
        <ele>294.5</ele>
        <time>2019-09-14T17:11:21Z</time>
      </trkpt>
      <trkpt lat="43.94668" lon="5.29351">
        <ele>294.5</ele>
        <time>2019-09-14T17:11:26Z</time>
      </trkpt>
      <trkpt lat="43.94669" lon="5.29357">
        <ele>293.5</ele>
        <time>2019-09-14T17:11:32Z</time>
      </trkpt>
      <trkpt lat="43.9467" lon="5.29362">
        <ele>292.5</ele>
        <time>2019-09-14T17:11:38Z</time>
      </trkpt>
      <trkpt lat="43.94667" lon="5.29367">
        <ele>290.5</ele>
        <time>2019-09-14T17:11:44Z</time>
      </trkpt>
      <trkpt lat="43.94667" lon="5.29369">
        <ele>290.5</ele>
        <time>2019-09-14T17:11:49Z</time>
      </trkpt>
      <trkpt lat="43.94665" lon="5.29374">
        <ele>289.5</ele>
        <time>2019-09-14T17:11:54Z</time>
      </trkpt>
      <trkpt lat="43.94661" lon="5.2938">
        <ele>289.5</ele>
        <time>2019-09-14T17:11:59Z</time>
      </trkpt>
      <trkpt lat="43.94657" lon="5.2938">
        <ele>290.5</ele>
        <time>2019-09-14T17:12:05Z</time>
      </trkpt>
      <trkpt lat="43.94654" lon="5.29376">
        <ele>291.5</ele>
        <time>2019-09-14T17:12:11Z</time>
      </trkpt>
      <trkpt lat="43.94652" lon="5.29373">
        <ele>291.5</ele>
        <time>2019-09-14T17:12:17Z</time>
      </trkpt>
      <trkpt lat="43.94649" lon="5.29376">
        <ele>290.5</ele>
        <time>2019-09-14T17:12:23Z</time>
      </trkpt>
      <trkpt lat="43.94646" lon="5.29381">
        <ele>289.5</ele>
        <time>2019-09-14T17:12:28Z</time>
      </trkpt>
      <trkpt lat="43.94643" lon="5.29386">
        <ele>290.5</ele>
        <time>2019-09-14T17:12:33Z</time>
      </trkpt>
      <trkpt lat="43.94642" lon="5.29391">
        <ele>291.5</ele>
        <time>2019-09-14T17:12:39Z</time>
      </trkpt>
      <trkpt lat="43.9464" lon="5.29398">
        <ele>291.5</ele>
        <time>2019-09-14T17:12:44Z</time>
      </trkpt>
      <trkpt lat="43.94639" lon="5.29405">
        <ele>291.5</ele>
        <time>2019-09-14T17:12:49Z</time>
      </trkpt>
      <trkpt lat="43.94638" lon="5.29412">
        <ele>291.5</ele>
        <time>2019-09-14T17:12:54Z</time>
      </trkpt>
      <trkpt lat="43.94637" lon="5.29419">
        <ele>290.5</ele>
        <time>2019-09-14T17:13:00Z</time>
      </trkpt>
      <trkpt lat="43.94635" lon="5.29427">
        <ele>291.5</ele>
        <time>2019-09-14T17:13:05Z</time>
      </trkpt>
      <trkpt lat="43.94635" lon="5.29433">
        <ele>290.5</ele>
        <time>2019-09-14T17:13:11Z</time>
      </trkpt>
      <trkpt lat="43.94634" lon="5.2944">
        <ele>290.5</ele>
        <time>2019-09-14T17:13:18Z</time>
      </trkpt>
      <trkpt lat="43.94633" lon="5.29448">
        <ele>290.5</ele>
        <time>2019-09-14T17:13:23Z</time>
      </trkpt>
      <trkpt lat="43.94631" lon="5.29458">
        <ele>289.5</ele>
        <time>2019-09-14T17:13:29Z</time>
      </trkpt>
      <trkpt lat="43.9463" lon="5.29465">
        <ele>291.5</ele>
        <time>2019-09-14T17:13:34Z</time>
      </trkpt>
      <trkpt lat="43.94629" lon="5.29471">
        <ele>290.5</ele>
        <time>2019-09-14T17:13:39Z</time>
      </trkpt>
      <trkpt lat="43.94627" lon="5.29477">
        <ele>288.5</ele>
        <time>2019-09-14T17:13:45Z</time>
      </trkpt>
      <trkpt lat="43.94623" lon="5.29485">
        <ele>286.5</ele>
        <time>2019-09-14T17:13:51Z</time>
      </trkpt>
      <trkpt lat="43.94619" lon="5.29489">
        <ele>285.5</ele>
        <time>2019-09-14T17:13:57Z</time>
      </trkpt>
      <trkpt lat="43.94614" lon="5.29493">
        <ele>285.5</ele>
        <time>2019-09-14T17:14:02Z</time>
      </trkpt>
      <trkpt lat="43.9461" lon="5.29495">
        <ele>284.5</ele>
        <time>2019-09-14T17:14:08Z</time>
      </trkpt>
      <trkpt lat="43.94605" lon="5.29497">
        <ele>284.5</ele>
        <time>2019-09-14T17:14:14Z</time>
      </trkpt>
      <trkpt lat="43.94603" lon="5.29501">
        <ele>285.5</ele>
        <time>2019-09-14T17:14:19Z</time>
      </trkpt>
      <trkpt lat="43.94601" lon="5.29501">
        <ele>284.5</ele>
        <time>2019-09-14T17:14:24Z</time>
      </trkpt>
      <trkpt lat="43.94594" lon="5.29498">
        <ele>283.5</ele>
        <time>2019-09-14T17:14:30Z</time>
      </trkpt>
      <trkpt lat="43.94592" lon="5.29491">
        <ele>284.5</ele>
        <time>2019-09-14T17:14:35Z</time>
      </trkpt>
      <trkpt lat="43.94589" lon="5.29484">
        <ele>283.5</ele>
        <time>2019-09-14T17:14:41Z</time>
      </trkpt>
      <trkpt lat="43.94585" lon="5.29478">
        <ele>283.5</ele>
        <time>2019-09-14T17:14:47Z</time>
      </trkpt>
      <trkpt lat="43.94582" lon="5.29473">
        <ele>284.5</ele>
        <time>2019-09-14T17:14:52Z</time>
      </trkpt>
      <trkpt lat="43.94578" lon="5.29467">
        <ele>284.5</ele>
        <time>2019-09-14T17:14:58Z</time>
      </trkpt>
      <trkpt lat="43.94576" lon="5.29462">
        <ele>284.5</ele>
        <time>2019-09-14T17:15:03Z</time>
      </trkpt>
      <trkpt lat="43.94572" lon="5.29455">
        <ele>284.5</ele>
        <time>2019-09-14T17:15:09Z</time>
      </trkpt>
      <trkpt lat="43.94568" lon="5.2945">
        <ele>284.5</ele>
        <time>2019-09-14T17:15:14Z</time>
      </trkpt>
      <trkpt lat="43.94563" lon="5.29443">
        <ele>284.5</ele>
        <time>2019-09-14T17:15:20Z</time>
      </trkpt>
      <trkpt lat="43.94558" lon="5.29437">
        <ele>284.5</ele>
        <time>2019-09-14T17:15:26Z</time>
      </trkpt>
      <trkpt lat="43.94553" lon="5.2943">
        <ele>282.5</ele>
        <time>2019-09-14T17:15:31Z</time>
      </trkpt>
      <trkpt lat="43.94548" lon="5.29424">
        <ele>281.5</ele>
        <time>2019-09-14T17:15:37Z</time>
      </trkpt>
      <trkpt lat="43.94544" lon="5.29419">
        <ele>280.5</ele>
        <time>2019-09-14T17:15:42Z</time>
      </trkpt>
      <trkpt lat="43.94543" lon="5.29413">
        <ele>280.5</ele>
        <time>2019-09-14T17:15:48Z</time>
      </trkpt>
      <trkpt lat="43.9454" lon="5.29406">
        <ele>280.5</ele>
        <time>2019-09-14T17:15:53Z</time>
      </trkpt>
      <trkpt lat="43.94537" lon="5.294">
        <ele>279.5</ele>
        <time>2019-09-14T17:15:58Z</time>
      </trkpt>
      <trkpt lat="43.94534" lon="5.29395">
        <ele>281.5</ele>
        <time>2019-09-14T17:16:04Z</time>
      </trkpt>
      <trkpt lat="43.94533" lon="5.2939">
        <ele>283.5</ele>
        <time>2019-09-14T17:16:09Z</time>
      </trkpt>
      <trkpt lat="43.94531" lon="5.29386">
        <ele>282.5</ele>
        <time>2019-09-14T17:16:14Z</time>
      </trkpt>
      <trkpt lat="43.94525" lon="5.29383">
        <ele>283.5</ele>
        <time>2019-09-14T17:16:20Z</time>
      </trkpt>
      <trkpt lat="43.94522" lon="5.29381">
        <ele>284.5</ele>
        <time>2019-09-14T17:16:25Z</time>
      </trkpt>
      <trkpt lat="43.94516" lon="5.29381">
        <ele>281.5</ele>
        <time>2019-09-14T17:16:30Z</time>
      </trkpt>
      <trkpt lat="43.9451" lon="5.29381">
        <ele>281.5</ele>
        <time>2019-09-14T17:16:36Z</time>
      </trkpt>
      <trkpt lat="43.94508" lon="5.29377">
        <ele>281.5</ele>
        <time>2019-09-14T17:16:42Z</time>
      </trkpt>
      <trkpt lat="43.94506" lon="5.29373">
        <ele>281.5</ele>
        <time>2019-09-14T17:16:48Z</time>
      </trkpt>
      <trkpt lat="43.94503" lon="5.29374">
        <ele>280.5</ele>
        <time>2019-09-14T17:16:54Z</time>
      </trkpt>
      <trkpt lat="43.94503" lon="5.29374">
        <ele>282.5</ele>
        <time>2019-09-14T17:17:00Z</time>
      </trkpt>
      <trkpt lat="43.94503" lon="5.29375">
        <ele>281.5</ele>
        <time>2019-09-14T17:17:05Z</time>
      </trkpt>
      <trkpt lat="43.94503" lon="5.29375">
        <ele>282.5</ele>
        <time>2019-09-14T17:17:10Z</time>
      </trkpt>
      <trkpt lat="43.94503" lon="5.29375">
        <ele>282.5</ele>
        <time>2019-09-14T17:17:16Z</time>
      </trkpt>
      <trkpt lat="43.94503" lon="5.29375">
        <ele>282.5</ele>
        <time>2019-09-14T17:17:22Z</time>
      </trkpt>
      <trkpt lat="43.94503" lon="5.29375">
        <ele>282.5</ele>
        <time>2019-09-14T17:17:28Z</time>
      </trkpt>
      <trkpt lat="43.94503" lon="5.29375">
        <ele>282.5</ele>
        <time>2019-09-14T17:17:33Z</time>
      </trkpt>
      <trkpt lat="43.94503" lon="5.29375">
        <ele>282.5</ele>
        <time>2019-09-14T17:17:39Z</time>
      </trkpt>
      <trkpt lat="43.94503" lon="5.29375">
        <ele>282.5</ele>
        <time>2019-09-14T17:17:44Z</time>
      </trkpt>
      <trkpt lat="43.94503" lon="5.29375">
        <ele>282.5</ele>
        <time>2019-09-14T17:17:49Z</time>
      </trkpt>
      <trkpt lat="43.94503" lon="5.29375">
        <ele>282.5</ele>
        <time>2019-09-14T17:17:55Z</time>
      </trkpt>
      <trkpt lat="43.94503" lon="5.29375">
        <ele>282.5</ele>
        <time>2019-09-14T17:18:01Z</time>
      </trkpt>
      <trkpt lat="43.94503" lon="5.29375">
        <ele>282.5</ele>
        <time>2019-09-14T17:18:07Z</time>
      </trkpt>
      <trkpt lat="43.94503" lon="5.29375">
        <ele>282.5</ele>
        <time>2019-09-14T17:18:13Z</time>
      </trkpt>
      <trkpt lat="43.94503" lon="5.29375">
        <ele>282.5</ele>
        <time>2019-09-14T17:18:18Z</time>
      </trkpt>
      <trkpt lat="43.94503" lon="5.29375">
        <ele>282.5</ele>
        <time>2019-09-14T17:18:23Z</time>
      </trkpt>
      <trkpt lat="43.94503" lon="5.29375">
        <ele>282.5</ele>
        <time>2019-09-14T17:18:29Z</time>
      </trkpt>
      <trkpt lat="43.94503" lon="5.29375">
        <ele>282.5</ele>
        <time>2019-09-14T17:18:34Z</time>
      </trkpt>
      <trkpt lat="43.94503" lon="5.29375">
        <ele>282.5</ele>
        <time>2019-09-14T17:18:40Z</time>
      </trkpt>
      <trkpt lat="43.94503" lon="5.29375">
        <ele>282.5</ele>
        <time>2019-09-14T17:18:46Z</time>
      </trkpt>
      <trkpt lat="43.94503" lon="5.29375">
        <ele>282.5</ele>
        <time>2019-09-14T17:18:51Z</time>
      </trkpt>
      <trkpt lat="43.94503" lon="5.29375">
        <ele>282.5</ele>
        <time>2019-09-14T17:18:56Z</time>
      </trkpt>
      <trkpt lat="43.94503" lon="5.29375">
        <ele>282.5</ele>
        <time>2019-09-14T17:19:01Z</time>
      </trkpt>
      <trkpt lat="43.94503" lon="5.29375">
        <ele>282.5</ele>
        <time>2019-09-14T17:19:06Z</time>
      </trkpt>
      <trkpt lat="43.94503" lon="5.29375">
        <ele>282.5</ele>
        <time>2019-09-14T17:19:12Z</time>
      </trkpt>
      <trkpt lat="43.94503" lon="5.29375">
        <ele>282.5</ele>
        <time>2019-09-14T17:19:17Z</time>
      </trkpt>
      <trkpt lat="43.94503" lon="5.29375">
        <ele>282.5</ele>
        <time>2019-09-14T17:19:22Z</time>
      </trkpt>
    </trkseg>
  </trk>
</gpx>